<?xml version="1.0" encoding="UTF-8" standalone="no" ?>
<gpx xmlns="http://www.topografix.com/GPX/1/1" xmlns:xsi="http://www.w3.org/2001/XMLSchema-instance" xsi:schemaLocation="http://www.topografix.com/GPX/1/1 http://www.topografix.com/GPX/1/1/gpx.xsd" version="1.1" creator="VisuGPX - https://www.visugpx.com">
  <metadata>
    <name>VTT AM CABRIERES</name>
    <desc><![CDATA[Sortie AM sur Cabrières. Les montées sont essentiellement sur chemin et les descentes sur single. C'est ludique et varié, il n'y a pas de "coup de cul" à monter, c'est mieux quand il fait chaud !]]></desc>
  </metadata>
  <trk>
    <name><![CDATA[VTT AM CABRIERES_1]]></name>
    <trkseg>
      <trkpt lat="43.57735" lon="3.36241">
        <ele>165.4</ele>
        <time>2017-07-23T05:53:57Z</time>
      </trkpt>
      <trkpt lat="43.57737" lon="3.3625">
        <ele>163.2</ele>
        <time>2017-07-23T05:54:11Z</time>
      </trkpt>
      <trkpt lat="43.57739" lon="3.36254">
        <ele>167</ele>
        <time>2017-07-23T05:54:42Z</time>
      </trkpt>
      <trkpt lat="43.57737" lon="3.36258">
        <ele>171.2</ele>
        <time>2017-07-23T05:59:12Z</time>
      </trkpt>
      <trkpt lat="43.57736" lon="3.36264">
        <ele>171.2</ele>
        <time>2017-07-23T05:59:19Z</time>
      </trkpt>
      <trkpt lat="43.57737" lon="3.36258">
        <ele>171.6</ele>
        <time>2017-07-23T05:59:26Z</time>
      </trkpt>
      <trkpt lat="43.57734" lon="3.36258">
        <ele>171.7</ele>
        <time>2017-07-23T05:59:33Z</time>
      </trkpt>
      <trkpt lat="43.57733" lon="3.36259">
        <ele>171.8</ele>
        <time>2017-07-23T05:59:40Z</time>
      </trkpt>
      <trkpt lat="43.5773" lon="3.36258">
        <ele>171.7</ele>
        <time>2017-07-23T05:59:53Z</time>
      </trkpt>
      <trkpt lat="43.5773" lon="3.36258">
        <ele>171</ele>
        <time>2017-07-23T06:00:12Z</time>
      </trkpt>
      <trkpt lat="43.57733" lon="3.36258">
        <ele>170.7</ele>
        <time>2017-07-23T06:00:21Z</time>
      </trkpt>
      <trkpt lat="43.57734" lon="3.36259">
        <ele>170.9</ele>
        <time>2017-07-23T06:00:36Z</time>
      </trkpt>
      <trkpt lat="43.57735" lon="3.36259">
        <ele>171</ele>
        <time>2017-07-23T06:00:51Z</time>
      </trkpt>
      <trkpt lat="43.57738" lon="3.36258">
        <ele>171</ele>
        <time>2017-07-23T06:00:58Z</time>
      </trkpt>
      <trkpt lat="43.57737" lon="3.36256">
        <ele>170.3</ele>
        <time>2017-07-23T06:01:26Z</time>
      </trkpt>
      <trkpt lat="43.57732" lon="3.3626">
        <ele>170.3</ele>
        <time>2017-07-23T06:01:33Z</time>
      </trkpt>
      <trkpt lat="43.57732" lon="3.36266">
        <ele>170.3</ele>
        <time>2017-07-23T06:01:58Z</time>
      </trkpt>
      <trkpt lat="43.5773" lon="3.36266">
        <ele>170.2</ele>
        <time>2017-07-23T06:02:05Z</time>
      </trkpt>
      <trkpt lat="43.5773" lon="3.36262">
        <ele>171.1</ele>
        <time>2017-07-23T06:01:37Z</time>
      </trkpt>
      <trkpt lat="43.57733" lon="3.36264">
        <ele>171</ele>
        <time>2017-07-23T06:02:49Z</time>
      </trkpt>
      <trkpt lat="43.57732" lon="3.36263">
        <ele>171</ele>
        <time>2017-07-23T06:03:03Z</time>
      </trkpt>
      <trkpt lat="43.57733" lon="3.36264">
        <ele>171</ele>
        <time>2017-07-23T06:03:13Z</time>
      </trkpt>
      <trkpt lat="43.5773" lon="3.36264">
        <ele>171.3</ele>
        <time>2017-07-23T06:03:39Z</time>
      </trkpt>
      <trkpt lat="43.5773" lon="3.36262">
        <ele>171.5</ele>
        <time>2017-07-23T06:03:53Z</time>
      </trkpt>
      <trkpt lat="43.57733" lon="3.3626">
        <ele>171.9</ele>
        <time>2017-07-23T06:04:24Z</time>
      </trkpt>
      <trkpt lat="43.57737" lon="3.36264">
        <ele>171.8</ele>
        <time>2017-07-23T06:05:14Z</time>
      </trkpt>
      <trkpt lat="43.57739" lon="3.36263">
        <ele>171.7</ele>
        <time>2017-07-23T06:05:21Z</time>
      </trkpt>
      <trkpt lat="43.57739" lon="3.3626">
        <ele>171.7</ele>
        <time>2017-07-23T06:05:28Z</time>
      </trkpt>
      <trkpt lat="43.57737" lon="3.36265">
        <ele>171.8</ele>
        <time>2017-07-23T06:04:56Z</time>
      </trkpt>
      <trkpt lat="43.57738" lon="3.36262">
        <ele>171</ele>
        <time>2017-07-23T06:06:48Z</time>
      </trkpt>
      <trkpt lat="43.57739" lon="3.36262">
        <ele>171.6</ele>
        <time>2017-07-23T06:06:38Z</time>
      </trkpt>
      <trkpt lat="43.57741" lon="3.3626">
        <ele>172.6</ele>
        <time>2017-07-23T06:08:59Z</time>
      </trkpt>
      <trkpt lat="43.57734" lon="3.36264">
        <ele>172.5</ele>
        <time>2017-07-23T06:09:54Z</time>
      </trkpt>
      <trkpt lat="43.57736" lon="3.3626">
        <ele>172.7</ele>
        <time>2017-07-23T06:10:37Z</time>
      </trkpt>
      <trkpt lat="43.57738" lon="3.36262">
        <ele>172.6</ele>
        <time>2017-07-23T06:10:51Z</time>
      </trkpt>
      <trkpt lat="43.57736" lon="3.36257">
        <ele>174.2</ele>
        <time>2017-07-23T06:11:25Z</time>
      </trkpt>
      <trkpt lat="43.57739" lon="3.36262">
        <ele>174.8</ele>
        <time>2017-07-23T06:10:54Z</time>
      </trkpt>
      <trkpt lat="43.57741" lon="3.3626">
        <ele>175.1</ele>
        <time>2017-07-23T06:12:06Z</time>
      </trkpt>
      <trkpt lat="43.57737" lon="3.36271">
        <ele>175.5</ele>
        <time>2017-07-23T06:12:13Z</time>
      </trkpt>
      <trkpt lat="43.57741" lon="3.36283">
        <ele>175.3</ele>
        <time>2017-07-23T06:12:17Z</time>
      </trkpt>
      <trkpt lat="43.5775" lon="3.36281">
        <ele>174.9</ele>
        <time>2017-07-23T06:12:22Z</time>
      </trkpt>
      <trkpt lat="43.57756" lon="3.36273">
        <ele>174.7</ele>
        <time>2017-07-23T06:12:25Z</time>
      </trkpt>
      <trkpt lat="43.57763" lon="3.36266">
        <ele>174.4</ele>
        <time>2017-07-23T06:12:28Z</time>
      </trkpt>
      <trkpt lat="43.57768" lon="3.3626">
        <ele>174.1</ele>
        <time>2017-07-23T06:12:32Z</time>
      </trkpt>
      <trkpt lat="43.57775" lon="3.36254">
        <ele>173.9</ele>
        <time>2017-07-23T06:12:36Z</time>
      </trkpt>
      <trkpt lat="43.57782" lon="3.36249">
        <ele>173.9</ele>
        <time>2017-07-23T06:12:39Z</time>
      </trkpt>
      <trkpt lat="43.57789" lon="3.36245">
        <ele>173.9</ele>
        <time>2017-07-23T06:12:43Z</time>
      </trkpt>
      <trkpt lat="43.57798" lon="3.3624">
        <ele>174.1</ele>
        <time>2017-07-23T06:12:47Z</time>
      </trkpt>
      <trkpt lat="43.57806" lon="3.36237">
        <ele>174.3</ele>
        <time>2017-07-23T06:12:51Z</time>
      </trkpt>
      <trkpt lat="43.57815" lon="3.36231">
        <ele>174.3</ele>
        <time>2017-07-23T06:12:56Z</time>
      </trkpt>
      <trkpt lat="43.57821" lon="3.36223">
        <ele>174.5</ele>
        <time>2017-07-23T06:13:00Z</time>
      </trkpt>
      <trkpt lat="43.57829" lon="3.36219">
        <ele>174.7</ele>
        <time>2017-07-23T06:13:04Z</time>
      </trkpt>
      <trkpt lat="43.57838" lon="3.36216">
        <ele>174.9</ele>
        <time>2017-07-23T06:13:08Z</time>
      </trkpt>
      <trkpt lat="43.57844" lon="3.36209">
        <ele>174.9</ele>
        <time>2017-07-23T06:13:11Z</time>
      </trkpt>
      <trkpt lat="43.57851" lon="3.36204">
        <ele>175.2</ele>
        <time>2017-07-23T06:13:15Z</time>
      </trkpt>
      <trkpt lat="43.57853" lon="3.36194">
        <ele>175.6</ele>
        <time>2017-07-23T06:13:21Z</time>
      </trkpt>
      <trkpt lat="43.57854" lon="3.36182">
        <ele>176</ele>
        <time>2017-07-23T06:13:25Z</time>
      </trkpt>
      <trkpt lat="43.57863" lon="3.36176">
        <ele>176.6</ele>
        <time>2017-07-23T06:13:30Z</time>
      </trkpt>
      <trkpt lat="43.57869" lon="3.36169">
        <ele>177.2</ele>
        <time>2017-07-23T06:13:34Z</time>
      </trkpt>
      <trkpt lat="43.57873" lon="3.36158">
        <ele>178.1</ele>
        <time>2017-07-23T06:13:39Z</time>
      </trkpt>
      <trkpt lat="43.57882" lon="3.36151">
        <ele>179.1</ele>
        <time>2017-07-23T06:13:44Z</time>
      </trkpt>
      <trkpt lat="43.57889" lon="3.36152">
        <ele>180</ele>
        <time>2017-07-23T06:13:49Z</time>
      </trkpt>
      <trkpt lat="43.57897" lon="3.36152">
        <ele>181.1</ele>
        <time>2017-07-23T06:13:54Z</time>
      </trkpt>
      <trkpt lat="43.57905" lon="3.36151">
        <ele>181.8</ele>
        <time>2017-07-23T06:13:58Z</time>
      </trkpt>
      <trkpt lat="43.57914" lon="3.36148">
        <ele>182.9</ele>
        <time>2017-07-23T06:14:04Z</time>
      </trkpt>
      <trkpt lat="43.57923" lon="3.36146">
        <ele>183.9</ele>
        <time>2017-07-23T06:14:09Z</time>
      </trkpt>
      <trkpt lat="43.57931" lon="3.36141">
        <ele>184.9</ele>
        <time>2017-07-23T06:14:14Z</time>
      </trkpt>
      <trkpt lat="43.57937" lon="3.36134">
        <ele>185.7</ele>
        <time>2017-07-23T06:14:18Z</time>
      </trkpt>
      <trkpt lat="43.57943" lon="3.36125">
        <ele>186.4</ele>
        <time>2017-07-23T06:14:23Z</time>
      </trkpt>
      <trkpt lat="43.57948" lon="3.36116">
        <ele>187.1</ele>
        <time>2017-07-23T06:14:28Z</time>
      </trkpt>
      <trkpt lat="43.57952" lon="3.36105">
        <ele>188.1</ele>
        <time>2017-07-23T06:14:33Z</time>
      </trkpt>
      <trkpt lat="43.57958" lon="3.36098">
        <ele>189</ele>
        <time>2017-07-23T06:14:37Z</time>
      </trkpt>
      <trkpt lat="43.57963" lon="3.36089">
        <ele>189.8</ele>
        <time>2017-07-23T06:14:41Z</time>
      </trkpt>
      <trkpt lat="43.5797" lon="3.3608">
        <ele>190.5</ele>
        <time>2017-07-23T06:14:45Z</time>
      </trkpt>
      <trkpt lat="43.57974" lon="3.36071">
        <ele>191</ele>
        <time>2017-07-23T06:14:48Z</time>
      </trkpt>
      <trkpt lat="43.57979" lon="3.36062">
        <ele>191.6</ele>
        <time>2017-07-23T06:14:52Z</time>
      </trkpt>
      <trkpt lat="43.57984" lon="3.36053">
        <ele>192.3</ele>
        <time>2017-07-23T06:14:57Z</time>
      </trkpt>
      <trkpt lat="43.57988" lon="3.36044">
        <ele>192.9</ele>
        <time>2017-07-23T06:15:02Z</time>
      </trkpt>
      <trkpt lat="43.57994" lon="3.36035">
        <ele>193.3</ele>
        <time>2017-07-23T06:15:07Z</time>
      </trkpt>
      <trkpt lat="43.58" lon="3.36025">
        <ele>193.8</ele>
        <time>2017-07-23T06:15:11Z</time>
      </trkpt>
      <trkpt lat="43.58003" lon="3.36017">
        <ele>194.3</ele>
        <time>2017-07-23T06:15:15Z</time>
      </trkpt>
      <trkpt lat="43.5801" lon="3.36007">
        <ele>194.8</ele>
        <time>2017-07-23T06:15:20Z</time>
      </trkpt>
      <trkpt lat="43.58014" lon="3.35999">
        <ele>195.2</ele>
        <time>2017-07-23T06:15:24Z</time>
      </trkpt>
      <trkpt lat="43.58019" lon="3.35989">
        <ele>195.5</ele>
        <time>2017-07-23T06:15:29Z</time>
      </trkpt>
      <trkpt lat="43.58023" lon="3.35979">
        <ele>195.9</ele>
        <time>2017-07-23T06:15:34Z</time>
      </trkpt>
      <trkpt lat="43.58028" lon="3.35969">
        <ele>196.2</ele>
        <time>2017-07-23T06:15:40Z</time>
      </trkpt>
      <trkpt lat="43.58034" lon="3.3596">
        <ele>196.4</ele>
        <time>2017-07-23T06:15:44Z</time>
      </trkpt>
      <trkpt lat="43.5804" lon="3.3595">
        <ele>197</ele>
        <time>2017-07-23T06:15:48Z</time>
      </trkpt>
      <trkpt lat="43.58045" lon="3.35941">
        <ele>197.6</ele>
        <time>2017-07-23T06:15:53Z</time>
      </trkpt>
      <trkpt lat="43.58048" lon="3.35932">
        <ele>198</ele>
        <time>2017-07-23T06:15:58Z</time>
      </trkpt>
      <trkpt lat="43.58052" lon="3.35922">
        <ele>198.4</ele>
        <time>2017-07-23T06:16:04Z</time>
      </trkpt>
      <trkpt lat="43.58056" lon="3.35912">
        <ele>198.8</ele>
        <time>2017-07-23T06:16:08Z</time>
      </trkpt>
      <trkpt lat="43.5806" lon="3.35903">
        <ele>199</ele>
        <time>2017-07-23T06:16:12Z</time>
      </trkpt>
      <trkpt lat="43.58064" lon="3.35892">
        <ele>199.9</ele>
        <time>2017-07-23T06:16:18Z</time>
      </trkpt>
      <trkpt lat="43.58069" lon="3.35884">
        <ele>200.3</ele>
        <time>2017-07-23T06:16:22Z</time>
      </trkpt>
      <trkpt lat="43.58073" lon="3.35876">
        <ele>200.8</ele>
        <time>2017-07-23T06:16:27Z</time>
      </trkpt>
      <trkpt lat="43.58078" lon="3.35867">
        <ele>201.6</ele>
        <time>2017-07-23T06:16:32Z</time>
      </trkpt>
      <trkpt lat="43.58082" lon="3.35856">
        <ele>202.3</ele>
        <time>2017-07-23T06:16:37Z</time>
      </trkpt>
      <trkpt lat="43.58086" lon="3.35847">
        <ele>203.1</ele>
        <time>2017-07-23T06:16:42Z</time>
      </trkpt>
      <trkpt lat="43.58091" lon="3.35838">
        <ele>203.8</ele>
        <time>2017-07-23T06:16:46Z</time>
      </trkpt>
      <trkpt lat="43.58097" lon="3.3583">
        <ele>204.8</ele>
        <time>2017-07-23T06:16:50Z</time>
      </trkpt>
      <trkpt lat="43.58101" lon="3.35822">
        <ele>205.8</ele>
        <time>2017-07-23T06:16:54Z</time>
      </trkpt>
      <trkpt lat="43.58107" lon="3.35812">
        <ele>206.9</ele>
        <time>2017-07-23T06:16:58Z</time>
      </trkpt>
      <trkpt lat="43.5811" lon="3.35803">
        <ele>207.8</ele>
        <time>2017-07-23T06:17:02Z</time>
      </trkpt>
      <trkpt lat="43.58114" lon="3.35793">
        <ele>209.4</ele>
        <time>2017-07-23T06:17:07Z</time>
      </trkpt>
      <trkpt lat="43.58116" lon="3.35782">
        <ele>210.2</ele>
        <time>2017-07-23T06:17:11Z</time>
      </trkpt>
      <trkpt lat="43.58118" lon="3.35772">
        <ele>211</ele>
        <time>2017-07-23T06:17:15Z</time>
      </trkpt>
      <trkpt lat="43.58121" lon="3.35761">
        <ele>211.8</ele>
        <time>2017-07-23T06:17:19Z</time>
      </trkpt>
      <trkpt lat="43.58124" lon="3.35751">
        <ele>212.5</ele>
        <time>2017-07-23T06:17:23Z</time>
      </trkpt>
      <trkpt lat="43.58126" lon="3.35739">
        <ele>213.4</ele>
        <time>2017-07-23T06:17:27Z</time>
      </trkpt>
      <trkpt lat="43.58129" lon="3.35731">
        <ele>213.9</ele>
        <time>2017-07-23T06:17:30Z</time>
      </trkpt>
      <trkpt lat="43.58132" lon="3.35722">
        <ele>214.6</ele>
        <time>2017-07-23T06:17:34Z</time>
      </trkpt>
      <trkpt lat="43.58136" lon="3.35712">
        <ele>215.3</ele>
        <time>2017-07-23T06:17:38Z</time>
      </trkpt>
      <trkpt lat="43.5814" lon="3.35702">
        <ele>216</ele>
        <time>2017-07-23T06:17:42Z</time>
      </trkpt>
      <trkpt lat="43.58144" lon="3.35694">
        <ele>216.5</ele>
        <time>2017-07-23T06:17:46Z</time>
      </trkpt>
      <trkpt lat="43.58149" lon="3.35684">
        <ele>217.2</ele>
        <time>2017-07-23T06:17:51Z</time>
      </trkpt>
      <trkpt lat="43.58154" lon="3.35675">
        <ele>217.7</ele>
        <time>2017-07-23T06:17:55Z</time>
      </trkpt>
      <trkpt lat="43.58158" lon="3.35665">
        <ele>218.1</ele>
        <time>2017-07-23T06:17:59Z</time>
      </trkpt>
      <trkpt lat="43.58162" lon="3.35653">
        <ele>218.3</ele>
        <time>2017-07-23T06:18:03Z</time>
      </trkpt>
      <trkpt lat="43.58164" lon="3.35644">
        <ele>218.5</ele>
        <time>2017-07-23T06:18:07Z</time>
      </trkpt>
      <trkpt lat="43.58168" lon="3.35633">
        <ele>218.8</ele>
        <time>2017-07-23T06:18:10Z</time>
      </trkpt>
      <trkpt lat="43.58171" lon="3.35623">
        <ele>219.1</ele>
        <time>2017-07-23T06:18:13Z</time>
      </trkpt>
      <trkpt lat="43.58176" lon="3.35612">
        <ele>219.6</ele>
        <time>2017-07-23T06:18:17Z</time>
      </trkpt>
      <trkpt lat="43.58178" lon="3.35603">
        <ele>219.9</ele>
        <time>2017-07-23T06:18:20Z</time>
      </trkpt>
      <trkpt lat="43.5818" lon="3.35592">
        <ele>220.1</ele>
        <time>2017-07-23T06:18:23Z</time>
      </trkpt>
      <trkpt lat="43.58181" lon="3.35579">
        <ele>220.3</ele>
        <time>2017-07-23T06:18:26Z</time>
      </trkpt>
      <trkpt lat="43.58182" lon="3.35565">
        <ele>220.5</ele>
        <time>2017-07-23T06:18:29Z</time>
      </trkpt>
      <trkpt lat="43.58184" lon="3.35551">
        <ele>220.9</ele>
        <time>2017-07-23T06:18:32Z</time>
      </trkpt>
      <trkpt lat="43.58186" lon="3.35535">
        <ele>220.9</ele>
        <time>2017-07-23T06:18:35Z</time>
      </trkpt>
      <trkpt lat="43.58188" lon="3.35522">
        <ele>220.5</ele>
        <time>2017-07-23T06:18:37Z</time>
      </trkpt>
      <trkpt lat="43.58189" lon="3.3551">
        <ele>220</ele>
        <time>2017-07-23T06:18:39Z</time>
      </trkpt>
      <trkpt lat="43.58191" lon="3.35499">
        <ele>220</ele>
        <time>2017-07-23T06:18:41Z</time>
      </trkpt>
      <trkpt lat="43.58193" lon="3.3549">
        <ele>219.9</ele>
        <time>2017-07-23T06:18:43Z</time>
      </trkpt>
      <trkpt lat="43.58197" lon="3.3548">
        <ele>219.9</ele>
        <time>2017-07-23T06:18:45Z</time>
      </trkpt>
      <trkpt lat="43.582" lon="3.35472">
        <ele>219.9</ele>
        <time>2017-07-23T06:18:48Z</time>
      </trkpt>
      <trkpt lat="43.58203" lon="3.35461">
        <ele>220.1</ele>
        <time>2017-07-23T06:18:52Z</time>
      </trkpt>
      <trkpt lat="43.58202" lon="3.3545">
        <ele>219.9</ele>
        <time>2017-07-23T06:18:55Z</time>
      </trkpt>
      <trkpt lat="43.582" lon="3.35439">
        <ele>219.8</ele>
        <time>2017-07-23T06:18:58Z</time>
      </trkpt>
      <trkpt lat="43.58198" lon="3.35428">
        <ele>219.9</ele>
        <time>2017-07-23T06:19:01Z</time>
      </trkpt>
      <trkpt lat="43.58194" lon="3.35418">
        <ele>220</ele>
        <time>2017-07-23T06:19:04Z</time>
      </trkpt>
      <trkpt lat="43.5819" lon="3.3541">
        <ele>220.4</ele>
        <time>2017-07-23T06:19:08Z</time>
      </trkpt>
      <trkpt lat="43.58186" lon="3.35401">
        <ele>220.6</ele>
        <time>2017-07-23T06:19:11Z</time>
      </trkpt>
      <trkpt lat="43.58184" lon="3.3539">
        <ele>221</ele>
        <time>2017-07-23T06:19:15Z</time>
      </trkpt>
      <trkpt lat="43.58182" lon="3.35381">
        <ele>221.2</ele>
        <time>2017-07-23T06:19:18Z</time>
      </trkpt>
      <trkpt lat="43.58179" lon="3.35369">
        <ele>221.5</ele>
        <time>2017-07-23T06:19:22Z</time>
      </trkpt>
      <trkpt lat="43.58178" lon="3.35358">
        <ele>221.7</ele>
        <time>2017-07-23T06:19:25Z</time>
      </trkpt>
      <trkpt lat="43.58177" lon="3.35347">
        <ele>221.9</ele>
        <time>2017-07-23T06:19:29Z</time>
      </trkpt>
      <trkpt lat="43.58175" lon="3.35336">
        <ele>222.2</ele>
        <time>2017-07-23T06:19:33Z</time>
      </trkpt>
      <trkpt lat="43.58174" lon="3.35324">
        <ele>222.3</ele>
        <time>2017-07-23T06:19:37Z</time>
      </trkpt>
      <trkpt lat="43.58173" lon="3.35314">
        <ele>222.4</ele>
        <time>2017-07-23T06:19:40Z</time>
      </trkpt>
      <trkpt lat="43.58171" lon="3.35301">
        <ele>222.9</ele>
        <time>2017-07-23T06:19:44Z</time>
      </trkpt>
      <trkpt lat="43.58169" lon="3.3529">
        <ele>223.3</ele>
        <time>2017-07-23T06:19:48Z</time>
      </trkpt>
      <trkpt lat="43.58167" lon="3.35278">
        <ele>223.8</ele>
        <time>2017-07-23T06:19:52Z</time>
      </trkpt>
      <trkpt lat="43.58164" lon="3.35267">
        <ele>224.4</ele>
        <time>2017-07-23T06:19:58Z</time>
      </trkpt>
      <trkpt lat="43.58162" lon="3.35254">
        <ele>224.9</ele>
        <time>2017-07-23T06:20:02Z</time>
      </trkpt>
      <trkpt lat="43.58162" lon="3.35242">
        <ele>225.6</ele>
        <time>2017-07-23T06:20:06Z</time>
      </trkpt>
      <trkpt lat="43.5816" lon="3.35231">
        <ele>226.2</ele>
        <time>2017-07-23T06:20:10Z</time>
      </trkpt>
      <trkpt lat="43.58159" lon="3.35221">
        <ele>226.5</ele>
        <time>2017-07-23T06:20:13Z</time>
      </trkpt>
      <trkpt lat="43.58157" lon="3.35208">
        <ele>227</ele>
        <time>2017-07-23T06:20:17Z</time>
      </trkpt>
      <trkpt lat="43.58155" lon="3.35199">
        <ele>227.4</ele>
        <time>2017-07-23T06:20:20Z</time>
      </trkpt>
      <trkpt lat="43.58154" lon="3.35187">
        <ele>228.1</ele>
        <time>2017-07-23T06:20:24Z</time>
      </trkpt>
      <trkpt lat="43.58152" lon="3.35174">
        <ele>229.2</ele>
        <time>2017-07-23T06:20:28Z</time>
      </trkpt>
      <trkpt lat="43.5815" lon="3.35164">
        <ele>229.9</ele>
        <time>2017-07-23T06:20:31Z</time>
      </trkpt>
      <trkpt lat="43.58147" lon="3.35154">
        <ele>230.5</ele>
        <time>2017-07-23T06:20:35Z</time>
      </trkpt>
      <trkpt lat="43.58147" lon="3.35143">
        <ele>230.9</ele>
        <time>2017-07-23T06:20:38Z</time>
      </trkpt>
      <trkpt lat="43.58145" lon="3.35133">
        <ele>231.4</ele>
        <time>2017-07-23T06:20:41Z</time>
      </trkpt>
      <trkpt lat="43.58145" lon="3.35121">
        <ele>232.1</ele>
        <time>2017-07-23T06:20:45Z</time>
      </trkpt>
      <trkpt lat="43.58145" lon="3.35109">
        <ele>233</ele>
        <time>2017-07-23T06:20:49Z</time>
      </trkpt>
      <trkpt lat="43.58144" lon="3.35099">
        <ele>234.1</ele>
        <time>2017-07-23T06:20:53Z</time>
      </trkpt>
      <trkpt lat="43.58141" lon="3.35089">
        <ele>234.8</ele>
        <time>2017-07-23T06:20:56Z</time>
      </trkpt>
      <trkpt lat="43.58139" lon="3.35077">
        <ele>235.6</ele>
        <time>2017-07-23T06:21:00Z</time>
      </trkpt>
      <trkpt lat="43.58138" lon="3.35066">
        <ele>236.4</ele>
        <time>2017-07-23T06:21:04Z</time>
      </trkpt>
      <trkpt lat="43.58138" lon="3.35054">
        <ele>237.1</ele>
        <time>2017-07-23T06:21:08Z</time>
      </trkpt>
      <trkpt lat="43.58137" lon="3.35044">
        <ele>238.1</ele>
        <time>2017-07-23T06:21:12Z</time>
      </trkpt>
      <trkpt lat="43.58136" lon="3.35034">
        <ele>239.1</ele>
        <time>2017-07-23T06:21:16Z</time>
      </trkpt>
      <trkpt lat="43.58136" lon="3.35022">
        <ele>240.1</ele>
        <time>2017-07-23T06:21:20Z</time>
      </trkpt>
      <trkpt lat="43.58136" lon="3.35012">
        <ele>241.3</ele>
        <time>2017-07-23T06:21:25Z</time>
      </trkpt>
      <trkpt lat="43.58135" lon="3.35">
        <ele>242</ele>
        <time>2017-07-23T06:21:29Z</time>
      </trkpt>
      <trkpt lat="43.58133" lon="3.34988">
        <ele>242.8</ele>
        <time>2017-07-23T06:21:33Z</time>
      </trkpt>
      <trkpt lat="43.58132" lon="3.34977">
        <ele>243.7</ele>
        <time>2017-07-23T06:21:37Z</time>
      </trkpt>
      <trkpt lat="43.58131" lon="3.34966">
        <ele>244.9</ele>
        <time>2017-07-23T06:21:41Z</time>
      </trkpt>
      <trkpt lat="43.58132" lon="3.34956">
        <ele>245.7</ele>
        <time>2017-07-23T06:21:44Z</time>
      </trkpt>
      <trkpt lat="43.58131" lon="3.34944">
        <ele>246.6</ele>
        <time>2017-07-23T06:21:49Z</time>
      </trkpt>
      <trkpt lat="43.5813" lon="3.34932">
        <ele>247.2</ele>
        <time>2017-07-23T06:21:54Z</time>
      </trkpt>
      <trkpt lat="43.5813" lon="3.3492">
        <ele>247.8</ele>
        <time>2017-07-23T06:21:58Z</time>
      </trkpt>
      <trkpt lat="43.58129" lon="3.34908">
        <ele>248.6</ele>
        <time>2017-07-23T06:22:02Z</time>
      </trkpt>
      <trkpt lat="43.58128" lon="3.34897">
        <ele>249.4</ele>
        <time>2017-07-23T06:22:06Z</time>
      </trkpt>
      <trkpt lat="43.58126" lon="3.34887">
        <ele>249.8</ele>
        <time>2017-07-23T06:22:09Z</time>
      </trkpt>
      <trkpt lat="43.58124" lon="3.34876">
        <ele>250.3</ele>
        <time>2017-07-23T06:22:13Z</time>
      </trkpt>
      <trkpt lat="43.58123" lon="3.34865">
        <ele>251.3</ele>
        <time>2017-07-23T06:22:18Z</time>
      </trkpt>
      <trkpt lat="43.58123" lon="3.34854">
        <ele>252</ele>
        <time>2017-07-23T06:22:21Z</time>
      </trkpt>
      <trkpt lat="43.58123" lon="3.34841">
        <ele>252.8</ele>
        <time>2017-07-23T06:22:25Z</time>
      </trkpt>
      <trkpt lat="43.58122" lon="3.3483">
        <ele>253.8</ele>
        <time>2017-07-23T06:22:29Z</time>
      </trkpt>
      <trkpt lat="43.58121" lon="3.3482">
        <ele>254.5</ele>
        <time>2017-07-23T06:22:32Z</time>
      </trkpt>
      <trkpt lat="43.58117" lon="3.34811">
        <ele>255.4</ele>
        <time>2017-07-23T06:22:36Z</time>
      </trkpt>
      <trkpt lat="43.58113" lon="3.34802">
        <ele>256.7</ele>
        <time>2017-07-23T06:22:41Z</time>
      </trkpt>
      <trkpt lat="43.58108" lon="3.34794">
        <ele>257.8</ele>
        <time>2017-07-23T06:22:45Z</time>
      </trkpt>
      <trkpt lat="43.58102" lon="3.34787">
        <ele>258.7</ele>
        <time>2017-07-23T06:22:49Z</time>
      </trkpt>
      <trkpt lat="43.58096" lon="3.34778">
        <ele>259.5</ele>
        <time>2017-07-23T06:22:53Z</time>
      </trkpt>
      <trkpt lat="43.58092" lon="3.34767">
        <ele>260.2</ele>
        <time>2017-07-23T06:22:57Z</time>
      </trkpt>
      <trkpt lat="43.58086" lon="3.34761">
        <ele>260.8</ele>
        <time>2017-07-23T06:23:01Z</time>
      </trkpt>
      <trkpt lat="43.58079" lon="3.34767">
        <ele>262</ele>
        <time>2017-07-23T06:23:07Z</time>
      </trkpt>
      <trkpt lat="43.5808" lon="3.34778">
        <ele>263.5</ele>
        <time>2017-07-23T06:23:13Z</time>
      </trkpt>
      <trkpt lat="43.58083" lon="3.34789">
        <ele>265</ele>
        <time>2017-07-23T06:23:18Z</time>
      </trkpt>
      <trkpt lat="43.58086" lon="3.34799">
        <ele>266</ele>
        <time>2017-07-23T06:23:21Z</time>
      </trkpt>
      <trkpt lat="43.58086" lon="3.3481">
        <ele>267</ele>
        <time>2017-07-23T06:23:24Z</time>
      </trkpt>
      <trkpt lat="43.58086" lon="3.34822">
        <ele>268</ele>
        <time>2017-07-23T06:23:28Z</time>
      </trkpt>
      <trkpt lat="43.58086" lon="3.34834">
        <ele>268.9</ele>
        <time>2017-07-23T06:23:32Z</time>
      </trkpt>
      <trkpt lat="43.58086" lon="3.34848">
        <ele>269.7</ele>
        <time>2017-07-23T06:23:36Z</time>
      </trkpt>
      <trkpt lat="43.58088" lon="3.34859">
        <ele>270.6</ele>
        <time>2017-07-23T06:23:40Z</time>
      </trkpt>
      <trkpt lat="43.58088" lon="3.34869">
        <ele>271.1</ele>
        <time>2017-07-23T06:23:43Z</time>
      </trkpt>
      <trkpt lat="43.58088" lon="3.34881">
        <ele>271.6</ele>
        <time>2017-07-23T06:23:46Z</time>
      </trkpt>
      <trkpt lat="43.58086" lon="3.34895">
        <ele>272.1</ele>
        <time>2017-07-23T06:23:50Z</time>
      </trkpt>
      <trkpt lat="43.58085" lon="3.34905">
        <ele>272.3</ele>
        <time>2017-07-23T06:23:53Z</time>
      </trkpt>
      <trkpt lat="43.58083" lon="3.34917">
        <ele>272.6</ele>
        <time>2017-07-23T06:23:57Z</time>
      </trkpt>
      <trkpt lat="43.58079" lon="3.34929">
        <ele>272.8</ele>
        <time>2017-07-23T06:24:01Z</time>
      </trkpt>
      <trkpt lat="43.58075" lon="3.34939">
        <ele>272.9</ele>
        <time>2017-07-23T06:24:05Z</time>
      </trkpt>
      <trkpt lat="43.58071" lon="3.3495">
        <ele>273</ele>
        <time>2017-07-23T06:24:09Z</time>
      </trkpt>
      <trkpt lat="43.58069" lon="3.34961">
        <ele>273.1</ele>
        <time>2017-07-23T06:24:13Z</time>
      </trkpt>
      <trkpt lat="43.58065" lon="3.34973">
        <ele>273.3</ele>
        <time>2017-07-23T06:24:17Z</time>
      </trkpt>
      <trkpt lat="43.58062" lon="3.34984">
        <ele>273.6</ele>
        <time>2017-07-23T06:24:21Z</time>
      </trkpt>
      <trkpt lat="43.58058" lon="3.34993">
        <ele>273.7</ele>
        <time>2017-07-23T06:24:24Z</time>
      </trkpt>
      <trkpt lat="43.58055" lon="3.35003">
        <ele>273.9</ele>
        <time>2017-07-23T06:24:28Z</time>
      </trkpt>
      <trkpt lat="43.58052" lon="3.35012">
        <ele>274.4</ele>
        <time>2017-07-23T06:24:32Z</time>
      </trkpt>
      <trkpt lat="43.58048" lon="3.35022">
        <ele>275.1</ele>
        <time>2017-07-23T06:24:36Z</time>
      </trkpt>
      <trkpt lat="43.58044" lon="3.3503">
        <ele>275.4</ele>
        <time>2017-07-23T06:24:39Z</time>
      </trkpt>
      <trkpt lat="43.58039" lon="3.35038">
        <ele>275.6</ele>
        <time>2017-07-23T06:24:42Z</time>
      </trkpt>
      <trkpt lat="43.58035" lon="3.3505">
        <ele>276.1</ele>
        <time>2017-07-23T06:24:47Z</time>
      </trkpt>
      <trkpt lat="43.58029" lon="3.35058">
        <ele>276.5</ele>
        <time>2017-07-23T06:24:50Z</time>
      </trkpt>
      <trkpt lat="43.58022" lon="3.35063">
        <ele>277</ele>
        <time>2017-07-23T06:24:54Z</time>
      </trkpt>
      <trkpt lat="43.58014" lon="3.35057">
        <ele>277.3</ele>
        <time>2017-07-23T06:24:58Z</time>
      </trkpt>
      <trkpt lat="43.5801" lon="3.35048">
        <ele>277.6</ele>
        <time>2017-07-23T06:25:01Z</time>
      </trkpt>
      <trkpt lat="43.58009" lon="3.35037">
        <ele>277.9</ele>
        <time>2017-07-23T06:25:05Z</time>
      </trkpt>
      <trkpt lat="43.5801" lon="3.35027">
        <ele>278.2</ele>
        <time>2017-07-23T06:25:09Z</time>
      </trkpt>
      <trkpt lat="43.58009" lon="3.35017">
        <ele>278.5</ele>
        <time>2017-07-23T06:25:13Z</time>
      </trkpt>
      <trkpt lat="43.58009" lon="3.35004">
        <ele>279</ele>
        <time>2017-07-23T06:25:17Z</time>
      </trkpt>
      <trkpt lat="43.58008" lon="3.34992">
        <ele>279.4</ele>
        <time>2017-07-23T06:25:21Z</time>
      </trkpt>
      <trkpt lat="43.58008" lon="3.34983">
        <ele>279.7</ele>
        <time>2017-07-23T06:25:24Z</time>
      </trkpt>
      <trkpt lat="43.58007" lon="3.34972">
        <ele>280.1</ele>
        <time>2017-07-23T06:25:27Z</time>
      </trkpt>
      <trkpt lat="43.58005" lon="3.34959">
        <ele>280.8</ele>
        <time>2017-07-23T06:25:31Z</time>
      </trkpt>
      <trkpt lat="43.58002" lon="3.34949">
        <ele>281.4</ele>
        <time>2017-07-23T06:25:35Z</time>
      </trkpt>
      <trkpt lat="43.57999" lon="3.3494">
        <ele>282</ele>
        <time>2017-07-23T06:25:39Z</time>
      </trkpt>
      <trkpt lat="43.57995" lon="3.34929">
        <ele>282.4</ele>
        <time>2017-07-23T06:25:43Z</time>
      </trkpt>
      <trkpt lat="43.57992" lon="3.34917">
        <ele>282.9</ele>
        <time>2017-07-23T06:25:47Z</time>
      </trkpt>
      <trkpt lat="43.5799" lon="3.34907">
        <ele>283.2</ele>
        <time>2017-07-23T06:25:50Z</time>
      </trkpt>
      <trkpt lat="43.57991" lon="3.34894">
        <ele>283.7</ele>
        <time>2017-07-23T06:25:54Z</time>
      </trkpt>
      <trkpt lat="43.57991" lon="3.34881">
        <ele>284.2</ele>
        <time>2017-07-23T06:25:58Z</time>
      </trkpt>
      <trkpt lat="43.57992" lon="3.34871">
        <ele>284.7</ele>
        <time>2017-07-23T06:26:01Z</time>
      </trkpt>
      <trkpt lat="43.57995" lon="3.34859">
        <ele>285.2</ele>
        <time>2017-07-23T06:26:05Z</time>
      </trkpt>
      <trkpt lat="43.57996" lon="3.34849">
        <ele>285.6</ele>
        <time>2017-07-23T06:26:08Z</time>
      </trkpt>
      <trkpt lat="43.57999" lon="3.3484">
        <ele>285.9</ele>
        <time>2017-07-23T06:26:11Z</time>
      </trkpt>
      <trkpt lat="43.58001" lon="3.34827">
        <ele>286.2</ele>
        <time>2017-07-23T06:26:15Z</time>
      </trkpt>
      <trkpt lat="43.58002" lon="3.34816">
        <ele>286.6</ele>
        <time>2017-07-23T06:26:18Z</time>
      </trkpt>
      <trkpt lat="43.58001" lon="3.34806">
        <ele>287.1</ele>
        <time>2017-07-23T06:26:21Z</time>
      </trkpt>
      <trkpt lat="43.58" lon="3.34795">
        <ele>287.6</ele>
        <time>2017-07-23T06:26:24Z</time>
      </trkpt>
      <trkpt lat="43.57999" lon="3.34784">
        <ele>288.4</ele>
        <time>2017-07-23T06:26:28Z</time>
      </trkpt>
      <trkpt lat="43.57997" lon="3.34772">
        <ele>289</ele>
        <time>2017-07-23T06:26:32Z</time>
      </trkpt>
      <trkpt lat="43.57995" lon="3.3476">
        <ele>289.6</ele>
        <time>2017-07-23T06:26:36Z</time>
      </trkpt>
      <trkpt lat="43.57996" lon="3.34747">
        <ele>290.1</ele>
        <time>2017-07-23T06:26:40Z</time>
      </trkpt>
      <trkpt lat="43.57998" lon="3.34737">
        <ele>290.4</ele>
        <time>2017-07-23T06:26:44Z</time>
      </trkpt>
      <trkpt lat="43.58" lon="3.34725">
        <ele>290.7</ele>
        <time>2017-07-23T06:26:48Z</time>
      </trkpt>
      <trkpt lat="43.58002" lon="3.34715">
        <ele>291.1</ele>
        <time>2017-07-23T06:26:51Z</time>
      </trkpt>
      <trkpt lat="43.58002" lon="3.34703">
        <ele>291.8</ele>
        <time>2017-07-23T06:26:55Z</time>
      </trkpt>
      <trkpt lat="43.58001" lon="3.34691">
        <ele>292.7</ele>
        <time>2017-07-23T06:26:59Z</time>
      </trkpt>
      <trkpt lat="43.58" lon="3.34679">
        <ele>293.3</ele>
        <time>2017-07-23T06:27:02Z</time>
      </trkpt>
      <trkpt lat="43.57999" lon="3.34667">
        <ele>294</ele>
        <time>2017-07-23T06:27:06Z</time>
      </trkpt>
      <trkpt lat="43.57997" lon="3.34654">
        <ele>294.8</ele>
        <time>2017-07-23T06:27:10Z</time>
      </trkpt>
      <trkpt lat="43.57994" lon="3.34645">
        <ele>295.4</ele>
        <time>2017-07-23T06:27:14Z</time>
      </trkpt>
      <trkpt lat="43.57991" lon="3.34634">
        <ele>296.2</ele>
        <time>2017-07-23T06:27:18Z</time>
      </trkpt>
      <trkpt lat="43.57989" lon="3.34623">
        <ele>297.1</ele>
        <time>2017-07-23T06:27:23Z</time>
      </trkpt>
      <trkpt lat="43.57988" lon="3.34611">
        <ele>297.9</ele>
        <time>2017-07-23T06:27:27Z</time>
      </trkpt>
      <trkpt lat="43.5799" lon="3.346">
        <ele>299</ele>
        <time>2017-07-23T06:27:32Z</time>
      </trkpt>
      <trkpt lat="43.57989" lon="3.34589">
        <ele>300.1</ele>
        <time>2017-07-23T06:27:37Z</time>
      </trkpt>
      <trkpt lat="43.57988" lon="3.34578">
        <ele>301.1</ele>
        <time>2017-07-23T06:27:41Z</time>
      </trkpt>
      <trkpt lat="43.57986" lon="3.34568">
        <ele>302.1</ele>
        <time>2017-07-23T06:27:45Z</time>
      </trkpt>
      <trkpt lat="43.57985" lon="3.34559">
        <ele>303</ele>
        <time>2017-07-23T06:27:49Z</time>
      </trkpt>
      <trkpt lat="43.57984" lon="3.34549">
        <ele>303.8</ele>
        <time>2017-07-23T06:27:53Z</time>
      </trkpt>
      <trkpt lat="43.57981" lon="3.34538">
        <ele>304.3</ele>
        <time>2017-07-23T06:27:56Z</time>
      </trkpt>
      <trkpt lat="43.57979" lon="3.34529">
        <ele>305</ele>
        <time>2017-07-23T06:28:00Z</time>
      </trkpt>
      <trkpt lat="43.57974" lon="3.34519">
        <ele>305.9</ele>
        <time>2017-07-23T06:28:05Z</time>
      </trkpt>
      <trkpt lat="43.57971" lon="3.34509">
        <ele>306.4</ele>
        <time>2017-07-23T06:28:08Z</time>
      </trkpt>
      <trkpt lat="43.57967" lon="3.34498">
        <ele>307.1</ele>
        <time>2017-07-23T06:28:13Z</time>
      </trkpt>
      <trkpt lat="43.57967" lon="3.34487">
        <ele>308</ele>
        <time>2017-07-23T06:28:17Z</time>
      </trkpt>
      <trkpt lat="43.57967" lon="3.34476">
        <ele>309.2</ele>
        <time>2017-07-23T06:28:21Z</time>
      </trkpt>
      <trkpt lat="43.57967" lon="3.34466">
        <ele>310.6</ele>
        <time>2017-07-23T06:28:25Z</time>
      </trkpt>
      <trkpt lat="43.57965" lon="3.34456">
        <ele>312.2</ele>
        <time>2017-07-23T06:28:30Z</time>
      </trkpt>
      <trkpt lat="43.57965" lon="3.34444">
        <ele>313.4</ele>
        <time>2017-07-23T06:28:35Z</time>
      </trkpt>
      <trkpt lat="43.57964" lon="3.3443">
        <ele>314.2</ele>
        <time>2017-07-23T06:28:39Z</time>
      </trkpt>
      <trkpt lat="43.57963" lon="3.3442">
        <ele>314.8</ele>
        <time>2017-07-23T06:28:43Z</time>
      </trkpt>
      <trkpt lat="43.57963" lon="3.3441">
        <ele>315.6</ele>
        <time>2017-07-23T06:28:48Z</time>
      </trkpt>
      <trkpt lat="43.57965" lon="3.34397">
        <ele>316.2</ele>
        <time>2017-07-23T06:28:52Z</time>
      </trkpt>
      <trkpt lat="43.57967" lon="3.34387">
        <ele>316.7</ele>
        <time>2017-07-23T06:28:55Z</time>
      </trkpt>
      <trkpt lat="43.5797" lon="3.34376">
        <ele>318</ele>
        <time>2017-07-23T06:29:01Z</time>
      </trkpt>
      <trkpt lat="43.57972" lon="3.34364">
        <ele>318.7</ele>
        <time>2017-07-23T06:29:05Z</time>
      </trkpt>
      <trkpt lat="43.57974" lon="3.34352">
        <ele>319.2</ele>
        <time>2017-07-23T06:29:09Z</time>
      </trkpt>
      <trkpt lat="43.57975" lon="3.34341">
        <ele>320.2</ele>
        <time>2017-07-23T06:29:15Z</time>
      </trkpt>
      <trkpt lat="43.57977" lon="3.3433">
        <ele>321</ele>
        <time>2017-07-23T06:29:19Z</time>
      </trkpt>
      <trkpt lat="43.57981" lon="3.3432">
        <ele>321.5</ele>
        <time>2017-07-23T06:29:23Z</time>
      </trkpt>
      <trkpt lat="43.57984" lon="3.34311">
        <ele>322</ele>
        <time>2017-07-23T06:29:27Z</time>
      </trkpt>
      <trkpt lat="43.57988" lon="3.343">
        <ele>322.6</ele>
        <time>2017-07-23T06:29:32Z</time>
      </trkpt>
      <trkpt lat="43.57988" lon="3.3429">
        <ele>323.4</ele>
        <time>2017-07-23T06:29:38Z</time>
      </trkpt>
      <trkpt lat="43.57981" lon="3.34292">
        <ele>324.4</ele>
        <time>2017-07-23T06:29:45Z</time>
      </trkpt>
      <trkpt lat="43.57988" lon="3.34289">
        <ele>324.8</ele>
        <time>2017-07-23T06:29:52Z</time>
      </trkpt>
      <trkpt lat="43.57986" lon="3.3428">
        <ele>325.5</ele>
        <time>2017-07-23T06:29:59Z</time>
      </trkpt>
      <trkpt lat="43.57991" lon="3.34279">
        <ele>326.7</ele>
        <time>2017-07-23T06:30:06Z</time>
      </trkpt>
      <trkpt lat="43.57987" lon="3.34284">
        <ele>327.5</ele>
        <time>2017-07-23T06:30:13Z</time>
      </trkpt>
      <trkpt lat="43.57986" lon="3.34289">
        <ele>328</ele>
        <time>2017-07-23T06:30:20Z</time>
      </trkpt>
      <trkpt lat="43.5799" lon="3.34282">
        <ele>328.3</ele>
        <time>2017-07-23T06:30:27Z</time>
      </trkpt>
      <trkpt lat="43.57988" lon="3.34274">
        <ele>328.9</ele>
        <time>2017-07-23T06:30:34Z</time>
      </trkpt>
      <trkpt lat="43.57995" lon="3.34278">
        <ele>329.7</ele>
        <time>2017-07-23T06:30:41Z</time>
      </trkpt>
      <trkpt lat="43.58002" lon="3.34275">
        <ele>330.1</ele>
        <time>2017-07-23T06:30:48Z</time>
      </trkpt>
      <trkpt lat="43.58009" lon="3.34268">
        <ele>330.2</ele>
        <time>2017-07-23T06:30:54Z</time>
      </trkpt>
      <trkpt lat="43.58015" lon="3.34262">
        <ele>330.3</ele>
        <time>2017-07-23T06:30:58Z</time>
      </trkpt>
      <trkpt lat="43.58021" lon="3.34256">
        <ele>330.6</ele>
        <time>2017-07-23T06:31:03Z</time>
      </trkpt>
      <trkpt lat="43.58028" lon="3.3425">
        <ele>330.9</ele>
        <time>2017-07-23T06:31:08Z</time>
      </trkpt>
      <trkpt lat="43.58033" lon="3.34245">
        <ele>331.4</ele>
        <time>2017-07-23T06:31:13Z</time>
      </trkpt>
      <trkpt lat="43.58041" lon="3.34242">
        <ele>331.8</ele>
        <time>2017-07-23T06:31:17Z</time>
      </trkpt>
      <trkpt lat="43.58048" lon="3.34241">
        <ele>332.4</ele>
        <time>2017-07-23T06:31:22Z</time>
      </trkpt>
      <trkpt lat="43.58057" lon="3.34236">
        <ele>333.1</ele>
        <time>2017-07-23T06:31:27Z</time>
      </trkpt>
      <trkpt lat="43.58065" lon="3.34235">
        <ele>333.9</ele>
        <time>2017-07-23T06:31:32Z</time>
      </trkpt>
      <trkpt lat="43.58073" lon="3.34235">
        <ele>334.6</ele>
        <time>2017-07-23T06:31:36Z</time>
      </trkpt>
      <trkpt lat="43.58079" lon="3.34231">
        <ele>335.5</ele>
        <time>2017-07-23T06:31:41Z</time>
      </trkpt>
      <trkpt lat="43.58088" lon="3.34229">
        <ele>336.7</ele>
        <time>2017-07-23T06:31:46Z</time>
      </trkpt>
      <trkpt lat="43.58097" lon="3.34231">
        <ele>337.4</ele>
        <time>2017-07-23T06:31:50Z</time>
      </trkpt>
      <trkpt lat="43.58105" lon="3.34233">
        <ele>338.4</ele>
        <time>2017-07-23T06:31:55Z</time>
      </trkpt>
      <trkpt lat="43.58109" lon="3.34242">
        <ele>339.2</ele>
        <time>2017-07-23T06:31:59Z</time>
      </trkpt>
      <trkpt lat="43.58115" lon="3.34251">
        <ele>339.9</ele>
        <time>2017-07-23T06:32:03Z</time>
      </trkpt>
      <trkpt lat="43.58116" lon="3.34264">
        <ele>340.8</ele>
        <time>2017-07-23T06:32:09Z</time>
      </trkpt>
      <trkpt lat="43.58117" lon="3.34274">
        <ele>341.3</ele>
        <time>2017-07-23T06:32:13Z</time>
      </trkpt>
      <trkpt lat="43.58117" lon="3.34286">
        <ele>341.7</ele>
        <time>2017-07-23T06:32:17Z</time>
      </trkpt>
      <trkpt lat="43.58119" lon="3.34295">
        <ele>342.2</ele>
        <time>2017-07-23T06:32:21Z</time>
      </trkpt>
      <trkpt lat="43.5812" lon="3.34306">
        <ele>342.7</ele>
        <time>2017-07-23T06:32:25Z</time>
      </trkpt>
      <trkpt lat="43.58123" lon="3.34317">
        <ele>343.5</ele>
        <time>2017-07-23T06:32:30Z</time>
      </trkpt>
      <trkpt lat="43.58126" lon="3.34329">
        <ele>344.7</ele>
        <time>2017-07-23T06:32:35Z</time>
      </trkpt>
      <trkpt lat="43.58129" lon="3.34339">
        <ele>345.2</ele>
        <time>2017-07-23T06:32:39Z</time>
      </trkpt>
      <trkpt lat="43.58133" lon="3.34348">
        <ele>345.7</ele>
        <time>2017-07-23T06:32:43Z</time>
      </trkpt>
      <trkpt lat="43.58137" lon="3.34358">
        <ele>346.4</ele>
        <time>2017-07-23T06:32:47Z</time>
      </trkpt>
      <trkpt lat="43.5814" lon="3.34367">
        <ele>347.2</ele>
        <time>2017-07-23T06:32:51Z</time>
      </trkpt>
      <trkpt lat="43.58147" lon="3.34376">
        <ele>347.7</ele>
        <time>2017-07-23T06:32:55Z</time>
      </trkpt>
      <trkpt lat="43.58152" lon="3.34385">
        <ele>348.2</ele>
        <time>2017-07-23T06:32:59Z</time>
      </trkpt>
      <trkpt lat="43.58158" lon="3.34393">
        <ele>348.5</ele>
        <time>2017-07-23T06:33:03Z</time>
      </trkpt>
      <trkpt lat="43.58163" lon="3.34401">
        <ele>349.1</ele>
        <time>2017-07-23T06:33:08Z</time>
      </trkpt>
      <trkpt lat="43.5817" lon="3.34409">
        <ele>349.6</ele>
        <time>2017-07-23T06:33:12Z</time>
      </trkpt>
      <trkpt lat="43.58177" lon="3.34414">
        <ele>350.4</ele>
        <time>2017-07-23T06:33:16Z</time>
      </trkpt>
      <trkpt lat="43.58184" lon="3.34422">
        <ele>351.5</ele>
        <time>2017-07-23T06:33:21Z</time>
      </trkpt>
      <trkpt lat="43.58188" lon="3.3443">
        <ele>352.2</ele>
        <time>2017-07-23T06:33:25Z</time>
      </trkpt>
      <trkpt lat="43.58194" lon="3.3444">
        <ele>353</ele>
        <time>2017-07-23T06:33:30Z</time>
      </trkpt>
      <trkpt lat="43.582" lon="3.34447">
        <ele>353.8</ele>
        <time>2017-07-23T06:33:34Z</time>
      </trkpt>
      <trkpt lat="43.58207" lon="3.34453">
        <ele>354.6</ele>
        <time>2017-07-23T06:33:38Z</time>
      </trkpt>
      <trkpt lat="43.58215" lon="3.34457">
        <ele>355.4</ele>
        <time>2017-07-23T06:33:42Z</time>
      </trkpt>
      <trkpt lat="43.58223" lon="3.34461">
        <ele>356.2</ele>
        <time>2017-07-23T06:33:46Z</time>
      </trkpt>
      <trkpt lat="43.5823" lon="3.34462">
        <ele>357</ele>
        <time>2017-07-23T06:33:50Z</time>
      </trkpt>
      <trkpt lat="43.58239" lon="3.34462">
        <ele>357.9</ele>
        <time>2017-07-23T06:33:55Z</time>
      </trkpt>
      <trkpt lat="43.58247" lon="3.34464">
        <ele>358.8</ele>
        <time>2017-07-23T06:34:00Z</time>
      </trkpt>
      <trkpt lat="43.58256" lon="3.34464">
        <ele>359.5</ele>
        <time>2017-07-23T06:34:05Z</time>
      </trkpt>
      <trkpt lat="43.58264" lon="3.34461">
        <ele>360.3</ele>
        <time>2017-07-23T06:34:09Z</time>
      </trkpt>
      <trkpt lat="43.58272" lon="3.34457">
        <ele>361</ele>
        <time>2017-07-23T06:34:13Z</time>
      </trkpt>
      <trkpt lat="43.58279" lon="3.34455">
        <ele>361.6</ele>
        <time>2017-07-23T06:34:17Z</time>
      </trkpt>
      <trkpt lat="43.58287" lon="3.34449">
        <ele>362.2</ele>
        <time>2017-07-23T06:34:21Z</time>
      </trkpt>
      <trkpt lat="43.58288" lon="3.34439">
        <ele>362.9</ele>
        <time>2017-07-23T06:34:26Z</time>
      </trkpt>
      <trkpt lat="43.58281" lon="3.34433">
        <ele>363.8</ele>
        <time>2017-07-23T06:34:31Z</time>
      </trkpt>
      <trkpt lat="43.58272" lon="3.34432">
        <ele>364.7</ele>
        <time>2017-07-23T06:34:36Z</time>
      </trkpt>
      <trkpt lat="43.58265" lon="3.34428">
        <ele>365.3</ele>
        <time>2017-07-23T06:34:40Z</time>
      </trkpt>
      <trkpt lat="43.5826" lon="3.34419">
        <ele>366.5</ele>
        <time>2017-07-23T06:34:45Z</time>
      </trkpt>
      <trkpt lat="43.58254" lon="3.34408">
        <ele>367.5</ele>
        <time>2017-07-23T06:34:49Z</time>
      </trkpt>
      <trkpt lat="43.58251" lon="3.34399">
        <ele>368.6</ele>
        <time>2017-07-23T06:34:53Z</time>
      </trkpt>
      <trkpt lat="43.58247" lon="3.34389">
        <ele>369.6</ele>
        <time>2017-07-23T06:34:57Z</time>
      </trkpt>
      <trkpt lat="43.58242" lon="3.34379">
        <ele>370.4</ele>
        <time>2017-07-23T06:35:01Z</time>
      </trkpt>
      <trkpt lat="43.58237" lon="3.34368">
        <ele>371.2</ele>
        <time>2017-07-23T06:35:05Z</time>
      </trkpt>
      <trkpt lat="43.58234" lon="3.34359">
        <ele>372</ele>
        <time>2017-07-23T06:35:09Z</time>
      </trkpt>
      <trkpt lat="43.5823" lon="3.34348">
        <ele>372.8</ele>
        <time>2017-07-23T06:35:13Z</time>
      </trkpt>
      <trkpt lat="43.58227" lon="3.34338">
        <ele>373.5</ele>
        <time>2017-07-23T06:35:17Z</time>
      </trkpt>
      <trkpt lat="43.58225" lon="3.34327">
        <ele>374.2</ele>
        <time>2017-07-23T06:35:21Z</time>
      </trkpt>
      <trkpt lat="43.58224" lon="3.34316">
        <ele>374.9</ele>
        <time>2017-07-23T06:35:25Z</time>
      </trkpt>
      <trkpt lat="43.58223" lon="3.34305">
        <ele>375.8</ele>
        <time>2017-07-23T06:35:29Z</time>
      </trkpt>
      <trkpt lat="43.58222" lon="3.34292">
        <ele>376.5</ele>
        <time>2017-07-23T06:35:33Z</time>
      </trkpt>
      <trkpt lat="43.58221" lon="3.34279">
        <ele>377.1</ele>
        <time>2017-07-23T06:35:37Z</time>
      </trkpt>
      <trkpt lat="43.5822" lon="3.34266">
        <ele>377.6</ele>
        <time>2017-07-23T06:35:41Z</time>
      </trkpt>
      <trkpt lat="43.58221" lon="3.34253">
        <ele>378.2</ele>
        <time>2017-07-23T06:35:45Z</time>
      </trkpt>
      <trkpt lat="43.58222" lon="3.34242">
        <ele>378.8</ele>
        <time>2017-07-23T06:35:49Z</time>
      </trkpt>
      <trkpt lat="43.58222" lon="3.34231">
        <ele>379.4</ele>
        <time>2017-07-23T06:35:53Z</time>
      </trkpt>
      <trkpt lat="43.58223" lon="3.3422">
        <ele>379.8</ele>
        <time>2017-07-23T06:35:56Z</time>
      </trkpt>
      <trkpt lat="43.58226" lon="3.34208">
        <ele>380.5</ele>
        <time>2017-07-23T06:36:00Z</time>
      </trkpt>
      <trkpt lat="43.58229" lon="3.34198">
        <ele>381.1</ele>
        <time>2017-07-23T06:36:04Z</time>
      </trkpt>
      <trkpt lat="43.58232" lon="3.34189">
        <ele>381.6</ele>
        <time>2017-07-23T06:36:08Z</time>
      </trkpt>
      <trkpt lat="43.58236" lon="3.34181">
        <ele>382.1</ele>
        <time>2017-07-23T06:36:12Z</time>
      </trkpt>
      <trkpt lat="43.58241" lon="3.3417">
        <ele>382.6</ele>
        <time>2017-07-23T06:36:16Z</time>
      </trkpt>
      <trkpt lat="43.58245" lon="3.3416">
        <ele>382.9</ele>
        <time>2017-07-23T06:36:20Z</time>
      </trkpt>
      <trkpt lat="43.58251" lon="3.34151">
        <ele>383.4</ele>
        <time>2017-07-23T06:36:24Z</time>
      </trkpt>
      <trkpt lat="43.58256" lon="3.34141">
        <ele>384.1</ele>
        <time>2017-07-23T06:36:29Z</time>
      </trkpt>
      <trkpt lat="43.58261" lon="3.34131">
        <ele>384.6</ele>
        <time>2017-07-23T06:36:33Z</time>
      </trkpt>
      <trkpt lat="43.58266" lon="3.34121">
        <ele>385.2</ele>
        <time>2017-07-23T06:36:37Z</time>
      </trkpt>
      <trkpt lat="43.5827" lon="3.34113">
        <ele>385.7</ele>
        <time>2017-07-23T06:36:41Z</time>
      </trkpt>
      <trkpt lat="43.58274" lon="3.34104">
        <ele>386.2</ele>
        <time>2017-07-23T06:36:45Z</time>
      </trkpt>
      <trkpt lat="43.58276" lon="3.34095">
        <ele>386.8</ele>
        <time>2017-07-23T06:36:49Z</time>
      </trkpt>
      <trkpt lat="43.58281" lon="3.34086">
        <ele>387.4</ele>
        <time>2017-07-23T06:36:53Z</time>
      </trkpt>
      <trkpt lat="43.58285" lon="3.34076">
        <ele>387.9</ele>
        <time>2017-07-23T06:36:57Z</time>
      </trkpt>
      <trkpt lat="43.58286" lon="3.34066">
        <ele>388.3</ele>
        <time>2017-07-23T06:37:00Z</time>
      </trkpt>
      <trkpt lat="43.58283" lon="3.34054">
        <ele>389</ele>
        <time>2017-07-23T06:37:04Z</time>
      </trkpt>
      <trkpt lat="43.58278" lon="3.34047">
        <ele>389.8</ele>
        <time>2017-07-23T06:37:09Z</time>
      </trkpt>
      <trkpt lat="43.58271" lon="3.34042">
        <ele>390.6</ele>
        <time>2017-07-23T06:37:13Z</time>
      </trkpt>
      <trkpt lat="43.58264" lon="3.34037">
        <ele>391.4</ele>
        <time>2017-07-23T06:37:17Z</time>
      </trkpt>
      <trkpt lat="43.58257" lon="3.34031">
        <ele>392.4</ele>
        <time>2017-07-23T06:37:21Z</time>
      </trkpt>
      <trkpt lat="43.58251" lon="3.34024">
        <ele>393.4</ele>
        <time>2017-07-23T06:37:25Z</time>
      </trkpt>
      <trkpt lat="43.58245" lon="3.34016">
        <ele>394.4</ele>
        <time>2017-07-23T06:37:29Z</time>
      </trkpt>
      <trkpt lat="43.5824" lon="3.34008">
        <ele>395.3</ele>
        <time>2017-07-23T06:37:33Z</time>
      </trkpt>
      <trkpt lat="43.58234" lon="3.34">
        <ele>396.4</ele>
        <time>2017-07-23T06:37:39Z</time>
      </trkpt>
      <trkpt lat="43.58228" lon="3.33992">
        <ele>397.4</ele>
        <time>2017-07-23T06:37:44Z</time>
      </trkpt>
      <trkpt lat="43.58223" lon="3.33982">
        <ele>398.4</ele>
        <time>2017-07-23T06:37:49Z</time>
      </trkpt>
      <trkpt lat="43.58218" lon="3.33973">
        <ele>399.1</ele>
        <time>2017-07-23T06:37:54Z</time>
      </trkpt>
      <trkpt lat="43.58214" lon="3.33963">
        <ele>399.9</ele>
        <time>2017-07-23T06:37:58Z</time>
      </trkpt>
      <trkpt lat="43.58211" lon="3.33952">
        <ele>400.7</ele>
        <time>2017-07-23T06:38:02Z</time>
      </trkpt>
      <trkpt lat="43.58209" lon="3.33939">
        <ele>401.4</ele>
        <time>2017-07-23T06:38:06Z</time>
      </trkpt>
      <trkpt lat="43.58209" lon="3.33928">
        <ele>402</ele>
        <time>2017-07-23T06:38:10Z</time>
      </trkpt>
      <trkpt lat="43.58211" lon="3.33917">
        <ele>402.7</ele>
        <time>2017-07-23T06:38:14Z</time>
      </trkpt>
      <trkpt lat="43.58212" lon="3.33907">
        <ele>403.3</ele>
        <time>2017-07-23T06:38:18Z</time>
      </trkpt>
      <trkpt lat="43.58213" lon="3.33896">
        <ele>403.6</ele>
        <time>2017-07-23T06:38:22Z</time>
      </trkpt>
      <trkpt lat="43.58215" lon="3.33884">
        <ele>403.9</ele>
        <time>2017-07-23T06:38:26Z</time>
      </trkpt>
      <trkpt lat="43.58218" lon="3.33874">
        <ele>404.2</ele>
        <time>2017-07-23T06:38:30Z</time>
      </trkpt>
      <trkpt lat="43.58221" lon="3.33863">
        <ele>404.3</ele>
        <time>2017-07-23T06:38:34Z</time>
      </trkpt>
      <trkpt lat="43.58225" lon="3.33853">
        <ele>404.5</ele>
        <time>2017-07-23T06:38:38Z</time>
      </trkpt>
      <trkpt lat="43.58228" lon="3.33843">
        <ele>404.8</ele>
        <time>2017-07-23T06:38:42Z</time>
      </trkpt>
      <trkpt lat="43.58232" lon="3.33832">
        <ele>405</ele>
        <time>2017-07-23T06:38:46Z</time>
      </trkpt>
      <trkpt lat="43.58235" lon="3.3382">
        <ele>405.3</ele>
        <time>2017-07-23T06:38:50Z</time>
      </trkpt>
      <trkpt lat="43.58238" lon="3.33809">
        <ele>405.6</ele>
        <time>2017-07-23T06:38:54Z</time>
      </trkpt>
      <trkpt lat="43.58241" lon="3.33797">
        <ele>405.9</ele>
        <time>2017-07-23T06:38:58Z</time>
      </trkpt>
      <trkpt lat="43.58242" lon="3.33784">
        <ele>406.4</ele>
        <time>2017-07-23T06:39:02Z</time>
      </trkpt>
      <trkpt lat="43.58243" lon="3.33774">
        <ele>406.8</ele>
        <time>2017-07-23T06:39:06Z</time>
      </trkpt>
      <trkpt lat="43.58243" lon="3.33762">
        <ele>407.5</ele>
        <time>2017-07-23T06:39:09Z</time>
      </trkpt>
      <trkpt lat="43.58243" lon="3.3375">
        <ele>408.2</ele>
        <time>2017-07-23T06:39:13Z</time>
      </trkpt>
      <trkpt lat="43.58244" lon="3.33739">
        <ele>408.5</ele>
        <time>2017-07-23T06:39:17Z</time>
      </trkpt>
      <trkpt lat="43.58245" lon="3.33729">
        <ele>408.7</ele>
        <time>2017-07-23T06:39:20Z</time>
      </trkpt>
      <trkpt lat="43.58244" lon="3.33716">
        <ele>409.2</ele>
        <time>2017-07-23T06:39:24Z</time>
      </trkpt>
      <trkpt lat="43.58243" lon="3.33707">
        <ele>409.5</ele>
        <time>2017-07-23T06:39:27Z</time>
      </trkpt>
      <trkpt lat="43.58241" lon="3.33693">
        <ele>410</ele>
        <time>2017-07-23T06:39:31Z</time>
      </trkpt>
      <trkpt lat="43.5824" lon="3.33683">
        <ele>410.4</ele>
        <time>2017-07-23T06:39:34Z</time>
      </trkpt>
      <trkpt lat="43.58241" lon="3.33672">
        <ele>410.9</ele>
        <time>2017-07-23T06:39:38Z</time>
      </trkpt>
      <trkpt lat="43.58245" lon="3.33661">
        <ele>411.4</ele>
        <time>2017-07-23T06:39:42Z</time>
      </trkpt>
      <trkpt lat="43.58247" lon="3.33649">
        <ele>411.8</ele>
        <time>2017-07-23T06:39:46Z</time>
      </trkpt>
      <trkpt lat="43.5825" lon="3.33637">
        <ele>412.2</ele>
        <time>2017-07-23T06:39:50Z</time>
      </trkpt>
      <trkpt lat="43.58253" lon="3.33626">
        <ele>412.8</ele>
        <time>2017-07-23T06:39:55Z</time>
      </trkpt>
      <trkpt lat="43.58254" lon="3.33614">
        <ele>413</ele>
        <time>2017-07-23T06:39:59Z</time>
      </trkpt>
      <trkpt lat="43.58258" lon="3.33605">
        <ele>413.2</ele>
        <time>2017-07-23T06:40:03Z</time>
      </trkpt>
      <trkpt lat="43.58263" lon="3.33595">
        <ele>413.4</ele>
        <time>2017-07-23T06:40:07Z</time>
      </trkpt>
      <trkpt lat="43.58268" lon="3.33585">
        <ele>413.7</ele>
        <time>2017-07-23T06:40:11Z</time>
      </trkpt>
      <trkpt lat="43.58273" lon="3.33576">
        <ele>414</ele>
        <time>2017-07-23T06:40:15Z</time>
      </trkpt>
      <trkpt lat="43.58279" lon="3.33567">
        <ele>414.3</ele>
        <time>2017-07-23T06:40:19Z</time>
      </trkpt>
      <trkpt lat="43.58283" lon="3.33557">
        <ele>414.7</ele>
        <time>2017-07-23T06:40:23Z</time>
      </trkpt>
      <trkpt lat="43.58287" lon="3.33546">
        <ele>415.2</ele>
        <time>2017-07-23T06:40:27Z</time>
      </trkpt>
      <trkpt lat="43.58288" lon="3.33533">
        <ele>415.4</ele>
        <time>2017-07-23T06:40:31Z</time>
      </trkpt>
      <trkpt lat="43.5829" lon="3.33522">
        <ele>415.4</ele>
        <time>2017-07-23T06:40:35Z</time>
      </trkpt>
      <trkpt lat="43.58292" lon="3.33511">
        <ele>415.5</ele>
        <time>2017-07-23T06:40:39Z</time>
      </trkpt>
      <trkpt lat="43.58293" lon="3.33499">
        <ele>415.5</ele>
        <time>2017-07-23T06:40:43Z</time>
      </trkpt>
      <trkpt lat="43.58294" lon="3.33488">
        <ele>415.6</ele>
        <time>2017-07-23T06:40:47Z</time>
      </trkpt>
      <trkpt lat="43.58295" lon="3.33477">
        <ele>415.8</ele>
        <time>2017-07-23T06:40:51Z</time>
      </trkpt>
      <trkpt lat="43.58295" lon="3.33464">
        <ele>416.1</ele>
        <time>2017-07-23T06:40:55Z</time>
      </trkpt>
      <trkpt lat="43.58296" lon="3.33452">
        <ele>416.3</ele>
        <time>2017-07-23T06:40:59Z</time>
      </trkpt>
      <trkpt lat="43.58298" lon="3.33441">
        <ele>416.3</ele>
        <time>2017-07-23T06:41:03Z</time>
      </trkpt>
      <trkpt lat="43.58299" lon="3.33431">
        <ele>416.3</ele>
        <time>2017-07-23T06:41:08Z</time>
      </trkpt>
      <trkpt lat="43.58302" lon="3.33418">
        <ele>416.2</ele>
        <time>2017-07-23T06:41:12Z</time>
      </trkpt>
      <trkpt lat="43.58304" lon="3.33407">
        <ele>416.3</ele>
        <time>2017-07-23T06:41:16Z</time>
      </trkpt>
      <trkpt lat="43.58306" lon="3.33396">
        <ele>416.7</ele>
        <time>2017-07-23T06:41:20Z</time>
      </trkpt>
      <trkpt lat="43.58309" lon="3.33385">
        <ele>416.9</ele>
        <time>2017-07-23T06:41:23Z</time>
      </trkpt>
      <trkpt lat="43.58311" lon="3.33376">
        <ele>417.1</ele>
        <time>2017-07-23T06:41:26Z</time>
      </trkpt>
      <trkpt lat="43.58313" lon="3.33363">
        <ele>417.4</ele>
        <time>2017-07-23T06:41:30Z</time>
      </trkpt>
      <trkpt lat="43.58314" lon="3.3335">
        <ele>417.9</ele>
        <time>2017-07-23T06:41:34Z</time>
      </trkpt>
      <trkpt lat="43.58316" lon="3.3334">
        <ele>418.2</ele>
        <time>2017-07-23T06:41:36Z</time>
      </trkpt>
      <trkpt lat="43.58314" lon="3.33329">
        <ele>419.6</ele>
        <time>2017-07-23T06:41:38Z</time>
      </trkpt>
      <trkpt lat="43.58314" lon="3.33318">
        <ele>420.5</ele>
        <time>2017-07-23T06:41:40Z</time>
      </trkpt>
      <trkpt lat="43.58313" lon="3.33307">
        <ele>420.6</ele>
        <time>2017-07-23T06:41:42Z</time>
      </trkpt>
      <trkpt lat="43.58312" lon="3.33295">
        <ele>420.3</ele>
        <time>2017-07-23T06:41:44Z</time>
      </trkpt>
      <trkpt lat="43.58312" lon="3.33282">
        <ele>420</ele>
        <time>2017-07-23T06:41:46Z</time>
      </trkpt>
      <trkpt lat="43.58311" lon="3.3327">
        <ele>420.1</ele>
        <time>2017-07-23T06:41:48Z</time>
      </trkpt>
      <trkpt lat="43.58311" lon="3.33258">
        <ele>420.4</ele>
        <time>2017-07-23T06:41:50Z</time>
      </trkpt>
      <trkpt lat="43.58311" lon="3.33247">
        <ele>420.1</ele>
        <time>2017-07-23T06:41:52Z</time>
      </trkpt>
      <trkpt lat="43.58311" lon="3.33235">
        <ele>419.3</ele>
        <time>2017-07-23T06:41:54Z</time>
      </trkpt>
      <trkpt lat="43.58311" lon="3.33225">
        <ele>419</ele>
        <time>2017-07-23T06:41:56Z</time>
      </trkpt>
      <trkpt lat="43.58313" lon="3.33212">
        <ele>418.7</ele>
        <time>2017-07-23T06:41:59Z</time>
      </trkpt>
      <trkpt lat="43.58311" lon="3.33207">
        <ele>418.2</ele>
        <time>2017-07-23T06:42:06Z</time>
      </trkpt>
      <trkpt lat="43.58313" lon="3.33198">
        <ele>417.1</ele>
        <time>2017-07-23T06:42:20Z</time>
      </trkpt>
      <trkpt lat="43.58318" lon="3.33187">
        <ele>416.9</ele>
        <time>2017-07-23T06:42:23Z</time>
      </trkpt>
      <trkpt lat="43.58321" lon="3.33177">
        <ele>416.7</ele>
        <time>2017-07-23T06:42:26Z</time>
      </trkpt>
      <trkpt lat="43.58326" lon="3.33166">
        <ele>416.4</ele>
        <time>2017-07-23T06:42:29Z</time>
      </trkpt>
      <trkpt lat="43.58329" lon="3.33154">
        <ele>416.1</ele>
        <time>2017-07-23T06:42:32Z</time>
      </trkpt>
      <trkpt lat="43.5833" lon="3.33141">
        <ele>415.9</ele>
        <time>2017-07-23T06:42:35Z</time>
      </trkpt>
      <trkpt lat="43.58329" lon="3.33127">
        <ele>415.6</ele>
        <time>2017-07-23T06:42:38Z</time>
      </trkpt>
      <trkpt lat="43.58327" lon="3.33116">
        <ele>415.1</ele>
        <time>2017-07-23T06:42:40Z</time>
      </trkpt>
      <trkpt lat="43.58326" lon="3.33105">
        <ele>414.9</ele>
        <time>2017-07-23T06:42:42Z</time>
      </trkpt>
      <trkpt lat="43.58325" lon="3.33094">
        <ele>414.4</ele>
        <time>2017-07-23T06:42:44Z</time>
      </trkpt>
      <trkpt lat="43.58325" lon="3.33082">
        <ele>413.7</ele>
        <time>2017-07-23T06:42:46Z</time>
      </trkpt>
      <trkpt lat="43.58326" lon="3.3307">
        <ele>412.7</ele>
        <time>2017-07-23T06:42:48Z</time>
      </trkpt>
      <trkpt lat="43.58327" lon="3.33058">
        <ele>411.5</ele>
        <time>2017-07-23T06:42:50Z</time>
      </trkpt>
      <trkpt lat="43.5833" lon="3.33047">
        <ele>409.9</ele>
        <time>2017-07-23T06:42:52Z</time>
      </trkpt>
      <trkpt lat="43.58333" lon="3.33035">
        <ele>408.9</ele>
        <time>2017-07-23T06:42:54Z</time>
      </trkpt>
      <trkpt lat="43.58337" lon="3.33021">
        <ele>408</ele>
        <time>2017-07-23T06:42:56Z</time>
      </trkpt>
      <trkpt lat="43.58342" lon="3.33007">
        <ele>407.2</ele>
        <time>2017-07-23T06:42:58Z</time>
      </trkpt>
      <trkpt lat="43.58346" lon="3.32992">
        <ele>406.3</ele>
        <time>2017-07-23T06:43:00Z</time>
      </trkpt>
      <trkpt lat="43.58349" lon="3.32978">
        <ele>406</ele>
        <time>2017-07-23T06:43:02Z</time>
      </trkpt>
      <trkpt lat="43.58351" lon="3.32963">
        <ele>405.8</ele>
        <time>2017-07-23T06:43:04Z</time>
      </trkpt>
      <trkpt lat="43.58351" lon="3.32949">
        <ele>405.3</ele>
        <time>2017-07-23T06:43:06Z</time>
      </trkpt>
      <trkpt lat="43.58352" lon="3.32937">
        <ele>404.7</ele>
        <time>2017-07-23T06:43:08Z</time>
      </trkpt>
      <trkpt lat="43.58352" lon="3.32925">
        <ele>404.2</ele>
        <time>2017-07-23T06:43:10Z</time>
      </trkpt>
      <trkpt lat="43.58352" lon="3.32913">
        <ele>403.9</ele>
        <time>2017-07-23T06:43:12Z</time>
      </trkpt>
      <trkpt lat="43.58351" lon="3.32901">
        <ele>403.7</ele>
        <time>2017-07-23T06:43:14Z</time>
      </trkpt>
      <trkpt lat="43.58351" lon="3.32888">
        <ele>403.8</ele>
        <time>2017-07-23T06:43:16Z</time>
      </trkpt>
      <trkpt lat="43.5835" lon="3.32878">
        <ele>404.3</ele>
        <time>2017-07-23T06:43:18Z</time>
      </trkpt>
      <trkpt lat="43.58349" lon="3.32868">
        <ele>404.2</ele>
        <time>2017-07-23T06:43:20Z</time>
      </trkpt>
      <trkpt lat="43.58349" lon="3.32858">
        <ele>404.2</ele>
        <time>2017-07-23T06:43:22Z</time>
      </trkpt>
      <trkpt lat="43.58345" lon="3.32847">
        <ele>404.3</ele>
        <time>2017-07-23T06:43:25Z</time>
      </trkpt>
      <trkpt lat="43.58339" lon="3.32838">
        <ele>404.2</ele>
        <time>2017-07-23T06:43:28Z</time>
      </trkpt>
      <trkpt lat="43.5833" lon="3.32832">
        <ele>404.5</ele>
        <time>2017-07-23T06:43:32Z</time>
      </trkpt>
      <trkpt lat="43.58324" lon="3.32826">
        <ele>404.7</ele>
        <time>2017-07-23T06:43:35Z</time>
      </trkpt>
      <trkpt lat="43.58318" lon="3.32821">
        <ele>405</ele>
        <time>2017-07-23T06:43:38Z</time>
      </trkpt>
      <trkpt lat="43.58311" lon="3.32816">
        <ele>405.3</ele>
        <time>2017-07-23T06:43:41Z</time>
      </trkpt>
      <trkpt lat="43.58303" lon="3.32812">
        <ele>405.4</ele>
        <time>2017-07-23T06:43:44Z</time>
      </trkpt>
      <trkpt lat="43.58295" lon="3.32807">
        <ele>405.5</ele>
        <time>2017-07-23T06:43:47Z</time>
      </trkpt>
      <trkpt lat="43.58287" lon="3.32801">
        <ele>405.5</ele>
        <time>2017-07-23T06:43:50Z</time>
      </trkpt>
      <trkpt lat="43.58279" lon="3.32796">
        <ele>405.6</ele>
        <time>2017-07-23T06:43:53Z</time>
      </trkpt>
      <trkpt lat="43.58271" lon="3.32791">
        <ele>405.6</ele>
        <time>2017-07-23T06:43:56Z</time>
      </trkpt>
      <trkpt lat="43.58263" lon="3.32786">
        <ele>405.7</ele>
        <time>2017-07-23T06:43:59Z</time>
      </trkpt>
      <trkpt lat="43.58254" lon="3.3278">
        <ele>405.7</ele>
        <time>2017-07-23T06:44:02Z</time>
      </trkpt>
      <trkpt lat="43.58247" lon="3.32772">
        <ele>405.8</ele>
        <time>2017-07-23T06:44:05Z</time>
      </trkpt>
      <trkpt lat="43.58241" lon="3.32762">
        <ele>405.9</ele>
        <time>2017-07-23T06:44:08Z</time>
      </trkpt>
      <trkpt lat="43.58236" lon="3.32751">
        <ele>406</ele>
        <time>2017-07-23T06:44:11Z</time>
      </trkpt>
      <trkpt lat="43.58234" lon="3.32737">
        <ele>406.3</ele>
        <time>2017-07-23T06:44:14Z</time>
      </trkpt>
      <trkpt lat="43.58232" lon="3.32723">
        <ele>406.6</ele>
        <time>2017-07-23T06:44:17Z</time>
      </trkpt>
      <trkpt lat="43.58232" lon="3.32712">
        <ele>406.9</ele>
        <time>2017-07-23T06:44:20Z</time>
      </trkpt>
      <trkpt lat="43.58231" lon="3.327">
        <ele>407.2</ele>
        <time>2017-07-23T06:44:23Z</time>
      </trkpt>
      <trkpt lat="43.5823" lon="3.32688">
        <ele>407.5</ele>
        <time>2017-07-23T06:44:26Z</time>
      </trkpt>
      <trkpt lat="43.5823" lon="3.32678">
        <ele>407.7</ele>
        <time>2017-07-23T06:44:29Z</time>
      </trkpt>
      <trkpt lat="43.5823" lon="3.32667">
        <ele>407.9</ele>
        <time>2017-07-23T06:44:32Z</time>
      </trkpt>
      <trkpt lat="43.58231" lon="3.32656">
        <ele>408.1</ele>
        <time>2017-07-23T06:44:35Z</time>
      </trkpt>
      <trkpt lat="43.58232" lon="3.32645">
        <ele>408.3</ele>
        <time>2017-07-23T06:44:38Z</time>
      </trkpt>
      <trkpt lat="43.58233" lon="3.32636">
        <ele>408.5</ele>
        <time>2017-07-23T06:44:41Z</time>
      </trkpt>
      <trkpt lat="43.58235" lon="3.32624">
        <ele>408.7</ele>
        <time>2017-07-23T06:44:45Z</time>
      </trkpt>
      <trkpt lat="43.58236" lon="3.32611">
        <ele>408.9</ele>
        <time>2017-07-23T06:44:49Z</time>
      </trkpt>
      <trkpt lat="43.58238" lon="3.32599">
        <ele>409.1</ele>
        <time>2017-07-23T06:44:53Z</time>
      </trkpt>
      <trkpt lat="43.5824" lon="3.32588">
        <ele>409.3</ele>
        <time>2017-07-23T06:44:56Z</time>
      </trkpt>
      <trkpt lat="43.58242" lon="3.32578">
        <ele>409.6</ele>
        <time>2017-07-23T06:44:59Z</time>
      </trkpt>
      <trkpt lat="43.58245" lon="3.32567">
        <ele>409.9</ele>
        <time>2017-07-23T06:45:02Z</time>
      </trkpt>
      <trkpt lat="43.58247" lon="3.32556">
        <ele>410.1</ele>
        <time>2017-07-23T06:45:05Z</time>
      </trkpt>
      <trkpt lat="43.58249" lon="3.32546">
        <ele>410.4</ele>
        <time>2017-07-23T06:45:08Z</time>
      </trkpt>
      <trkpt lat="43.58249" lon="3.32534">
        <ele>410.8</ele>
        <time>2017-07-23T06:45:12Z</time>
      </trkpt>
      <trkpt lat="43.58247" lon="3.32523">
        <ele>411.1</ele>
        <time>2017-07-23T06:45:15Z</time>
      </trkpt>
      <trkpt lat="43.58244" lon="3.32511">
        <ele>411.6</ele>
        <time>2017-07-23T06:45:19Z</time>
      </trkpt>
      <trkpt lat="43.58241" lon="3.325">
        <ele>411.8</ele>
        <time>2017-07-23T06:45:22Z</time>
      </trkpt>
      <trkpt lat="43.5824" lon="3.32491">
        <ele>412.3</ele>
        <time>2017-07-23T06:45:25Z</time>
      </trkpt>
      <trkpt lat="43.5824" lon="3.32478">
        <ele>412.7</ele>
        <time>2017-07-23T06:45:29Z</time>
      </trkpt>
      <trkpt lat="43.58242" lon="3.32467">
        <ele>413</ele>
        <time>2017-07-23T06:45:32Z</time>
      </trkpt>
      <trkpt lat="43.58245" lon="3.32457">
        <ele>413.3</ele>
        <time>2017-07-23T06:45:35Z</time>
      </trkpt>
      <trkpt lat="43.58251" lon="3.32449">
        <ele>413.7</ele>
        <time>2017-07-23T06:45:39Z</time>
      </trkpt>
      <trkpt lat="43.58258" lon="3.32441">
        <ele>414.2</ele>
        <time>2017-07-23T06:45:43Z</time>
      </trkpt>
      <trkpt lat="43.58264" lon="3.32434">
        <ele>414.5</ele>
        <time>2017-07-23T06:45:46Z</time>
      </trkpt>
      <trkpt lat="43.58269" lon="3.32428">
        <ele>414.8</ele>
        <time>2017-07-23T06:45:49Z</time>
      </trkpt>
      <trkpt lat="43.58276" lon="3.3242">
        <ele>415.2</ele>
        <time>2017-07-23T06:45:53Z</time>
      </trkpt>
      <trkpt lat="43.58283" lon="3.32413">
        <ele>415.5</ele>
        <time>2017-07-23T06:45:56Z</time>
      </trkpt>
      <trkpt lat="43.58289" lon="3.32407">
        <ele>415.8</ele>
        <time>2017-07-23T06:45:59Z</time>
      </trkpt>
      <trkpt lat="43.58295" lon="3.32402">
        <ele>416.1</ele>
        <time>2017-07-23T06:46:02Z</time>
      </trkpt>
      <trkpt lat="43.58303" lon="3.32397">
        <ele>416.5</ele>
        <time>2017-07-23T06:46:06Z</time>
      </trkpt>
      <trkpt lat="43.58312" lon="3.32393">
        <ele>416.9</ele>
        <time>2017-07-23T06:46:10Z</time>
      </trkpt>
      <trkpt lat="43.58321" lon="3.32392">
        <ele>417.3</ele>
        <time>2017-07-23T06:46:14Z</time>
      </trkpt>
      <trkpt lat="43.5833" lon="3.32391">
        <ele>417.6</ele>
        <time>2017-07-23T06:46:17Z</time>
      </trkpt>
      <trkpt lat="43.58337" lon="3.32392">
        <ele>417.9</ele>
        <time>2017-07-23T06:46:20Z</time>
      </trkpt>
      <trkpt lat="43.58345" lon="3.32392">
        <ele>418.2</ele>
        <time>2017-07-23T06:46:23Z</time>
      </trkpt>
      <trkpt lat="43.58355" lon="3.32393">
        <ele>418.6</ele>
        <time>2017-07-23T06:46:27Z</time>
      </trkpt>
      <trkpt lat="43.58363" lon="3.32393">
        <ele>419.1</ele>
        <time>2017-07-23T06:46:31Z</time>
      </trkpt>
      <trkpt lat="43.58371" lon="3.32393">
        <ele>419.6</ele>
        <time>2017-07-23T06:46:34Z</time>
      </trkpt>
      <trkpt lat="43.58379" lon="3.32392">
        <ele>420.1</ele>
        <time>2017-07-23T06:46:37Z</time>
      </trkpt>
      <trkpt lat="43.58386" lon="3.32392">
        <ele>420.5</ele>
        <time>2017-07-23T06:46:40Z</time>
      </trkpt>
      <trkpt lat="43.58394" lon="3.32387">
        <ele>421.2</ele>
        <time>2017-07-23T06:46:44Z</time>
      </trkpt>
      <trkpt lat="43.58401" lon="3.32383">
        <ele>421.5</ele>
        <time>2017-07-23T06:46:47Z</time>
      </trkpt>
      <trkpt lat="43.58408" lon="3.32376">
        <ele>422.1</ele>
        <time>2017-07-23T06:46:51Z</time>
      </trkpt>
      <trkpt lat="43.58415" lon="3.32371">
        <ele>422.9</ele>
        <time>2017-07-23T06:46:55Z</time>
      </trkpt>
      <trkpt lat="43.58423" lon="3.32363">
        <ele>423.6</ele>
        <time>2017-07-23T06:46:59Z</time>
      </trkpt>
      <trkpt lat="43.58429" lon="3.32357">
        <ele>424</ele>
        <time>2017-07-23T06:47:02Z</time>
      </trkpt>
      <trkpt lat="43.58435" lon="3.32351">
        <ele>424.6</ele>
        <time>2017-07-23T06:47:05Z</time>
      </trkpt>
      <trkpt lat="43.58444" lon="3.32345">
        <ele>425.2</ele>
        <time>2017-07-23T06:47:09Z</time>
      </trkpt>
      <trkpt lat="43.5845" lon="3.32339">
        <ele>425.6</ele>
        <time>2017-07-23T06:47:12Z</time>
      </trkpt>
      <trkpt lat="43.58457" lon="3.32332">
        <ele>426.1</ele>
        <time>2017-07-23T06:47:15Z</time>
      </trkpt>
      <trkpt lat="43.58464" lon="3.32327">
        <ele>426.5</ele>
        <time>2017-07-23T06:47:18Z</time>
      </trkpt>
      <trkpt lat="43.5847" lon="3.32322">
        <ele>426.8</ele>
        <time>2017-07-23T06:47:21Z</time>
      </trkpt>
      <trkpt lat="43.58477" lon="3.32314">
        <ele>427.2</ele>
        <time>2017-07-23T06:47:24Z</time>
      </trkpt>
      <trkpt lat="43.58482" lon="3.32307">
        <ele>427.7</ele>
        <time>2017-07-23T06:47:27Z</time>
      </trkpt>
      <trkpt lat="43.58487" lon="3.32298">
        <ele>428.2</ele>
        <time>2017-07-23T06:47:30Z</time>
      </trkpt>
      <trkpt lat="43.58492" lon="3.3229">
        <ele>428.6</ele>
        <time>2017-07-23T06:47:33Z</time>
      </trkpt>
      <trkpt lat="43.58497" lon="3.32281">
        <ele>429</ele>
        <time>2017-07-23T06:47:36Z</time>
      </trkpt>
      <trkpt lat="43.58504" lon="3.32271">
        <ele>429.8</ele>
        <time>2017-07-23T06:47:40Z</time>
      </trkpt>
      <trkpt lat="43.58509" lon="3.32263">
        <ele>430.5</ele>
        <time>2017-07-23T06:47:43Z</time>
      </trkpt>
      <trkpt lat="43.58514" lon="3.32251">
        <ele>431.3</ele>
        <time>2017-07-23T06:47:47Z</time>
      </trkpt>
      <trkpt lat="43.58517" lon="3.32241">
        <ele>431.8</ele>
        <time>2017-07-23T06:47:50Z</time>
      </trkpt>
      <trkpt lat="43.5852" lon="3.32231">
        <ele>432.3</ele>
        <time>2017-07-23T06:47:53Z</time>
      </trkpt>
      <trkpt lat="43.58522" lon="3.3222">
        <ele>433.1</ele>
        <time>2017-07-23T06:47:57Z</time>
      </trkpt>
      <trkpt lat="43.58523" lon="3.32209">
        <ele>433.9</ele>
        <time>2017-07-23T06:48:00Z</time>
      </trkpt>
      <trkpt lat="43.58522" lon="3.32197">
        <ele>434.9</ele>
        <time>2017-07-23T06:48:04Z</time>
      </trkpt>
      <trkpt lat="43.58517" lon="3.32187">
        <ele>436.1</ele>
        <time>2017-07-23T06:48:09Z</time>
      </trkpt>
      <trkpt lat="43.58511" lon="3.32179">
        <ele>436.8</ele>
        <time>2017-07-23T06:48:13Z</time>
      </trkpt>
      <trkpt lat="43.58507" lon="3.32171">
        <ele>437.3</ele>
        <time>2017-07-23T06:48:17Z</time>
      </trkpt>
      <trkpt lat="43.58502" lon="3.32163">
        <ele>437.8</ele>
        <time>2017-07-23T06:48:20Z</time>
      </trkpt>
      <trkpt lat="43.58497" lon="3.32152">
        <ele>438.2</ele>
        <time>2017-07-23T06:48:24Z</time>
      </trkpt>
      <trkpt lat="43.58495" lon="3.32142">
        <ele>438.6</ele>
        <time>2017-07-23T06:48:28Z</time>
      </trkpt>
      <trkpt lat="43.58494" lon="3.32128">
        <ele>439</ele>
        <time>2017-07-23T06:48:32Z</time>
      </trkpt>
      <trkpt lat="43.58493" lon="3.32117">
        <ele>439.3</ele>
        <time>2017-07-23T06:48:35Z</time>
      </trkpt>
      <trkpt lat="43.58491" lon="3.32107">
        <ele>439.7</ele>
        <time>2017-07-23T06:48:39Z</time>
      </trkpt>
      <trkpt lat="43.58487" lon="3.321">
        <ele>440</ele>
        <time>2017-07-23T06:48:42Z</time>
      </trkpt>
      <trkpt lat="43.58478" lon="3.32092">
        <ele>440.2</ele>
        <time>2017-07-23T06:48:46Z</time>
      </trkpt>
      <trkpt lat="43.58471" lon="3.32087">
        <ele>440.2</ele>
        <time>2017-07-23T06:48:49Z</time>
      </trkpt>
      <trkpt lat="43.58463" lon="3.32085">
        <ele>440.4</ele>
        <time>2017-07-23T06:48:53Z</time>
      </trkpt>
      <trkpt lat="43.58454" lon="3.32085">
        <ele>440.7</ele>
        <time>2017-07-23T06:48:57Z</time>
      </trkpt>
      <trkpt lat="43.58447" lon="3.32078">
        <ele>441.5</ele>
        <time>2017-07-23T06:49:02Z</time>
      </trkpt>
      <trkpt lat="43.58451" lon="3.3207">
        <ele>442.2</ele>
        <time>2017-07-23T06:49:07Z</time>
      </trkpt>
      <trkpt lat="43.58457" lon="3.32062">
        <ele>442.7</ele>
        <time>2017-07-23T06:49:11Z</time>
      </trkpt>
      <trkpt lat="43.58463" lon="3.32055">
        <ele>442.9</ele>
        <time>2017-07-23T06:49:15Z</time>
      </trkpt>
      <trkpt lat="43.5847" lon="3.32048">
        <ele>442.9</ele>
        <time>2017-07-23T06:49:19Z</time>
      </trkpt>
      <trkpt lat="43.58477" lon="3.32041">
        <ele>443</ele>
        <time>2017-07-23T06:49:24Z</time>
      </trkpt>
      <trkpt lat="43.58484" lon="3.32033">
        <ele>443.5</ele>
        <time>2017-07-23T06:49:28Z</time>
      </trkpt>
      <trkpt lat="43.58489" lon="3.32026">
        <ele>443.8</ele>
        <time>2017-07-23T06:49:31Z</time>
      </trkpt>
      <trkpt lat="43.58495" lon="3.32017">
        <ele>444.1</ele>
        <time>2017-07-23T06:49:36Z</time>
      </trkpt>
      <trkpt lat="43.58499" lon="3.32008">
        <ele>444.6</ele>
        <time>2017-07-23T06:49:41Z</time>
      </trkpt>
      <trkpt lat="43.58501" lon="3.31997">
        <ele>444.9</ele>
        <time>2017-07-23T06:49:45Z</time>
      </trkpt>
      <trkpt lat="43.585" lon="3.31985">
        <ele>445.4</ele>
        <time>2017-07-23T06:49:50Z</time>
      </trkpt>
      <trkpt lat="43.58495" lon="3.31975">
        <ele>446</ele>
        <time>2017-07-23T06:49:54Z</time>
      </trkpt>
      <trkpt lat="43.58489" lon="3.31963">
        <ele>446.5</ele>
        <time>2017-07-23T06:49:58Z</time>
      </trkpt>
      <trkpt lat="43.58489" lon="3.31952">
        <ele>446.8</ele>
        <time>2017-07-23T06:50:01Z</time>
      </trkpt>
      <trkpt lat="43.58489" lon="3.31941">
        <ele>448.1</ele>
        <time>2017-07-23T06:50:03Z</time>
      </trkpt>
      <trkpt lat="43.58489" lon="3.31928">
        <ele>450.6</ele>
        <time>2017-07-23T06:50:05Z</time>
      </trkpt>
      <trkpt lat="43.58491" lon="3.31914">
        <ele>451.7</ele>
        <time>2017-07-23T06:50:07Z</time>
      </trkpt>
      <trkpt lat="43.58494" lon="3.31901">
        <ele>451.9</ele>
        <time>2017-07-23T06:50:09Z</time>
      </trkpt>
      <trkpt lat="43.58496" lon="3.31892">
        <ele>452.2</ele>
        <time>2017-07-23T06:50:11Z</time>
      </trkpt>
      <trkpt lat="43.58499" lon="3.31879">
        <ele>452.7</ele>
        <time>2017-07-23T06:50:14Z</time>
      </trkpt>
      <trkpt lat="43.58499" lon="3.31868">
        <ele>452.9</ele>
        <time>2017-07-23T06:50:16Z</time>
      </trkpt>
      <trkpt lat="43.58497" lon="3.31852">
        <ele>454.5</ele>
        <time>2017-07-23T06:50:18Z</time>
      </trkpt>
      <trkpt lat="43.58494" lon="3.31834">
        <ele>454.7</ele>
        <time>2017-07-23T06:50:20Z</time>
      </trkpt>
      <trkpt lat="43.58493" lon="3.31823">
        <ele>454.5</ele>
        <time>2017-07-23T06:50:21Z</time>
      </trkpt>
      <trkpt lat="43.58493" lon="3.31811">
        <ele>453.8</ele>
        <time>2017-07-23T06:50:22Z</time>
      </trkpt>
      <trkpt lat="43.58494" lon="3.31793">
        <ele>453.5</ele>
        <time>2017-07-23T06:50:24Z</time>
      </trkpt>
      <trkpt lat="43.58494" lon="3.31776">
        <ele>452.9</ele>
        <time>2017-07-23T06:50:26Z</time>
      </trkpt>
      <trkpt lat="43.58495" lon="3.31766">
        <ele>452.6</ele>
        <time>2017-07-23T06:50:27Z</time>
      </trkpt>
      <trkpt lat="43.585" lon="3.3175">
        <ele>451.9</ele>
        <time>2017-07-23T06:50:29Z</time>
      </trkpt>
      <trkpt lat="43.58499" lon="3.31738">
        <ele>451.6</ele>
        <time>2017-07-23T06:50:31Z</time>
      </trkpt>
      <trkpt lat="43.58494" lon="3.31725">
        <ele>450.9</ele>
        <time>2017-07-23T06:50:33Z</time>
      </trkpt>
      <trkpt lat="43.5849" lon="3.31712">
        <ele>450.4</ele>
        <time>2017-07-23T06:50:35Z</time>
      </trkpt>
      <trkpt lat="43.58482" lon="3.31703">
        <ele>449.1</ele>
        <time>2017-07-23T06:50:37Z</time>
      </trkpt>
      <trkpt lat="43.58473" lon="3.31703">
        <ele>448.2</ele>
        <time>2017-07-23T06:50:39Z</time>
      </trkpt>
      <trkpt lat="43.58464" lon="3.31704">
        <ele>447.3</ele>
        <time>2017-07-23T06:50:41Z</time>
      </trkpt>
      <trkpt lat="43.58455" lon="3.31701">
        <ele>445.9</ele>
        <time>2017-07-23T06:50:43Z</time>
      </trkpt>
      <trkpt lat="43.58448" lon="3.31697">
        <ele>444.8</ele>
        <time>2017-07-23T06:50:45Z</time>
      </trkpt>
      <trkpt lat="43.58438" lon="3.3169">
        <ele>443.3</ele>
        <time>2017-07-23T06:50:47Z</time>
      </trkpt>
      <trkpt lat="43.58431" lon="3.31683">
        <ele>443.1</ele>
        <time>2017-07-23T06:50:49Z</time>
      </trkpt>
      <trkpt lat="43.58431" lon="3.31671">
        <ele>442.8</ele>
        <time>2017-07-23T06:50:51Z</time>
      </trkpt>
      <trkpt lat="43.58427" lon="3.31658">
        <ele>442.4</ele>
        <time>2017-07-23T06:50:54Z</time>
      </trkpt>
      <trkpt lat="43.58417" lon="3.31652">
        <ele>439.4</ele>
        <time>2017-07-23T06:50:56Z</time>
      </trkpt>
      <trkpt lat="43.58406" lon="3.31645">
        <ele>436</ele>
        <time>2017-07-23T06:50:58Z</time>
      </trkpt>
      <trkpt lat="43.58402" lon="3.31633">
        <ele>432.5</ele>
        <time>2017-07-23T06:51:00Z</time>
      </trkpt>
      <trkpt lat="43.58409" lon="3.3162">
        <ele>429</ele>
        <time>2017-07-23T06:51:03Z</time>
      </trkpt>
      <trkpt lat="43.58413" lon="3.31612">
        <ele>428.9</ele>
        <time>2017-07-23T06:51:05Z</time>
      </trkpt>
      <trkpt lat="43.58418" lon="3.31603">
        <ele>428.7</ele>
        <time>2017-07-23T06:51:08Z</time>
      </trkpt>
      <trkpt lat="43.5842" lon="3.3159">
        <ele>426.6</ele>
        <time>2017-07-23T06:51:10Z</time>
      </trkpt>
      <trkpt lat="43.58422" lon="3.31579">
        <ele>425.5</ele>
        <time>2017-07-23T06:51:11Z</time>
      </trkpt>
      <trkpt lat="43.58429" lon="3.31566">
        <ele>423.3</ele>
        <time>2017-07-23T06:51:13Z</time>
      </trkpt>
      <trkpt lat="43.58437" lon="3.31552">
        <ele>422</ele>
        <time>2017-07-23T06:51:15Z</time>
      </trkpt>
      <trkpt lat="43.58446" lon="3.31537">
        <ele>421.4</ele>
        <time>2017-07-23T06:51:17Z</time>
      </trkpt>
      <trkpt lat="43.5845" lon="3.31527">
        <ele>421.1</ele>
        <time>2017-07-23T06:51:18Z</time>
      </trkpt>
      <trkpt lat="43.58454" lon="3.31518">
        <ele>420.8</ele>
        <time>2017-07-23T06:51:19Z</time>
      </trkpt>
      <trkpt lat="43.58458" lon="3.31509">
        <ele>420</ele>
        <time>2017-07-23T06:51:20Z</time>
      </trkpt>
      <trkpt lat="43.58464" lon="3.31496">
        <ele>418.8</ele>
        <time>2017-07-23T06:51:21Z</time>
      </trkpt>
      <trkpt lat="43.58468" lon="3.31484">
        <ele>417.8</ele>
        <time>2017-07-23T06:51:22Z</time>
      </trkpt>
      <trkpt lat="43.58473" lon="3.31471">
        <ele>416.9</ele>
        <time>2017-07-23T06:51:23Z</time>
      </trkpt>
      <trkpt lat="43.58477" lon="3.31458">
        <ele>415.4</ele>
        <time>2017-07-23T06:51:24Z</time>
      </trkpt>
      <trkpt lat="43.58482" lon="3.31444">
        <ele>414.1</ele>
        <time>2017-07-23T06:51:25Z</time>
      </trkpt>
      <trkpt lat="43.58485" lon="3.31433">
        <ele>413.2</ele>
        <time>2017-07-23T06:51:26Z</time>
      </trkpt>
      <trkpt lat="43.58486" lon="3.3142">
        <ele>412.1</ele>
        <time>2017-07-23T06:51:27Z</time>
      </trkpt>
      <trkpt lat="43.58486" lon="3.31406">
        <ele>410.8</ele>
        <time>2017-07-23T06:51:28Z</time>
      </trkpt>
      <trkpt lat="43.58487" lon="3.31392">
        <ele>409.5</ele>
        <time>2017-07-23T06:51:29Z</time>
      </trkpt>
      <trkpt lat="43.58489" lon="3.3138">
        <ele>408</ele>
        <time>2017-07-23T06:51:30Z</time>
      </trkpt>
      <trkpt lat="43.58493" lon="3.31372">
        <ele>407.2</ele>
        <time>2017-07-23T06:51:31Z</time>
      </trkpt>
      <trkpt lat="43.58499" lon="3.31362">
        <ele>406.6</ele>
        <time>2017-07-23T06:51:32Z</time>
      </trkpt>
      <trkpt lat="43.58501" lon="3.31347">
        <ele>406.6</ele>
        <time>2017-07-23T06:51:34Z</time>
      </trkpt>
      <trkpt lat="43.58503" lon="3.31332">
        <ele>406.3</ele>
        <time>2017-07-23T06:51:36Z</time>
      </trkpt>
      <trkpt lat="43.58508" lon="3.3132">
        <ele>407.1</ele>
        <time>2017-07-23T06:51:38Z</time>
      </trkpt>
      <trkpt lat="43.58515" lon="3.3131">
        <ele>407.2</ele>
        <time>2017-07-23T06:51:41Z</time>
      </trkpt>
      <trkpt lat="43.58518" lon="3.31299">
        <ele>407.4</ele>
        <time>2017-07-23T06:51:44Z</time>
      </trkpt>
      <trkpt lat="43.58522" lon="3.3129">
        <ele>407.6</ele>
        <time>2017-07-23T06:51:46Z</time>
      </trkpt>
      <trkpt lat="43.58526" lon="3.31279">
        <ele>408</ele>
        <time>2017-07-23T06:51:50Z</time>
      </trkpt>
      <trkpt lat="43.5853" lon="3.31268">
        <ele>408.8</ele>
        <time>2017-07-23T06:51:56Z</time>
      </trkpt>
      <trkpt lat="43.58533" lon="3.31259">
        <ele>409.4</ele>
        <time>2017-07-23T06:52:00Z</time>
      </trkpt>
      <trkpt lat="43.58535" lon="3.31248">
        <ele>410.1</ele>
        <time>2017-07-23T06:52:05Z</time>
      </trkpt>
      <trkpt lat="43.58537" lon="3.31236">
        <ele>410.7</ele>
        <time>2017-07-23T06:52:09Z</time>
      </trkpt>
      <trkpt lat="43.58539" lon="3.31225">
        <ele>411.3</ele>
        <time>2017-07-23T06:52:14Z</time>
      </trkpt>
      <trkpt lat="43.58541" lon="3.31213">
        <ele>412</ele>
        <time>2017-07-23T06:52:19Z</time>
      </trkpt>
      <trkpt lat="43.58545" lon="3.31204">
        <ele>412.7</ele>
        <time>2017-07-23T06:52:23Z</time>
      </trkpt>
      <trkpt lat="43.58548" lon="3.31193">
        <ele>413.7</ele>
        <time>2017-07-23T06:52:28Z</time>
      </trkpt>
      <trkpt lat="43.58551" lon="3.31183">
        <ele>414.4</ele>
        <time>2017-07-23T06:52:32Z</time>
      </trkpt>
      <trkpt lat="43.58552" lon="3.31171">
        <ele>414.8</ele>
        <time>2017-07-23T06:52:35Z</time>
      </trkpt>
      <trkpt lat="43.58554" lon="3.31161">
        <ele>415.4</ele>
        <time>2017-07-23T06:52:39Z</time>
      </trkpt>
      <trkpt lat="43.58554" lon="3.31151">
        <ele>415.9</ele>
        <time>2017-07-23T06:52:43Z</time>
      </trkpt>
      <trkpt lat="43.58555" lon="3.3114">
        <ele>416.5</ele>
        <time>2017-07-23T06:52:47Z</time>
      </trkpt>
      <trkpt lat="43.58554" lon="3.31129">
        <ele>417</ele>
        <time>2017-07-23T06:52:51Z</time>
      </trkpt>
      <trkpt lat="43.58551" lon="3.3112">
        <ele>417.6</ele>
        <time>2017-07-23T06:52:55Z</time>
      </trkpt>
      <trkpt lat="43.58546" lon="3.31112">
        <ele>418.2</ele>
        <time>2017-07-23T06:52:59Z</time>
      </trkpt>
      <trkpt lat="43.58541" lon="3.31105">
        <ele>418.6</ele>
        <time>2017-07-23T06:53:02Z</time>
      </trkpt>
      <trkpt lat="43.58534" lon="3.31099">
        <ele>419</ele>
        <time>2017-07-23T06:53:06Z</time>
      </trkpt>
      <trkpt lat="43.58527" lon="3.31093">
        <ele>419.2</ele>
        <time>2017-07-23T06:53:09Z</time>
      </trkpt>
      <trkpt lat="43.5852" lon="3.31089">
        <ele>419.4</ele>
        <time>2017-07-23T06:53:13Z</time>
      </trkpt>
      <trkpt lat="43.58516" lon="3.31079">
        <ele>419.7</ele>
        <time>2017-07-23T06:53:17Z</time>
      </trkpt>
      <trkpt lat="43.58511" lon="3.3107">
        <ele>420.1</ele>
        <time>2017-07-23T06:53:21Z</time>
      </trkpt>
      <trkpt lat="43.58508" lon="3.31058">
        <ele>420.5</ele>
        <time>2017-07-23T06:53:26Z</time>
      </trkpt>
      <trkpt lat="43.58508" lon="3.31048">
        <ele>420.8</ele>
        <time>2017-07-23T06:53:30Z</time>
      </trkpt>
      <trkpt lat="43.58505" lon="3.31039">
        <ele>421</ele>
        <time>2017-07-23T06:53:33Z</time>
      </trkpt>
      <trkpt lat="43.58505" lon="3.31028">
        <ele>421.3</ele>
        <time>2017-07-23T06:53:37Z</time>
      </trkpt>
      <trkpt lat="43.58501" lon="3.31016">
        <ele>421.8</ele>
        <time>2017-07-23T06:53:42Z</time>
      </trkpt>
      <trkpt lat="43.58501" lon="3.31005">
        <ele>422.1</ele>
        <time>2017-07-23T06:53:46Z</time>
      </trkpt>
      <trkpt lat="43.58502" lon="3.30996">
        <ele>422.4</ele>
        <time>2017-07-23T06:53:50Z</time>
      </trkpt>
      <trkpt lat="43.58503" lon="3.30985">
        <ele>422.8</ele>
        <time>2017-07-23T06:53:55Z</time>
      </trkpt>
      <trkpt lat="43.58502" lon="3.30974">
        <ele>423</ele>
        <time>2017-07-23T06:53:59Z</time>
      </trkpt>
      <trkpt lat="43.58503" lon="3.30961">
        <ele>423.2</ele>
        <time>2017-07-23T06:54:04Z</time>
      </trkpt>
      <trkpt lat="43.58503" lon="3.30949">
        <ele>423.6</ele>
        <time>2017-07-23T06:54:08Z</time>
      </trkpt>
      <trkpt lat="43.58504" lon="3.30939">
        <ele>424.6</ele>
        <time>2017-07-23T06:54:14Z</time>
      </trkpt>
      <trkpt lat="43.58501" lon="3.30927">
        <ele>425.9</ele>
        <time>2017-07-23T06:54:20Z</time>
      </trkpt>
      <trkpt lat="43.58499" lon="3.30916">
        <ele>426.9</ele>
        <time>2017-07-23T06:54:25Z</time>
      </trkpt>
      <trkpt lat="43.58499" lon="3.30905">
        <ele>428</ele>
        <time>2017-07-23T06:54:30Z</time>
      </trkpt>
      <trkpt lat="43.58499" lon="3.30895">
        <ele>428.8</ele>
        <time>2017-07-23T06:54:34Z</time>
      </trkpt>
      <trkpt lat="43.58503" lon="3.30883">
        <ele>429.9</ele>
        <time>2017-07-23T06:54:39Z</time>
      </trkpt>
      <trkpt lat="43.58508" lon="3.30872">
        <ele>431.5</ele>
        <time>2017-07-23T06:54:46Z</time>
      </trkpt>
      <trkpt lat="43.58516" lon="3.30866">
        <ele>432.7</ele>
        <time>2017-07-23T06:54:51Z</time>
      </trkpt>
      <trkpt lat="43.58525" lon="3.30861">
        <ele>433.9</ele>
        <time>2017-07-23T06:54:56Z</time>
      </trkpt>
      <trkpt lat="43.58531" lon="3.30853">
        <ele>434.8</ele>
        <time>2017-07-23T06:55:01Z</time>
      </trkpt>
      <trkpt lat="43.58537" lon="3.30841">
        <ele>435.3</ele>
        <time>2017-07-23T06:55:05Z</time>
      </trkpt>
      <trkpt lat="43.58541" lon="3.30829">
        <ele>435.5</ele>
        <time>2017-07-23T06:55:09Z</time>
      </trkpt>
      <trkpt lat="43.58547" lon="3.30819">
        <ele>436.3</ele>
        <time>2017-07-23T06:55:11Z</time>
      </trkpt>
      <trkpt lat="43.58553" lon="3.30806">
        <ele>436.9</ele>
        <time>2017-07-23T06:55:13Z</time>
      </trkpt>
      <trkpt lat="43.58556" lon="3.30795">
        <ele>436.8</ele>
        <time>2017-07-23T06:55:15Z</time>
      </trkpt>
      <trkpt lat="43.58569" lon="3.30793">
        <ele>436.7</ele>
        <time>2017-07-23T06:55:19Z</time>
      </trkpt>
      <trkpt lat="43.58576" lon="3.30797">
        <ele>436.8</ele>
        <time>2017-07-23T06:55:21Z</time>
      </trkpt>
      <trkpt lat="43.58581" lon="3.30808">
        <ele>436.8</ele>
        <time>2017-07-23T06:55:24Z</time>
      </trkpt>
      <trkpt lat="43.58583" lon="3.30819">
        <ele>436.8</ele>
        <time>2017-07-23T06:55:27Z</time>
      </trkpt>
      <trkpt lat="43.58585" lon="3.30833">
        <ele>436.7</ele>
        <time>2017-07-23T06:55:30Z</time>
      </trkpt>
      <trkpt lat="43.58586" lon="3.30846">
        <ele>436.7</ele>
        <time>2017-07-23T06:55:33Z</time>
      </trkpt>
      <trkpt lat="43.58587" lon="3.30856">
        <ele>436.6</ele>
        <time>2017-07-23T06:55:35Z</time>
      </trkpt>
      <trkpt lat="43.58591" lon="3.30867">
        <ele>436.5</ele>
        <time>2017-07-23T06:55:38Z</time>
      </trkpt>
      <trkpt lat="43.58594" lon="3.30878">
        <ele>436.5</ele>
        <time>2017-07-23T06:55:41Z</time>
      </trkpt>
      <trkpt lat="43.58598" lon="3.30891">
        <ele>436.6</ele>
        <time>2017-07-23T06:55:44Z</time>
      </trkpt>
      <trkpt lat="43.58603" lon="3.30898">
        <ele>436.5</ele>
        <time>2017-07-23T06:55:46Z</time>
      </trkpt>
      <trkpt lat="43.58609" lon="3.30905">
        <ele>436.4</ele>
        <time>2017-07-23T06:55:48Z</time>
      </trkpt>
      <trkpt lat="43.58616" lon="3.30914">
        <ele>436.3</ele>
        <time>2017-07-23T06:55:51Z</time>
      </trkpt>
      <trkpt lat="43.58623" lon="3.30922">
        <ele>436.4</ele>
        <time>2017-07-23T06:55:54Z</time>
      </trkpt>
      <trkpt lat="43.5863" lon="3.3093">
        <ele>436.5</ele>
        <time>2017-07-23T06:55:57Z</time>
      </trkpt>
      <trkpt lat="43.58638" lon="3.30939">
        <ele>436.7</ele>
        <time>2017-07-23T06:56:00Z</time>
      </trkpt>
      <trkpt lat="43.58644" lon="3.30949">
        <ele>436.9</ele>
        <time>2017-07-23T06:56:03Z</time>
      </trkpt>
      <trkpt lat="43.58652" lon="3.30955">
        <ele>437.1</ele>
        <time>2017-07-23T06:56:06Z</time>
      </trkpt>
      <trkpt lat="43.58659" lon="3.30961">
        <ele>437.1</ele>
        <time>2017-07-23T06:56:09Z</time>
      </trkpt>
      <trkpt lat="43.58667" lon="3.30964">
        <ele>437.4</ele>
        <time>2017-07-23T06:56:12Z</time>
      </trkpt>
      <trkpt lat="43.58674" lon="3.30965">
        <ele>437.6</ele>
        <time>2017-07-23T06:56:15Z</time>
      </trkpt>
      <trkpt lat="43.58684" lon="3.30963">
        <ele>437.7</ele>
        <time>2017-07-23T06:56:18Z</time>
      </trkpt>
      <trkpt lat="43.58692" lon="3.30964">
        <ele>437.8</ele>
        <time>2017-07-23T06:56:21Z</time>
      </trkpt>
      <trkpt lat="43.587" lon="3.30959">
        <ele>437.8</ele>
        <time>2017-07-23T06:56:24Z</time>
      </trkpt>
      <trkpt lat="43.58707" lon="3.30956">
        <ele>437.8</ele>
        <time>2017-07-23T06:56:27Z</time>
      </trkpt>
      <trkpt lat="43.58713" lon="3.3095">
        <ele>437.6</ele>
        <time>2017-07-23T06:56:31Z</time>
      </trkpt>
      <trkpt lat="43.58719" lon="3.30943">
        <ele>437.5</ele>
        <time>2017-07-23T06:56:34Z</time>
      </trkpt>
      <trkpt lat="43.58728" lon="3.30934">
        <ele>437.4</ele>
        <time>2017-07-23T06:56:37Z</time>
      </trkpt>
      <trkpt lat="43.58735" lon="3.30926">
        <ele>437.4</ele>
        <time>2017-07-23T06:56:40Z</time>
      </trkpt>
      <trkpt lat="43.58742" lon="3.3092">
        <ele>437.5</ele>
        <time>2017-07-23T06:56:44Z</time>
      </trkpt>
      <trkpt lat="43.5875" lon="3.30915">
        <ele>437.9</ele>
        <time>2017-07-23T06:56:47Z</time>
      </trkpt>
      <trkpt lat="43.58755" lon="3.30908">
        <ele>438.2</ele>
        <time>2017-07-23T06:56:50Z</time>
      </trkpt>
      <trkpt lat="43.58761" lon="3.30899">
        <ele>438.7</ele>
        <time>2017-07-23T06:56:54Z</time>
      </trkpt>
      <trkpt lat="43.58768" lon="3.30887">
        <ele>438.9</ele>
        <time>2017-07-23T06:56:57Z</time>
      </trkpt>
      <trkpt lat="43.58772" lon="3.30875">
        <ele>439</ele>
        <time>2017-07-23T06:57:01Z</time>
      </trkpt>
      <trkpt lat="43.58776" lon="3.30865">
        <ele>439.3</ele>
        <time>2017-07-23T06:57:05Z</time>
      </trkpt>
      <trkpt lat="43.58779" lon="3.30854">
        <ele>440.1</ele>
        <time>2017-07-23T06:57:10Z</time>
      </trkpt>
      <trkpt lat="43.58781" lon="3.30844">
        <ele>440.8</ele>
        <time>2017-07-23T06:57:14Z</time>
      </trkpt>
      <trkpt lat="43.58784" lon="3.30834">
        <ele>441.3</ele>
        <time>2017-07-23T06:57:18Z</time>
      </trkpt>
      <trkpt lat="43.5879" lon="3.30824">
        <ele>441.8</ele>
        <time>2017-07-23T06:57:22Z</time>
      </trkpt>
      <trkpt lat="43.58795" lon="3.30815">
        <ele>442.1</ele>
        <time>2017-07-23T06:57:26Z</time>
      </trkpt>
      <trkpt lat="43.58799" lon="3.30804">
        <ele>442.2</ele>
        <time>2017-07-23T06:57:30Z</time>
      </trkpt>
      <trkpt lat="43.58803" lon="3.30793">
        <ele>442.4</ele>
        <time>2017-07-23T06:57:34Z</time>
      </trkpt>
      <trkpt lat="43.58807" lon="3.30781">
        <ele>442.7</ele>
        <time>2017-07-23T06:57:38Z</time>
      </trkpt>
      <trkpt lat="43.58812" lon="3.30773">
        <ele>442.8</ele>
        <time>2017-07-23T06:57:41Z</time>
      </trkpt>
      <trkpt lat="43.58817" lon="3.30765">
        <ele>443.2</ele>
        <time>2017-07-23T06:57:45Z</time>
      </trkpt>
      <trkpt lat="43.58823" lon="3.30755">
        <ele>443.7</ele>
        <time>2017-07-23T06:57:49Z</time>
      </trkpt>
      <trkpt lat="43.58827" lon="3.30746">
        <ele>444.1</ele>
        <time>2017-07-23T06:57:54Z</time>
      </trkpt>
      <trkpt lat="43.58832" lon="3.30738">
        <ele>444.6</ele>
        <time>2017-07-23T06:57:58Z</time>
      </trkpt>
      <trkpt lat="43.58836" lon="3.30727">
        <ele>445.3</ele>
        <time>2017-07-23T06:58:03Z</time>
      </trkpt>
      <trkpt lat="43.58839" lon="3.30716">
        <ele>445.7</ele>
        <time>2017-07-23T06:58:08Z</time>
      </trkpt>
      <trkpt lat="43.58843" lon="3.30707">
        <ele>446</ele>
        <time>2017-07-23T06:58:12Z</time>
      </trkpt>
      <trkpt lat="43.58844" lon="3.30695">
        <ele>446.3</ele>
        <time>2017-07-23T06:58:16Z</time>
      </trkpt>
      <trkpt lat="43.58848" lon="3.30683">
        <ele>447</ele>
        <time>2017-07-23T06:58:21Z</time>
      </trkpt>
      <trkpt lat="43.58848" lon="3.30672">
        <ele>447.6</ele>
        <time>2017-07-23T06:58:25Z</time>
      </trkpt>
      <trkpt lat="43.58848" lon="3.3066">
        <ele>448</ele>
        <time>2017-07-23T06:58:29Z</time>
      </trkpt>
      <trkpt lat="43.58848" lon="3.30649">
        <ele>448.5</ele>
        <time>2017-07-23T06:58:33Z</time>
      </trkpt>
      <trkpt lat="43.58849" lon="3.30638">
        <ele>448.9</ele>
        <time>2017-07-23T06:58:37Z</time>
      </trkpt>
      <trkpt lat="43.58849" lon="3.30625">
        <ele>449.3</ele>
        <time>2017-07-23T06:58:41Z</time>
      </trkpt>
      <trkpt lat="43.58851" lon="3.30613">
        <ele>449.8</ele>
        <time>2017-07-23T06:58:45Z</time>
      </trkpt>
      <trkpt lat="43.58852" lon="3.30603">
        <ele>450.2</ele>
        <time>2017-07-23T06:58:48Z</time>
      </trkpt>
      <trkpt lat="43.58852" lon="3.3059">
        <ele>450.6</ele>
        <time>2017-07-23T06:58:52Z</time>
      </trkpt>
      <trkpt lat="43.58853" lon="3.30579">
        <ele>450.9</ele>
        <time>2017-07-23T06:58:56Z</time>
      </trkpt>
      <trkpt lat="43.58854" lon="3.30567">
        <ele>451.4</ele>
        <time>2017-07-23T06:59:00Z</time>
      </trkpt>
      <trkpt lat="43.58855" lon="3.30554">
        <ele>451.9</ele>
        <time>2017-07-23T06:59:04Z</time>
      </trkpt>
      <trkpt lat="43.58857" lon="3.30543">
        <ele>452.3</ele>
        <time>2017-07-23T06:59:08Z</time>
      </trkpt>
      <trkpt lat="43.58858" lon="3.3053">
        <ele>452.7</ele>
        <time>2017-07-23T06:59:12Z</time>
      </trkpt>
      <trkpt lat="43.58859" lon="3.30519">
        <ele>452.9</ele>
        <time>2017-07-23T06:59:15Z</time>
      </trkpt>
      <trkpt lat="43.58861" lon="3.30509">
        <ele>453.4</ele>
        <time>2017-07-23T06:59:19Z</time>
      </trkpt>
      <trkpt lat="43.58861" lon="3.30499">
        <ele>453.6</ele>
        <time>2017-07-23T06:59:22Z</time>
      </trkpt>
      <trkpt lat="43.58862" lon="3.30488">
        <ele>454</ele>
        <time>2017-07-23T06:59:26Z</time>
      </trkpt>
      <trkpt lat="43.58862" lon="3.30476">
        <ele>454.3</ele>
        <time>2017-07-23T06:59:30Z</time>
      </trkpt>
      <trkpt lat="43.58861" lon="3.30464">
        <ele>454.8</ele>
        <time>2017-07-23T06:59:34Z</time>
      </trkpt>
      <trkpt lat="43.58861" lon="3.30451">
        <ele>455.4</ele>
        <time>2017-07-23T06:59:39Z</time>
      </trkpt>
      <trkpt lat="43.58861" lon="3.30441">
        <ele>455.9</ele>
        <time>2017-07-23T06:59:42Z</time>
      </trkpt>
      <trkpt lat="43.58859" lon="3.30429">
        <ele>456.8</ele>
        <time>2017-07-23T06:59:46Z</time>
      </trkpt>
      <trkpt lat="43.58857" lon="3.3042">
        <ele>457.3</ele>
        <time>2017-07-23T06:59:50Z</time>
      </trkpt>
      <trkpt lat="43.58851" lon="3.30412">
        <ele>457.7</ele>
        <time>2017-07-23T06:59:54Z</time>
      </trkpt>
      <trkpt lat="43.58845" lon="3.30403">
        <ele>458</ele>
        <time>2017-07-23T06:59:59Z</time>
      </trkpt>
      <trkpt lat="43.58838" lon="3.30396">
        <ele>458.3</ele>
        <time>2017-07-23T07:00:03Z</time>
      </trkpt>
      <trkpt lat="43.58832" lon="3.30389">
        <ele>458.7</ele>
        <time>2017-07-23T07:00:07Z</time>
      </trkpt>
      <trkpt lat="43.58825" lon="3.30382">
        <ele>459</ele>
        <time>2017-07-23T07:00:11Z</time>
      </trkpt>
      <trkpt lat="43.58818" lon="3.30376">
        <ele>459.3</ele>
        <time>2017-07-23T07:00:15Z</time>
      </trkpt>
      <trkpt lat="43.5881" lon="3.3037">
        <ele>459.5</ele>
        <time>2017-07-23T07:00:19Z</time>
      </trkpt>
      <trkpt lat="43.58803" lon="3.30364">
        <ele>459.8</ele>
        <time>2017-07-23T07:00:23Z</time>
      </trkpt>
      <trkpt lat="43.58797" lon="3.30359">
        <ele>460.1</ele>
        <time>2017-07-23T07:00:27Z</time>
      </trkpt>
      <trkpt lat="43.58791" lon="3.30353">
        <ele>460.6</ele>
        <time>2017-07-23T07:00:31Z</time>
      </trkpt>
      <trkpt lat="43.58785" lon="3.30346">
        <ele>461.3</ele>
        <time>2017-07-23T07:00:35Z</time>
      </trkpt>
      <trkpt lat="43.5878" lon="3.30336">
        <ele>461.6</ele>
        <time>2017-07-23T07:00:38Z</time>
      </trkpt>
      <trkpt lat="43.58778" lon="3.30327">
        <ele>462.1</ele>
        <time>2017-07-23T07:00:42Z</time>
      </trkpt>
      <trkpt lat="43.58776" lon="3.30316">
        <ele>462.7</ele>
        <time>2017-07-23T07:00:46Z</time>
      </trkpt>
      <trkpt lat="43.58774" lon="3.30303">
        <ele>463.3</ele>
        <time>2017-07-23T07:00:50Z</time>
      </trkpt>
      <trkpt lat="43.58773" lon="3.3029">
        <ele>463.7</ele>
        <time>2017-07-23T07:00:54Z</time>
      </trkpt>
      <trkpt lat="43.58771" lon="3.30279">
        <ele>464.2</ele>
        <time>2017-07-23T07:00:58Z</time>
      </trkpt>
      <trkpt lat="43.58769" lon="3.3027">
        <ele>464.5</ele>
        <time>2017-07-23T07:01:01Z</time>
      </trkpt>
      <trkpt lat="43.58765" lon="3.30259">
        <ele>465.2</ele>
        <time>2017-07-23T07:01:06Z</time>
      </trkpt>
      <trkpt lat="43.58761" lon="3.30248">
        <ele>465.7</ele>
        <time>2017-07-23T07:01:10Z</time>
      </trkpt>
      <trkpt lat="43.58755" lon="3.30239">
        <ele>466.1</ele>
        <time>2017-07-23T07:01:14Z</time>
      </trkpt>
      <trkpt lat="43.58752" lon="3.3023">
        <ele>466.7</ele>
        <time>2017-07-23T07:01:17Z</time>
      </trkpt>
      <trkpt lat="43.58746" lon="3.3022">
        <ele>467.3</ele>
        <time>2017-07-23T07:01:21Z</time>
      </trkpt>
      <trkpt lat="43.58741" lon="3.3021">
        <ele>467.7</ele>
        <time>2017-07-23T07:01:24Z</time>
      </trkpt>
      <trkpt lat="43.58736" lon="3.30202">
        <ele>468.1</ele>
        <time>2017-07-23T07:01:27Z</time>
      </trkpt>
      <trkpt lat="43.5873" lon="3.30195">
        <ele>468.4</ele>
        <time>2017-07-23T07:01:30Z</time>
      </trkpt>
      <trkpt lat="43.58724" lon="3.30187">
        <ele>469</ele>
        <time>2017-07-23T07:01:34Z</time>
      </trkpt>
      <trkpt lat="43.58718" lon="3.30177">
        <ele>469.7</ele>
        <time>2017-07-23T07:01:38Z</time>
      </trkpt>
      <trkpt lat="43.58714" lon="3.30168">
        <ele>470</ele>
        <time>2017-07-23T07:01:41Z</time>
      </trkpt>
      <trkpt lat="43.58708" lon="3.30162">
        <ele>470.5</ele>
        <time>2017-07-23T07:01:45Z</time>
      </trkpt>
      <trkpt lat="43.587" lon="3.30159">
        <ele>470.9</ele>
        <time>2017-07-23T07:01:48Z</time>
      </trkpt>
      <trkpt lat="43.58693" lon="3.30157">
        <ele>471.3</ele>
        <time>2017-07-23T07:01:51Z</time>
      </trkpt>
      <trkpt lat="43.58685" lon="3.30157">
        <ele>471.8</ele>
        <time>2017-07-23T07:01:54Z</time>
      </trkpt>
      <trkpt lat="43.58677" lon="3.30154">
        <ele>472.2</ele>
        <time>2017-07-23T07:01:57Z</time>
      </trkpt>
      <trkpt lat="43.58669" lon="3.30152">
        <ele>472.9</ele>
        <time>2017-07-23T07:02:01Z</time>
      </trkpt>
      <trkpt lat="43.58661" lon="3.30151">
        <ele>473.7</ele>
        <time>2017-07-23T07:02:05Z</time>
      </trkpt>
      <trkpt lat="43.58653" lon="3.30149">
        <ele>474.1</ele>
        <time>2017-07-23T07:02:10Z</time>
      </trkpt>
      <trkpt lat="43.58647" lon="3.30143">
        <ele>474.5</ele>
        <time>2017-07-23T07:02:15Z</time>
      </trkpt>
      <trkpt lat="43.58643" lon="3.30133">
        <ele>474.9</ele>
        <time>2017-07-23T07:02:19Z</time>
      </trkpt>
      <trkpt lat="43.58641" lon="3.30124">
        <ele>475</ele>
        <time>2017-07-23T07:02:22Z</time>
      </trkpt>
      <trkpt lat="43.58641" lon="3.30113">
        <ele>475.3</ele>
        <time>2017-07-23T07:02:26Z</time>
      </trkpt>
      <trkpt lat="43.58643" lon="3.30102">
        <ele>475.9</ele>
        <time>2017-07-23T07:02:31Z</time>
      </trkpt>
      <trkpt lat="43.58646" lon="3.30091">
        <ele>476.6</ele>
        <time>2017-07-23T07:02:35Z</time>
      </trkpt>
      <trkpt lat="43.5865" lon="3.30081">
        <ele>477.2</ele>
        <time>2017-07-23T07:02:39Z</time>
      </trkpt>
      <trkpt lat="43.58654" lon="3.30071">
        <ele>477.7</ele>
        <time>2017-07-23T07:02:44Z</time>
      </trkpt>
      <trkpt lat="43.58659" lon="3.30062">
        <ele>478.4</ele>
        <time>2017-07-23T07:02:49Z</time>
      </trkpt>
      <trkpt lat="43.58665" lon="3.30056">
        <ele>479.2</ele>
        <time>2017-07-23T07:02:53Z</time>
      </trkpt>
      <trkpt lat="43.58672" lon="3.30053">
        <ele>479.7</ele>
        <time>2017-07-23T07:02:57Z</time>
      </trkpt>
      <trkpt lat="43.58679" lon="3.30049">
        <ele>480.3</ele>
        <time>2017-07-23T07:03:01Z</time>
      </trkpt>
      <trkpt lat="43.58686" lon="3.30044">
        <ele>481</ele>
        <time>2017-07-23T07:03:05Z</time>
      </trkpt>
      <trkpt lat="43.58695" lon="3.30041">
        <ele>482.1</ele>
        <time>2017-07-23T07:03:10Z</time>
      </trkpt>
      <trkpt lat="43.58703" lon="3.30038">
        <ele>482.9</ele>
        <time>2017-07-23T07:03:14Z</time>
      </trkpt>
      <trkpt lat="43.58711" lon="3.30034">
        <ele>483.8</ele>
        <time>2017-07-23T07:03:19Z</time>
      </trkpt>
      <trkpt lat="43.5872" lon="3.30033">
        <ele>484.7</ele>
        <time>2017-07-23T07:03:23Z</time>
      </trkpt>
      <trkpt lat="43.58728" lon="3.30032">
        <ele>485.9</ele>
        <time>2017-07-23T07:03:27Z</time>
      </trkpt>
      <trkpt lat="43.58737" lon="3.30032">
        <ele>486.9</ele>
        <time>2017-07-23T07:03:31Z</time>
      </trkpt>
      <trkpt lat="43.58744" lon="3.30028">
        <ele>487.7</ele>
        <time>2017-07-23T07:03:34Z</time>
      </trkpt>
      <trkpt lat="43.5875" lon="3.30022">
        <ele>488.5</ele>
        <time>2017-07-23T07:03:37Z</time>
      </trkpt>
      <trkpt lat="43.58757" lon="3.30012">
        <ele>489.1</ele>
        <time>2017-07-23T07:03:41Z</time>
      </trkpt>
      <trkpt lat="43.58762" lon="3.30004">
        <ele>489.5</ele>
        <time>2017-07-23T07:03:45Z</time>
      </trkpt>
      <trkpt lat="43.58768" lon="3.29994">
        <ele>489.5</ele>
        <time>2017-07-23T07:03:49Z</time>
      </trkpt>
      <trkpt lat="43.58772" lon="3.29981">
        <ele>489.5</ele>
        <time>2017-07-23T07:03:53Z</time>
      </trkpt>
      <trkpt lat="43.58777" lon="3.29972">
        <ele>489.6</ele>
        <time>2017-07-23T07:03:57Z</time>
      </trkpt>
      <trkpt lat="43.58782" lon="3.29961">
        <ele>490</ele>
        <time>2017-07-23T07:04:01Z</time>
      </trkpt>
      <trkpt lat="43.58785" lon="3.29949">
        <ele>490.3</ele>
        <time>2017-07-23T07:04:05Z</time>
      </trkpt>
      <trkpt lat="43.58788" lon="3.29938">
        <ele>490.6</ele>
        <time>2017-07-23T07:04:09Z</time>
      </trkpt>
      <trkpt lat="43.58789" lon="3.29927">
        <ele>491</ele>
        <time>2017-07-23T07:04:13Z</time>
      </trkpt>
      <trkpt lat="43.58789" lon="3.29915">
        <ele>491.3</ele>
        <time>2017-07-23T07:04:16Z</time>
      </trkpt>
      <trkpt lat="43.58786" lon="3.29904">
        <ele>491.5</ele>
        <time>2017-07-23T07:04:19Z</time>
      </trkpt>
      <trkpt lat="43.58782" lon="3.29893">
        <ele>491.6</ele>
        <time>2017-07-23T07:04:22Z</time>
      </trkpt>
      <trkpt lat="43.58776" lon="3.29885">
        <ele>491.9</ele>
        <time>2017-07-23T07:04:26Z</time>
      </trkpt>
      <trkpt lat="43.58768" lon="3.29882">
        <ele>492.2</ele>
        <time>2017-07-23T07:04:30Z</time>
      </trkpt>
      <trkpt lat="43.58761" lon="3.29881">
        <ele>492.3</ele>
        <time>2017-07-23T07:04:33Z</time>
      </trkpt>
      <trkpt lat="43.58753" lon="3.29882">
        <ele>492.3</ele>
        <time>2017-07-23T07:04:36Z</time>
      </trkpt>
      <trkpt lat="43.58746" lon="3.29882">
        <ele>492.3</ele>
        <time>2017-07-23T07:04:39Z</time>
      </trkpt>
      <trkpt lat="43.58737" lon="3.29884">
        <ele>492.3</ele>
        <time>2017-07-23T07:04:43Z</time>
      </trkpt>
      <trkpt lat="43.58728" lon="3.29884">
        <ele>492.4</ele>
        <time>2017-07-23T07:04:47Z</time>
      </trkpt>
      <trkpt lat="43.5872" lon="3.29885">
        <ele>492.5</ele>
        <time>2017-07-23T07:04:50Z</time>
      </trkpt>
      <trkpt lat="43.58712" lon="3.29885">
        <ele>492.6</ele>
        <time>2017-07-23T07:04:53Z</time>
      </trkpt>
      <trkpt lat="43.58705" lon="3.29884">
        <ele>492.8</ele>
        <time>2017-07-23T07:04:56Z</time>
      </trkpt>
      <trkpt lat="43.58698" lon="3.29885">
        <ele>492.9</ele>
        <time>2017-07-23T07:04:59Z</time>
      </trkpt>
      <trkpt lat="43.5869" lon="3.29884">
        <ele>493.1</ele>
        <time>2017-07-23T07:05:02Z</time>
      </trkpt>
      <trkpt lat="43.58681" lon="3.29884">
        <ele>493.4</ele>
        <time>2017-07-23T07:05:06Z</time>
      </trkpt>
      <trkpt lat="43.58672" lon="3.29885">
        <ele>493.6</ele>
        <time>2017-07-23T07:05:09Z</time>
      </trkpt>
      <trkpt lat="43.58664" lon="3.29886">
        <ele>494</ele>
        <time>2017-07-23T07:05:12Z</time>
      </trkpt>
      <trkpt lat="43.58657" lon="3.29888">
        <ele>494.5</ele>
        <time>2017-07-23T07:05:15Z</time>
      </trkpt>
      <trkpt lat="43.58648" lon="3.2989">
        <ele>494.9</ele>
        <time>2017-07-23T07:05:19Z</time>
      </trkpt>
      <trkpt lat="43.58639" lon="3.29891">
        <ele>495.2</ele>
        <time>2017-07-23T07:05:23Z</time>
      </trkpt>
      <trkpt lat="43.58631" lon="3.29892">
        <ele>495.5</ele>
        <time>2017-07-23T07:05:28Z</time>
      </trkpt>
      <trkpt lat="43.58624" lon="3.29895">
        <ele>495.9</ele>
        <time>2017-07-23T07:05:33Z</time>
      </trkpt>
      <trkpt lat="43.58618" lon="3.299">
        <ele>496.3</ele>
        <time>2017-07-23T07:05:37Z</time>
      </trkpt>
      <trkpt lat="43.58618" lon="3.29912">
        <ele>496.7</ele>
        <time>2017-07-23T07:05:42Z</time>
      </trkpt>
      <trkpt lat="43.5862" lon="3.29923">
        <ele>496.9</ele>
        <time>2017-07-23T07:05:46Z</time>
      </trkpt>
      <trkpt lat="43.58617" lon="3.29934">
        <ele>497.3</ele>
        <time>2017-07-23T07:05:50Z</time>
      </trkpt>
      <trkpt lat="43.58609" lon="3.29933">
        <ele>497.6</ele>
        <time>2017-07-23T07:05:54Z</time>
      </trkpt>
      <trkpt lat="43.586" lon="3.29934">
        <ele>498</ele>
        <time>2017-07-23T07:05:58Z</time>
      </trkpt>
      <trkpt lat="43.58594" lon="3.29943">
        <ele>498.5</ele>
        <time>2017-07-23T07:06:02Z</time>
      </trkpt>
      <trkpt lat="43.58591" lon="3.29955">
        <ele>499</ele>
        <time>2017-07-23T07:06:06Z</time>
      </trkpt>
      <trkpt lat="43.58587" lon="3.29963">
        <ele>499.3</ele>
        <time>2017-07-23T07:06:09Z</time>
      </trkpt>
      <trkpt lat="43.58584" lon="3.29973">
        <ele>499.8</ele>
        <time>2017-07-23T07:06:12Z</time>
      </trkpt>
      <trkpt lat="43.58579" lon="3.29981">
        <ele>500.1</ele>
        <time>2017-07-23T07:06:15Z</time>
      </trkpt>
      <trkpt lat="43.58575" lon="3.29992">
        <ele>500.5</ele>
        <time>2017-07-23T07:06:19Z</time>
      </trkpt>
      <trkpt lat="43.5857" lon="3.29992">
        <ele>501.8</ele>
        <time>2017-07-23T07:06:50Z</time>
      </trkpt>
      <trkpt lat="43.5857" lon="3.29999">
        <ele>502.6</ele>
        <time>2017-07-23T07:07:29Z</time>
      </trkpt>
      <trkpt lat="43.58572" lon="3.29997">
        <ele>503.3</ele>
        <time>2017-07-23T07:07:36Z</time>
      </trkpt>
      <trkpt lat="43.58574" lon="3.29993">
        <ele>503.5</ele>
        <time>2017-07-23T07:07:43Z</time>
      </trkpt>
      <trkpt lat="43.58577" lon="3.29999">
        <ele>502.8</ele>
        <time>2017-07-23T07:08:12Z</time>
      </trkpt>
      <trkpt lat="43.58571" lon="3.2999">
        <ele>502.1</ele>
        <time>2017-07-23T07:09:28Z</time>
      </trkpt>
      <trkpt lat="43.5857" lon="3.2999">
        <ele>503</ele>
        <time>2017-07-23T07:09:35Z</time>
      </trkpt>
      <trkpt lat="43.58567" lon="3.30001">
        <ele>504.5</ele>
        <time>2017-07-23T07:09:51Z</time>
      </trkpt>
      <trkpt lat="43.58564" lon="3.30013">
        <ele>504.9</ele>
        <time>2017-07-23T07:09:54Z</time>
      </trkpt>
      <trkpt lat="43.58561" lon="3.30023">
        <ele>505</ele>
        <time>2017-07-23T07:09:56Z</time>
      </trkpt>
      <trkpt lat="43.58558" lon="3.30033">
        <ele>505.1</ele>
        <time>2017-07-23T07:09:58Z</time>
      </trkpt>
      <trkpt lat="43.58555" lon="3.30042">
        <ele>505.1</ele>
        <time>2017-07-23T07:10:00Z</time>
      </trkpt>
      <trkpt lat="43.58549" lon="3.30055">
        <ele>504.8</ele>
        <time>2017-07-23T07:10:03Z</time>
      </trkpt>
      <trkpt lat="43.58545" lon="3.30062">
        <ele>504.8</ele>
        <time>2017-07-23T07:10:05Z</time>
      </trkpt>
      <trkpt lat="43.5854" lon="3.30073">
        <ele>504.6</ele>
        <time>2017-07-23T07:10:08Z</time>
      </trkpt>
      <trkpt lat="43.58533" lon="3.30084">
        <ele>504.6</ele>
        <time>2017-07-23T07:10:11Z</time>
      </trkpt>
      <trkpt lat="43.58527" lon="3.30093">
        <ele>504.6</ele>
        <time>2017-07-23T07:10:13Z</time>
      </trkpt>
      <trkpt lat="43.58523" lon="3.30102">
        <ele>504.7</ele>
        <time>2017-07-23T07:10:15Z</time>
      </trkpt>
      <trkpt lat="43.58517" lon="3.30113">
        <ele>504.7</ele>
        <time>2017-07-23T07:10:18Z</time>
      </trkpt>
      <trkpt lat="43.58513" lon="3.30122">
        <ele>504.6</ele>
        <time>2017-07-23T07:10:20Z</time>
      </trkpt>
      <trkpt lat="43.58506" lon="3.30132">
        <ele>504.6</ele>
        <time>2017-07-23T07:10:23Z</time>
      </trkpt>
      <trkpt lat="43.58501" lon="3.30141">
        <ele>504.5</ele>
        <time>2017-07-23T07:10:28Z</time>
      </trkpt>
      <trkpt lat="43.58496" lon="3.30155">
        <ele>504.5</ele>
        <time>2017-07-23T07:10:32Z</time>
      </trkpt>
      <trkpt lat="43.58489" lon="3.30163">
        <ele>504.5</ele>
        <time>2017-07-23T07:10:34Z</time>
      </trkpt>
      <trkpt lat="43.58482" lon="3.30174">
        <ele>504.4</ele>
        <time>2017-07-23T07:10:36Z</time>
      </trkpt>
      <trkpt lat="43.58476" lon="3.30183">
        <ele>504.1</ele>
        <time>2017-07-23T07:10:38Z</time>
      </trkpt>
      <trkpt lat="43.5847" lon="3.30189">
        <ele>504.8</ele>
        <time>2017-07-23T07:10:40Z</time>
      </trkpt>
      <trkpt lat="43.58463" lon="3.30197">
        <ele>505.1</ele>
        <time>2017-07-23T07:10:42Z</time>
      </trkpt>
      <trkpt lat="43.58455" lon="3.30204">
        <ele>504.5</ele>
        <time>2017-07-23T07:10:44Z</time>
      </trkpt>
      <trkpt lat="43.58449" lon="3.30208">
        <ele>504.6</ele>
        <time>2017-07-23T07:10:46Z</time>
      </trkpt>
      <trkpt lat="43.5844" lon="3.30213">
        <ele>504.5</ele>
        <time>2017-07-23T07:10:49Z</time>
      </trkpt>
      <trkpt lat="43.58432" lon="3.30214">
        <ele>503.7</ele>
        <time>2017-07-23T07:10:51Z</time>
      </trkpt>
      <trkpt lat="43.58424" lon="3.30217">
        <ele>503.3</ele>
        <time>2017-07-23T07:10:53Z</time>
      </trkpt>
      <trkpt lat="43.58414" lon="3.30222">
        <ele>503.2</ele>
        <time>2017-07-23T07:10:56Z</time>
      </trkpt>
      <trkpt lat="43.58406" lon="3.30224">
        <ele>502.2</ele>
        <time>2017-07-23T07:10:58Z</time>
      </trkpt>
      <trkpt lat="43.58397" lon="3.30228">
        <ele>501.7</ele>
        <time>2017-07-23T07:11:01Z</time>
      </trkpt>
      <trkpt lat="43.58389" lon="3.3023">
        <ele>501.7</ele>
        <time>2017-07-23T07:11:03Z</time>
      </trkpt>
      <trkpt lat="43.58381" lon="3.30232">
        <ele>501.7</ele>
        <time>2017-07-23T07:11:05Z</time>
      </trkpt>
      <trkpt lat="43.58373" lon="3.30234">
        <ele>501.7</ele>
        <time>2017-07-23T07:11:07Z</time>
      </trkpt>
      <trkpt lat="43.58364" lon="3.30236">
        <ele>502.6</ele>
        <time>2017-07-23T07:11:09Z</time>
      </trkpt>
      <trkpt lat="43.58351" lon="3.30239">
        <ele>502.3</ele>
        <time>2017-07-23T07:11:11Z</time>
      </trkpt>
      <trkpt lat="43.5834" lon="3.30246">
        <ele>502.4</ele>
        <time>2017-07-23T07:11:13Z</time>
      </trkpt>
      <trkpt lat="43.58327" lon="3.30253">
        <ele>501.4</ele>
        <time>2017-07-23T07:11:15Z</time>
      </trkpt>
      <trkpt lat="43.58321" lon="3.30258">
        <ele>500.8</ele>
        <time>2017-07-23T07:11:16Z</time>
      </trkpt>
      <trkpt lat="43.5831" lon="3.30271">
        <ele>500.2</ele>
        <time>2017-07-23T07:11:18Z</time>
      </trkpt>
      <trkpt lat="43.58306" lon="3.3028">
        <ele>500</ele>
        <time>2017-07-23T07:11:19Z</time>
      </trkpt>
      <trkpt lat="43.58296" lon="3.30295">
        <ele>500.5</ele>
        <time>2017-07-23T07:11:21Z</time>
      </trkpt>
      <trkpt lat="43.58292" lon="3.30313">
        <ele>500</ele>
        <time>2017-07-23T07:11:23Z</time>
      </trkpt>
      <trkpt lat="43.58294" lon="3.30327">
        <ele>499.7</ele>
        <time>2017-07-23T07:11:24Z</time>
      </trkpt>
      <trkpt lat="43.58296" lon="3.3034">
        <ele>499.8</ele>
        <time>2017-07-23T07:11:25Z</time>
      </trkpt>
      <trkpt lat="43.58295" lon="3.30351">
        <ele>498.9</ele>
        <time>2017-07-23T07:11:26Z</time>
      </trkpt>
      <trkpt lat="43.58294" lon="3.30364">
        <ele>498.2</ele>
        <time>2017-07-23T07:11:27Z</time>
      </trkpt>
      <trkpt lat="43.58294" lon="3.30376">
        <ele>497.5</ele>
        <time>2017-07-23T07:11:28Z</time>
      </trkpt>
      <trkpt lat="43.58293" lon="3.3039">
        <ele>496.5</ele>
        <time>2017-07-23T07:11:29Z</time>
      </trkpt>
      <trkpt lat="43.58292" lon="3.30402">
        <ele>495</ele>
        <time>2017-07-23T07:11:30Z</time>
      </trkpt>
      <trkpt lat="43.58292" lon="3.30422">
        <ele>492.1</ele>
        <time>2017-07-23T07:11:32Z</time>
      </trkpt>
      <trkpt lat="43.58291" lon="3.30435">
        <ele>490.9</ele>
        <time>2017-07-23T07:11:33Z</time>
      </trkpt>
      <trkpt lat="43.58292" lon="3.30456">
        <ele>488.3</ele>
        <time>2017-07-23T07:11:35Z</time>
      </trkpt>
      <trkpt lat="43.58292" lon="3.30468">
        <ele>487.9</ele>
        <time>2017-07-23T07:11:36Z</time>
      </trkpt>
      <trkpt lat="43.58294" lon="3.30484">
        <ele>486</ele>
        <time>2017-07-23T07:11:38Z</time>
      </trkpt>
      <trkpt lat="43.58297" lon="3.30502">
        <ele>485.7</ele>
        <time>2017-07-23T07:11:40Z</time>
      </trkpt>
      <trkpt lat="43.583" lon="3.30517">
        <ele>484.8</ele>
        <time>2017-07-23T07:11:42Z</time>
      </trkpt>
      <trkpt lat="43.58302" lon="3.3053">
        <ele>484.4</ele>
        <time>2017-07-23T07:11:44Z</time>
      </trkpt>
      <trkpt lat="43.58305" lon="3.30546">
        <ele>483.9</ele>
        <time>2017-07-23T07:11:46Z</time>
      </trkpt>
      <trkpt lat="43.58308" lon="3.30559">
        <ele>483.6</ele>
        <time>2017-07-23T07:11:48Z</time>
      </trkpt>
      <trkpt lat="43.58308" lon="3.30572">
        <ele>483.4</ele>
        <time>2017-07-23T07:11:50Z</time>
      </trkpt>
      <trkpt lat="43.58305" lon="3.30585">
        <ele>482.8</ele>
        <time>2017-07-23T07:11:52Z</time>
      </trkpt>
      <trkpt lat="43.58302" lon="3.30598">
        <ele>482.7</ele>
        <time>2017-07-23T07:11:54Z</time>
      </trkpt>
      <trkpt lat="43.58298" lon="3.30608">
        <ele>482.3</ele>
        <time>2017-07-23T07:11:56Z</time>
      </trkpt>
      <trkpt lat="43.58292" lon="3.30619">
        <ele>482.3</ele>
        <time>2017-07-23T07:11:58Z</time>
      </trkpt>
      <trkpt lat="43.58287" lon="3.3063">
        <ele>482.4</ele>
        <time>2017-07-23T07:12:00Z</time>
      </trkpt>
      <trkpt lat="43.58281" lon="3.30641">
        <ele>483.5</ele>
        <time>2017-07-23T07:12:02Z</time>
      </trkpt>
      <trkpt lat="43.58276" lon="3.30658">
        <ele>484.4</ele>
        <time>2017-07-23T07:12:04Z</time>
      </trkpt>
      <trkpt lat="43.58268" lon="3.30676">
        <ele>484</ele>
        <time>2017-07-23T07:12:06Z</time>
      </trkpt>
      <trkpt lat="43.58263" lon="3.30687">
        <ele>483.7</ele>
        <time>2017-07-23T07:12:07Z</time>
      </trkpt>
      <trkpt lat="43.58258" lon="3.30697">
        <ele>483.3</ele>
        <time>2017-07-23T07:12:08Z</time>
      </trkpt>
      <trkpt lat="43.58252" lon="3.30708">
        <ele>482.5</ele>
        <time>2017-07-23T07:12:09Z</time>
      </trkpt>
      <trkpt lat="43.58245" lon="3.30719">
        <ele>481.3</ele>
        <time>2017-07-23T07:12:10Z</time>
      </trkpt>
      <trkpt lat="43.58236" lon="3.30726">
        <ele>480.5</ele>
        <time>2017-07-23T07:12:11Z</time>
      </trkpt>
      <trkpt lat="43.58228" lon="3.30734">
        <ele>479.3</ele>
        <time>2017-07-23T07:12:12Z</time>
      </trkpt>
      <trkpt lat="43.58219" lon="3.30741">
        <ele>478.5</ele>
        <time>2017-07-23T07:12:13Z</time>
      </trkpt>
      <trkpt lat="43.58211" lon="3.30749">
        <ele>477.5</ele>
        <time>2017-07-23T07:12:14Z</time>
      </trkpt>
      <trkpt lat="43.582" lon="3.30752">
        <ele>476</ele>
        <time>2017-07-23T07:12:15Z</time>
      </trkpt>
      <trkpt lat="43.58192" lon="3.30755">
        <ele>473.9</ele>
        <time>2017-07-23T07:12:16Z</time>
      </trkpt>
      <trkpt lat="43.58181" lon="3.30758">
        <ele>471.9</ele>
        <time>2017-07-23T07:12:17Z</time>
      </trkpt>
      <trkpt lat="43.58171" lon="3.30761">
        <ele>470.1</ele>
        <time>2017-07-23T07:12:18Z</time>
      </trkpt>
      <trkpt lat="43.5816" lon="3.30765">
        <ele>468.7</ele>
        <time>2017-07-23T07:12:19Z</time>
      </trkpt>
      <trkpt lat="43.5815" lon="3.30769">
        <ele>467.6</ele>
        <time>2017-07-23T07:12:20Z</time>
      </trkpt>
      <trkpt lat="43.5814" lon="3.30773">
        <ele>465.8</ele>
        <time>2017-07-23T07:12:21Z</time>
      </trkpt>
      <trkpt lat="43.58126" lon="3.30779">
        <ele>462.1</ele>
        <time>2017-07-23T07:12:23Z</time>
      </trkpt>
      <trkpt lat="43.5812" lon="3.30769">
        <ele>460.8</ele>
        <time>2017-07-23T07:12:28Z</time>
      </trkpt>
      <trkpt lat="43.58119" lon="3.30758">
        <ele>455</ele>
        <time>2017-07-23T07:12:30Z</time>
      </trkpt>
      <trkpt lat="43.5811" lon="3.30758">
        <ele>450.6</ele>
        <time>2017-07-23T07:12:32Z</time>
      </trkpt>
      <trkpt lat="43.58097" lon="3.30762">
        <ele>447.4</ele>
        <time>2017-07-23T07:12:34Z</time>
      </trkpt>
      <trkpt lat="43.5809" lon="3.30763">
        <ele>445.8</ele>
        <time>2017-07-23T07:12:35Z</time>
      </trkpt>
      <trkpt lat="43.58082" lon="3.30766">
        <ele>444.3</ele>
        <time>2017-07-23T07:12:36Z</time>
      </trkpt>
      <trkpt lat="43.58074" lon="3.3077">
        <ele>443.2</ele>
        <time>2017-07-23T07:12:37Z</time>
      </trkpt>
      <trkpt lat="43.58066" lon="3.30776">
        <ele>442.1</ele>
        <time>2017-07-23T07:12:38Z</time>
      </trkpt>
      <trkpt lat="43.58057" lon="3.30781">
        <ele>441.4</ele>
        <time>2017-07-23T07:12:39Z</time>
      </trkpt>
      <trkpt lat="43.5805" lon="3.30787">
        <ele>440.5</ele>
        <time>2017-07-23T07:12:40Z</time>
      </trkpt>
      <trkpt lat="43.58043" lon="3.30792">
        <ele>439.7</ele>
        <time>2017-07-23T07:12:41Z</time>
      </trkpt>
      <trkpt lat="43.58034" lon="3.3081">
        <ele>438.2</ele>
        <time>2017-07-23T07:12:43Z</time>
      </trkpt>
      <trkpt lat="43.58027" lon="3.30818">
        <ele>437.1</ele>
        <time>2017-07-23T07:12:44Z</time>
      </trkpt>
      <trkpt lat="43.58019" lon="3.30827">
        <ele>436.6</ele>
        <time>2017-07-23T07:12:45Z</time>
      </trkpt>
      <trkpt lat="43.58012" lon="3.3083">
        <ele>435.6</ele>
        <time>2017-07-23T07:12:46Z</time>
      </trkpt>
      <trkpt lat="43.58005" lon="3.30834">
        <ele>434.7</ele>
        <time>2017-07-23T07:12:47Z</time>
      </trkpt>
      <trkpt lat="43.57998" lon="3.30844">
        <ele>434.5</ele>
        <time>2017-07-23T07:12:48Z</time>
      </trkpt>
      <trkpt lat="43.57991" lon="3.30853">
        <ele>433.8</ele>
        <time>2017-07-23T07:12:49Z</time>
      </trkpt>
      <trkpt lat="43.57984" lon="3.30861">
        <ele>432.9</ele>
        <time>2017-07-23T07:12:50Z</time>
      </trkpt>
      <trkpt lat="43.57979" lon="3.30881">
        <ele>431.7</ele>
        <time>2017-07-23T07:12:52Z</time>
      </trkpt>
      <trkpt lat="43.57975" lon="3.30892">
        <ele>430.2</ele>
        <time>2017-07-23T07:12:53Z</time>
      </trkpt>
      <trkpt lat="43.57971" lon="3.30901">
        <ele>429</ele>
        <time>2017-07-23T07:12:54Z</time>
      </trkpt>
      <trkpt lat="43.57965" lon="3.3091">
        <ele>428.4</ele>
        <time>2017-07-23T07:12:55Z</time>
      </trkpt>
      <trkpt lat="43.57962" lon="3.30919">
        <ele>428.2</ele>
        <time>2017-07-23T07:12:56Z</time>
      </trkpt>
      <trkpt lat="43.57953" lon="3.30934">
        <ele>426.9</ele>
        <time>2017-07-23T07:12:58Z</time>
      </trkpt>
      <trkpt lat="43.57948" lon="3.30943">
        <ele>426.3</ele>
        <time>2017-07-23T07:12:59Z</time>
      </trkpt>
      <trkpt lat="43.57943" lon="3.3095">
        <ele>425.6</ele>
        <time>2017-07-23T07:13:00Z</time>
      </trkpt>
      <trkpt lat="43.57937" lon="3.30967">
        <ele>425</ele>
        <time>2017-07-23T07:13:02Z</time>
      </trkpt>
      <trkpt lat="43.57937" lon="3.30984">
        <ele>425.3</ele>
        <time>2017-07-23T07:13:04Z</time>
      </trkpt>
      <trkpt lat="43.57934" lon="3.31002">
        <ele>424.4</ele>
        <time>2017-07-23T07:13:06Z</time>
      </trkpt>
      <trkpt lat="43.57931" lon="3.31021">
        <ele>424.5</ele>
        <time>2017-07-23T07:13:08Z</time>
      </trkpt>
      <trkpt lat="43.57929" lon="3.31038">
        <ele>423.9</ele>
        <time>2017-07-23T07:13:10Z</time>
      </trkpt>
      <trkpt lat="43.57929" lon="3.31058">
        <ele>423.3</ele>
        <time>2017-07-23T07:13:12Z</time>
      </trkpt>
      <trkpt lat="43.57927" lon="3.31069">
        <ele>422.7</ele>
        <time>2017-07-23T07:13:13Z</time>
      </trkpt>
      <trkpt lat="43.57927" lon="3.3108">
        <ele>422.3</ele>
        <time>2017-07-23T07:13:14Z</time>
      </trkpt>
      <trkpt lat="43.57927" lon="3.3109">
        <ele>421.8</ele>
        <time>2017-07-23T07:13:15Z</time>
      </trkpt>
      <trkpt lat="43.57927" lon="3.311">
        <ele>421.3</ele>
        <time>2017-07-23T07:13:16Z</time>
      </trkpt>
      <trkpt lat="43.57926" lon="3.31112">
        <ele>420.7</ele>
        <time>2017-07-23T07:13:17Z</time>
      </trkpt>
      <trkpt lat="43.57925" lon="3.31123">
        <ele>420.1</ele>
        <time>2017-07-23T07:13:18Z</time>
      </trkpt>
      <trkpt lat="43.57922" lon="3.31134">
        <ele>418.8</ele>
        <time>2017-07-23T07:13:19Z</time>
      </trkpt>
      <trkpt lat="43.57921" lon="3.31144">
        <ele>416.8</ele>
        <time>2017-07-23T07:13:20Z</time>
      </trkpt>
      <trkpt lat="43.5792" lon="3.31164">
        <ele>414.4</ele>
        <time>2017-07-23T07:13:22Z</time>
      </trkpt>
      <trkpt lat="43.57917" lon="3.31174">
        <ele>413.5</ele>
        <time>2017-07-23T07:13:23Z</time>
      </trkpt>
      <trkpt lat="43.57914" lon="3.31185">
        <ele>412.5</ele>
        <time>2017-07-23T07:13:24Z</time>
      </trkpt>
      <trkpt lat="43.5791" lon="3.31194">
        <ele>411.8</ele>
        <time>2017-07-23T07:13:25Z</time>
      </trkpt>
      <trkpt lat="43.57906" lon="3.31204">
        <ele>411.2</ele>
        <time>2017-07-23T07:13:26Z</time>
      </trkpt>
      <trkpt lat="43.57902" lon="3.31214">
        <ele>410.8</ele>
        <time>2017-07-23T07:13:27Z</time>
      </trkpt>
      <trkpt lat="43.57898" lon="3.31222">
        <ele>410.3</ele>
        <time>2017-07-23T07:13:28Z</time>
      </trkpt>
      <trkpt lat="43.57892" lon="3.31232">
        <ele>410.5</ele>
        <time>2017-07-23T07:13:29Z</time>
      </trkpt>
      <trkpt lat="43.57886" lon="3.31238">
        <ele>410.7</ele>
        <time>2017-07-23T07:13:30Z</time>
      </trkpt>
      <trkpt lat="43.57877" lon="3.31249">
        <ele>410.3</ele>
        <time>2017-07-23T07:13:32Z</time>
      </trkpt>
      <trkpt lat="43.57867" lon="3.31264">
        <ele>411.2</ele>
        <time>2017-07-23T07:13:34Z</time>
      </trkpt>
      <trkpt lat="43.57862" lon="3.31271">
        <ele>411.6</ele>
        <time>2017-07-23T07:13:35Z</time>
      </trkpt>
      <trkpt lat="43.57851" lon="3.31283">
        <ele>412.8</ele>
        <time>2017-07-23T07:13:37Z</time>
      </trkpt>
      <trkpt lat="43.5784" lon="3.31294">
        <ele>413.9</ele>
        <time>2017-07-23T07:13:39Z</time>
      </trkpt>
      <trkpt lat="43.57829" lon="3.31305">
        <ele>414.5</ele>
        <time>2017-07-23T07:13:41Z</time>
      </trkpt>
      <trkpt lat="43.57822" lon="3.31313">
        <ele>414.2</ele>
        <time>2017-07-23T07:13:42Z</time>
      </trkpt>
      <trkpt lat="43.57816" lon="3.3132">
        <ele>414</ele>
        <time>2017-07-23T07:13:43Z</time>
      </trkpt>
      <trkpt lat="43.57811" lon="3.31329">
        <ele>413.9</ele>
        <time>2017-07-23T07:13:44Z</time>
      </trkpt>
      <trkpt lat="43.57806" lon="3.31341">
        <ele>413.5</ele>
        <time>2017-07-23T07:13:46Z</time>
      </trkpt>
      <trkpt lat="43.57801" lon="3.31349">
        <ele>412.8</ele>
        <time>2017-07-23T07:13:47Z</time>
      </trkpt>
      <trkpt lat="43.57797" lon="3.31357">
        <ele>412.6</ele>
        <time>2017-07-23T07:13:48Z</time>
      </trkpt>
      <trkpt lat="43.57791" lon="3.31367">
        <ele>411.9</ele>
        <time>2017-07-23T07:13:49Z</time>
      </trkpt>
      <trkpt lat="43.57784" lon="3.31374">
        <ele>411.3</ele>
        <time>2017-07-23T07:13:50Z</time>
      </trkpt>
      <trkpt lat="43.57777" lon="3.3138">
        <ele>411.4</ele>
        <time>2017-07-23T07:13:51Z</time>
      </trkpt>
      <trkpt lat="43.57766" lon="3.31387">
        <ele>411.4</ele>
        <time>2017-07-23T07:13:53Z</time>
      </trkpt>
      <trkpt lat="43.57759" lon="3.31399">
        <ele>411.7</ele>
        <time>2017-07-23T07:13:55Z</time>
      </trkpt>
      <trkpt lat="43.57753" lon="3.31407">
        <ele>411.8</ele>
        <time>2017-07-23T07:13:56Z</time>
      </trkpt>
      <trkpt lat="43.57748" lon="3.31416">
        <ele>411.6</ele>
        <time>2017-07-23T07:13:57Z</time>
      </trkpt>
      <trkpt lat="43.57737" lon="3.31431">
        <ele>411.3</ele>
        <time>2017-07-23T07:13:59Z</time>
      </trkpt>
      <trkpt lat="43.5773" lon="3.31439">
        <ele>411.7</ele>
        <time>2017-07-23T07:14:00Z</time>
      </trkpt>
      <trkpt lat="43.57726" lon="3.31448">
        <ele>412.1</ele>
        <time>2017-07-23T07:14:01Z</time>
      </trkpt>
      <trkpt lat="43.5772" lon="3.31456">
        <ele>412.5</ele>
        <time>2017-07-23T07:14:02Z</time>
      </trkpt>
      <trkpt lat="43.57714" lon="3.31461">
        <ele>412.3</ele>
        <time>2017-07-23T07:14:03Z</time>
      </trkpt>
      <trkpt lat="43.57701" lon="3.31469">
        <ele>411.7</ele>
        <time>2017-07-23T07:14:05Z</time>
      </trkpt>
      <trkpt lat="43.57691" lon="3.31476">
        <ele>411.3</ele>
        <time>2017-07-23T07:14:07Z</time>
      </trkpt>
      <trkpt lat="43.57685" lon="3.31488">
        <ele>410.7</ele>
        <time>2017-07-23T07:14:09Z</time>
      </trkpt>
      <trkpt lat="43.57681" lon="3.31495">
        <ele>410.6</ele>
        <time>2017-07-23T07:14:11Z</time>
      </trkpt>
      <trkpt lat="43.57675" lon="3.31504">
        <ele>410.6</ele>
        <time>2017-07-23T07:14:13Z</time>
      </trkpt>
      <trkpt lat="43.57669" lon="3.31513">
        <ele>410.7</ele>
        <time>2017-07-23T07:14:16Z</time>
      </trkpt>
      <trkpt lat="43.57659" lon="3.31515">
        <ele>411.1</ele>
        <time>2017-07-23T07:14:20Z</time>
      </trkpt>
      <trkpt lat="43.5765" lon="3.31512">
        <ele>411.4</ele>
        <time>2017-07-23T07:14:23Z</time>
      </trkpt>
      <trkpt lat="43.57643" lon="3.3151">
        <ele>411.8</ele>
        <time>2017-07-23T07:14:26Z</time>
      </trkpt>
      <trkpt lat="43.57632" lon="3.3151">
        <ele>413.7</ele>
        <time>2017-07-23T07:14:29Z</time>
      </trkpt>
      <trkpt lat="43.57621" lon="3.3151">
        <ele>415.3</ele>
        <time>2017-07-23T07:14:31Z</time>
      </trkpt>
      <trkpt lat="43.57609" lon="3.31513">
        <ele>416</ele>
        <time>2017-07-23T07:14:33Z</time>
      </trkpt>
      <trkpt lat="43.57599" lon="3.3152">
        <ele>416</ele>
        <time>2017-07-23T07:14:35Z</time>
      </trkpt>
      <trkpt lat="43.57589" lon="3.31527">
        <ele>415</ele>
        <time>2017-07-23T07:14:37Z</time>
      </trkpt>
      <trkpt lat="43.57582" lon="3.3153">
        <ele>414.8</ele>
        <time>2017-07-23T07:14:38Z</time>
      </trkpt>
      <trkpt lat="43.57571" lon="3.31538">
        <ele>414.7</ele>
        <time>2017-07-23T07:14:40Z</time>
      </trkpt>
      <trkpt lat="43.57562" lon="3.31548">
        <ele>413.8</ele>
        <time>2017-07-23T07:14:42Z</time>
      </trkpt>
      <trkpt lat="43.57554" lon="3.31559">
        <ele>413.3</ele>
        <time>2017-07-23T07:14:44Z</time>
      </trkpt>
      <trkpt lat="43.57544" lon="3.31568">
        <ele>413.7</ele>
        <time>2017-07-23T07:14:46Z</time>
      </trkpt>
      <trkpt lat="43.57539" lon="3.31576">
        <ele>413.9</ele>
        <time>2017-07-23T07:14:47Z</time>
      </trkpt>
      <trkpt lat="43.57533" lon="3.31584">
        <ele>413.6</ele>
        <time>2017-07-23T07:14:48Z</time>
      </trkpt>
      <trkpt lat="43.57528" lon="3.31592">
        <ele>413</ele>
        <time>2017-07-23T07:14:49Z</time>
      </trkpt>
      <trkpt lat="43.57525" lon="3.31601">
        <ele>412.6</ele>
        <time>2017-07-23T07:14:50Z</time>
      </trkpt>
      <trkpt lat="43.57521" lon="3.3161">
        <ele>412.3</ele>
        <time>2017-07-23T07:14:51Z</time>
      </trkpt>
      <trkpt lat="43.57517" lon="3.31621">
        <ele>411.7</ele>
        <time>2017-07-23T07:14:52Z</time>
      </trkpt>
      <trkpt lat="43.57513" lon="3.31631">
        <ele>411.6</ele>
        <time>2017-07-23T07:14:53Z</time>
      </trkpt>
      <trkpt lat="43.57509" lon="3.31642">
        <ele>411</ele>
        <time>2017-07-23T07:14:54Z</time>
      </trkpt>
      <trkpt lat="43.57506" lon="3.31651">
        <ele>410.1</ele>
        <time>2017-07-23T07:14:55Z</time>
      </trkpt>
      <trkpt lat="43.57503" lon="3.31663">
        <ele>409.2</ele>
        <time>2017-07-23T07:14:56Z</time>
      </trkpt>
      <trkpt lat="43.57499" lon="3.31674">
        <ele>407.9</ele>
        <time>2017-07-23T07:14:57Z</time>
      </trkpt>
      <trkpt lat="43.57495" lon="3.31685">
        <ele>407.4</ele>
        <time>2017-07-23T07:14:58Z</time>
      </trkpt>
      <trkpt lat="43.57492" lon="3.31696">
        <ele>407</ele>
        <time>2017-07-23T07:14:59Z</time>
      </trkpt>
      <trkpt lat="43.57488" lon="3.31709">
        <ele>406.8</ele>
        <time>2017-07-23T07:15:00Z</time>
      </trkpt>
      <trkpt lat="43.57483" lon="3.31724">
        <ele>406.8</ele>
        <time>2017-07-23T07:15:01Z</time>
      </trkpt>
      <trkpt lat="43.57479" lon="3.31737">
        <ele>406.5</ele>
        <time>2017-07-23T07:15:02Z</time>
      </trkpt>
      <trkpt lat="43.57475" lon="3.31749">
        <ele>406.1</ele>
        <time>2017-07-23T07:15:03Z</time>
      </trkpt>
      <trkpt lat="43.57471" lon="3.31763">
        <ele>405.5</ele>
        <time>2017-07-23T07:15:04Z</time>
      </trkpt>
      <trkpt lat="43.57468" lon="3.31774">
        <ele>404.8</ele>
        <time>2017-07-23T07:15:05Z</time>
      </trkpt>
      <trkpt lat="43.57465" lon="3.31786">
        <ele>403.5</ele>
        <time>2017-07-23T07:15:06Z</time>
      </trkpt>
      <trkpt lat="43.57461" lon="3.318">
        <ele>402.5</ele>
        <time>2017-07-23T07:15:07Z</time>
      </trkpt>
      <trkpt lat="43.57457" lon="3.3181">
        <ele>402</ele>
        <time>2017-07-23T07:15:08Z</time>
      </trkpt>
      <trkpt lat="43.57454" lon="3.3182">
        <ele>400.8</ele>
        <time>2017-07-23T07:15:09Z</time>
      </trkpt>
      <trkpt lat="43.57448" lon="3.31836">
        <ele>398.8</ele>
        <time>2017-07-23T07:15:11Z</time>
      </trkpt>
      <trkpt lat="43.57441" lon="3.31847">
        <ele>395.6</ele>
        <time>2017-07-23T07:15:13Z</time>
      </trkpt>
      <trkpt lat="43.57432" lon="3.31845">
        <ele>395.5</ele>
        <time>2017-07-23T07:15:15Z</time>
      </trkpt>
      <trkpt lat="43.57426" lon="3.31838">
        <ele>395.2</ele>
        <time>2017-07-23T07:15:18Z</time>
      </trkpt>
      <trkpt lat="43.57421" lon="3.31828">
        <ele>395.1</ele>
        <time>2017-07-23T07:15:21Z</time>
      </trkpt>
      <trkpt lat="43.57416" lon="3.31818">
        <ele>395.2</ele>
        <time>2017-07-23T07:15:24Z</time>
      </trkpt>
      <trkpt lat="43.57412" lon="3.31808">
        <ele>395.3</ele>
        <time>2017-07-23T07:15:28Z</time>
      </trkpt>
      <trkpt lat="43.57409" lon="3.31799">
        <ele>395.3</ele>
        <time>2017-07-23T07:15:32Z</time>
      </trkpt>
      <trkpt lat="43.57404" lon="3.31789">
        <ele>395.6</ele>
        <time>2017-07-23T07:15:37Z</time>
      </trkpt>
      <trkpt lat="43.574" lon="3.31781">
        <ele>395.6</ele>
        <time>2017-07-23T07:15:40Z</time>
      </trkpt>
      <trkpt lat="43.57396" lon="3.31771">
        <ele>395.5</ele>
        <time>2017-07-23T07:15:43Z</time>
      </trkpt>
      <trkpt lat="43.5739" lon="3.31762">
        <ele>395.5</ele>
        <time>2017-07-23T07:15:47Z</time>
      </trkpt>
      <trkpt lat="43.57387" lon="3.31753">
        <ele>395.7</ele>
        <time>2017-07-23T07:15:50Z</time>
      </trkpt>
      <trkpt lat="43.57384" lon="3.31741">
        <ele>396.1</ele>
        <time>2017-07-23T07:15:54Z</time>
      </trkpt>
      <trkpt lat="43.57383" lon="3.3173">
        <ele>396.5</ele>
        <time>2017-07-23T07:15:58Z</time>
      </trkpt>
      <trkpt lat="43.57383" lon="3.31718">
        <ele>397.1</ele>
        <time>2017-07-23T07:16:03Z</time>
      </trkpt>
      <trkpt lat="43.57383" lon="3.31706">
        <ele>397.6</ele>
        <time>2017-07-23T07:16:07Z</time>
      </trkpt>
      <trkpt lat="43.57385" lon="3.31694">
        <ele>398.1</ele>
        <time>2017-07-23T07:16:11Z</time>
      </trkpt>
      <trkpt lat="43.57385" lon="3.31683">
        <ele>398.6</ele>
        <time>2017-07-23T07:16:15Z</time>
      </trkpt>
      <trkpt lat="43.57384" lon="3.31673">
        <ele>398.9</ele>
        <time>2017-07-23T07:16:18Z</time>
      </trkpt>
      <trkpt lat="43.57381" lon="3.31663">
        <ele>399.3</ele>
        <time>2017-07-23T07:16:22Z</time>
      </trkpt>
      <trkpt lat="43.57377" lon="3.31653">
        <ele>399.4</ele>
        <time>2017-07-23T07:16:26Z</time>
      </trkpt>
      <trkpt lat="43.57373" lon="3.3164">
        <ele>399.5</ele>
        <time>2017-07-23T07:16:29Z</time>
      </trkpt>
      <trkpt lat="43.57368" lon="3.31628">
        <ele>399.4</ele>
        <time>2017-07-23T07:16:32Z</time>
      </trkpt>
      <trkpt lat="43.57365" lon="3.31615">
        <ele>399.4</ele>
        <time>2017-07-23T07:16:35Z</time>
      </trkpt>
      <trkpt lat="43.57366" lon="3.31604">
        <ele>399</ele>
        <time>2017-07-23T07:16:37Z</time>
      </trkpt>
      <trkpt lat="43.57369" lon="3.31593">
        <ele>398.9</ele>
        <time>2017-07-23T07:16:39Z</time>
      </trkpt>
      <trkpt lat="43.57373" lon="3.3158">
        <ele>398.5</ele>
        <time>2017-07-23T07:16:41Z</time>
      </trkpt>
      <trkpt lat="43.57378" lon="3.31567">
        <ele>397.9</ele>
        <time>2017-07-23T07:16:43Z</time>
      </trkpt>
      <trkpt lat="43.57383" lon="3.31553">
        <ele>397</ele>
        <time>2017-07-23T07:16:45Z</time>
      </trkpt>
      <trkpt lat="43.5739" lon="3.31536">
        <ele>396.7</ele>
        <time>2017-07-23T07:16:47Z</time>
      </trkpt>
      <trkpt lat="43.57397" lon="3.3152">
        <ele>396.9</ele>
        <time>2017-07-23T07:16:49Z</time>
      </trkpt>
      <trkpt lat="43.57396" lon="3.315">
        <ele>396.5</ele>
        <time>2017-07-23T07:16:51Z</time>
      </trkpt>
      <trkpt lat="43.57394" lon="3.31482">
        <ele>395.7</ele>
        <time>2017-07-23T07:16:53Z</time>
      </trkpt>
      <trkpt lat="43.57393" lon="3.31466">
        <ele>395.3</ele>
        <time>2017-07-23T07:16:55Z</time>
      </trkpt>
      <trkpt lat="43.57389" lon="3.31453">
        <ele>393.9</ele>
        <time>2017-07-23T07:16:57Z</time>
      </trkpt>
      <trkpt lat="43.57382" lon="3.31436">
        <ele>392.4</ele>
        <time>2017-07-23T07:16:59Z</time>
      </trkpt>
      <trkpt lat="43.57377" lon="3.31426">
        <ele>392.1</ele>
        <time>2017-07-23T07:17:00Z</time>
      </trkpt>
      <trkpt lat="43.57374" lon="3.31417">
        <ele>391.4</ele>
        <time>2017-07-23T07:17:01Z</time>
      </trkpt>
      <trkpt lat="43.57365" lon="3.31402">
        <ele>390.5</ele>
        <time>2017-07-23T07:17:03Z</time>
      </trkpt>
      <trkpt lat="43.57358" lon="3.31398">
        <ele>389.4</ele>
        <time>2017-07-23T07:17:04Z</time>
      </trkpt>
      <trkpt lat="43.5735" lon="3.31397">
        <ele>388.2</ele>
        <time>2017-07-23T07:17:05Z</time>
      </trkpt>
      <trkpt lat="43.57335" lon="3.31394">
        <ele>386.2</ele>
        <time>2017-07-23T07:17:07Z</time>
      </trkpt>
      <trkpt lat="43.57327" lon="3.31393">
        <ele>385.5</ele>
        <time>2017-07-23T07:17:08Z</time>
      </trkpt>
      <trkpt lat="43.57317" lon="3.31393">
        <ele>385.1</ele>
        <time>2017-07-23T07:17:09Z</time>
      </trkpt>
      <trkpt lat="43.57307" lon="3.31391">
        <ele>384.5</ele>
        <time>2017-07-23T07:17:10Z</time>
      </trkpt>
      <trkpt lat="43.57298" lon="3.3139">
        <ele>384.6</ele>
        <time>2017-07-23T07:17:11Z</time>
      </trkpt>
      <trkpt lat="43.5729" lon="3.31394">
        <ele>384.1</ele>
        <time>2017-07-23T07:17:12Z</time>
      </trkpt>
      <trkpt lat="43.57282" lon="3.31397">
        <ele>383.8</ele>
        <time>2017-07-23T07:17:13Z</time>
      </trkpt>
      <trkpt lat="43.57274" lon="3.31399">
        <ele>383.2</ele>
        <time>2017-07-23T07:17:14Z</time>
      </trkpt>
      <trkpt lat="43.57266" lon="3.31398">
        <ele>382.6</ele>
        <time>2017-07-23T07:17:15Z</time>
      </trkpt>
      <trkpt lat="43.57258" lon="3.31397">
        <ele>382.3</ele>
        <time>2017-07-23T07:17:16Z</time>
      </trkpt>
      <trkpt lat="43.57251" lon="3.31396">
        <ele>381.7</ele>
        <time>2017-07-23T07:17:17Z</time>
      </trkpt>
      <trkpt lat="43.57243" lon="3.31397">
        <ele>381.5</ele>
        <time>2017-07-23T07:17:18Z</time>
      </trkpt>
      <trkpt lat="43.57229" lon="3.31396">
        <ele>380.6</ele>
        <time>2017-07-23T07:17:20Z</time>
      </trkpt>
      <trkpt lat="43.57222" lon="3.31396">
        <ele>379.9</ele>
        <time>2017-07-23T07:17:21Z</time>
      </trkpt>
      <trkpt lat="43.57208" lon="3.31397">
        <ele>379.4</ele>
        <time>2017-07-23T07:17:23Z</time>
      </trkpt>
      <trkpt lat="43.57197" lon="3.31393">
        <ele>379.7</ele>
        <time>2017-07-23T07:17:25Z</time>
      </trkpt>
      <trkpt lat="43.57184" lon="3.31389">
        <ele>380.4</ele>
        <time>2017-07-23T07:17:27Z</time>
      </trkpt>
      <trkpt lat="43.57176" lon="3.31387">
        <ele>380</ele>
        <time>2017-07-23T07:17:28Z</time>
      </trkpt>
      <trkpt lat="43.57167" lon="3.31385">
        <ele>379.6</ele>
        <time>2017-07-23T07:17:29Z</time>
      </trkpt>
      <trkpt lat="43.5716" lon="3.31383">
        <ele>379.5</ele>
        <time>2017-07-23T07:17:30Z</time>
      </trkpt>
      <trkpt lat="43.57153" lon="3.31377">
        <ele>379.3</ele>
        <time>2017-07-23T07:17:31Z</time>
      </trkpt>
      <trkpt lat="43.57145" lon="3.31371">
        <ele>379.3</ele>
        <time>2017-07-23T07:17:32Z</time>
      </trkpt>
      <trkpt lat="43.57138" lon="3.31366">
        <ele>379.1</ele>
        <time>2017-07-23T07:17:33Z</time>
      </trkpt>
      <trkpt lat="43.57131" lon="3.31362">
        <ele>378.5</ele>
        <time>2017-07-23T07:17:34Z</time>
      </trkpt>
      <trkpt lat="43.57121" lon="3.31349">
        <ele>376.9</ele>
        <time>2017-07-23T07:17:36Z</time>
      </trkpt>
      <trkpt lat="43.57114" lon="3.31343">
        <ele>376.2</ele>
        <time>2017-07-23T07:17:37Z</time>
      </trkpt>
      <trkpt lat="43.57108" lon="3.31336">
        <ele>375.3</ele>
        <time>2017-07-23T07:17:38Z</time>
      </trkpt>
      <trkpt lat="43.57101" lon="3.31329">
        <ele>373.5</ele>
        <time>2017-07-23T07:17:39Z</time>
      </trkpt>
      <trkpt lat="43.57094" lon="3.31323">
        <ele>371.7</ele>
        <time>2017-07-23T07:17:40Z</time>
      </trkpt>
      <trkpt lat="43.57088" lon="3.31309">
        <ele>368.9</ele>
        <time>2017-07-23T07:17:42Z</time>
      </trkpt>
      <trkpt lat="43.57082" lon="3.31297">
        <ele>367.1</ele>
        <time>2017-07-23T07:17:44Z</time>
      </trkpt>
      <trkpt lat="43.57077" lon="3.31288">
        <ele>366.2</ele>
        <time>2017-07-23T07:17:46Z</time>
      </trkpt>
      <trkpt lat="43.57065" lon="3.31288">
        <ele>364.5</ele>
        <time>2017-07-23T07:17:49Z</time>
      </trkpt>
      <trkpt lat="43.57056" lon="3.31291">
        <ele>363.9</ele>
        <time>2017-07-23T07:17:51Z</time>
      </trkpt>
      <trkpt lat="43.57045" lon="3.31297">
        <ele>359.9</ele>
        <time>2017-07-23T07:17:53Z</time>
      </trkpt>
      <trkpt lat="43.57031" lon="3.313">
        <ele>357.6</ele>
        <time>2017-07-23T07:17:55Z</time>
      </trkpt>
      <trkpt lat="43.57023" lon="3.31299">
        <ele>357.2</ele>
        <time>2017-07-23T07:17:56Z</time>
      </trkpt>
      <trkpt lat="43.5701" lon="3.31301">
        <ele>357</ele>
        <time>2017-07-23T07:17:58Z</time>
      </trkpt>
      <trkpt lat="43.56998" lon="3.31306">
        <ele>358.2</ele>
        <time>2017-07-23T07:18:00Z</time>
      </trkpt>
      <trkpt lat="43.56984" lon="3.31312">
        <ele>357.3</ele>
        <time>2017-07-23T07:18:02Z</time>
      </trkpt>
      <trkpt lat="43.56971" lon="3.31321">
        <ele>355.9</ele>
        <time>2017-07-23T07:18:04Z</time>
      </trkpt>
      <trkpt lat="43.56961" lon="3.31332">
        <ele>353.8</ele>
        <time>2017-07-23T07:18:06Z</time>
      </trkpt>
      <trkpt lat="43.5695" lon="3.31344">
        <ele>351.9</ele>
        <time>2017-07-23T07:18:08Z</time>
      </trkpt>
      <trkpt lat="43.56941" lon="3.31351">
        <ele>351.7</ele>
        <time>2017-07-23T07:18:10Z</time>
      </trkpt>
      <trkpt lat="43.56934" lon="3.31361">
        <ele>350.4</ele>
        <time>2017-07-23T07:18:12Z</time>
      </trkpt>
      <trkpt lat="43.56926" lon="3.31367">
        <ele>350.3</ele>
        <time>2017-07-23T07:18:14Z</time>
      </trkpt>
      <trkpt lat="43.56916" lon="3.31374">
        <ele>349.6</ele>
        <time>2017-07-23T07:18:16Z</time>
      </trkpt>
      <trkpt lat="43.56906" lon="3.31378">
        <ele>349.6</ele>
        <time>2017-07-23T07:18:18Z</time>
      </trkpt>
      <trkpt lat="43.56896" lon="3.31382">
        <ele>349.5</ele>
        <time>2017-07-23T07:18:20Z</time>
      </trkpt>
      <trkpt lat="43.56886" lon="3.31383">
        <ele>349.4</ele>
        <time>2017-07-23T07:18:22Z</time>
      </trkpt>
      <trkpt lat="43.56876" lon="3.31382">
        <ele>349.2</ele>
        <time>2017-07-23T07:18:24Z</time>
      </trkpt>
      <trkpt lat="43.56868" lon="3.31384">
        <ele>349.2</ele>
        <time>2017-07-23T07:18:26Z</time>
      </trkpt>
      <trkpt lat="43.56859" lon="3.31385">
        <ele>349.1</ele>
        <time>2017-07-23T07:18:28Z</time>
      </trkpt>
      <trkpt lat="43.56851" lon="3.31386">
        <ele>349</ele>
        <time>2017-07-23T07:18:30Z</time>
      </trkpt>
      <trkpt lat="43.56843" lon="3.31385">
        <ele>348.9</ele>
        <time>2017-07-23T07:18:32Z</time>
      </trkpt>
      <trkpt lat="43.56833" lon="3.31384">
        <ele>348.9</ele>
        <time>2017-07-23T07:18:34Z</time>
      </trkpt>
      <trkpt lat="43.56824" lon="3.3138">
        <ele>349.7</ele>
        <time>2017-07-23T07:18:36Z</time>
      </trkpt>
      <trkpt lat="43.56813" lon="3.31386">
        <ele>349.7</ele>
        <time>2017-07-23T07:18:38Z</time>
      </trkpt>
      <trkpt lat="43.56803" lon="3.31392">
        <ele>349.4</ele>
        <time>2017-07-23T07:18:40Z</time>
      </trkpt>
      <trkpt lat="43.5679" lon="3.31398">
        <ele>349.7</ele>
        <time>2017-07-23T07:18:42Z</time>
      </trkpt>
      <trkpt lat="43.56779" lon="3.31403">
        <ele>348.9</ele>
        <time>2017-07-23T07:18:44Z</time>
      </trkpt>
      <trkpt lat="43.56767" lon="3.3141">
        <ele>347.6</ele>
        <time>2017-07-23T07:18:46Z</time>
      </trkpt>
      <trkpt lat="43.56754" lon="3.31409">
        <ele>346.9</ele>
        <time>2017-07-23T07:18:48Z</time>
      </trkpt>
      <trkpt lat="43.56744" lon="3.31407">
        <ele>346.2</ele>
        <time>2017-07-23T07:18:50Z</time>
      </trkpt>
      <trkpt lat="43.56733" lon="3.31405">
        <ele>345.5</ele>
        <time>2017-07-23T07:18:52Z</time>
      </trkpt>
      <trkpt lat="43.56719" lon="3.31403">
        <ele>344.7</ele>
        <time>2017-07-23T07:18:54Z</time>
      </trkpt>
      <trkpt lat="43.56707" lon="3.31402">
        <ele>344.3</ele>
        <time>2017-07-23T07:18:56Z</time>
      </trkpt>
      <trkpt lat="43.56692" lon="3.31403">
        <ele>344.5</ele>
        <time>2017-07-23T07:18:58Z</time>
      </trkpt>
      <trkpt lat="43.56685" lon="3.31404">
        <ele>344.4</ele>
        <time>2017-07-23T07:18:59Z</time>
      </trkpt>
      <trkpt lat="43.56671" lon="3.31405">
        <ele>344.8</ele>
        <time>2017-07-23T07:19:01Z</time>
      </trkpt>
      <trkpt lat="43.56656" lon="3.31406">
        <ele>345.1</ele>
        <time>2017-07-23T07:19:03Z</time>
      </trkpt>
      <trkpt lat="43.56644" lon="3.31415">
        <ele>346.3</ele>
        <time>2017-07-23T07:19:05Z</time>
      </trkpt>
      <trkpt lat="43.56635" lon="3.3142">
        <ele>345.7</ele>
        <time>2017-07-23T07:19:07Z</time>
      </trkpt>
      <trkpt lat="43.56627" lon="3.31416">
        <ele>345.3</ele>
        <time>2017-07-23T07:19:09Z</time>
      </trkpt>
      <trkpt lat="43.5662" lon="3.31415">
        <ele>344.8</ele>
        <time>2017-07-23T07:19:11Z</time>
      </trkpt>
      <trkpt lat="43.56611" lon="3.31407">
        <ele>343.6</ele>
        <time>2017-07-23T07:19:14Z</time>
      </trkpt>
      <trkpt lat="43.566" lon="3.31407">
        <ele>341.6</ele>
        <time>2017-07-23T07:19:16Z</time>
      </trkpt>
      <trkpt lat="43.56588" lon="3.31405">
        <ele>339.8</ele>
        <time>2017-07-23T07:19:18Z</time>
      </trkpt>
      <trkpt lat="43.5658" lon="3.31407">
        <ele>338.5</ele>
        <time>2017-07-23T07:19:20Z</time>
      </trkpt>
      <trkpt lat="43.56569" lon="3.31403">
        <ele>338.1</ele>
        <time>2017-07-23T07:19:26Z</time>
      </trkpt>
      <trkpt lat="43.5656" lon="3.31401">
        <ele>337.3</ele>
        <time>2017-07-23T07:19:28Z</time>
      </trkpt>
      <trkpt lat="43.56548" lon="3.31398">
        <ele>336.5</ele>
        <time>2017-07-23T07:19:30Z</time>
      </trkpt>
      <trkpt lat="43.56541" lon="3.31395">
        <ele>335.6</ele>
        <time>2017-07-23T07:19:32Z</time>
      </trkpt>
      <trkpt lat="43.5653" lon="3.31391">
        <ele>334.5</ele>
        <time>2017-07-23T07:19:34Z</time>
      </trkpt>
      <trkpt lat="43.56521" lon="3.3139">
        <ele>333.8</ele>
        <time>2017-07-23T07:19:36Z</time>
      </trkpt>
      <trkpt lat="43.5651" lon="3.31388">
        <ele>332.8</ele>
        <time>2017-07-23T07:19:38Z</time>
      </trkpt>
      <trkpt lat="43.565" lon="3.31386">
        <ele>332.3</ele>
        <time>2017-07-23T07:19:40Z</time>
      </trkpt>
      <trkpt lat="43.56488" lon="3.31384">
        <ele>332.1</ele>
        <time>2017-07-23T07:19:42Z</time>
      </trkpt>
      <trkpt lat="43.56478" lon="3.31382">
        <ele>331.7</ele>
        <time>2017-07-23T07:19:44Z</time>
      </trkpt>
      <trkpt lat="43.56467" lon="3.31379">
        <ele>331.9</ele>
        <time>2017-07-23T07:19:46Z</time>
      </trkpt>
      <trkpt lat="43.56459" lon="3.31378">
        <ele>331.8</ele>
        <time>2017-07-23T07:19:48Z</time>
      </trkpt>
      <trkpt lat="43.5645" lon="3.31377">
        <ele>332.1</ele>
        <time>2017-07-23T07:19:50Z</time>
      </trkpt>
      <trkpt lat="43.56442" lon="3.31375">
        <ele>332</ele>
        <time>2017-07-23T07:19:52Z</time>
      </trkpt>
      <trkpt lat="43.56433" lon="3.31371">
        <ele>332</ele>
        <time>2017-07-23T07:19:54Z</time>
      </trkpt>
      <trkpt lat="43.56425" lon="3.3137">
        <ele>332.1</ele>
        <time>2017-07-23T07:19:56Z</time>
      </trkpt>
      <trkpt lat="43.56415" lon="3.31368">
        <ele>332</ele>
        <time>2017-07-23T07:19:59Z</time>
      </trkpt>
      <trkpt lat="43.56408" lon="3.31363">
        <ele>331.9</ele>
        <time>2017-07-23T07:20:01Z</time>
      </trkpt>
      <trkpt lat="43.56401" lon="3.3136">
        <ele>331.7</ele>
        <time>2017-07-23T07:20:04Z</time>
      </trkpt>
      <trkpt lat="43.56393" lon="3.31353">
        <ele>331.6</ele>
        <time>2017-07-23T07:20:07Z</time>
      </trkpt>
      <trkpt lat="43.56385" lon="3.31345">
        <ele>331.8</ele>
        <time>2017-07-23T07:20:11Z</time>
      </trkpt>
      <trkpt lat="43.56379" lon="3.31336">
        <ele>332.2</ele>
        <time>2017-07-23T07:20:15Z</time>
      </trkpt>
      <trkpt lat="43.56372" lon="3.3133">
        <ele>332.5</ele>
        <time>2017-07-23T07:20:19Z</time>
      </trkpt>
      <trkpt lat="43.56364" lon="3.31326">
        <ele>332.8</ele>
        <time>2017-07-23T07:20:24Z</time>
      </trkpt>
      <trkpt lat="43.56357" lon="3.31318">
        <ele>333</ele>
        <time>2017-07-23T07:20:27Z</time>
      </trkpt>
      <trkpt lat="43.56351" lon="3.3131">
        <ele>333.4</ele>
        <time>2017-07-23T07:20:31Z</time>
      </trkpt>
      <trkpt lat="43.56346" lon="3.31301">
        <ele>334.1</ele>
        <time>2017-07-23T07:20:37Z</time>
      </trkpt>
      <trkpt lat="43.5634" lon="3.31291">
        <ele>334.7</ele>
        <time>2017-07-23T07:20:41Z</time>
      </trkpt>
      <trkpt lat="43.56334" lon="3.31286">
        <ele>335.5</ele>
        <time>2017-07-23T07:20:46Z</time>
      </trkpt>
      <trkpt lat="43.56327" lon="3.31283">
        <ele>336.4</ele>
        <time>2017-07-23T07:20:54Z</time>
      </trkpt>
      <trkpt lat="43.56317" lon="3.31283">
        <ele>336.8</ele>
        <time>2017-07-23T07:20:56Z</time>
      </trkpt>
      <trkpt lat="43.56308" lon="3.31278">
        <ele>338.1</ele>
        <time>2017-07-23T07:20:58Z</time>
      </trkpt>
      <trkpt lat="43.56297" lon="3.31272">
        <ele>340</ele>
        <time>2017-07-23T07:21:00Z</time>
      </trkpt>
      <trkpt lat="43.56288" lon="3.31264">
        <ele>340.7</ele>
        <time>2017-07-23T07:21:02Z</time>
      </trkpt>
      <trkpt lat="43.56277" lon="3.31251">
        <ele>340.3</ele>
        <time>2017-07-23T07:21:04Z</time>
      </trkpt>
      <trkpt lat="43.56267" lon="3.3124">
        <ele>339.8</ele>
        <time>2017-07-23T07:21:06Z</time>
      </trkpt>
      <trkpt lat="43.56257" lon="3.31229">
        <ele>338.9</ele>
        <time>2017-07-23T07:21:08Z</time>
      </trkpt>
      <trkpt lat="43.56247" lon="3.31221">
        <ele>338.5</ele>
        <time>2017-07-23T07:21:10Z</time>
      </trkpt>
      <trkpt lat="43.56239" lon="3.31206">
        <ele>337.8</ele>
        <time>2017-07-23T07:21:12Z</time>
      </trkpt>
      <trkpt lat="43.5623" lon="3.31195">
        <ele>337</ele>
        <time>2017-07-23T07:21:14Z</time>
      </trkpt>
      <trkpt lat="43.56219" lon="3.31183">
        <ele>335.9</ele>
        <time>2017-07-23T07:21:16Z</time>
      </trkpt>
      <trkpt lat="43.5621" lon="3.31172">
        <ele>335.3</ele>
        <time>2017-07-23T07:21:18Z</time>
      </trkpt>
      <trkpt lat="43.56204" lon="3.31156">
        <ele>334.3</ele>
        <time>2017-07-23T07:21:20Z</time>
      </trkpt>
      <trkpt lat="43.56195" lon="3.31142">
        <ele>332.2</ele>
        <time>2017-07-23T07:21:22Z</time>
      </trkpt>
      <trkpt lat="43.56187" lon="3.31127">
        <ele>330.9</ele>
        <time>2017-07-23T07:21:24Z</time>
      </trkpt>
      <trkpt lat="43.56179" lon="3.31112">
        <ele>329.9</ele>
        <time>2017-07-23T07:21:26Z</time>
      </trkpt>
      <trkpt lat="43.5617" lon="3.31098">
        <ele>328.9</ele>
        <time>2017-07-23T07:21:28Z</time>
      </trkpt>
      <trkpt lat="43.56162" lon="3.31083">
        <ele>328.8</ele>
        <time>2017-07-23T07:21:30Z</time>
      </trkpt>
      <trkpt lat="43.56156" lon="3.31074">
        <ele>328.8</ele>
        <time>2017-07-23T07:21:31Z</time>
      </trkpt>
      <trkpt lat="43.56151" lon="3.31066">
        <ele>328.4</ele>
        <time>2017-07-23T07:21:32Z</time>
      </trkpt>
      <trkpt lat="43.56145" lon="3.31058">
        <ele>328.1</ele>
        <time>2017-07-23T07:21:33Z</time>
      </trkpt>
      <trkpt lat="43.56141" lon="3.3105">
        <ele>327.9</ele>
        <time>2017-07-23T07:21:34Z</time>
      </trkpt>
      <trkpt lat="43.56134" lon="3.31034">
        <ele>327</ele>
        <time>2017-07-23T07:21:36Z</time>
      </trkpt>
      <trkpt lat="43.56127" lon="3.31025">
        <ele>327</ele>
        <time>2017-07-23T07:21:38Z</time>
      </trkpt>
      <trkpt lat="43.56118" lon="3.3103">
        <ele>328.1</ele>
        <time>2017-07-23T07:21:40Z</time>
      </trkpt>
      <trkpt lat="43.56109" lon="3.3103">
        <ele>328.2</ele>
        <time>2017-07-23T07:21:42Z</time>
      </trkpt>
      <trkpt lat="43.56099" lon="3.31028">
        <ele>327.6</ele>
        <time>2017-07-23T07:21:45Z</time>
      </trkpt>
      <trkpt lat="43.56091" lon="3.31031">
        <ele>327.6</ele>
        <time>2017-07-23T07:21:47Z</time>
      </trkpt>
      <trkpt lat="43.56084" lon="3.31031">
        <ele>327.5</ele>
        <time>2017-07-23T07:21:49Z</time>
      </trkpt>
      <trkpt lat="43.56077" lon="3.31034">
        <ele>327.5</ele>
        <time>2017-07-23T07:21:51Z</time>
      </trkpt>
      <trkpt lat="43.56067" lon="3.31035">
        <ele>327.6</ele>
        <time>2017-07-23T07:21:55Z</time>
      </trkpt>
      <trkpt lat="43.5606" lon="3.3104">
        <ele>327.8</ele>
        <time>2017-07-23T07:21:59Z</time>
      </trkpt>
      <trkpt lat="43.56053" lon="3.31044">
        <ele>327.6</ele>
        <time>2017-07-23T07:22:03Z</time>
      </trkpt>
      <trkpt lat="43.56046" lon="3.31047">
        <ele>327.7</ele>
        <time>2017-07-23T07:22:07Z</time>
      </trkpt>
      <trkpt lat="43.56036" lon="3.31045">
        <ele>327.6</ele>
        <time>2017-07-23T07:22:12Z</time>
      </trkpt>
      <trkpt lat="43.56028" lon="3.31045">
        <ele>327.5</ele>
        <time>2017-07-23T07:22:14Z</time>
      </trkpt>
      <trkpt lat="43.56018" lon="3.31043">
        <ele>327.4</ele>
        <time>2017-07-23T07:22:17Z</time>
      </trkpt>
      <trkpt lat="43.5601" lon="3.31039">
        <ele>327.5</ele>
        <time>2017-07-23T07:22:19Z</time>
      </trkpt>
      <trkpt lat="43.56002" lon="3.31041">
        <ele>327.6</ele>
        <time>2017-07-23T07:22:21Z</time>
      </trkpt>
      <trkpt lat="43.55995" lon="3.31048">
        <ele>327.9</ele>
        <time>2017-07-23T07:22:25Z</time>
      </trkpt>
      <trkpt lat="43.55995" lon="3.3105">
        <ele>328</ele>
        <time>2017-07-23T07:22:32Z</time>
      </trkpt>
      <trkpt lat="43.55995" lon="3.31074">
        <ele>327.5</ele>
        <time>2017-07-23T07:26:21Z</time>
      </trkpt>
      <trkpt lat="43.56" lon="3.31088">
        <ele>325.1</ele>
        <time>2017-07-23T07:26:24Z</time>
      </trkpt>
      <trkpt lat="43.56004" lon="3.311">
        <ele>322.4</ele>
        <time>2017-07-23T07:26:26Z</time>
      </trkpt>
      <trkpt lat="43.5601" lon="3.31117">
        <ele>320.1</ele>
        <time>2017-07-23T07:26:28Z</time>
      </trkpt>
      <trkpt lat="43.56015" lon="3.31133">
        <ele>317.6</ele>
        <time>2017-07-23T07:26:30Z</time>
      </trkpt>
      <trkpt lat="43.56018" lon="3.31146">
        <ele>317.4</ele>
        <time>2017-07-23T07:26:33Z</time>
      </trkpt>
      <trkpt lat="43.56018" lon="3.31161">
        <ele>317.2</ele>
        <time>2017-07-23T07:26:36Z</time>
      </trkpt>
      <trkpt lat="43.56018" lon="3.31174">
        <ele>316.5</ele>
        <time>2017-07-23T07:26:38Z</time>
      </trkpt>
      <trkpt lat="43.56018" lon="3.31187">
        <ele>315.6</ele>
        <time>2017-07-23T07:26:40Z</time>
      </trkpt>
      <trkpt lat="43.56021" lon="3.31197">
        <ele>315.5</ele>
        <time>2017-07-23T07:26:42Z</time>
      </trkpt>
      <trkpt lat="43.56025" lon="3.31208">
        <ele>315</ele>
        <time>2017-07-23T07:26:44Z</time>
      </trkpt>
      <trkpt lat="43.56033" lon="3.31221">
        <ele>315.6</ele>
        <time>2017-07-23T07:26:46Z</time>
      </trkpt>
      <trkpt lat="43.56037" lon="3.3123">
        <ele>316</ele>
        <time>2017-07-23T07:26:47Z</time>
      </trkpt>
      <trkpt lat="43.56045" lon="3.31248">
        <ele>315.6</ele>
        <time>2017-07-23T07:26:49Z</time>
      </trkpt>
      <trkpt lat="43.56051" lon="3.31259">
        <ele>315.1</ele>
        <time>2017-07-23T07:26:51Z</time>
      </trkpt>
      <trkpt lat="43.56053" lon="3.31271">
        <ele>314.1</ele>
        <time>2017-07-23T07:26:53Z</time>
      </trkpt>
      <trkpt lat="43.56054" lon="3.31287">
        <ele>312.7</ele>
        <time>2017-07-23T07:26:55Z</time>
      </trkpt>
      <trkpt lat="43.56055" lon="3.31301">
        <ele>310.6</ele>
        <time>2017-07-23T07:26:59Z</time>
      </trkpt>
      <trkpt lat="43.56055" lon="3.31313">
        <ele>308.9</ele>
        <time>2017-07-23T07:27:01Z</time>
      </trkpt>
      <trkpt lat="43.56056" lon="3.31323">
        <ele>308.7</ele>
        <time>2017-07-23T07:27:02Z</time>
      </trkpt>
      <trkpt lat="43.56056" lon="3.31334">
        <ele>308.3</ele>
        <time>2017-07-23T07:27:03Z</time>
      </trkpt>
      <trkpt lat="43.56056" lon="3.31344">
        <ele>308.9</ele>
        <time>2017-07-23T07:27:04Z</time>
      </trkpt>
      <trkpt lat="43.56057" lon="3.31362">
        <ele>308.3</ele>
        <time>2017-07-23T07:27:06Z</time>
      </trkpt>
      <trkpt lat="43.56056" lon="3.31379">
        <ele>308.9</ele>
        <time>2017-07-23T07:27:08Z</time>
      </trkpt>
      <trkpt lat="43.56058" lon="3.31396">
        <ele>309.3</ele>
        <time>2017-07-23T07:27:10Z</time>
      </trkpt>
      <trkpt lat="43.56055" lon="3.31412">
        <ele>308.5</ele>
        <time>2017-07-23T07:27:12Z</time>
      </trkpt>
      <trkpt lat="43.56053" lon="3.31428">
        <ele>308</ele>
        <time>2017-07-23T07:27:14Z</time>
      </trkpt>
      <trkpt lat="43.56052" lon="3.31444">
        <ele>307.1</ele>
        <time>2017-07-23T07:27:16Z</time>
      </trkpt>
      <trkpt lat="43.56051" lon="3.31461">
        <ele>305.6</ele>
        <time>2017-07-23T07:27:18Z</time>
      </trkpt>
      <trkpt lat="43.56049" lon="3.31477">
        <ele>305.1</ele>
        <time>2017-07-23T07:27:20Z</time>
      </trkpt>
      <trkpt lat="43.56044" lon="3.31493">
        <ele>304</ele>
        <time>2017-07-23T07:27:22Z</time>
      </trkpt>
      <trkpt lat="43.5604" lon="3.31502">
        <ele>303.6</ele>
        <time>2017-07-23T07:27:23Z</time>
      </trkpt>
      <trkpt lat="43.56035" lon="3.31518">
        <ele>302.9</ele>
        <time>2017-07-23T07:27:25Z</time>
      </trkpt>
      <trkpt lat="43.5603" lon="3.31532">
        <ele>301.8</ele>
        <time>2017-07-23T07:27:27Z</time>
      </trkpt>
      <trkpt lat="43.56026" lon="3.31544">
        <ele>301.9</ele>
        <time>2017-07-23T07:27:29Z</time>
      </trkpt>
      <trkpt lat="43.56022" lon="3.31558">
        <ele>301.6</ele>
        <time>2017-07-23T07:27:31Z</time>
      </trkpt>
      <trkpt lat="43.56021" lon="3.31577">
        <ele>300.1</ele>
        <time>2017-07-23T07:27:33Z</time>
      </trkpt>
      <trkpt lat="43.56018" lon="3.31587">
        <ele>299.3</ele>
        <time>2017-07-23T07:27:34Z</time>
      </trkpt>
      <trkpt lat="43.56016" lon="3.31599">
        <ele>298.6</ele>
        <time>2017-07-23T07:27:35Z</time>
      </trkpt>
      <trkpt lat="43.5601" lon="3.31607">
        <ele>298.4</ele>
        <time>2017-07-23T07:27:37Z</time>
      </trkpt>
      <trkpt lat="43.56007" lon="3.31618">
        <ele>298.3</ele>
        <time>2017-07-23T07:27:39Z</time>
      </trkpt>
      <trkpt lat="43.56009" lon="3.31628">
        <ele>297.1</ele>
        <time>2017-07-23T07:27:41Z</time>
      </trkpt>
      <trkpt lat="43.56009" lon="3.3164">
        <ele>296.8</ele>
        <time>2017-07-23T07:27:44Z</time>
      </trkpt>
      <trkpt lat="43.56008" lon="3.31654">
        <ele>296.4</ele>
        <time>2017-07-23T07:27:46Z</time>
      </trkpt>
      <trkpt lat="43.56004" lon="3.31664">
        <ele>296.3</ele>
        <time>2017-07-23T07:27:48Z</time>
      </trkpt>
      <trkpt lat="43.56006" lon="3.31676">
        <ele>296.9</ele>
        <time>2017-07-23T07:27:50Z</time>
      </trkpt>
      <trkpt lat="43.5601" lon="3.31685">
        <ele>296.6</ele>
        <time>2017-07-23T07:27:52Z</time>
      </trkpt>
      <trkpt lat="43.56014" lon="3.31695">
        <ele>296.7</ele>
        <time>2017-07-23T07:27:53Z</time>
      </trkpt>
      <trkpt lat="43.56016" lon="3.3171">
        <ele>295.7</ele>
        <time>2017-07-23T07:27:55Z</time>
      </trkpt>
      <trkpt lat="43.5602" lon="3.31718">
        <ele>295.3</ele>
        <time>2017-07-23T07:27:57Z</time>
      </trkpt>
      <trkpt lat="43.56028" lon="3.31725">
        <ele>294</ele>
        <time>2017-07-23T07:27:59Z</time>
      </trkpt>
      <trkpt lat="43.56033" lon="3.31732">
        <ele>293.4</ele>
        <time>2017-07-23T07:28:01Z</time>
      </trkpt>
      <trkpt lat="43.56044" lon="3.31733">
        <ele>290.9</ele>
        <time>2017-07-23T07:28:03Z</time>
      </trkpt>
      <trkpt lat="43.56054" lon="3.31742">
        <ele>288.2</ele>
        <time>2017-07-23T07:28:05Z</time>
      </trkpt>
      <trkpt lat="43.56063" lon="3.31753">
        <ele>285.9</ele>
        <time>2017-07-23T07:28:07Z</time>
      </trkpt>
      <trkpt lat="43.56074" lon="3.3176">
        <ele>285.2</ele>
        <time>2017-07-23T07:28:09Z</time>
      </trkpt>
      <trkpt lat="43.5608" lon="3.31766">
        <ele>284.2</ele>
        <time>2017-07-23T07:28:10Z</time>
      </trkpt>
      <trkpt lat="43.56087" lon="3.31774">
        <ele>282.9</ele>
        <time>2017-07-23T07:28:11Z</time>
      </trkpt>
      <trkpt lat="43.56091" lon="3.31791">
        <ele>281.4</ele>
        <time>2017-07-23T07:28:13Z</time>
      </trkpt>
      <trkpt lat="43.56092" lon="3.3181">
        <ele>280.1</ele>
        <time>2017-07-23T07:28:15Z</time>
      </trkpt>
      <trkpt lat="43.561" lon="3.31822">
        <ele>278.7</ele>
        <time>2017-07-23T07:28:17Z</time>
      </trkpt>
      <trkpt lat="43.56109" lon="3.31832">
        <ele>277.6</ele>
        <time>2017-07-23T07:28:19Z</time>
      </trkpt>
      <trkpt lat="43.56121" lon="3.31843">
        <ele>276.4</ele>
        <time>2017-07-23T07:28:21Z</time>
      </trkpt>
      <trkpt lat="43.56128" lon="3.3185">
        <ele>275.7</ele>
        <time>2017-07-23T07:28:22Z</time>
      </trkpt>
      <trkpt lat="43.56132" lon="3.31858">
        <ele>275.4</ele>
        <time>2017-07-23T07:28:23Z</time>
      </trkpt>
      <trkpt lat="43.56139" lon="3.31873">
        <ele>274.8</ele>
        <time>2017-07-23T07:28:25Z</time>
      </trkpt>
      <trkpt lat="43.56148" lon="3.31885">
        <ele>274.7</ele>
        <time>2017-07-23T07:28:27Z</time>
      </trkpt>
      <trkpt lat="43.56155" lon="3.319">
        <ele>273.6</ele>
        <time>2017-07-23T07:28:29Z</time>
      </trkpt>
      <trkpt lat="43.5616" lon="3.31912">
        <ele>272.2</ele>
        <time>2017-07-23T07:28:31Z</time>
      </trkpt>
      <trkpt lat="43.56162" lon="3.31925">
        <ele>270.5</ele>
        <time>2017-07-23T07:28:33Z</time>
      </trkpt>
      <trkpt lat="43.56164" lon="3.31936">
        <ele>269.5</ele>
        <time>2017-07-23T07:28:35Z</time>
      </trkpt>
      <trkpt lat="43.56173" lon="3.31937">
        <ele>269.1</ele>
        <time>2017-07-23T07:28:39Z</time>
      </trkpt>
      <trkpt lat="43.56173" lon="3.3195">
        <ele>267.5</ele>
        <time>2017-07-23T07:28:42Z</time>
      </trkpt>
      <trkpt lat="43.56178" lon="3.3196">
        <ele>266.4</ele>
        <time>2017-07-23T07:28:44Z</time>
      </trkpt>
      <trkpt lat="43.56184" lon="3.31968">
        <ele>265.7</ele>
        <time>2017-07-23T07:28:46Z</time>
      </trkpt>
      <trkpt lat="43.56192" lon="3.31979">
        <ele>265.2</ele>
        <time>2017-07-23T07:28:48Z</time>
      </trkpt>
      <trkpt lat="43.56197" lon="3.31989">
        <ele>264.4</ele>
        <time>2017-07-23T07:28:50Z</time>
      </trkpt>
      <trkpt lat="43.56203" lon="3.31999">
        <ele>264.2</ele>
        <time>2017-07-23T07:28:52Z</time>
      </trkpt>
      <trkpt lat="43.56207" lon="3.3201">
        <ele>263.9</ele>
        <time>2017-07-23T07:28:54Z</time>
      </trkpt>
      <trkpt lat="43.56213" lon="3.32015">
        <ele>263.3</ele>
        <time>2017-07-23T07:28:57Z</time>
      </trkpt>
      <trkpt lat="43.56213" lon="3.32029">
        <ele>262.7</ele>
        <time>2017-07-23T07:29:01Z</time>
      </trkpt>
      <trkpt lat="43.5621" lon="3.32039">
        <ele>262.2</ele>
        <time>2017-07-23T07:29:04Z</time>
      </trkpt>
      <trkpt lat="43.56218" lon="3.32043">
        <ele>259.4</ele>
        <time>2017-07-23T07:29:06Z</time>
      </trkpt>
      <trkpt lat="43.56227" lon="3.32053">
        <ele>255.6</ele>
        <time>2017-07-23T07:29:08Z</time>
      </trkpt>
      <trkpt lat="43.56235" lon="3.32063">
        <ele>253.3</ele>
        <time>2017-07-23T07:29:10Z</time>
      </trkpt>
      <trkpt lat="43.56239" lon="3.32071">
        <ele>252.9</ele>
        <time>2017-07-23T07:29:12Z</time>
      </trkpt>
      <trkpt lat="43.56246" lon="3.32077">
        <ele>251.2</ele>
        <time>2017-07-23T07:29:14Z</time>
      </trkpt>
      <trkpt lat="43.56255" lon="3.32081">
        <ele>247.6</ele>
        <time>2017-07-23T07:29:16Z</time>
      </trkpt>
      <trkpt lat="43.56263" lon="3.32094">
        <ele>245.1</ele>
        <time>2017-07-23T07:29:18Z</time>
      </trkpt>
      <trkpt lat="43.56271" lon="3.32107">
        <ele>243.6</ele>
        <time>2017-07-23T07:29:20Z</time>
      </trkpt>
      <trkpt lat="43.56275" lon="3.32115">
        <ele>242.7</ele>
        <time>2017-07-23T07:29:21Z</time>
      </trkpt>
      <trkpt lat="43.56277" lon="3.32133">
        <ele>241.5</ele>
        <time>2017-07-23T07:29:23Z</time>
      </trkpt>
      <trkpt lat="43.56277" lon="3.32143">
        <ele>241</ele>
        <time>2017-07-23T07:29:24Z</time>
      </trkpt>
      <trkpt lat="43.5628" lon="3.32162">
        <ele>240</ele>
        <time>2017-07-23T07:29:26Z</time>
      </trkpt>
      <trkpt lat="43.5628" lon="3.32179">
        <ele>239.9</ele>
        <time>2017-07-23T07:29:28Z</time>
      </trkpt>
      <trkpt lat="43.56287" lon="3.32194">
        <ele>240.9</ele>
        <time>2017-07-23T07:29:30Z</time>
      </trkpt>
      <trkpt lat="43.56293" lon="3.32203">
        <ele>240.3</ele>
        <time>2017-07-23T07:29:31Z</time>
      </trkpt>
      <trkpt lat="43.56298" lon="3.3221">
        <ele>239.6</ele>
        <time>2017-07-23T07:29:32Z</time>
      </trkpt>
      <trkpt lat="43.56303" lon="3.32217">
        <ele>239</ele>
        <time>2017-07-23T07:29:33Z</time>
      </trkpt>
      <trkpt lat="43.56309" lon="3.32224">
        <ele>238.1</ele>
        <time>2017-07-23T07:29:34Z</time>
      </trkpt>
      <trkpt lat="43.56318" lon="3.32238">
        <ele>236.3</ele>
        <time>2017-07-23T07:29:36Z</time>
      </trkpt>
      <trkpt lat="43.56318" lon="3.32252">
        <ele>233.9</ele>
        <time>2017-07-23T07:29:38Z</time>
      </trkpt>
      <trkpt lat="43.56315" lon="3.32265">
        <ele>232.9</ele>
        <time>2017-07-23T07:29:40Z</time>
      </trkpt>
      <trkpt lat="43.56311" lon="3.32277">
        <ele>232.4</ele>
        <time>2017-07-23T07:29:42Z</time>
      </trkpt>
      <trkpt lat="43.56306" lon="3.32287">
        <ele>232.5</ele>
        <time>2017-07-23T07:29:45Z</time>
      </trkpt>
      <trkpt lat="43.56303" lon="3.32298">
        <ele>232.6</ele>
        <time>2017-07-23T07:29:49Z</time>
      </trkpt>
      <trkpt lat="43.56301" lon="3.32309">
        <ele>232.9</ele>
        <time>2017-07-23T07:29:53Z</time>
      </trkpt>
      <trkpt lat="43.56297" lon="3.3232">
        <ele>233.1</ele>
        <time>2017-07-23T07:29:57Z</time>
      </trkpt>
      <trkpt lat="43.56292" lon="3.32329">
        <ele>233.6</ele>
        <time>2017-07-23T07:30:01Z</time>
      </trkpt>
      <trkpt lat="43.56288" lon="3.32338">
        <ele>234</ele>
        <time>2017-07-23T07:30:04Z</time>
      </trkpt>
      <trkpt lat="43.56283" lon="3.32348">
        <ele>234.5</ele>
        <time>2017-07-23T07:30:07Z</time>
      </trkpt>
      <trkpt lat="43.56279" lon="3.32359">
        <ele>234.9</ele>
        <time>2017-07-23T07:30:11Z</time>
      </trkpt>
      <trkpt lat="43.56274" lon="3.32369">
        <ele>235.3</ele>
        <time>2017-07-23T07:30:15Z</time>
      </trkpt>
      <trkpt lat="43.56268" lon="3.32378">
        <ele>235.8</ele>
        <time>2017-07-23T07:30:20Z</time>
      </trkpt>
      <trkpt lat="43.56265" lon="3.32388">
        <ele>236.7</ele>
        <time>2017-07-23T07:30:25Z</time>
      </trkpt>
      <trkpt lat="43.56262" lon="3.32398">
        <ele>237.3</ele>
        <time>2017-07-23T07:30:31Z</time>
      </trkpt>
      <trkpt lat="43.56259" lon="3.32408">
        <ele>237.7</ele>
        <time>2017-07-23T07:30:36Z</time>
      </trkpt>
      <trkpt lat="43.56254" lon="3.32418">
        <ele>237.9</ele>
        <time>2017-07-23T07:30:40Z</time>
      </trkpt>
      <trkpt lat="43.56253" lon="3.3243">
        <ele>238.1</ele>
        <time>2017-07-23T07:30:45Z</time>
      </trkpt>
      <trkpt lat="43.56252" lon="3.32442">
        <ele>238.1</ele>
        <time>2017-07-23T07:30:49Z</time>
      </trkpt>
      <trkpt lat="43.56251" lon="3.32452">
        <ele>238.2</ele>
        <time>2017-07-23T07:30:53Z</time>
      </trkpt>
      <trkpt lat="43.56247" lon="3.32463">
        <ele>238.3</ele>
        <time>2017-07-23T07:30:57Z</time>
      </trkpt>
      <trkpt lat="43.56245" lon="3.32472">
        <ele>238.5</ele>
        <time>2017-07-23T07:31:00Z</time>
      </trkpt>
      <trkpt lat="43.56239" lon="3.32484">
        <ele>238.6</ele>
        <time>2017-07-23T07:31:03Z</time>
      </trkpt>
      <trkpt lat="43.56237" lon="3.32493">
        <ele>238.8</ele>
        <time>2017-07-23T07:31:06Z</time>
      </trkpt>
      <trkpt lat="43.56233" lon="3.32503">
        <ele>239.1</ele>
        <time>2017-07-23T07:31:10Z</time>
      </trkpt>
      <trkpt lat="43.56228" lon="3.32511">
        <ele>239.3</ele>
        <time>2017-07-23T07:31:13Z</time>
      </trkpt>
      <trkpt lat="43.56222" lon="3.32521">
        <ele>239.4</ele>
        <time>2017-07-23T07:31:17Z</time>
      </trkpt>
      <trkpt lat="43.56215" lon="3.32531">
        <ele>239.5</ele>
        <time>2017-07-23T07:31:21Z</time>
      </trkpt>
      <trkpt lat="43.56208" lon="3.32527">
        <ele>239.8</ele>
        <time>2017-07-23T07:31:25Z</time>
      </trkpt>
      <trkpt lat="43.5621" lon="3.32516">
        <ele>240.3</ele>
        <time>2017-07-23T07:31:29Z</time>
      </trkpt>
      <trkpt lat="43.56213" lon="3.32506">
        <ele>241</ele>
        <time>2017-07-23T07:31:33Z</time>
      </trkpt>
      <trkpt lat="43.56217" lon="3.32495">
        <ele>241.7</ele>
        <time>2017-07-23T07:31:37Z</time>
      </trkpt>
      <trkpt lat="43.5622" lon="3.32486">
        <ele>242.4</ele>
        <time>2017-07-23T07:31:41Z</time>
      </trkpt>
      <trkpt lat="43.56222" lon="3.32475">
        <ele>243</ele>
        <time>2017-07-23T07:31:45Z</time>
      </trkpt>
      <trkpt lat="43.56224" lon="3.32466">
        <ele>243.4</ele>
        <time>2017-07-23T07:31:48Z</time>
      </trkpt>
      <trkpt lat="43.56224" lon="3.32454">
        <ele>243.9</ele>
        <time>2017-07-23T07:31:52Z</time>
      </trkpt>
      <trkpt lat="43.56223" lon="3.32444">
        <ele>244.6</ele>
        <time>2017-07-23T07:31:56Z</time>
      </trkpt>
      <trkpt lat="43.56221" lon="3.32432">
        <ele>245.3</ele>
        <time>2017-07-23T07:32:00Z</time>
      </trkpt>
      <trkpt lat="43.56222" lon="3.32419">
        <ele>246.1</ele>
        <time>2017-07-23T07:32:05Z</time>
      </trkpt>
      <trkpt lat="43.56221" lon="3.32406">
        <ele>247</ele>
        <time>2017-07-23T07:32:10Z</time>
      </trkpt>
      <trkpt lat="43.56221" lon="3.32395">
        <ele>247.5</ele>
        <time>2017-07-23T07:32:14Z</time>
      </trkpt>
      <trkpt lat="43.56222" lon="3.32386">
        <ele>248</ele>
        <time>2017-07-23T07:32:18Z</time>
      </trkpt>
      <trkpt lat="43.56219" lon="3.32374">
        <ele>248.5</ele>
        <time>2017-07-23T07:32:22Z</time>
      </trkpt>
      <trkpt lat="43.56212" lon="3.32375">
        <ele>249.1</ele>
        <time>2017-07-23T07:32:27Z</time>
      </trkpt>
      <trkpt lat="43.5621" lon="3.32386">
        <ele>249.7</ele>
        <time>2017-07-23T07:32:31Z</time>
      </trkpt>
      <trkpt lat="43.56208" lon="3.32397">
        <ele>250.1</ele>
        <time>2017-07-23T07:32:35Z</time>
      </trkpt>
      <trkpt lat="43.56205" lon="3.3241">
        <ele>250.8</ele>
        <time>2017-07-23T07:32:39Z</time>
      </trkpt>
      <trkpt lat="43.56201" lon="3.32421">
        <ele>251.5</ele>
        <time>2017-07-23T07:32:43Z</time>
      </trkpt>
      <trkpt lat="43.56199" lon="3.32433">
        <ele>252.3</ele>
        <time>2017-07-23T07:32:47Z</time>
      </trkpt>
      <trkpt lat="43.56195" lon="3.32444">
        <ele>253</ele>
        <time>2017-07-23T07:32:51Z</time>
      </trkpt>
      <trkpt lat="43.56192" lon="3.32454">
        <ele>253.6</ele>
        <time>2017-07-23T07:32:54Z</time>
      </trkpt>
      <trkpt lat="43.5619" lon="3.32465">
        <ele>254.2</ele>
        <time>2017-07-23T07:32:57Z</time>
      </trkpt>
      <trkpt lat="43.56187" lon="3.32475">
        <ele>254.7</ele>
        <time>2017-07-23T07:33:00Z</time>
      </trkpt>
      <trkpt lat="43.56182" lon="3.32484">
        <ele>255.2</ele>
        <time>2017-07-23T07:33:03Z</time>
      </trkpt>
      <trkpt lat="43.56177" lon="3.32493">
        <ele>255.6</ele>
        <time>2017-07-23T07:33:06Z</time>
      </trkpt>
      <trkpt lat="43.5617" lon="3.32502">
        <ele>256.2</ele>
        <time>2017-07-23T07:33:09Z</time>
      </trkpt>
      <trkpt lat="43.56166" lon="3.3251">
        <ele>256.6</ele>
        <time>2017-07-23T07:33:12Z</time>
      </trkpt>
      <trkpt lat="43.56158" lon="3.32521">
        <ele>257</ele>
        <time>2017-07-23T07:33:15Z</time>
      </trkpt>
      <trkpt lat="43.56153" lon="3.32529">
        <ele>257.6</ele>
        <time>2017-07-23T07:33:18Z</time>
      </trkpt>
      <trkpt lat="43.56149" lon="3.32538">
        <ele>258.3</ele>
        <time>2017-07-23T07:33:21Z</time>
      </trkpt>
      <trkpt lat="43.56144" lon="3.32546">
        <ele>258.9</ele>
        <time>2017-07-23T07:33:24Z</time>
      </trkpt>
      <trkpt lat="43.56139" lon="3.32555">
        <ele>259.3</ele>
        <time>2017-07-23T07:33:27Z</time>
      </trkpt>
      <trkpt lat="43.56133" lon="3.32563">
        <ele>259.8</ele>
        <time>2017-07-23T07:33:30Z</time>
      </trkpt>
      <trkpt lat="43.56127" lon="3.32571">
        <ele>260.3</ele>
        <time>2017-07-23T07:33:33Z</time>
      </trkpt>
      <trkpt lat="43.56123" lon="3.3258">
        <ele>260.7</ele>
        <time>2017-07-23T07:33:36Z</time>
      </trkpt>
      <trkpt lat="43.56118" lon="3.32587">
        <ele>261.1</ele>
        <time>2017-07-23T07:33:39Z</time>
      </trkpt>
      <trkpt lat="43.56109" lon="3.32596">
        <ele>261.8</ele>
        <time>2017-07-23T07:33:43Z</time>
      </trkpt>
      <trkpt lat="43.56103" lon="3.326">
        <ele>262.5</ele>
        <time>2017-07-23T07:33:46Z</time>
      </trkpt>
      <trkpt lat="43.56094" lon="3.32604">
        <ele>263.3</ele>
        <time>2017-07-23T07:33:50Z</time>
      </trkpt>
      <trkpt lat="43.56084" lon="3.3261">
        <ele>264.1</ele>
        <time>2017-07-23T07:33:54Z</time>
      </trkpt>
      <trkpt lat="43.56077" lon="3.32613">
        <ele>264.7</ele>
        <time>2017-07-23T07:33:57Z</time>
      </trkpt>
      <trkpt lat="43.56069" lon="3.32618">
        <ele>265.5</ele>
        <time>2017-07-23T07:34:01Z</time>
      </trkpt>
      <trkpt lat="43.5606" lon="3.32621">
        <ele>266.3</ele>
        <time>2017-07-23T07:34:05Z</time>
      </trkpt>
      <trkpt lat="43.56051" lon="3.32626">
        <ele>266.7</ele>
        <time>2017-07-23T07:34:09Z</time>
      </trkpt>
      <trkpt lat="43.56044" lon="3.32631">
        <ele>267</ele>
        <time>2017-07-23T07:34:12Z</time>
      </trkpt>
      <trkpt lat="43.56038" lon="3.32638">
        <ele>267.3</ele>
        <time>2017-07-23T07:34:15Z</time>
      </trkpt>
      <trkpt lat="43.56035" lon="3.32648">
        <ele>267.8</ele>
        <time>2017-07-23T07:34:18Z</time>
      </trkpt>
      <trkpt lat="43.56032" lon="3.32659">
        <ele>268.4</ele>
        <time>2017-07-23T07:34:21Z</time>
      </trkpt>
      <trkpt lat="43.5603" lon="3.3267">
        <ele>269.1</ele>
        <time>2017-07-23T07:34:24Z</time>
      </trkpt>
      <trkpt lat="43.56028" lon="3.32681">
        <ele>269.9</ele>
        <time>2017-07-23T07:34:27Z</time>
      </trkpt>
      <trkpt lat="43.56027" lon="3.32692">
        <ele>270.7</ele>
        <time>2017-07-23T07:34:30Z</time>
      </trkpt>
      <trkpt lat="43.56025" lon="3.32704">
        <ele>271.4</ele>
        <time>2017-07-23T07:34:33Z</time>
      </trkpt>
      <trkpt lat="43.56024" lon="3.32715">
        <ele>272.1</ele>
        <time>2017-07-23T07:34:36Z</time>
      </trkpt>
      <trkpt lat="43.56024" lon="3.32726">
        <ele>272.8</ele>
        <time>2017-07-23T07:34:39Z</time>
      </trkpt>
      <trkpt lat="43.56027" lon="3.32735">
        <ele>273.3</ele>
        <time>2017-07-23T07:34:42Z</time>
      </trkpt>
      <trkpt lat="43.56033" lon="3.32746">
        <ele>274</ele>
        <time>2017-07-23T07:34:46Z</time>
      </trkpt>
      <trkpt lat="43.56037" lon="3.32754">
        <ele>274.6</ele>
        <time>2017-07-23T07:34:49Z</time>
      </trkpt>
      <trkpt lat="43.56039" lon="3.32765">
        <ele>275.2</ele>
        <time>2017-07-23T07:34:52Z</time>
      </trkpt>
      <trkpt lat="43.5604" lon="3.32776">
        <ele>275.7</ele>
        <time>2017-07-23T07:34:55Z</time>
      </trkpt>
      <trkpt lat="43.5604" lon="3.32788">
        <ele>276.2</ele>
        <time>2017-07-23T07:34:58Z</time>
      </trkpt>
      <trkpt lat="43.56042" lon="3.328">
        <ele>276.7</ele>
        <time>2017-07-23T07:35:02Z</time>
      </trkpt>
      <trkpt lat="43.56042" lon="3.32812">
        <ele>277.1</ele>
        <time>2017-07-23T07:35:05Z</time>
      </trkpt>
      <trkpt lat="43.5604" lon="3.32822">
        <ele>277.5</ele>
        <time>2017-07-23T07:35:08Z</time>
      </trkpt>
      <trkpt lat="43.56038" lon="3.32833">
        <ele>278</ele>
        <time>2017-07-23T07:35:11Z</time>
      </trkpt>
      <trkpt lat="43.56035" lon="3.32843">
        <ele>278.5</ele>
        <time>2017-07-23T07:35:14Z</time>
      </trkpt>
      <trkpt lat="43.56032" lon="3.32853">
        <ele>279</ele>
        <time>2017-07-23T07:35:17Z</time>
      </trkpt>
      <trkpt lat="43.56028" lon="3.32862">
        <ele>279.6</ele>
        <time>2017-07-23T07:35:20Z</time>
      </trkpt>
      <trkpt lat="43.56024" lon="3.32871">
        <ele>280.1</ele>
        <time>2017-07-23T07:35:23Z</time>
      </trkpt>
      <trkpt lat="43.5602" lon="3.3288">
        <ele>280.7</ele>
        <time>2017-07-23T07:35:26Z</time>
      </trkpt>
      <trkpt lat="43.56015" lon="3.32889">
        <ele>281.5</ele>
        <time>2017-07-23T07:35:30Z</time>
      </trkpt>
      <trkpt lat="43.5601" lon="3.32897">
        <ele>282.1</ele>
        <time>2017-07-23T07:35:34Z</time>
      </trkpt>
      <trkpt lat="43.56004" lon="3.32905">
        <ele>282.7</ele>
        <time>2017-07-23T07:35:38Z</time>
      </trkpt>
      <trkpt lat="43.56004" lon="3.32907">
        <ele>283.5</ele>
        <time>2017-07-23T07:35:45Z</time>
      </trkpt>
      <trkpt lat="43.55999" lon="3.32901">
        <ele>283.8</ele>
        <time>2017-07-23T07:35:52Z</time>
      </trkpt>
      <trkpt lat="43.55993" lon="3.32907">
        <ele>284.5</ele>
        <time>2017-07-23T07:35:58Z</time>
      </trkpt>
      <trkpt lat="43.55987" lon="3.32913">
        <ele>285.3</ele>
        <time>2017-07-23T07:36:04Z</time>
      </trkpt>
      <trkpt lat="43.5598" lon="3.32911">
        <ele>285.9</ele>
        <time>2017-07-23T07:36:09Z</time>
      </trkpt>
      <trkpt lat="43.55987" lon="3.32912">
        <ele>286.6</ele>
        <time>2017-07-23T07:36:15Z</time>
      </trkpt>
      <trkpt lat="43.55995" lon="3.32908">
        <ele>287</ele>
        <time>2017-07-23T07:36:18Z</time>
      </trkpt>
      <trkpt lat="43.55998" lon="3.32905">
        <ele>287.5</ele>
        <time>2017-07-23T07:36:25Z</time>
      </trkpt>
      <trkpt lat="43.55999" lon="3.32907">
        <ele>288.5</ele>
        <time>2017-07-23T07:36:00Z</time>
      </trkpt>
      <trkpt lat="43.56011" lon="3.329">
        <ele>288.2</ele>
        <time>2017-07-23T07:36:29Z</time>
      </trkpt>
      <trkpt lat="43.56017" lon="3.32895">
        <ele>288.2</ele>
        <time>2017-07-23T07:37:39Z</time>
      </trkpt>
      <trkpt lat="43.56021" lon="3.32895">
        <ele>288.3</ele>
        <time>2017-07-23T07:37:46Z</time>
      </trkpt>
      <trkpt lat="43.56023" lon="3.32899">
        <ele>287.8</ele>
        <time>2017-07-23T07:37:53Z</time>
      </trkpt>
      <trkpt lat="43.56024" lon="3.32898">
        <ele>286</ele>
        <time>2017-07-23T07:38:28Z</time>
      </trkpt>
      <trkpt lat="43.56026" lon="3.32896">
        <ele>286</ele>
        <time>2017-07-23T07:38:35Z</time>
      </trkpt>
      <trkpt lat="43.5603" lon="3.32896">
        <ele>286.5</ele>
        <time>2017-07-23T07:38:42Z</time>
      </trkpt>
      <trkpt lat="43.56035" lon="3.32904">
        <ele>286.1</ele>
        <time>2017-07-23T07:38:48Z</time>
      </trkpt>
      <trkpt lat="43.56039" lon="3.32914">
        <ele>285.7</ele>
        <time>2017-07-23T07:38:51Z</time>
      </trkpt>
      <trkpt lat="43.56042" lon="3.32924">
        <ele>285.2</ele>
        <time>2017-07-23T07:38:54Z</time>
      </trkpt>
      <trkpt lat="43.56045" lon="3.32936">
        <ele>284.6</ele>
        <time>2017-07-23T07:38:58Z</time>
      </trkpt>
      <trkpt lat="43.56045" lon="3.32948">
        <ele>284</ele>
        <time>2017-07-23T07:39:02Z</time>
      </trkpt>
      <trkpt lat="43.5604" lon="3.32958">
        <ele>283.4</ele>
        <time>2017-07-23T07:39:06Z</time>
      </trkpt>
      <trkpt lat="43.5604" lon="3.32968">
        <ele>282.8</ele>
        <time>2017-07-23T07:39:09Z</time>
      </trkpt>
      <trkpt lat="43.56036" lon="3.3298">
        <ele>282.3</ele>
        <time>2017-07-23T07:39:12Z</time>
      </trkpt>
      <trkpt lat="43.56033" lon="3.32992">
        <ele>281.5</ele>
        <time>2017-07-23T07:39:15Z</time>
      </trkpt>
      <trkpt lat="43.56033" lon="3.33001">
        <ele>279.7</ele>
        <time>2017-07-23T07:39:22Z</time>
      </trkpt>
      <trkpt lat="43.56035" lon="3.33003">
        <ele>278</ele>
        <time>2017-07-23T07:39:29Z</time>
      </trkpt>
      <trkpt lat="43.56044" lon="3.33009">
        <ele>274.2</ele>
        <time>2017-07-23T07:39:43Z</time>
      </trkpt>
      <trkpt lat="43.56052" lon="3.33008">
        <ele>273.2</ele>
        <time>2017-07-23T07:39:47Z</time>
      </trkpt>
      <trkpt lat="43.56062" lon="3.33006">
        <ele>269.9</ele>
        <time>2017-07-23T07:39:51Z</time>
      </trkpt>
      <trkpt lat="43.56071" lon="3.33009">
        <ele>269.3</ele>
        <time>2017-07-23T07:39:53Z</time>
      </trkpt>
      <trkpt lat="43.56077" lon="3.33016">
        <ele>268.7</ele>
        <time>2017-07-23T07:39:55Z</time>
      </trkpt>
      <trkpt lat="43.5608" lon="3.33026">
        <ele>268</ele>
        <time>2017-07-23T07:39:57Z</time>
      </trkpt>
      <trkpt lat="43.56087" lon="3.3303">
        <ele>266.4</ele>
        <time>2017-07-23T07:40:01Z</time>
      </trkpt>
      <trkpt lat="43.56096" lon="3.3302">
        <ele>261.3</ele>
        <time>2017-07-23T07:40:03Z</time>
      </trkpt>
      <trkpt lat="43.56105" lon="3.33015">
        <ele>257.3</ele>
        <time>2017-07-23T07:40:05Z</time>
      </trkpt>
      <trkpt lat="43.56113" lon="3.33021">
        <ele>256.6</ele>
        <time>2017-07-23T07:40:07Z</time>
      </trkpt>
      <trkpt lat="43.56121" lon="3.33027">
        <ele>256</ele>
        <time>2017-07-23T07:40:09Z</time>
      </trkpt>
      <trkpt lat="43.56132" lon="3.33026">
        <ele>255.2</ele>
        <time>2017-07-23T07:40:12Z</time>
      </trkpt>
      <trkpt lat="43.56139" lon="3.33023">
        <ele>254.6</ele>
        <time>2017-07-23T07:40:14Z</time>
      </trkpt>
      <trkpt lat="43.56148" lon="3.33023">
        <ele>253.9</ele>
        <time>2017-07-23T07:40:16Z</time>
      </trkpt>
      <trkpt lat="43.56156" lon="3.33026">
        <ele>249.9</ele>
        <time>2017-07-23T07:40:18Z</time>
      </trkpt>
      <trkpt lat="43.56163" lon="3.33026">
        <ele>249.3</ele>
        <time>2017-07-23T07:40:20Z</time>
      </trkpt>
      <trkpt lat="43.56172" lon="3.33025">
        <ele>247.1</ele>
        <time>2017-07-23T07:40:22Z</time>
      </trkpt>
      <trkpt lat="43.5618" lon="3.33028">
        <ele>246.8</ele>
        <time>2017-07-23T07:40:24Z</time>
      </trkpt>
      <trkpt lat="43.5619" lon="3.33028">
        <ele>246.3</ele>
        <time>2017-07-23T07:40:26Z</time>
      </trkpt>
      <trkpt lat="43.56198" lon="3.33024">
        <ele>245.6</ele>
        <time>2017-07-23T07:40:28Z</time>
      </trkpt>
      <trkpt lat="43.56208" lon="3.33024">
        <ele>241.8</ele>
        <time>2017-07-23T07:40:30Z</time>
      </trkpt>
      <trkpt lat="43.56218" lon="3.33024">
        <ele>241.1</ele>
        <time>2017-07-23T07:40:32Z</time>
      </trkpt>
      <trkpt lat="43.56225" lon="3.33018">
        <ele>237.6</ele>
        <time>2017-07-23T07:40:34Z</time>
      </trkpt>
      <trkpt lat="43.56234" lon="3.33009">
        <ele>231.1</ele>
        <time>2017-07-23T07:40:36Z</time>
      </trkpt>
      <trkpt lat="43.56241" lon="3.33">
        <ele>228.1</ele>
        <time>2017-07-23T07:40:38Z</time>
      </trkpt>
      <trkpt lat="43.56246" lon="3.32989">
        <ele>226.1</ele>
        <time>2017-07-23T07:40:40Z</time>
      </trkpt>
      <trkpt lat="43.56253" lon="3.3298">
        <ele>225.5</ele>
        <time>2017-07-23T07:40:43Z</time>
      </trkpt>
      <trkpt lat="43.56259" lon="3.3297">
        <ele>223.6</ele>
        <time>2017-07-23T07:40:58Z</time>
      </trkpt>
      <trkpt lat="43.56263" lon="3.32966">
        <ele>216.4</ele>
        <time>2017-07-23T07:43:28Z</time>
      </trkpt>
      <trkpt lat="43.56261" lon="3.32971">
        <ele>216</ele>
        <time>2017-07-23T07:45:24Z</time>
      </trkpt>
      <trkpt lat="43.5626" lon="3.3297">
        <ele>215.5</ele>
        <time>2017-07-23T07:45:12Z</time>
      </trkpt>
      <trkpt lat="43.56263" lon="3.32968">
        <ele>219.1</ele>
        <time>2017-07-23T07:47:43Z</time>
      </trkpt>
      <trkpt lat="43.56271" lon="3.32969">
        <ele>217.8</ele>
        <time>2017-07-23T07:47:52Z</time>
      </trkpt>
      <trkpt lat="43.56279" lon="3.3297">
        <ele>217.5</ele>
        <time>2017-07-23T07:47:55Z</time>
      </trkpt>
      <trkpt lat="43.56287" lon="3.32975">
        <ele>217.3</ele>
        <time>2017-07-23T07:47:58Z</time>
      </trkpt>
      <trkpt lat="43.56294" lon="3.32983">
        <ele>217.2</ele>
        <time>2017-07-23T07:48:01Z</time>
      </trkpt>
      <trkpt lat="43.56301" lon="3.32991">
        <ele>216.9</ele>
        <time>2017-07-23T07:48:04Z</time>
      </trkpt>
      <trkpt lat="43.56309" lon="3.32996">
        <ele>216.8</ele>
        <time>2017-07-23T07:48:08Z</time>
      </trkpt>
      <trkpt lat="43.56315" lon="3.32988">
        <ele>216.8</ele>
        <time>2017-07-23T07:48:13Z</time>
      </trkpt>
      <trkpt lat="43.5632" lon="3.32977">
        <ele>216.8</ele>
        <time>2017-07-23T07:48:16Z</time>
      </trkpt>
      <trkpt lat="43.56327" lon="3.32967">
        <ele>216.6</ele>
        <time>2017-07-23T07:48:19Z</time>
      </trkpt>
      <trkpt lat="43.56332" lon="3.32959">
        <ele>216.4</ele>
        <time>2017-07-23T07:48:22Z</time>
      </trkpt>
      <trkpt lat="43.56336" lon="3.32951">
        <ele>216.3</ele>
        <time>2017-07-23T07:48:25Z</time>
      </trkpt>
      <trkpt lat="43.56343" lon="3.32943">
        <ele>216.1</ele>
        <time>2017-07-23T07:48:28Z</time>
      </trkpt>
      <trkpt lat="43.56348" lon="3.32935">
        <ele>216.1</ele>
        <time>2017-07-23T07:48:31Z</time>
      </trkpt>
      <trkpt lat="43.56355" lon="3.32927">
        <ele>216.3</ele>
        <time>2017-07-23T07:48:35Z</time>
      </trkpt>
      <trkpt lat="43.56362" lon="3.32922">
        <ele>216.4</ele>
        <time>2017-07-23T07:48:38Z</time>
      </trkpt>
      <trkpt lat="43.56367" lon="3.32913">
        <ele>216.5</ele>
        <time>2017-07-23T07:48:41Z</time>
      </trkpt>
      <trkpt lat="43.56373" lon="3.32904">
        <ele>216.4</ele>
        <time>2017-07-23T07:48:45Z</time>
      </trkpt>
      <trkpt lat="43.56377" lon="3.32895">
        <ele>216</ele>
        <time>2017-07-23T07:48:48Z</time>
      </trkpt>
      <trkpt lat="43.5638" lon="3.32883">
        <ele>215.5</ele>
        <time>2017-07-23T07:48:52Z</time>
      </trkpt>
      <trkpt lat="43.56383" lon="3.32872">
        <ele>215.4</ele>
        <time>2017-07-23T07:48:56Z</time>
      </trkpt>
      <trkpt lat="43.56389" lon="3.32862">
        <ele>215.5</ele>
        <time>2017-07-23T07:49:00Z</time>
      </trkpt>
      <trkpt lat="43.56395" lon="3.32857">
        <ele>215.7</ele>
        <time>2017-07-23T07:49:03Z</time>
      </trkpt>
      <trkpt lat="43.56403" lon="3.32851">
        <ele>215.9</ele>
        <time>2017-07-23T07:49:06Z</time>
      </trkpt>
      <trkpt lat="43.5641" lon="3.32846">
        <ele>216.1</ele>
        <time>2017-07-23T07:49:09Z</time>
      </trkpt>
      <trkpt lat="43.56419" lon="3.32842">
        <ele>216.3</ele>
        <time>2017-07-23T07:49:13Z</time>
      </trkpt>
      <trkpt lat="43.56427" lon="3.32837">
        <ele>216.6</ele>
        <time>2017-07-23T07:49:16Z</time>
      </trkpt>
      <trkpt lat="43.56436" lon="3.32833">
        <ele>216.9</ele>
        <time>2017-07-23T07:49:20Z</time>
      </trkpt>
      <trkpt lat="43.56443" lon="3.32836">
        <ele>217.1</ele>
        <time>2017-07-23T07:49:23Z</time>
      </trkpt>
      <trkpt lat="43.56449" lon="3.32842">
        <ele>217.3</ele>
        <time>2017-07-23T07:49:26Z</time>
      </trkpt>
      <trkpt lat="43.56458" lon="3.32843">
        <ele>217.7</ele>
        <time>2017-07-23T07:49:30Z</time>
      </trkpt>
      <trkpt lat="43.56465" lon="3.32837">
        <ele>218</ele>
        <time>2017-07-23T07:49:33Z</time>
      </trkpt>
      <trkpt lat="43.56472" lon="3.32832">
        <ele>218.5</ele>
        <time>2017-07-23T07:49:37Z</time>
      </trkpt>
      <trkpt lat="43.56481" lon="3.32829">
        <ele>218.7</ele>
        <time>2017-07-23T07:49:40Z</time>
      </trkpt>
      <trkpt lat="43.56488" lon="3.32826">
        <ele>218.9</ele>
        <time>2017-07-23T07:49:43Z</time>
      </trkpt>
      <trkpt lat="43.56495" lon="3.32823">
        <ele>219.3</ele>
        <time>2017-07-23T07:49:46Z</time>
      </trkpt>
      <trkpt lat="43.56503" lon="3.32819">
        <ele>220.1</ele>
        <time>2017-07-23T07:49:50Z</time>
      </trkpt>
      <trkpt lat="43.56513" lon="3.32815">
        <ele>221</ele>
        <time>2017-07-23T07:49:54Z</time>
      </trkpt>
      <trkpt lat="43.56521" lon="3.32811">
        <ele>221.6</ele>
        <time>2017-07-23T07:49:57Z</time>
      </trkpt>
      <trkpt lat="43.5653" lon="3.32804">
        <ele>222</ele>
        <time>2017-07-23T07:50:00Z</time>
      </trkpt>
      <trkpt lat="43.56537" lon="3.32797">
        <ele>222.4</ele>
        <time>2017-07-23T07:50:03Z</time>
      </trkpt>
      <trkpt lat="43.56546" lon="3.32791">
        <ele>222.7</ele>
        <time>2017-07-23T07:50:06Z</time>
      </trkpt>
      <trkpt lat="43.56554" lon="3.32783">
        <ele>223.1</ele>
        <time>2017-07-23T07:50:09Z</time>
      </trkpt>
      <trkpt lat="43.56562" lon="3.32777">
        <ele>223.5</ele>
        <time>2017-07-23T07:50:12Z</time>
      </trkpt>
      <trkpt lat="43.56571" lon="3.32771">
        <ele>224</ele>
        <time>2017-07-23T07:50:15Z</time>
      </trkpt>
      <trkpt lat="43.5658" lon="3.32765">
        <ele>224.6</ele>
        <time>2017-07-23T07:50:18Z</time>
      </trkpt>
      <trkpt lat="43.56589" lon="3.32761">
        <ele>225.2</ele>
        <time>2017-07-23T07:50:21Z</time>
      </trkpt>
      <trkpt lat="43.56597" lon="3.32755">
        <ele>225.5</ele>
        <time>2017-07-23T07:50:24Z</time>
      </trkpt>
      <trkpt lat="43.56606" lon="3.32746">
        <ele>226</ele>
        <time>2017-07-23T07:50:27Z</time>
      </trkpt>
      <trkpt lat="43.56613" lon="3.32742">
        <ele>226.5</ele>
        <time>2017-07-23T07:50:30Z</time>
      </trkpt>
      <trkpt lat="43.56619" lon="3.32737">
        <ele>226.7</ele>
        <time>2017-07-23T07:50:32Z</time>
      </trkpt>
      <trkpt lat="43.56628" lon="3.32732">
        <ele>227</ele>
        <time>2017-07-23T07:50:35Z</time>
      </trkpt>
      <trkpt lat="43.56635" lon="3.32728">
        <ele>227.3</ele>
        <time>2017-07-23T07:50:38Z</time>
      </trkpt>
      <trkpt lat="43.56643" lon="3.32721">
        <ele>227.5</ele>
        <time>2017-07-23T07:50:42Z</time>
      </trkpt>
      <trkpt lat="43.5665" lon="3.32715">
        <ele>227.8</ele>
        <time>2017-07-23T07:50:44Z</time>
      </trkpt>
      <trkpt lat="43.56657" lon="3.3271">
        <ele>228.1</ele>
        <time>2017-07-23T07:50:47Z</time>
      </trkpt>
      <trkpt lat="43.56665" lon="3.32702">
        <ele>228.2</ele>
        <time>2017-07-23T07:50:50Z</time>
      </trkpt>
      <trkpt lat="43.56674" lon="3.32696">
        <ele>228.2</ele>
        <time>2017-07-23T07:50:53Z</time>
      </trkpt>
      <trkpt lat="43.56682" lon="3.32688">
        <ele>228.2</ele>
        <time>2017-07-23T07:50:56Z</time>
      </trkpt>
      <trkpt lat="43.5669" lon="3.32681">
        <ele>228.3</ele>
        <time>2017-07-23T07:50:59Z</time>
      </trkpt>
      <trkpt lat="43.56698" lon="3.32673">
        <ele>228.4</ele>
        <time>2017-07-23T07:51:02Z</time>
      </trkpt>
      <trkpt lat="43.56705" lon="3.32668">
        <ele>228.5</ele>
        <time>2017-07-23T07:51:05Z</time>
      </trkpt>
      <trkpt lat="43.56711" lon="3.32662">
        <ele>228.6</ele>
        <time>2017-07-23T07:51:08Z</time>
      </trkpt>
      <trkpt lat="43.56719" lon="3.32657">
        <ele>228.8</ele>
        <time>2017-07-23T07:51:11Z</time>
      </trkpt>
      <trkpt lat="43.56725" lon="3.32651">
        <ele>229.2</ele>
        <time>2017-07-23T07:51:14Z</time>
      </trkpt>
      <trkpt lat="43.56734" lon="3.32644">
        <ele>229.7</ele>
        <time>2017-07-23T07:51:17Z</time>
      </trkpt>
      <trkpt lat="43.56743" lon="3.32639">
        <ele>230.3</ele>
        <time>2017-07-23T07:51:20Z</time>
      </trkpt>
      <trkpt lat="43.5675" lon="3.32636">
        <ele>230.7</ele>
        <time>2017-07-23T07:51:22Z</time>
      </trkpt>
      <trkpt lat="43.56761" lon="3.32632">
        <ele>231</ele>
        <time>2017-07-23T07:51:25Z</time>
      </trkpt>
      <trkpt lat="43.56768" lon="3.32629">
        <ele>231.1</ele>
        <time>2017-07-23T07:51:27Z</time>
      </trkpt>
      <trkpt lat="43.56774" lon="3.32625">
        <ele>231.3</ele>
        <time>2017-07-23T07:51:29Z</time>
      </trkpt>
      <trkpt lat="43.56783" lon="3.32618">
        <ele>231.5</ele>
        <time>2017-07-23T07:51:32Z</time>
      </trkpt>
      <trkpt lat="43.5679" lon="3.32615">
        <ele>232</ele>
        <time>2017-07-23T07:51:35Z</time>
      </trkpt>
      <trkpt lat="43.56799" lon="3.3261">
        <ele>232.5</ele>
        <time>2017-07-23T07:51:38Z</time>
      </trkpt>
      <trkpt lat="43.56807" lon="3.32609">
        <ele>232.9</ele>
        <time>2017-07-23T07:51:41Z</time>
      </trkpt>
      <trkpt lat="43.56816" lon="3.32607">
        <ele>233.3</ele>
        <time>2017-07-23T07:51:44Z</time>
      </trkpt>
      <trkpt lat="43.56825" lon="3.32603">
        <ele>233.8</ele>
        <time>2017-07-23T07:51:47Z</time>
      </trkpt>
      <trkpt lat="43.56832" lon="3.326">
        <ele>234.1</ele>
        <time>2017-07-23T07:51:49Z</time>
      </trkpt>
      <trkpt lat="43.56839" lon="3.32598">
        <ele>234.4</ele>
        <time>2017-07-23T07:51:51Z</time>
      </trkpt>
      <trkpt lat="43.56847" lon="3.32594">
        <ele>234.7</ele>
        <time>2017-07-23T07:51:54Z</time>
      </trkpt>
      <trkpt lat="43.56855" lon="3.32589">
        <ele>235</ele>
        <time>2017-07-23T07:51:58Z</time>
      </trkpt>
      <trkpt lat="43.56863" lon="3.32588">
        <ele>235.2</ele>
        <time>2017-07-23T07:52:01Z</time>
      </trkpt>
      <trkpt lat="43.56871" lon="3.32591">
        <ele>235.3</ele>
        <time>2017-07-23T07:52:04Z</time>
      </trkpt>
      <trkpt lat="43.56879" lon="3.32594">
        <ele>235.6</ele>
        <time>2017-07-23T07:52:08Z</time>
      </trkpt>
      <trkpt lat="43.56888" lon="3.32594">
        <ele>236.3</ele>
        <time>2017-07-23T07:52:13Z</time>
      </trkpt>
      <trkpt lat="43.56896" lon="3.32593">
        <ele>236.8</ele>
        <time>2017-07-23T07:52:16Z</time>
      </trkpt>
      <trkpt lat="43.56904" lon="3.32592">
        <ele>237.6</ele>
        <time>2017-07-23T07:52:20Z</time>
      </trkpt>
      <trkpt lat="43.56913" lon="3.32593">
        <ele>238.4</ele>
        <time>2017-07-23T07:52:24Z</time>
      </trkpt>
      <trkpt lat="43.56922" lon="3.32592">
        <ele>239.1</ele>
        <time>2017-07-23T07:52:28Z</time>
      </trkpt>
      <trkpt lat="43.5693" lon="3.32592">
        <ele>239.8</ele>
        <time>2017-07-23T07:52:32Z</time>
      </trkpt>
      <trkpt lat="43.56939" lon="3.32591">
        <ele>240.8</ele>
        <time>2017-07-23T07:52:37Z</time>
      </trkpt>
      <trkpt lat="43.56948" lon="3.32591">
        <ele>241.7</ele>
        <time>2017-07-23T07:52:41Z</time>
      </trkpt>
      <trkpt lat="43.56957" lon="3.32591">
        <ele>242.4</ele>
        <time>2017-07-23T07:52:45Z</time>
      </trkpt>
      <trkpt lat="43.56965" lon="3.32593">
        <ele>243.1</ele>
        <time>2017-07-23T07:52:49Z</time>
      </trkpt>
      <trkpt lat="43.56974" lon="3.32592">
        <ele>244.1</ele>
        <time>2017-07-23T07:52:53Z</time>
      </trkpt>
      <trkpt lat="43.5698" lon="3.32589">
        <ele>244.9</ele>
        <time>2017-07-23T07:52:57Z</time>
      </trkpt>
      <trkpt lat="43.56987" lon="3.32586">
        <ele>245.4</ele>
        <time>2017-07-23T07:53:00Z</time>
      </trkpt>
      <trkpt lat="43.56996" lon="3.32586">
        <ele>246</ele>
        <time>2017-07-23T07:53:04Z</time>
      </trkpt>
      <trkpt lat="43.57005" lon="3.32586">
        <ele>246.9</ele>
        <time>2017-07-23T07:53:08Z</time>
      </trkpt>
      <trkpt lat="43.57013" lon="3.32588">
        <ele>247.9</ele>
        <time>2017-07-23T07:53:12Z</time>
      </trkpt>
      <trkpt lat="43.5702" lon="3.32594">
        <ele>248.8</ele>
        <time>2017-07-23T07:53:16Z</time>
      </trkpt>
      <trkpt lat="43.57027" lon="3.32598">
        <ele>249.8</ele>
        <time>2017-07-23T07:53:21Z</time>
      </trkpt>
      <trkpt lat="43.57034" lon="3.32604">
        <ele>250.7</ele>
        <time>2017-07-23T07:53:25Z</time>
      </trkpt>
      <trkpt lat="43.57041" lon="3.3261">
        <ele>251.7</ele>
        <time>2017-07-23T07:53:29Z</time>
      </trkpt>
      <trkpt lat="43.57049" lon="3.32617">
        <ele>252.9</ele>
        <time>2017-07-23T07:53:34Z</time>
      </trkpt>
      <trkpt lat="43.57056" lon="3.32616">
        <ele>253.6</ele>
        <time>2017-07-23T07:53:38Z</time>
      </trkpt>
      <trkpt lat="43.57059" lon="3.32603">
        <ele>254.3</ele>
        <time>2017-07-23T07:53:43Z</time>
      </trkpt>
      <trkpt lat="43.57061" lon="3.3259">
        <ele>254.5</ele>
        <time>2017-07-23T07:53:47Z</time>
      </trkpt>
      <trkpt lat="43.57063" lon="3.3258">
        <ele>255</ele>
        <time>2017-07-23T07:53:52Z</time>
      </trkpt>
      <trkpt lat="43.5707" lon="3.32573">
        <ele>255.8</ele>
        <time>2017-07-23T07:53:56Z</time>
      </trkpt>
      <trkpt lat="43.57078" lon="3.3257">
        <ele>256.3</ele>
        <time>2017-07-23T07:54:00Z</time>
      </trkpt>
      <trkpt lat="43.57085" lon="3.32567">
        <ele>256.8</ele>
        <time>2017-07-23T07:54:04Z</time>
      </trkpt>
      <trkpt lat="43.57093" lon="3.32563">
        <ele>257.2</ele>
        <time>2017-07-23T07:54:07Z</time>
      </trkpt>
      <trkpt lat="43.571" lon="3.3256">
        <ele>258.1</ele>
        <time>2017-07-23T07:54:11Z</time>
      </trkpt>
      <trkpt lat="43.57107" lon="3.32556">
        <ele>258.8</ele>
        <time>2017-07-23T07:54:15Z</time>
      </trkpt>
      <trkpt lat="43.57116" lon="3.32554">
        <ele>259.6</ele>
        <time>2017-07-23T07:54:19Z</time>
      </trkpt>
      <trkpt lat="43.57124" lon="3.32551">
        <ele>260.8</ele>
        <time>2017-07-23T07:54:24Z</time>
      </trkpt>
      <trkpt lat="43.57132" lon="3.32546">
        <ele>261.7</ele>
        <time>2017-07-23T07:54:29Z</time>
      </trkpt>
      <trkpt lat="43.57139" lon="3.32543">
        <ele>262</ele>
        <time>2017-07-23T07:54:32Z</time>
      </trkpt>
      <trkpt lat="43.57147" lon="3.32541">
        <ele>262.6</ele>
        <time>2017-07-23T07:54:36Z</time>
      </trkpt>
      <trkpt lat="43.57155" lon="3.32538">
        <ele>263</ele>
        <time>2017-07-23T07:54:40Z</time>
      </trkpt>
      <trkpt lat="43.57164" lon="3.32536">
        <ele>263.7</ele>
        <time>2017-07-23T07:54:44Z</time>
      </trkpt>
      <trkpt lat="43.57171" lon="3.32535">
        <ele>264.3</ele>
        <time>2017-07-23T07:54:47Z</time>
      </trkpt>
      <trkpt lat="43.57166" lon="3.32543">
        <ele>265.6</ele>
        <time>2017-07-23T07:54:54Z</time>
      </trkpt>
      <trkpt lat="43.57158" lon="3.32548">
        <ele>266.6</ele>
        <time>2017-07-23T07:54:58Z</time>
      </trkpt>
      <trkpt lat="43.57149" lon="3.32553">
        <ele>267.9</ele>
        <time>2017-07-23T07:55:02Z</time>
      </trkpt>
      <trkpt lat="43.57142" lon="3.3256">
        <ele>268.9</ele>
        <time>2017-07-23T07:55:06Z</time>
      </trkpt>
      <trkpt lat="43.57135" lon="3.32569">
        <ele>269.8</ele>
        <time>2017-07-23T07:55:10Z</time>
      </trkpt>
      <trkpt lat="43.57128" lon="3.32575">
        <ele>270.7</ele>
        <time>2017-07-23T07:55:14Z</time>
      </trkpt>
      <trkpt lat="43.57122" lon="3.32583">
        <ele>271.5</ele>
        <time>2017-07-23T07:55:18Z</time>
      </trkpt>
      <trkpt lat="43.57117" lon="3.32594">
        <ele>272.5</ele>
        <time>2017-07-23T07:55:23Z</time>
      </trkpt>
      <trkpt lat="43.57112" lon="3.32603">
        <ele>273.2</ele>
        <time>2017-07-23T07:55:28Z</time>
      </trkpt>
      <trkpt lat="43.57108" lon="3.32612">
        <ele>274.4</ele>
        <time>2017-07-23T07:55:33Z</time>
      </trkpt>
      <trkpt lat="43.57105" lon="3.32623">
        <ele>275.6</ele>
        <time>2017-07-23T07:55:37Z</time>
      </trkpt>
      <trkpt lat="43.57104" lon="3.32635">
        <ele>276.7</ele>
        <time>2017-07-23T07:55:41Z</time>
      </trkpt>
      <trkpt lat="43.57105" lon="3.32648">
        <ele>277.4</ele>
        <time>2017-07-23T07:55:45Z</time>
      </trkpt>
      <trkpt lat="43.57107" lon="3.32659">
        <ele>278</ele>
        <time>2017-07-23T07:55:49Z</time>
      </trkpt>
      <trkpt lat="43.57107" lon="3.3267">
        <ele>278.6</ele>
        <time>2017-07-23T07:55:53Z</time>
      </trkpt>
      <trkpt lat="43.5711" lon="3.32681">
        <ele>279.1</ele>
        <time>2017-07-23T07:55:56Z</time>
      </trkpt>
      <trkpt lat="43.57113" lon="3.32692">
        <ele>279.5</ele>
        <time>2017-07-23T07:56:00Z</time>
      </trkpt>
      <trkpt lat="43.57114" lon="3.32705">
        <ele>279.8</ele>
        <time>2017-07-23T07:56:04Z</time>
      </trkpt>
      <trkpt lat="43.57114" lon="3.32716">
        <ele>280</ele>
        <time>2017-07-23T07:56:07Z</time>
      </trkpt>
      <trkpt lat="43.57114" lon="3.32726">
        <ele>280.3</ele>
        <time>2017-07-23T07:56:11Z</time>
      </trkpt>
      <trkpt lat="43.57113" lon="3.32737">
        <ele>280.7</ele>
        <time>2017-07-23T07:56:14Z</time>
      </trkpt>
      <trkpt lat="43.57111" lon="3.32749">
        <ele>281.2</ele>
        <time>2017-07-23T07:56:18Z</time>
      </trkpt>
      <trkpt lat="43.5711" lon="3.3276">
        <ele>281.8</ele>
        <time>2017-07-23T07:56:21Z</time>
      </trkpt>
      <trkpt lat="43.57107" lon="3.3277">
        <ele>282.5</ele>
        <time>2017-07-23T07:56:24Z</time>
      </trkpt>
      <trkpt lat="43.57105" lon="3.32781">
        <ele>283.3</ele>
        <time>2017-07-23T07:56:27Z</time>
      </trkpt>
      <trkpt lat="43.57101" lon="3.32791">
        <ele>283.9</ele>
        <time>2017-07-23T07:56:30Z</time>
      </trkpt>
      <trkpt lat="43.57099" lon="3.32803">
        <ele>284.7</ele>
        <time>2017-07-23T07:56:34Z</time>
      </trkpt>
      <trkpt lat="43.57098" lon="3.32813">
        <ele>285.1</ele>
        <time>2017-07-23T07:56:37Z</time>
      </trkpt>
      <trkpt lat="43.57096" lon="3.32823">
        <ele>285.4</ele>
        <time>2017-07-23T07:56:40Z</time>
      </trkpt>
      <trkpt lat="43.57094" lon="3.32834">
        <ele>285.9</ele>
        <time>2017-07-23T07:56:44Z</time>
      </trkpt>
      <trkpt lat="43.57093" lon="3.32847">
        <ele>286.5</ele>
        <time>2017-07-23T07:56:48Z</time>
      </trkpt>
      <trkpt lat="43.57091" lon="3.3286">
        <ele>287.3</ele>
        <time>2017-07-23T07:56:52Z</time>
      </trkpt>
      <trkpt lat="43.5709" lon="3.32872">
        <ele>288.1</ele>
        <time>2017-07-23T07:56:56Z</time>
      </trkpt>
      <trkpt lat="43.57091" lon="3.32883">
        <ele>289.2</ele>
        <time>2017-07-23T07:57:02Z</time>
      </trkpt>
      <trkpt lat="43.57091" lon="3.32894">
        <ele>290.1</ele>
        <time>2017-07-23T07:57:09Z</time>
      </trkpt>
      <trkpt lat="43.57089" lon="3.329">
        <ele>293.4</ele>
        <time>2017-07-23T07:57:44Z</time>
      </trkpt>
      <trkpt lat="43.57089" lon="3.32903">
        <ele>294.3</ele>
        <time>2017-07-23T07:57:51Z</time>
      </trkpt>
      <trkpt lat="43.57087" lon="3.32903">
        <ele>296.6</ele>
        <time>2017-07-23T07:58:47Z</time>
      </trkpt>
      <trkpt lat="43.57081" lon="3.32914">
        <ele>296.9</ele>
        <time>2017-07-23T07:58:55Z</time>
      </trkpt>
      <trkpt lat="43.57075" lon="3.32926">
        <ele>297.5</ele>
        <time>2017-07-23T07:58:58Z</time>
      </trkpt>
      <trkpt lat="43.5707" lon="3.32939">
        <ele>296.9</ele>
        <time>2017-07-23T07:59:00Z</time>
      </trkpt>
      <trkpt lat="43.57062" lon="3.3295">
        <ele>296.2</ele>
        <time>2017-07-23T07:59:02Z</time>
      </trkpt>
      <trkpt lat="43.57055" lon="3.32959">
        <ele>296.2</ele>
        <time>2017-07-23T07:59:04Z</time>
      </trkpt>
      <trkpt lat="43.57047" lon="3.3297">
        <ele>295.5</ele>
        <time>2017-07-23T07:59:06Z</time>
      </trkpt>
      <trkpt lat="43.5704" lon="3.32976">
        <ele>295.1</ele>
        <time>2017-07-23T07:59:08Z</time>
      </trkpt>
      <trkpt lat="43.57032" lon="3.32982">
        <ele>294.1</ele>
        <time>2017-07-23T07:59:10Z</time>
      </trkpt>
      <trkpt lat="43.57025" lon="3.32988">
        <ele>293.7</ele>
        <time>2017-07-23T07:59:12Z</time>
      </trkpt>
      <trkpt lat="43.57016" lon="3.32994">
        <ele>293.7</ele>
        <time>2017-07-23T07:59:15Z</time>
      </trkpt>
      <trkpt lat="43.5701" lon="3.32998">
        <ele>294.2</ele>
        <time>2017-07-23T07:59:17Z</time>
      </trkpt>
      <trkpt lat="43.57003" lon="3.33005">
        <ele>294.2</ele>
        <time>2017-07-23T07:59:19Z</time>
      </trkpt>
      <trkpt lat="43.56996" lon="3.33012">
        <ele>294.2</ele>
        <time>2017-07-23T07:59:21Z</time>
      </trkpt>
      <trkpt lat="43.56989" lon="3.33021">
        <ele>293.9</ele>
        <time>2017-07-23T07:59:24Z</time>
      </trkpt>
      <trkpt lat="43.56983" lon="3.33028">
        <ele>294.1</ele>
        <time>2017-07-23T07:59:26Z</time>
      </trkpt>
      <trkpt lat="43.56973" lon="3.33035">
        <ele>294.7</ele>
        <time>2017-07-23T07:59:28Z</time>
      </trkpt>
      <trkpt lat="43.56964" lon="3.33043">
        <ele>294.8</ele>
        <time>2017-07-23T07:59:30Z</time>
      </trkpt>
      <trkpt lat="43.56955" lon="3.33054">
        <ele>293.5</ele>
        <time>2017-07-23T07:59:32Z</time>
      </trkpt>
      <trkpt lat="43.56946" lon="3.33061">
        <ele>293.2</ele>
        <time>2017-07-23T07:59:34Z</time>
      </trkpt>
      <trkpt lat="43.56935" lon="3.3307">
        <ele>292.2</ele>
        <time>2017-07-23T07:59:36Z</time>
      </trkpt>
      <trkpt lat="43.56924" lon="3.3308">
        <ele>291.8</ele>
        <time>2017-07-23T07:59:38Z</time>
      </trkpt>
      <trkpt lat="43.56913" lon="3.33091">
        <ele>291.1</ele>
        <time>2017-07-23T07:59:40Z</time>
      </trkpt>
      <trkpt lat="43.56903" lon="3.33097">
        <ele>289.5</ele>
        <time>2017-07-23T07:59:42Z</time>
      </trkpt>
      <trkpt lat="43.56895" lon="3.331">
        <ele>288.7</ele>
        <time>2017-07-23T07:59:44Z</time>
      </trkpt>
      <trkpt lat="43.56887" lon="3.331">
        <ele>288.4</ele>
        <time>2017-07-23T07:59:47Z</time>
      </trkpt>
      <trkpt lat="43.5688" lon="3.33102">
        <ele>288.2</ele>
        <time>2017-07-23T07:59:49Z</time>
      </trkpt>
      <trkpt lat="43.56873" lon="3.33104">
        <ele>288</ele>
        <time>2017-07-23T07:59:51Z</time>
      </trkpt>
      <trkpt lat="43.56866" lon="3.33112">
        <ele>287.4</ele>
        <time>2017-07-23T07:59:55Z</time>
      </trkpt>
      <trkpt lat="43.56859" lon="3.33112">
        <ele>286.9</ele>
        <time>2017-07-23T07:59:58Z</time>
      </trkpt>
      <trkpt lat="43.56849" lon="3.33117">
        <ele>286.2</ele>
        <time>2017-07-23T08:00:01Z</time>
      </trkpt>
      <trkpt lat="43.5684" lon="3.3312">
        <ele>285.3</ele>
        <time>2017-07-23T08:00:04Z</time>
      </trkpt>
      <trkpt lat="43.5683" lon="3.33126">
        <ele>281.1</ele>
        <time>2017-07-23T08:00:07Z</time>
      </trkpt>
      <trkpt lat="43.56823" lon="3.33129">
        <ele>277.3</ele>
        <time>2017-07-23T08:00:09Z</time>
      </trkpt>
      <trkpt lat="43.56817" lon="3.33138">
        <ele>272.4</ele>
        <time>2017-07-23T08:00:11Z</time>
      </trkpt>
      <trkpt lat="43.5681" lon="3.33146">
        <ele>268.9</ele>
        <time>2017-07-23T08:00:13Z</time>
      </trkpt>
      <trkpt lat="43.56803" lon="3.33154">
        <ele>267.5</ele>
        <time>2017-07-23T08:00:15Z</time>
      </trkpt>
      <trkpt lat="43.56795" lon="3.33162">
        <ele>264.7</ele>
        <time>2017-07-23T08:00:17Z</time>
      </trkpt>
      <trkpt lat="43.56786" lon="3.33172">
        <ele>261.9</ele>
        <time>2017-07-23T08:00:19Z</time>
      </trkpt>
      <trkpt lat="43.5678" lon="3.33183">
        <ele>260.3</ele>
        <time>2017-07-23T08:00:21Z</time>
      </trkpt>
      <trkpt lat="43.56775" lon="3.33192">
        <ele>259.7</ele>
        <time>2017-07-23T08:00:23Z</time>
      </trkpt>
      <trkpt lat="43.56771" lon="3.33202">
        <ele>259.6</ele>
        <time>2017-07-23T08:00:26Z</time>
      </trkpt>
      <trkpt lat="43.56768" lon="3.33213">
        <ele>259.3</ele>
        <time>2017-07-23T08:00:30Z</time>
      </trkpt>
      <trkpt lat="43.56767" lon="3.33225">
        <ele>258.9</ele>
        <time>2017-07-23T08:00:33Z</time>
      </trkpt>
      <trkpt lat="43.56761" lon="3.33233">
        <ele>258.4</ele>
        <time>2017-07-23T08:00:36Z</time>
      </trkpt>
      <trkpt lat="43.56757" lon="3.3324">
        <ele>257.8</ele>
        <time>2017-07-23T08:00:39Z</time>
      </trkpt>
      <trkpt lat="43.56751" lon="3.33248">
        <ele>257.5</ele>
        <time>2017-07-23T08:00:41Z</time>
      </trkpt>
      <trkpt lat="43.56749" lon="3.33259">
        <ele>257.1</ele>
        <time>2017-07-23T08:00:43Z</time>
      </trkpt>
      <trkpt lat="43.56744" lon="3.33271">
        <ele>256.2</ele>
        <time>2017-07-23T08:00:47Z</time>
      </trkpt>
      <trkpt lat="43.56743" lon="3.33284">
        <ele>255.4</ele>
        <time>2017-07-23T08:00:51Z</time>
      </trkpt>
      <trkpt lat="43.56741" lon="3.333">
        <ele>251.2</ele>
        <time>2017-07-23T08:00:54Z</time>
      </trkpt>
      <trkpt lat="43.5674" lon="3.33312">
        <ele>247.5</ele>
        <time>2017-07-23T08:00:56Z</time>
      </trkpt>
      <trkpt lat="43.56736" lon="3.33329">
        <ele>244.3</ele>
        <time>2017-07-23T08:00:58Z</time>
      </trkpt>
      <trkpt lat="43.56733" lon="3.33342">
        <ele>244</ele>
        <time>2017-07-23T08:01:01Z</time>
      </trkpt>
      <trkpt lat="43.56729" lon="3.33352">
        <ele>243.9</ele>
        <time>2017-07-23T08:01:03Z</time>
      </trkpt>
      <trkpt lat="43.56724" lon="3.33363">
        <ele>241.6</ele>
        <time>2017-07-23T08:01:05Z</time>
      </trkpt>
      <trkpt lat="43.56722" lon="3.33376">
        <ele>240.2</ele>
        <time>2017-07-23T08:01:07Z</time>
      </trkpt>
      <trkpt lat="43.5672" lon="3.3339">
        <ele>237.4</ele>
        <time>2017-07-23T08:01:09Z</time>
      </trkpt>
      <trkpt lat="43.56719" lon="3.33406">
        <ele>235.5</ele>
        <time>2017-07-23T08:01:11Z</time>
      </trkpt>
      <trkpt lat="43.56716" lon="3.33423">
        <ele>233.9</ele>
        <time>2017-07-23T08:01:13Z</time>
      </trkpt>
      <trkpt lat="43.56716" lon="3.33436">
        <ele>232.2</ele>
        <time>2017-07-23T08:01:15Z</time>
      </trkpt>
      <trkpt lat="43.56718" lon="3.33448">
        <ele>231.9</ele>
        <time>2017-07-23T08:01:18Z</time>
      </trkpt>
      <trkpt lat="43.56716" lon="3.33458">
        <ele>231.5</ele>
        <time>2017-07-23T08:01:21Z</time>
      </trkpt>
      <trkpt lat="43.56716" lon="3.33468">
        <ele>231.3</ele>
        <time>2017-07-23T08:01:23Z</time>
      </trkpt>
      <trkpt lat="43.56713" lon="3.33478">
        <ele>230.7</ele>
        <time>2017-07-23T08:01:26Z</time>
      </trkpt>
      <trkpt lat="43.56712" lon="3.33491">
        <ele>230.4</ele>
        <time>2017-07-23T08:01:28Z</time>
      </trkpt>
      <trkpt lat="43.56705" lon="3.33495">
        <ele>229.8</ele>
        <time>2017-07-23T08:01:31Z</time>
      </trkpt>
      <trkpt lat="43.56697" lon="3.335">
        <ele>225.5</ele>
        <time>2017-07-23T08:01:33Z</time>
      </trkpt>
      <trkpt lat="43.56689" lon="3.335">
        <ele>222.2</ele>
        <time>2017-07-23T08:01:35Z</time>
      </trkpt>
      <trkpt lat="43.56681" lon="3.33498">
        <ele>220.3</ele>
        <time>2017-07-23T08:01:37Z</time>
      </trkpt>
      <trkpt lat="43.56671" lon="3.33497">
        <ele>218.5</ele>
        <time>2017-07-23T08:01:39Z</time>
      </trkpt>
      <trkpt lat="43.56662" lon="3.33502">
        <ele>218.2</ele>
        <time>2017-07-23T08:01:42Z</time>
      </trkpt>
      <trkpt lat="43.56662" lon="3.33515">
        <ele>217.3</ele>
        <time>2017-07-23T08:01:46Z</time>
      </trkpt>
      <trkpt lat="43.56662" lon="3.33526">
        <ele>216</ele>
        <time>2017-07-23T08:01:48Z</time>
      </trkpt>
      <trkpt lat="43.56662" lon="3.33539">
        <ele>215.7</ele>
        <time>2017-07-23T08:01:51Z</time>
      </trkpt>
      <trkpt lat="43.56662" lon="3.33549">
        <ele>215.4</ele>
        <time>2017-07-23T08:01:55Z</time>
      </trkpt>
      <trkpt lat="43.56666" lon="3.33559">
        <ele>214.9</ele>
        <time>2017-07-23T08:02:02Z</time>
      </trkpt>
      <trkpt lat="43.56666" lon="3.33552">
        <ele>214.8</ele>
        <time>2017-07-23T08:02:09Z</time>
      </trkpt>
      <trkpt lat="43.56664" lon="3.33557">
        <ele>214.5</ele>
        <time>2017-07-23T08:02:16Z</time>
      </trkpt>
      <trkpt lat="43.56669" lon="3.33559">
        <ele>214</ele>
        <time>2017-07-23T08:02:23Z</time>
      </trkpt>
      <trkpt lat="43.56668" lon="3.3355">
        <ele>213.7</ele>
        <time>2017-07-23T08:02:30Z</time>
      </trkpt>
      <trkpt lat="43.56662" lon="3.33553">
        <ele>213.3</ele>
        <time>2017-07-23T08:02:37Z</time>
      </trkpt>
      <trkpt lat="43.56666" lon="3.33556">
        <ele>212.8</ele>
        <time>2017-07-23T08:02:44Z</time>
      </trkpt>
      <trkpt lat="43.56662" lon="3.33548">
        <ele>212.5</ele>
        <time>2017-07-23T08:02:51Z</time>
      </trkpt>
      <trkpt lat="43.56662" lon="3.33556">
        <ele>212.6</ele>
        <time>2017-07-23T08:02:58Z</time>
      </trkpt>
      <trkpt lat="43.56669" lon="3.33561">
        <ele>212.7</ele>
        <time>2017-07-23T08:03:04Z</time>
      </trkpt>
      <trkpt lat="43.56677" lon="3.33569">
        <ele>212.7</ele>
        <time>2017-07-23T08:03:07Z</time>
      </trkpt>
      <trkpt lat="43.56683" lon="3.33577">
        <ele>212.9</ele>
        <time>2017-07-23T08:03:09Z</time>
      </trkpt>
      <trkpt lat="43.56689" lon="3.33586">
        <ele>212.7</ele>
        <time>2017-07-23T08:03:11Z</time>
      </trkpt>
      <trkpt lat="43.56696" lon="3.33595">
        <ele>212.6</ele>
        <time>2017-07-23T08:03:13Z</time>
      </trkpt>
      <trkpt lat="43.56703" lon="3.33604">
        <ele>212.5</ele>
        <time>2017-07-23T08:03:15Z</time>
      </trkpt>
      <trkpt lat="43.56711" lon="3.33614">
        <ele>212.6</ele>
        <time>2017-07-23T08:03:17Z</time>
      </trkpt>
      <trkpt lat="43.56719" lon="3.33625">
        <ele>212.7</ele>
        <time>2017-07-23T08:03:19Z</time>
      </trkpt>
      <trkpt lat="43.56726" lon="3.33635">
        <ele>212.6</ele>
        <time>2017-07-23T08:03:21Z</time>
      </trkpt>
      <trkpt lat="43.56734" lon="3.33646">
        <ele>211.9</ele>
        <time>2017-07-23T08:03:23Z</time>
      </trkpt>
      <trkpt lat="43.56742" lon="3.33657">
        <ele>211.1</ele>
        <time>2017-07-23T08:03:25Z</time>
      </trkpt>
      <trkpt lat="43.56749" lon="3.33666">
        <ele>210.2</ele>
        <time>2017-07-23T08:03:27Z</time>
      </trkpt>
      <trkpt lat="43.56756" lon="3.33676">
        <ele>209.6</ele>
        <time>2017-07-23T08:03:29Z</time>
      </trkpt>
      <trkpt lat="43.56763" lon="3.33688">
        <ele>208.8</ele>
        <time>2017-07-23T08:03:31Z</time>
      </trkpt>
      <trkpt lat="43.56767" lon="3.33702">
        <ele>208.1</ele>
        <time>2017-07-23T08:03:33Z</time>
      </trkpt>
      <trkpt lat="43.56771" lon="3.33718">
        <ele>206</ele>
        <time>2017-07-23T08:03:35Z</time>
      </trkpt>
      <trkpt lat="43.56773" lon="3.33735">
        <ele>205.2</ele>
        <time>2017-07-23T08:03:37Z</time>
      </trkpt>
      <trkpt lat="43.56775" lon="3.33749">
        <ele>206</ele>
        <time>2017-07-23T08:03:39Z</time>
      </trkpt>
      <trkpt lat="43.56779" lon="3.33763">
        <ele>207.2</ele>
        <time>2017-07-23T08:03:41Z</time>
      </trkpt>
      <trkpt lat="43.56783" lon="3.33773">
        <ele>207.7</ele>
        <time>2017-07-23T08:03:43Z</time>
      </trkpt>
      <trkpt lat="43.56789" lon="3.33779">
        <ele>207.9</ele>
        <time>2017-07-23T08:03:46Z</time>
      </trkpt>
      <trkpt lat="43.56797" lon="3.33785">
        <ele>208.1</ele>
        <time>2017-07-23T08:03:49Z</time>
      </trkpt>
      <trkpt lat="43.56804" lon="3.33791">
        <ele>208.2</ele>
        <time>2017-07-23T08:03:52Z</time>
      </trkpt>
      <trkpt lat="43.56811" lon="3.33798">
        <ele>208.3</ele>
        <time>2017-07-23T08:03:55Z</time>
      </trkpt>
      <trkpt lat="43.56816" lon="3.33804">
        <ele>208.4</ele>
        <time>2017-07-23T08:03:58Z</time>
      </trkpt>
      <trkpt lat="43.56823" lon="3.33811">
        <ele>208.7</ele>
        <time>2017-07-23T08:04:01Z</time>
      </trkpt>
      <trkpt lat="43.56828" lon="3.33819">
        <ele>208.9</ele>
        <time>2017-07-23T08:04:04Z</time>
      </trkpt>
      <trkpt lat="43.56835" lon="3.33828">
        <ele>209.3</ele>
        <time>2017-07-23T08:04:08Z</time>
      </trkpt>
      <trkpt lat="43.56841" lon="3.33836">
        <ele>209.7</ele>
        <time>2017-07-23T08:04:11Z</time>
      </trkpt>
      <trkpt lat="43.56847" lon="3.33844">
        <ele>210.1</ele>
        <time>2017-07-23T08:04:14Z</time>
      </trkpt>
      <trkpt lat="43.56853" lon="3.33851">
        <ele>210.5</ele>
        <time>2017-07-23T08:04:18Z</time>
      </trkpt>
      <trkpt lat="43.56857" lon="3.3386">
        <ele>211.3</ele>
        <time>2017-07-23T08:04:24Z</time>
      </trkpt>
      <trkpt lat="43.56861" lon="3.33871">
        <ele>211.8</ele>
        <time>2017-07-23T08:04:28Z</time>
      </trkpt>
      <trkpt lat="43.56862" lon="3.33884">
        <ele>212.2</ele>
        <time>2017-07-23T08:04:32Z</time>
      </trkpt>
      <trkpt lat="43.56865" lon="3.33892">
        <ele>212.5</ele>
        <time>2017-07-23T08:04:35Z</time>
      </trkpt>
      <trkpt lat="43.56872" lon="3.33896">
        <ele>213</ele>
        <time>2017-07-23T08:04:39Z</time>
      </trkpt>
      <trkpt lat="43.56877" lon="3.33885">
        <ele>213.3</ele>
        <time>2017-07-23T08:04:42Z</time>
      </trkpt>
      <trkpt lat="43.56881" lon="3.33875">
        <ele>213.6</ele>
        <time>2017-07-23T08:04:45Z</time>
      </trkpt>
      <trkpt lat="43.56884" lon="3.33865">
        <ele>213.8</ele>
        <time>2017-07-23T08:04:48Z</time>
      </trkpt>
      <trkpt lat="43.56884" lon="3.33855">
        <ele>214</ele>
        <time>2017-07-23T08:04:51Z</time>
      </trkpt>
      <trkpt lat="43.56881" lon="3.33846">
        <ele>214.2</ele>
        <time>2017-07-23T08:04:54Z</time>
      </trkpt>
      <trkpt lat="43.56879" lon="3.33835">
        <ele>214.6</ele>
        <time>2017-07-23T08:04:58Z</time>
      </trkpt>
      <trkpt lat="43.56878" lon="3.33823">
        <ele>214.9</ele>
        <time>2017-07-23T08:05:01Z</time>
      </trkpt>
      <trkpt lat="43.56877" lon="3.3381">
        <ele>215.4</ele>
        <time>2017-07-23T08:05:05Z</time>
      </trkpt>
      <trkpt lat="43.56879" lon="3.33799">
        <ele>215.8</ele>
        <time>2017-07-23T08:05:08Z</time>
      </trkpt>
      <trkpt lat="43.56882" lon="3.33789">
        <ele>216</ele>
        <time>2017-07-23T08:05:11Z</time>
      </trkpt>
      <trkpt lat="43.56888" lon="3.33781">
        <ele>216.4</ele>
        <time>2017-07-23T08:05:14Z</time>
      </trkpt>
      <trkpt lat="43.56896" lon="3.33776">
        <ele>216.8</ele>
        <time>2017-07-23T08:05:18Z</time>
      </trkpt>
      <trkpt lat="43.56904" lon="3.33774">
        <ele>217.3</ele>
        <time>2017-07-23T08:05:21Z</time>
      </trkpt>
      <trkpt lat="43.56913" lon="3.33773">
        <ele>217.6</ele>
        <time>2017-07-23T08:05:24Z</time>
      </trkpt>
      <trkpt lat="43.56922" lon="3.33776">
        <ele>218.2</ele>
        <time>2017-07-23T08:05:28Z</time>
      </trkpt>
      <trkpt lat="43.56926" lon="3.33785">
        <ele>218.7</ele>
        <time>2017-07-23T08:05:31Z</time>
      </trkpt>
      <trkpt lat="43.56929" lon="3.33797">
        <ele>219.4</ele>
        <time>2017-07-23T08:05:35Z</time>
      </trkpt>
      <trkpt lat="43.5693" lon="3.33799">
        <ele>220.3</ele>
        <time>2017-07-23T08:05:42Z</time>
      </trkpt>
      <trkpt lat="43.56931" lon="3.33803">
        <ele>221.6</ele>
        <time>2017-07-23T08:05:52Z</time>
      </trkpt>
      <trkpt lat="43.56935" lon="3.33815">
        <ele>222.1</ele>
        <time>2017-07-23T08:05:56Z</time>
      </trkpt>
      <trkpt lat="43.56938" lon="3.33829">
        <ele>222.6</ele>
        <time>2017-07-23T08:05:59Z</time>
      </trkpt>
      <trkpt lat="43.56941" lon="3.33839">
        <ele>223.1</ele>
        <time>2017-07-23T08:06:02Z</time>
      </trkpt>
      <trkpt lat="43.56943" lon="3.33852">
        <ele>223.7</ele>
        <time>2017-07-23T08:06:05Z</time>
      </trkpt>
      <trkpt lat="43.56947" lon="3.33862">
        <ele>224.3</ele>
        <time>2017-07-23T08:06:08Z</time>
      </trkpt>
      <trkpt lat="43.56953" lon="3.33871">
        <ele>224.7</ele>
        <time>2017-07-23T08:06:11Z</time>
      </trkpt>
      <trkpt lat="43.56958" lon="3.33878">
        <ele>225</ele>
        <time>2017-07-23T08:06:13Z</time>
      </trkpt>
      <trkpt lat="43.56967" lon="3.33882">
        <ele>225.7</ele>
        <time>2017-07-23T08:06:17Z</time>
      </trkpt>
      <trkpt lat="43.56975" lon="3.33882">
        <ele>226.1</ele>
        <time>2017-07-23T08:06:19Z</time>
      </trkpt>
      <trkpt lat="43.56983" lon="3.33879">
        <ele>226.8</ele>
        <time>2017-07-23T08:06:22Z</time>
      </trkpt>
      <trkpt lat="43.56992" lon="3.33873">
        <ele>227.3</ele>
        <time>2017-07-23T08:06:25Z</time>
      </trkpt>
      <trkpt lat="43.57" lon="3.33867">
        <ele>228</ele>
        <time>2017-07-23T08:06:29Z</time>
      </trkpt>
      <trkpt lat="43.5701" lon="3.33863">
        <ele>228.6</ele>
        <time>2017-07-23T08:06:32Z</time>
      </trkpt>
      <trkpt lat="43.57018" lon="3.33859">
        <ele>229.5</ele>
        <time>2017-07-23T08:06:36Z</time>
      </trkpt>
      <trkpt lat="43.57025" lon="3.33856">
        <ele>230.2</ele>
        <time>2017-07-23T08:06:39Z</time>
      </trkpt>
      <trkpt lat="43.57034" lon="3.33853">
        <ele>230.7</ele>
        <time>2017-07-23T08:06:42Z</time>
      </trkpt>
      <trkpt lat="43.57042" lon="3.3385">
        <ele>231.3</ele>
        <time>2017-07-23T08:06:46Z</time>
      </trkpt>
      <trkpt lat="43.57049" lon="3.33845">
        <ele>231.7</ele>
        <time>2017-07-23T08:06:49Z</time>
      </trkpt>
      <trkpt lat="43.57056" lon="3.3384">
        <ele>232.2</ele>
        <time>2017-07-23T08:06:52Z</time>
      </trkpt>
      <trkpt lat="43.57063" lon="3.33836">
        <ele>232.8</ele>
        <time>2017-07-23T08:06:55Z</time>
      </trkpt>
      <trkpt lat="43.57071" lon="3.33833">
        <ele>233.3</ele>
        <time>2017-07-23T08:06:58Z</time>
      </trkpt>
      <trkpt lat="43.57079" lon="3.3383">
        <ele>233.8</ele>
        <time>2017-07-23T08:07:01Z</time>
      </trkpt>
      <trkpt lat="43.57086" lon="3.3383">
        <ele>234.5</ele>
        <time>2017-07-23T08:07:04Z</time>
      </trkpt>
      <trkpt lat="43.57095" lon="3.33837">
        <ele>235.2</ele>
        <time>2017-07-23T08:07:07Z</time>
      </trkpt>
      <trkpt lat="43.57101" lon="3.33842">
        <ele>236</ele>
        <time>2017-07-23T08:07:10Z</time>
      </trkpt>
      <trkpt lat="43.57109" lon="3.33846">
        <ele>236.9</ele>
        <time>2017-07-23T08:07:13Z</time>
      </trkpt>
      <trkpt lat="43.57116" lon="3.33852">
        <ele>237.7</ele>
        <time>2017-07-23T08:07:16Z</time>
      </trkpt>
      <trkpt lat="43.57123" lon="3.33857">
        <ele>238.5</ele>
        <time>2017-07-23T08:07:19Z</time>
      </trkpt>
      <trkpt lat="43.57131" lon="3.33863">
        <ele>239.3</ele>
        <time>2017-07-23T08:07:22Z</time>
      </trkpt>
      <trkpt lat="43.57138" lon="3.33868">
        <ele>239.7</ele>
        <time>2017-07-23T08:07:24Z</time>
      </trkpt>
      <trkpt lat="43.57145" lon="3.33872">
        <ele>240.5</ele>
        <time>2017-07-23T08:07:27Z</time>
      </trkpt>
      <trkpt lat="43.57151" lon="3.33881">
        <ele>241.3</ele>
        <time>2017-07-23T08:07:30Z</time>
      </trkpt>
      <trkpt lat="43.57155" lon="3.33891">
        <ele>241.8</ele>
        <time>2017-07-23T08:07:33Z</time>
      </trkpt>
      <trkpt lat="43.57161" lon="3.33901">
        <ele>242.5</ele>
        <time>2017-07-23T08:07:36Z</time>
      </trkpt>
      <trkpt lat="43.57169" lon="3.33901">
        <ele>243.2</ele>
        <time>2017-07-23T08:07:39Z</time>
      </trkpt>
      <trkpt lat="43.57179" lon="3.33899">
        <ele>244</ele>
        <time>2017-07-23T08:07:42Z</time>
      </trkpt>
      <trkpt lat="43.57188" lon="3.33899">
        <ele>244.7</ele>
        <time>2017-07-23T08:07:45Z</time>
      </trkpt>
      <trkpt lat="43.57197" lon="3.33901">
        <ele>245.5</ele>
        <time>2017-07-23T08:07:48Z</time>
      </trkpt>
      <trkpt lat="43.57205" lon="3.33904">
        <ele>246.2</ele>
        <time>2017-07-23T08:07:51Z</time>
      </trkpt>
      <trkpt lat="43.57215" lon="3.33906">
        <ele>247</ele>
        <time>2017-07-23T08:07:54Z</time>
      </trkpt>
      <trkpt lat="43.57224" lon="3.33904">
        <ele>247.7</ele>
        <time>2017-07-23T08:07:57Z</time>
      </trkpt>
      <trkpt lat="43.57233" lon="3.33901">
        <ele>248.4</ele>
        <time>2017-07-23T08:08:00Z</time>
      </trkpt>
      <trkpt lat="43.57242" lon="3.33901">
        <ele>249.1</ele>
        <time>2017-07-23T08:08:04Z</time>
      </trkpt>
      <trkpt lat="43.57251" lon="3.33901">
        <ele>250</ele>
        <time>2017-07-23T08:08:08Z</time>
      </trkpt>
      <trkpt lat="43.57258" lon="3.33895">
        <ele>250.9</ele>
        <time>2017-07-23T08:08:12Z</time>
      </trkpt>
      <trkpt lat="43.57262" lon="3.33885">
        <ele>251.8</ele>
        <time>2017-07-23T08:08:17Z</time>
      </trkpt>
      <trkpt lat="43.57266" lon="3.33874">
        <ele>252.7</ele>
        <time>2017-07-23T08:08:22Z</time>
      </trkpt>
      <trkpt lat="43.57266" lon="3.33864">
        <ele>253.4</ele>
        <time>2017-07-23T08:08:26Z</time>
      </trkpt>
      <trkpt lat="43.57265" lon="3.33852">
        <ele>254.5</ele>
        <time>2017-07-23T08:08:31Z</time>
      </trkpt>
      <trkpt lat="43.57261" lon="3.33843">
        <ele>255.3</ele>
        <time>2017-07-23T08:08:35Z</time>
      </trkpt>
      <trkpt lat="43.57258" lon="3.33835">
        <ele>256.1</ele>
        <time>2017-07-23T08:08:39Z</time>
      </trkpt>
      <trkpt lat="43.57253" lon="3.33826">
        <ele>256.8</ele>
        <time>2017-07-23T08:08:43Z</time>
      </trkpt>
      <trkpt lat="43.5725" lon="3.33814">
        <ele>257.6</ele>
        <time>2017-07-23T08:08:48Z</time>
      </trkpt>
      <trkpt lat="43.57245" lon="3.33805">
        <ele>258.2</ele>
        <time>2017-07-23T08:08:52Z</time>
      </trkpt>
      <trkpt lat="43.57241" lon="3.33796">
        <ele>259.1</ele>
        <time>2017-07-23T08:08:57Z</time>
      </trkpt>
      <trkpt lat="43.57237" lon="3.33787">
        <ele>260.1</ele>
        <time>2017-07-23T08:09:01Z</time>
      </trkpt>
      <trkpt lat="43.57232" lon="3.33777">
        <ele>261</ele>
        <time>2017-07-23T08:09:05Z</time>
      </trkpt>
      <trkpt lat="43.57228" lon="3.33766">
        <ele>261.6</ele>
        <time>2017-07-23T08:09:09Z</time>
      </trkpt>
      <trkpt lat="43.57224" lon="3.33756">
        <ele>262.5</ele>
        <time>2017-07-23T08:09:14Z</time>
      </trkpt>
      <trkpt lat="43.5722" lon="3.33746">
        <ele>263.1</ele>
        <time>2017-07-23T08:09:18Z</time>
      </trkpt>
      <trkpt lat="43.57215" lon="3.33737">
        <ele>263.5</ele>
        <time>2017-07-23T08:09:21Z</time>
      </trkpt>
      <trkpt lat="43.5721" lon="3.33728">
        <ele>264.1</ele>
        <time>2017-07-23T08:09:25Z</time>
      </trkpt>
      <trkpt lat="43.57205" lon="3.33719">
        <ele>264.7</ele>
        <time>2017-07-23T08:09:29Z</time>
      </trkpt>
      <trkpt lat="43.57201" lon="3.3371">
        <ele>265.1</ele>
        <time>2017-07-23T08:09:32Z</time>
      </trkpt>
      <trkpt lat="43.57199" lon="3.337">
        <ele>265.4</ele>
        <time>2017-07-23T08:09:35Z</time>
      </trkpt>
      <trkpt lat="43.57196" lon="3.3369">
        <ele>266</ele>
        <time>2017-07-23T08:09:40Z</time>
      </trkpt>
      <trkpt lat="43.57193" lon="3.33679">
        <ele>266.6</ele>
        <time>2017-07-23T08:09:44Z</time>
      </trkpt>
      <trkpt lat="43.57192" lon="3.33669">
        <ele>267</ele>
        <time>2017-07-23T08:09:47Z</time>
      </trkpt>
      <trkpt lat="43.57189" lon="3.33657">
        <ele>267.5</ele>
        <time>2017-07-23T08:09:51Z</time>
      </trkpt>
      <trkpt lat="43.57186" lon="3.33646">
        <ele>268</ele>
        <time>2017-07-23T08:09:54Z</time>
      </trkpt>
      <trkpt lat="43.57183" lon="3.33633">
        <ele>268.5</ele>
        <time>2017-07-23T08:09:58Z</time>
      </trkpt>
      <trkpt lat="43.57181" lon="3.33622">
        <ele>269.2</ele>
        <time>2017-07-23T08:10:02Z</time>
      </trkpt>
      <trkpt lat="43.57179" lon="3.33611">
        <ele>270</ele>
        <time>2017-07-23T08:10:06Z</time>
      </trkpt>
      <trkpt lat="43.57179" lon="3.336">
        <ele>270.7</ele>
        <time>2017-07-23T08:10:09Z</time>
      </trkpt>
      <trkpt lat="43.57181" lon="3.3359">
        <ele>271.3</ele>
        <time>2017-07-23T08:10:12Z</time>
      </trkpt>
      <trkpt lat="43.57183" lon="3.3358">
        <ele>271.8</ele>
        <time>2017-07-23T08:10:15Z</time>
      </trkpt>
      <trkpt lat="43.57186" lon="3.33568">
        <ele>272.3</ele>
        <time>2017-07-23T08:10:18Z</time>
      </trkpt>
      <trkpt lat="43.57191" lon="3.33557">
        <ele>273.1</ele>
        <time>2017-07-23T08:10:22Z</time>
      </trkpt>
      <trkpt lat="43.57195" lon="3.33547">
        <ele>274</ele>
        <time>2017-07-23T08:10:26Z</time>
      </trkpt>
      <trkpt lat="43.572" lon="3.33538">
        <ele>274.6</ele>
        <time>2017-07-23T08:10:29Z</time>
      </trkpt>
      <trkpt lat="43.57205" lon="3.3353">
        <ele>275.3</ele>
        <time>2017-07-23T08:10:32Z</time>
      </trkpt>
      <trkpt lat="43.57209" lon="3.33522">
        <ele>275.9</ele>
        <time>2017-07-23T08:10:35Z</time>
      </trkpt>
      <trkpt lat="43.57215" lon="3.33513">
        <ele>276.6</ele>
        <time>2017-07-23T08:10:39Z</time>
      </trkpt>
      <trkpt lat="43.57218" lon="3.33504">
        <ele>277.8</ele>
        <time>2017-07-23T08:10:44Z</time>
      </trkpt>
      <trkpt lat="43.57222" lon="3.33493">
        <ele>279</ele>
        <time>2017-07-23T08:10:49Z</time>
      </trkpt>
      <trkpt lat="43.57224" lon="3.33495">
        <ele>279.8</ele>
        <time>2017-07-23T08:10:56Z</time>
      </trkpt>
      <trkpt lat="43.57225" lon="3.33505">
        <ele>280.3</ele>
        <time>2017-07-23T08:10:59Z</time>
      </trkpt>
      <trkpt lat="43.57224" lon="3.33515">
        <ele>281.4</ele>
        <time>2017-07-23T08:11:04Z</time>
      </trkpt>
      <trkpt lat="43.57222" lon="3.33525">
        <ele>282.1</ele>
        <time>2017-07-23T08:11:09Z</time>
      </trkpt>
      <trkpt lat="43.57222" lon="3.33537">
        <ele>283.3</ele>
        <time>2017-07-23T08:11:14Z</time>
      </trkpt>
      <trkpt lat="43.57222" lon="3.33547">
        <ele>284.1</ele>
        <time>2017-07-23T08:11:18Z</time>
      </trkpt>
      <trkpt lat="43.57221" lon="3.33559">
        <ele>285.2</ele>
        <time>2017-07-23T08:11:23Z</time>
      </trkpt>
      <trkpt lat="43.5722" lon="3.33571">
        <ele>286</ele>
        <time>2017-07-23T08:11:27Z</time>
      </trkpt>
      <trkpt lat="43.57218" lon="3.33582">
        <ele>287.1</ele>
        <time>2017-07-23T08:11:32Z</time>
      </trkpt>
      <trkpt lat="43.57218" lon="3.33593">
        <ele>287.6</ele>
        <time>2017-07-23T08:11:36Z</time>
      </trkpt>
      <trkpt lat="43.5722" lon="3.33605">
        <ele>288.2</ele>
        <time>2017-07-23T08:11:40Z</time>
      </trkpt>
      <trkpt lat="43.57222" lon="3.33614">
        <ele>289.1</ele>
        <time>2017-07-23T08:11:44Z</time>
      </trkpt>
      <trkpt lat="43.57228" lon="3.33623">
        <ele>290.2</ele>
        <time>2017-07-23T08:11:49Z</time>
      </trkpt>
      <trkpt lat="43.57231" lon="3.33632">
        <ele>291</ele>
        <time>2017-07-23T08:11:53Z</time>
      </trkpt>
      <trkpt lat="43.57238" lon="3.33639">
        <ele>292</ele>
        <time>2017-07-23T08:11:58Z</time>
      </trkpt>
      <trkpt lat="43.57244" lon="3.33647">
        <ele>292.7</ele>
        <time>2017-07-23T08:12:02Z</time>
      </trkpt>
      <trkpt lat="43.57251" lon="3.33652">
        <ele>293.9</ele>
        <time>2017-07-23T08:12:08Z</time>
      </trkpt>
      <trkpt lat="43.5726" lon="3.33655">
        <ele>294.9</ele>
        <time>2017-07-23T08:12:13Z</time>
      </trkpt>
      <trkpt lat="43.57269" lon="3.33657">
        <ele>295.6</ele>
        <time>2017-07-23T08:12:16Z</time>
      </trkpt>
      <trkpt lat="43.57278" lon="3.33657">
        <ele>296.5</ele>
        <time>2017-07-23T08:12:21Z</time>
      </trkpt>
      <trkpt lat="43.57286" lon="3.33654">
        <ele>297.1</ele>
        <time>2017-07-23T08:12:25Z</time>
      </trkpt>
      <trkpt lat="43.57294" lon="3.3365">
        <ele>297.5</ele>
        <time>2017-07-23T08:12:28Z</time>
      </trkpt>
      <trkpt lat="43.57302" lon="3.33647">
        <ele>297.8</ele>
        <time>2017-07-23T08:12:31Z</time>
      </trkpt>
      <trkpt lat="43.5731" lon="3.33645">
        <ele>298.1</ele>
        <time>2017-07-23T08:12:34Z</time>
      </trkpt>
      <trkpt lat="43.57317" lon="3.33642">
        <ele>298.5</ele>
        <time>2017-07-23T08:12:37Z</time>
      </trkpt>
      <trkpt lat="43.57326" lon="3.3364">
        <ele>299.1</ele>
        <time>2017-07-23T08:12:41Z</time>
      </trkpt>
      <trkpt lat="43.57334" lon="3.33639">
        <ele>299.4</ele>
        <time>2017-07-23T08:12:44Z</time>
      </trkpt>
      <trkpt lat="43.57342" lon="3.33638">
        <ele>299.7</ele>
        <time>2017-07-23T08:12:47Z</time>
      </trkpt>
      <trkpt lat="43.57352" lon="3.33637">
        <ele>299.9</ele>
        <time>2017-07-23T08:12:51Z</time>
      </trkpt>
      <trkpt lat="43.57359" lon="3.33636">
        <ele>300</ele>
        <time>2017-07-23T08:12:54Z</time>
      </trkpt>
      <trkpt lat="43.57369" lon="3.33634">
        <ele>300.4</ele>
        <time>2017-07-23T08:12:58Z</time>
      </trkpt>
      <trkpt lat="43.57377" lon="3.3363">
        <ele>300.9</ele>
        <time>2017-07-23T08:13:01Z</time>
      </trkpt>
      <trkpt lat="43.57386" lon="3.33626">
        <ele>301.3</ele>
        <time>2017-07-23T08:13:04Z</time>
      </trkpt>
      <trkpt lat="43.57394" lon="3.33618">
        <ele>301.9</ele>
        <time>2017-07-23T08:13:07Z</time>
      </trkpt>
      <trkpt lat="43.574" lon="3.3361">
        <ele>303.7</ele>
        <time>2017-07-23T08:13:09Z</time>
      </trkpt>
      <trkpt lat="43.57406" lon="3.33599">
        <ele>305.4</ele>
        <time>2017-07-23T08:13:11Z</time>
      </trkpt>
      <trkpt lat="43.57412" lon="3.33587">
        <ele>305.6</ele>
        <time>2017-07-23T08:13:13Z</time>
      </trkpt>
      <trkpt lat="43.57419" lon="3.33576">
        <ele>305.5</ele>
        <time>2017-07-23T08:13:15Z</time>
      </trkpt>
      <trkpt lat="43.57427" lon="3.33564">
        <ele>305.6</ele>
        <time>2017-07-23T08:13:17Z</time>
      </trkpt>
      <trkpt lat="43.57435" lon="3.33555">
        <ele>306.4</ele>
        <time>2017-07-23T08:13:19Z</time>
      </trkpt>
      <trkpt lat="43.57444" lon="3.33547">
        <ele>306.4</ele>
        <time>2017-07-23T08:13:21Z</time>
      </trkpt>
      <trkpt lat="43.57452" lon="3.33541">
        <ele>306.2</ele>
        <time>2017-07-23T08:13:23Z</time>
      </trkpt>
      <trkpt lat="43.57461" lon="3.33534">
        <ele>306</ele>
        <time>2017-07-23T08:13:25Z</time>
      </trkpt>
      <trkpt lat="43.57469" lon="3.33528">
        <ele>305.7</ele>
        <time>2017-07-23T08:13:27Z</time>
      </trkpt>
      <trkpt lat="43.57478" lon="3.33522">
        <ele>304.9</ele>
        <time>2017-07-23T08:13:29Z</time>
      </trkpt>
      <trkpt lat="43.57487" lon="3.33518">
        <ele>304.3</ele>
        <time>2017-07-23T08:13:31Z</time>
      </trkpt>
      <trkpt lat="43.57497" lon="3.33515">
        <ele>304.4</ele>
        <time>2017-07-23T08:13:33Z</time>
      </trkpt>
      <trkpt lat="43.57507" lon="3.33511">
        <ele>304.5</ele>
        <time>2017-07-23T08:13:35Z</time>
      </trkpt>
      <trkpt lat="43.57517" lon="3.33506">
        <ele>304.2</ele>
        <time>2017-07-23T08:13:37Z</time>
      </trkpt>
      <trkpt lat="43.5753" lon="3.33503">
        <ele>303.8</ele>
        <time>2017-07-23T08:13:39Z</time>
      </trkpt>
      <trkpt lat="43.57537" lon="3.33498">
        <ele>303.5</ele>
        <time>2017-07-23T08:13:40Z</time>
      </trkpt>
      <trkpt lat="43.57549" lon="3.33491">
        <ele>302.7</ele>
        <time>2017-07-23T08:13:42Z</time>
      </trkpt>
      <trkpt lat="43.57558" lon="3.33484">
        <ele>301.9</ele>
        <time>2017-07-23T08:13:44Z</time>
      </trkpt>
      <trkpt lat="43.57569" lon="3.33474">
        <ele>301.6</ele>
        <time>2017-07-23T08:13:46Z</time>
      </trkpt>
      <trkpt lat="43.57578" lon="3.33465">
        <ele>301</ele>
        <time>2017-07-23T08:13:48Z</time>
      </trkpt>
      <trkpt lat="43.57587" lon="3.33455">
        <ele>300.2</ele>
        <time>2017-07-23T08:13:50Z</time>
      </trkpt>
      <trkpt lat="43.57594" lon="3.33448">
        <ele>300.9</ele>
        <time>2017-07-23T08:13:52Z</time>
      </trkpt>
      <trkpt lat="43.57602" lon="3.33443">
        <ele>302.5</ele>
        <time>2017-07-23T08:13:54Z</time>
      </trkpt>
      <trkpt lat="43.57613" lon="3.33443">
        <ele>302.8</ele>
        <time>2017-07-23T08:13:57Z</time>
      </trkpt>
      <trkpt lat="43.57623" lon="3.33448">
        <ele>303.2</ele>
        <time>2017-07-23T08:14:00Z</time>
      </trkpt>
      <trkpt lat="43.5763" lon="3.33456">
        <ele>303.5</ele>
        <time>2017-07-23T08:14:03Z</time>
      </trkpt>
      <trkpt lat="43.57637" lon="3.33464">
        <ele>303.7</ele>
        <time>2017-07-23T08:14:06Z</time>
      </trkpt>
      <trkpt lat="43.57639" lon="3.33472">
        <ele>304.6</ele>
        <time>2017-07-23T08:14:08Z</time>
      </trkpt>
      <trkpt lat="43.57643" lon="3.33483">
        <ele>304.6</ele>
        <time>2017-07-23T08:14:11Z</time>
      </trkpt>
      <trkpt lat="43.57647" lon="3.33491">
        <ele>304.7</ele>
        <time>2017-07-23T08:14:14Z</time>
      </trkpt>
      <trkpt lat="43.57651" lon="3.33501">
        <ele>304.7</ele>
        <time>2017-07-23T08:14:17Z</time>
      </trkpt>
      <trkpt lat="43.57656" lon="3.33512">
        <ele>304.9</ele>
        <time>2017-07-23T08:14:20Z</time>
      </trkpt>
      <trkpt lat="43.57662" lon="3.33523">
        <ele>305.4</ele>
        <time>2017-07-23T08:14:23Z</time>
      </trkpt>
      <trkpt lat="43.57668" lon="3.33528">
        <ele>305.7</ele>
        <time>2017-07-23T08:14:26Z</time>
      </trkpt>
      <trkpt lat="43.57676" lon="3.33528">
        <ele>305.9</ele>
        <time>2017-07-23T08:14:29Z</time>
      </trkpt>
      <trkpt lat="43.57685" lon="3.33523">
        <ele>305.9</ele>
        <time>2017-07-23T08:14:32Z</time>
      </trkpt>
      <trkpt lat="43.57692" lon="3.33518">
        <ele>306</ele>
        <time>2017-07-23T08:14:34Z</time>
      </trkpt>
      <trkpt lat="43.57699" lon="3.33511">
        <ele>306.2</ele>
        <time>2017-07-23T08:14:36Z</time>
      </trkpt>
      <trkpt lat="43.57705" lon="3.33504">
        <ele>307.4</ele>
        <time>2017-07-23T08:14:38Z</time>
      </trkpt>
      <trkpt lat="43.5771" lon="3.33496">
        <ele>308.2</ele>
        <time>2017-07-23T08:14:40Z</time>
      </trkpt>
      <trkpt lat="43.57715" lon="3.33488">
        <ele>308.3</ele>
        <time>2017-07-23T08:14:42Z</time>
      </trkpt>
      <trkpt lat="43.57721" lon="3.3348">
        <ele>307.7</ele>
        <time>2017-07-23T08:14:44Z</time>
      </trkpt>
      <trkpt lat="43.57728" lon="3.33472">
        <ele>307.4</ele>
        <time>2017-07-23T08:14:46Z</time>
      </trkpt>
      <trkpt lat="43.57734" lon="3.33465">
        <ele>307.6</ele>
        <time>2017-07-23T08:14:48Z</time>
      </trkpt>
      <trkpt lat="43.57742" lon="3.33458">
        <ele>308.2</ele>
        <time>2017-07-23T08:14:50Z</time>
      </trkpt>
      <trkpt lat="43.57752" lon="3.33448">
        <ele>307.7</ele>
        <time>2017-07-23T08:14:52Z</time>
      </trkpt>
      <trkpt lat="43.57762" lon="3.33441">
        <ele>307.4</ele>
        <time>2017-07-23T08:14:54Z</time>
      </trkpt>
      <trkpt lat="43.57772" lon="3.33434">
        <ele>307.5</ele>
        <time>2017-07-23T08:14:56Z</time>
      </trkpt>
      <trkpt lat="43.57783" lon="3.33428">
        <ele>307.7</ele>
        <time>2017-07-23T08:14:58Z</time>
      </trkpt>
      <trkpt lat="43.57792" lon="3.33424">
        <ele>308.6</ele>
        <time>2017-07-23T08:15:00Z</time>
      </trkpt>
      <trkpt lat="43.57801" lon="3.3342">
        <ele>309.5</ele>
        <time>2017-07-23T08:15:02Z</time>
      </trkpt>
      <trkpt lat="43.57812" lon="3.33415">
        <ele>310.6</ele>
        <time>2017-07-23T08:15:04Z</time>
      </trkpt>
      <trkpt lat="43.57822" lon="3.33409">
        <ele>311.1</ele>
        <time>2017-07-23T08:15:06Z</time>
      </trkpt>
      <trkpt lat="43.57832" lon="3.33401">
        <ele>309.9</ele>
        <time>2017-07-23T08:15:08Z</time>
      </trkpt>
      <trkpt lat="43.57841" lon="3.33393">
        <ele>309.2</ele>
        <time>2017-07-23T08:15:10Z</time>
      </trkpt>
      <trkpt lat="43.5785" lon="3.33383">
        <ele>309.1</ele>
        <time>2017-07-23T08:15:12Z</time>
      </trkpt>
      <trkpt lat="43.57856" lon="3.33377">
        <ele>308.7</ele>
        <time>2017-07-23T08:15:13Z</time>
      </trkpt>
      <trkpt lat="43.57863" lon="3.33365">
        <ele>308.4</ele>
        <time>2017-07-23T08:15:15Z</time>
      </trkpt>
      <trkpt lat="43.57869" lon="3.33352">
        <ele>308.1</ele>
        <time>2017-07-23T08:15:17Z</time>
      </trkpt>
      <trkpt lat="43.57873" lon="3.33336">
        <ele>307.8</ele>
        <time>2017-07-23T08:15:19Z</time>
      </trkpt>
      <trkpt lat="43.57876" lon="3.33326">
        <ele>307.8</ele>
        <time>2017-07-23T08:15:21Z</time>
      </trkpt>
      <trkpt lat="43.57879" lon="3.33316">
        <ele>307.8</ele>
        <time>2017-07-23T08:15:24Z</time>
      </trkpt>
      <trkpt lat="43.57882" lon="3.33303">
        <ele>307.6</ele>
        <time>2017-07-23T08:15:27Z</time>
      </trkpt>
      <trkpt lat="43.57887" lon="3.33291">
        <ele>307.6</ele>
        <time>2017-07-23T08:15:30Z</time>
      </trkpt>
      <trkpt lat="43.57891" lon="3.33283">
        <ele>307.6</ele>
        <time>2017-07-23T08:15:33Z</time>
      </trkpt>
      <trkpt lat="43.57896" lon="3.33273">
        <ele>307.6</ele>
        <time>2017-07-23T08:15:36Z</time>
      </trkpt>
      <trkpt lat="43.57901" lon="3.33264">
        <ele>307.7</ele>
        <time>2017-07-23T08:15:39Z</time>
      </trkpt>
      <trkpt lat="43.57907" lon="3.33255">
        <ele>308</ele>
        <time>2017-07-23T08:15:43Z</time>
      </trkpt>
      <trkpt lat="43.57914" lon="3.33248">
        <ele>308.2</ele>
        <time>2017-07-23T08:15:46Z</time>
      </trkpt>
      <trkpt lat="43.5792" lon="3.33247">
        <ele>308.5</ele>
        <time>2017-07-23T08:15:49Z</time>
      </trkpt>
      <trkpt lat="43.57926" lon="3.33257">
        <ele>308.8</ele>
        <time>2017-07-23T08:15:54Z</time>
      </trkpt>
      <trkpt lat="43.57927" lon="3.3327">
        <ele>309.1</ele>
        <time>2017-07-23T08:15:58Z</time>
      </trkpt>
      <trkpt lat="43.57927" lon="3.33282">
        <ele>309.5</ele>
        <time>2017-07-23T08:16:01Z</time>
      </trkpt>
      <trkpt lat="43.57926" lon="3.33293">
        <ele>309.7</ele>
        <time>2017-07-23T08:16:04Z</time>
      </trkpt>
      <trkpt lat="43.57925" lon="3.33303">
        <ele>309.9</ele>
        <time>2017-07-23T08:16:07Z</time>
      </trkpt>
      <trkpt lat="43.57924" lon="3.33314">
        <ele>310.2</ele>
        <time>2017-07-23T08:16:10Z</time>
      </trkpt>
      <trkpt lat="43.57924" lon="3.33325">
        <ele>310.5</ele>
        <time>2017-07-23T08:16:13Z</time>
      </trkpt>
      <trkpt lat="43.57925" lon="3.33336">
        <ele>310.8</ele>
        <time>2017-07-23T08:16:16Z</time>
      </trkpt>
      <trkpt lat="43.57926" lon="3.33348">
        <ele>311</ele>
        <time>2017-07-23T08:16:19Z</time>
      </trkpt>
      <trkpt lat="43.57927" lon="3.3336">
        <ele>311.2</ele>
        <time>2017-07-23T08:16:22Z</time>
      </trkpt>
      <trkpt lat="43.57932" lon="3.33368">
        <ele>311.3</ele>
        <time>2017-07-23T08:16:24Z</time>
      </trkpt>
      <trkpt lat="43.57936" lon="3.33378">
        <ele>311.5</ele>
        <time>2017-07-23T08:16:27Z</time>
      </trkpt>
      <trkpt lat="43.57941" lon="3.3339">
        <ele>311.6</ele>
        <time>2017-07-23T08:16:30Z</time>
      </trkpt>
      <trkpt lat="43.57938" lon="3.33403">
        <ele>311.7</ele>
        <time>2017-07-23T08:16:33Z</time>
      </trkpt>
      <trkpt lat="43.57932" lon="3.33412">
        <ele>311.8</ele>
        <time>2017-07-23T08:16:36Z</time>
      </trkpt>
      <trkpt lat="43.57924" lon="3.3342">
        <ele>311.9</ele>
        <time>2017-07-23T08:16:39Z</time>
      </trkpt>
      <trkpt lat="43.57917" lon="3.33426">
        <ele>312.2</ele>
        <time>2017-07-23T08:16:42Z</time>
      </trkpt>
      <trkpt lat="43.57911" lon="3.33434">
        <ele>312.4</ele>
        <time>2017-07-23T08:16:45Z</time>
      </trkpt>
      <trkpt lat="43.57903" lon="3.33443">
        <ele>312.6</ele>
        <time>2017-07-23T08:16:48Z</time>
      </trkpt>
      <trkpt lat="43.57897" lon="3.3345">
        <ele>313.3</ele>
        <time>2017-07-23T08:16:50Z</time>
      </trkpt>
      <trkpt lat="43.57891" lon="3.33459">
        <ele>314.2</ele>
        <time>2017-07-23T08:16:52Z</time>
      </trkpt>
      <trkpt lat="43.57886" lon="3.33469">
        <ele>314.4</ele>
        <time>2017-07-23T08:16:54Z</time>
      </trkpt>
      <trkpt lat="43.57881" lon="3.3348">
        <ele>314.3</ele>
        <time>2017-07-23T08:16:56Z</time>
      </trkpt>
      <trkpt lat="43.57876" lon="3.33492">
        <ele>314.2</ele>
        <time>2017-07-23T08:16:58Z</time>
      </trkpt>
      <trkpt lat="43.57872" lon="3.33505">
        <ele>314.2</ele>
        <time>2017-07-23T08:17:00Z</time>
      </trkpt>
      <trkpt lat="43.5787" lon="3.33519">
        <ele>313.9</ele>
        <time>2017-07-23T08:17:02Z</time>
      </trkpt>
      <trkpt lat="43.57869" lon="3.33533">
        <ele>313.8</ele>
        <time>2017-07-23T08:17:04Z</time>
      </trkpt>
      <trkpt lat="43.57867" lon="3.33547">
        <ele>314.2</ele>
        <time>2017-07-23T08:17:06Z</time>
      </trkpt>
      <trkpt lat="43.57862" lon="3.33559">
        <ele>315.6</ele>
        <time>2017-07-23T08:17:08Z</time>
      </trkpt>
      <trkpt lat="43.57855" lon="3.33569">
        <ele>316.3</ele>
        <time>2017-07-23T08:17:10Z</time>
      </trkpt>
      <trkpt lat="43.57848" lon="3.33578">
        <ele>316.4</ele>
        <time>2017-07-23T08:17:12Z</time>
      </trkpt>
      <trkpt lat="43.57841" lon="3.33588">
        <ele>316</ele>
        <time>2017-07-23T08:17:14Z</time>
      </trkpt>
      <trkpt lat="43.57836" lon="3.336">
        <ele>315.6</ele>
        <time>2017-07-23T08:17:16Z</time>
      </trkpt>
      <trkpt lat="43.57831" lon="3.33612">
        <ele>315</ele>
        <time>2017-07-23T08:17:18Z</time>
      </trkpt>
      <trkpt lat="43.57828" lon="3.33623">
        <ele>315.2</ele>
        <time>2017-07-23T08:17:20Z</time>
      </trkpt>
      <trkpt lat="43.57824" lon="3.33636">
        <ele>316.3</ele>
        <time>2017-07-23T08:17:22Z</time>
      </trkpt>
      <trkpt lat="43.57821" lon="3.33649">
        <ele>316.8</ele>
        <time>2017-07-23T08:17:24Z</time>
      </trkpt>
      <trkpt lat="43.57817" lon="3.33662">
        <ele>317.2</ele>
        <time>2017-07-23T08:17:26Z</time>
      </trkpt>
      <trkpt lat="43.57813" lon="3.33677">
        <ele>317.3</ele>
        <time>2017-07-23T08:17:28Z</time>
      </trkpt>
      <trkpt lat="43.57809" lon="3.3369">
        <ele>317.1</ele>
        <time>2017-07-23T08:17:30Z</time>
      </trkpt>
      <trkpt lat="43.57805" lon="3.33703">
        <ele>316.8</ele>
        <time>2017-07-23T08:17:32Z</time>
      </trkpt>
      <trkpt lat="43.578" lon="3.33715">
        <ele>316.9</ele>
        <time>2017-07-23T08:17:34Z</time>
      </trkpt>
      <trkpt lat="43.57796" lon="3.33726">
        <ele>317.8</ele>
        <time>2017-07-23T08:17:36Z</time>
      </trkpt>
      <trkpt lat="43.57791" lon="3.33735">
        <ele>319.5</ele>
        <time>2017-07-23T08:17:38Z</time>
      </trkpt>
      <trkpt lat="43.57786" lon="3.33749">
        <ele>320</ele>
        <time>2017-07-23T08:17:40Z</time>
      </trkpt>
      <trkpt lat="43.5778" lon="3.33762">
        <ele>319.3</ele>
        <time>2017-07-23T08:17:42Z</time>
      </trkpt>
      <trkpt lat="43.57776" lon="3.33774">
        <ele>319.4</ele>
        <time>2017-07-23T08:17:44Z</time>
      </trkpt>
      <trkpt lat="43.57772" lon="3.33788">
        <ele>318.9</ele>
        <time>2017-07-23T08:17:46Z</time>
      </trkpt>
      <trkpt lat="43.5777" lon="3.33801">
        <ele>318</ele>
        <time>2017-07-23T08:17:48Z</time>
      </trkpt>
      <trkpt lat="43.57767" lon="3.33815">
        <ele>317.8</ele>
        <time>2017-07-23T08:17:50Z</time>
      </trkpt>
      <trkpt lat="43.57765" lon="3.3383">
        <ele>317.7</ele>
        <time>2017-07-23T08:17:52Z</time>
      </trkpt>
      <trkpt lat="43.57764" lon="3.33845">
        <ele>317.6</ele>
        <time>2017-07-23T08:17:54Z</time>
      </trkpt>
      <trkpt lat="43.57762" lon="3.33858">
        <ele>317.9</ele>
        <time>2017-07-23T08:17:56Z</time>
      </trkpt>
      <trkpt lat="43.57759" lon="3.33872">
        <ele>318.3</ele>
        <time>2017-07-23T08:17:58Z</time>
      </trkpt>
      <trkpt lat="43.57757" lon="3.33886">
        <ele>318.9</ele>
        <time>2017-07-23T08:18:00Z</time>
      </trkpt>
      <trkpt lat="43.57757" lon="3.33901">
        <ele>319.9</ele>
        <time>2017-07-23T08:18:02Z</time>
      </trkpt>
      <trkpt lat="43.57761" lon="3.33914">
        <ele>320.1</ele>
        <time>2017-07-23T08:18:04Z</time>
      </trkpt>
      <trkpt lat="43.57768" lon="3.33924">
        <ele>320.4</ele>
        <time>2017-07-23T08:18:06Z</time>
      </trkpt>
      <trkpt lat="43.57777" lon="3.33928">
        <ele>320.5</ele>
        <time>2017-07-23T08:18:08Z</time>
      </trkpt>
      <trkpt lat="43.57788" lon="3.33933">
        <ele>321.2</ele>
        <time>2017-07-23T08:18:10Z</time>
      </trkpt>
      <trkpt lat="43.57798" lon="3.33931">
        <ele>321.8</ele>
        <time>2017-07-23T08:18:12Z</time>
      </trkpt>
      <trkpt lat="43.57808" lon="3.33928">
        <ele>322.1</ele>
        <time>2017-07-23T08:18:14Z</time>
      </trkpt>
      <trkpt lat="43.57818" lon="3.33924">
        <ele>322.5</ele>
        <time>2017-07-23T08:18:16Z</time>
      </trkpt>
      <trkpt lat="43.57829" lon="3.33918">
        <ele>322.8</ele>
        <time>2017-07-23T08:18:18Z</time>
      </trkpt>
      <trkpt lat="43.5784" lon="3.33912">
        <ele>323.2</ele>
        <time>2017-07-23T08:18:20Z</time>
      </trkpt>
      <trkpt lat="43.5785" lon="3.33906">
        <ele>324.1</ele>
        <time>2017-07-23T08:18:22Z</time>
      </trkpt>
      <trkpt lat="43.5786" lon="3.339">
        <ele>323.8</ele>
        <time>2017-07-23T08:18:24Z</time>
      </trkpt>
      <trkpt lat="43.57872" lon="3.33896">
        <ele>323.7</ele>
        <time>2017-07-23T08:18:26Z</time>
      </trkpt>
      <trkpt lat="43.57882" lon="3.33898">
        <ele>323</ele>
        <time>2017-07-23T08:18:28Z</time>
      </trkpt>
      <trkpt lat="43.57894" lon="3.33899">
        <ele>323.5</ele>
        <time>2017-07-23T08:18:30Z</time>
      </trkpt>
      <trkpt lat="43.57904" lon="3.339">
        <ele>324.7</ele>
        <time>2017-07-23T08:18:32Z</time>
      </trkpt>
      <trkpt lat="43.57914" lon="3.33901">
        <ele>325</ele>
        <time>2017-07-23T08:18:34Z</time>
      </trkpt>
      <trkpt lat="43.57925" lon="3.33904">
        <ele>324.6</ele>
        <time>2017-07-23T08:18:36Z</time>
      </trkpt>
      <trkpt lat="43.57934" lon="3.33907">
        <ele>324.4</ele>
        <time>2017-07-23T08:18:38Z</time>
      </trkpt>
      <trkpt lat="43.57945" lon="3.33911">
        <ele>324.3</ele>
        <time>2017-07-23T08:18:40Z</time>
      </trkpt>
      <trkpt lat="43.57953" lon="3.33915">
        <ele>324.9</ele>
        <time>2017-07-23T08:18:42Z</time>
      </trkpt>
      <trkpt lat="43.57963" lon="3.33919">
        <ele>325.4</ele>
        <time>2017-07-23T08:18:44Z</time>
      </trkpt>
      <trkpt lat="43.57971" lon="3.33924">
        <ele>326.2</ele>
        <time>2017-07-23T08:18:46Z</time>
      </trkpt>
      <trkpt lat="43.57978" lon="3.33936">
        <ele>327.1</ele>
        <time>2017-07-23T08:18:48Z</time>
      </trkpt>
      <trkpt lat="43.57979" lon="3.3395">
        <ele>326.1</ele>
        <time>2017-07-23T08:18:50Z</time>
      </trkpt>
      <trkpt lat="43.57974" lon="3.3396">
        <ele>326</ele>
        <time>2017-07-23T08:18:52Z</time>
      </trkpt>
      <trkpt lat="43.57968" lon="3.33968">
        <ele>326.1</ele>
        <time>2017-07-23T08:18:54Z</time>
      </trkpt>
      <trkpt lat="43.57962" lon="3.33976">
        <ele>326.5</ele>
        <time>2017-07-23T08:18:56Z</time>
      </trkpt>
      <trkpt lat="43.57956" lon="3.33984">
        <ele>327.4</ele>
        <time>2017-07-23T08:18:58Z</time>
      </trkpt>
      <trkpt lat="43.5795" lon="3.33993">
        <ele>328.5</ele>
        <time>2017-07-23T08:19:00Z</time>
      </trkpt>
      <trkpt lat="43.57945" lon="3.34007">
        <ele>329.2</ele>
        <time>2017-07-23T08:19:02Z</time>
      </trkpt>
      <trkpt lat="43.57941" lon="3.3402">
        <ele>329.3</ele>
        <time>2017-07-23T08:19:04Z</time>
      </trkpt>
      <trkpt lat="43.57939" lon="3.34033">
        <ele>329.8</ele>
        <time>2017-07-23T08:19:06Z</time>
      </trkpt>
      <trkpt lat="43.57939" lon="3.34049">
        <ele>329.7</ele>
        <time>2017-07-23T08:19:08Z</time>
      </trkpt>
      <trkpt lat="43.5794" lon="3.34064">
        <ele>329.5</ele>
        <time>2017-07-23T08:19:10Z</time>
      </trkpt>
      <trkpt lat="43.57942" lon="3.34081">
        <ele>328</ele>
        <time>2017-07-23T08:19:12Z</time>
      </trkpt>
      <trkpt lat="43.57944" lon="3.34097">
        <ele>326.6</ele>
        <time>2017-07-23T08:19:14Z</time>
      </trkpt>
      <trkpt lat="43.57948" lon="3.34112">
        <ele>326.2</ele>
        <time>2017-07-23T08:19:16Z</time>
      </trkpt>
      <trkpt lat="43.57953" lon="3.34128">
        <ele>325.9</ele>
        <time>2017-07-23T08:19:18Z</time>
      </trkpt>
      <trkpt lat="43.57959" lon="3.34141">
        <ele>325.6</ele>
        <time>2017-07-23T08:19:20Z</time>
      </trkpt>
      <trkpt lat="43.57965" lon="3.34156">
        <ele>325.8</ele>
        <time>2017-07-23T08:19:22Z</time>
      </trkpt>
      <trkpt lat="43.5797" lon="3.34171">
        <ele>325.9</ele>
        <time>2017-07-23T08:19:24Z</time>
      </trkpt>
      <trkpt lat="43.57974" lon="3.34185">
        <ele>326</ele>
        <time>2017-07-23T08:19:26Z</time>
      </trkpt>
      <trkpt lat="43.57977" lon="3.342">
        <ele>326.4</ele>
        <time>2017-07-23T08:19:28Z</time>
      </trkpt>
      <trkpt lat="43.5798" lon="3.34211">
        <ele>326.5</ele>
        <time>2017-07-23T08:19:30Z</time>
      </trkpt>
      <trkpt lat="43.57982" lon="3.34224">
        <ele>327.3</ele>
        <time>2017-07-23T08:19:32Z</time>
      </trkpt>
      <trkpt lat="43.57983" lon="3.34237">
        <ele>328.4</ele>
        <time>2017-07-23T08:19:34Z</time>
      </trkpt>
      <trkpt lat="43.57985" lon="3.34249">
        <ele>328.5</ele>
        <time>2017-07-23T08:19:36Z</time>
      </trkpt>
      <trkpt lat="43.57987" lon="3.3426">
        <ele>329.1</ele>
        <time>2017-07-23T08:19:38Z</time>
      </trkpt>
      <trkpt lat="43.57989" lon="3.34273">
        <ele>330</ele>
        <time>2017-07-23T08:19:40Z</time>
      </trkpt>
      <trkpt lat="43.57998" lon="3.34279">
        <ele>329.3</ele>
        <time>2017-07-23T08:19:43Z</time>
      </trkpt>
      <trkpt lat="43.58005" lon="3.34274">
        <ele>329.2</ele>
        <time>2017-07-23T08:19:46Z</time>
      </trkpt>
      <trkpt lat="43.5801" lon="3.34267">
        <ele>329.4</ele>
        <time>2017-07-23T08:19:48Z</time>
      </trkpt>
      <trkpt lat="43.58017" lon="3.34261">
        <ele>329.5</ele>
        <time>2017-07-23T08:19:52Z</time>
      </trkpt>
      <trkpt lat="43.58024" lon="3.34256">
        <ele>329.5</ele>
        <time>2017-07-23T08:19:56Z</time>
      </trkpt>
      <trkpt lat="43.58032" lon="3.3425">
        <ele>329.9</ele>
        <time>2017-07-23T08:20:00Z</time>
      </trkpt>
      <trkpt lat="43.58041" lon="3.34247">
        <ele>330.4</ele>
        <time>2017-07-23T08:20:04Z</time>
      </trkpt>
      <trkpt lat="43.5805" lon="3.34244">
        <ele>331</ele>
        <time>2017-07-23T08:20:08Z</time>
      </trkpt>
      <trkpt lat="43.58057" lon="3.34242">
        <ele>331.6</ele>
        <time>2017-07-23T08:20:11Z</time>
      </trkpt>
      <trkpt lat="43.58066" lon="3.34237">
        <ele>332.2</ele>
        <time>2017-07-23T08:20:15Z</time>
      </trkpt>
      <trkpt lat="43.58075" lon="3.34233">
        <ele>333</ele>
        <time>2017-07-23T08:20:19Z</time>
      </trkpt>
      <trkpt lat="43.58084" lon="3.34233">
        <ele>333.6</ele>
        <time>2017-07-23T08:20:22Z</time>
      </trkpt>
      <trkpt lat="43.58091" lon="3.34233">
        <ele>334.2</ele>
        <time>2017-07-23T08:20:25Z</time>
      </trkpt>
      <trkpt lat="43.58101" lon="3.34236">
        <ele>335</ele>
        <time>2017-07-23T08:20:29Z</time>
      </trkpt>
      <trkpt lat="43.58108" lon="3.34242">
        <ele>335.5</ele>
        <time>2017-07-23T08:20:32Z</time>
      </trkpt>
      <trkpt lat="43.58112" lon="3.3425">
        <ele>336.3</ele>
        <time>2017-07-23T08:20:36Z</time>
      </trkpt>
      <trkpt lat="43.58115" lon="3.34263">
        <ele>337.1</ele>
        <time>2017-07-23T08:20:40Z</time>
      </trkpt>
      <trkpt lat="43.58116" lon="3.34272">
        <ele>337.5</ele>
        <time>2017-07-23T08:20:43Z</time>
      </trkpt>
      <trkpt lat="43.58118" lon="3.34284">
        <ele>338.1</ele>
        <time>2017-07-23T08:20:46Z</time>
      </trkpt>
      <trkpt lat="43.5812" lon="3.34295">
        <ele>338.7</ele>
        <time>2017-07-23T08:20:49Z</time>
      </trkpt>
      <trkpt lat="43.58122" lon="3.34306">
        <ele>339.2</ele>
        <time>2017-07-23T08:20:52Z</time>
      </trkpt>
      <trkpt lat="43.58124" lon="3.34317">
        <ele>339.7</ele>
        <time>2017-07-23T08:20:55Z</time>
      </trkpt>
      <trkpt lat="43.58126" lon="3.34327">
        <ele>340.3</ele>
        <time>2017-07-23T08:20:58Z</time>
      </trkpt>
      <trkpt lat="43.5813" lon="3.34336">
        <ele>340.9</ele>
        <time>2017-07-23T08:21:01Z</time>
      </trkpt>
      <trkpt lat="43.58133" lon="3.34347">
        <ele>341.4</ele>
        <time>2017-07-23T08:21:04Z</time>
      </trkpt>
      <trkpt lat="43.58136" lon="3.34356">
        <ele>341.9</ele>
        <time>2017-07-23T08:21:07Z</time>
      </trkpt>
      <trkpt lat="43.58141" lon="3.34366">
        <ele>342.3</ele>
        <time>2017-07-23T08:21:10Z</time>
      </trkpt>
      <trkpt lat="43.58146" lon="3.34376">
        <ele>342.7</ele>
        <time>2017-07-23T08:21:13Z</time>
      </trkpt>
      <trkpt lat="43.58151" lon="3.34386">
        <ele>343.3</ele>
        <time>2017-07-23T08:21:17Z</time>
      </trkpt>
      <trkpt lat="43.58157" lon="3.34394">
        <ele>343.7</ele>
        <time>2017-07-23T08:21:20Z</time>
      </trkpt>
      <trkpt lat="43.58162" lon="3.34401">
        <ele>344.1</ele>
        <time>2017-07-23T08:21:23Z</time>
      </trkpt>
      <trkpt lat="43.58168" lon="3.34411">
        <ele>344.7</ele>
        <time>2017-07-23T08:21:27Z</time>
      </trkpt>
      <trkpt lat="43.58173" lon="3.34418">
        <ele>345.2</ele>
        <time>2017-07-23T08:21:30Z</time>
      </trkpt>
      <trkpt lat="43.58179" lon="3.34425">
        <ele>345.7</ele>
        <time>2017-07-23T08:21:33Z</time>
      </trkpt>
      <trkpt lat="43.58185" lon="3.34433">
        <ele>346.2</ele>
        <time>2017-07-23T08:21:36Z</time>
      </trkpt>
      <trkpt lat="43.5819" lon="3.3444">
        <ele>346.8</ele>
        <time>2017-07-23T08:21:39Z</time>
      </trkpt>
      <trkpt lat="43.58197" lon="3.34448">
        <ele>347.3</ele>
        <time>2017-07-23T08:21:42Z</time>
      </trkpt>
      <trkpt lat="43.58204" lon="3.34455">
        <ele>347.9</ele>
        <time>2017-07-23T08:21:45Z</time>
      </trkpt>
      <trkpt lat="43.58211" lon="3.3446">
        <ele>348.6</ele>
        <time>2017-07-23T08:21:48Z</time>
      </trkpt>
      <trkpt lat="43.58218" lon="3.34463">
        <ele>349.3</ele>
        <time>2017-07-23T08:21:51Z</time>
      </trkpt>
      <trkpt lat="43.58226" lon="3.34466">
        <ele>349.9</ele>
        <time>2017-07-23T08:21:54Z</time>
      </trkpt>
      <trkpt lat="43.58235" lon="3.34467">
        <ele>350.5</ele>
        <time>2017-07-23T08:21:57Z</time>
      </trkpt>
      <trkpt lat="43.58243" lon="3.34467">
        <ele>351.2</ele>
        <time>2017-07-23T08:22:00Z</time>
      </trkpt>
      <trkpt lat="43.58251" lon="3.34465">
        <ele>352</ele>
        <time>2017-07-23T08:22:04Z</time>
      </trkpt>
      <trkpt lat="43.58253" lon="3.34465">
        <ele>353.1</ele>
        <time>2017-07-23T08:22:11Z</time>
      </trkpt>
      <trkpt lat="43.5826" lon="3.34465">
        <ele>355.1</ele>
        <time>2017-07-23T08:22:33Z</time>
      </trkpt>
      <trkpt lat="43.58268" lon="3.34462">
        <ele>355.7</ele>
        <time>2017-07-23T08:22:39Z</time>
      </trkpt>
      <trkpt lat="43.58275" lon="3.34457">
        <ele>356.4</ele>
        <time>2017-07-23T08:22:44Z</time>
      </trkpt>
      <trkpt lat="43.58283" lon="3.34452">
        <ele>357.3</ele>
        <time>2017-07-23T08:22:49Z</time>
      </trkpt>
      <trkpt lat="43.58287" lon="3.34441">
        <ele>358.5</ele>
        <time>2017-07-23T08:22:55Z</time>
      </trkpt>
      <trkpt lat="43.58282" lon="3.34433">
        <ele>359.5</ele>
        <time>2017-07-23T08:23:00Z</time>
      </trkpt>
      <trkpt lat="43.58273" lon="3.34432">
        <ele>360.3</ele>
        <time>2017-07-23T08:23:04Z</time>
      </trkpt>
      <trkpt lat="43.58265" lon="3.34432">
        <ele>361.2</ele>
        <time>2017-07-23T08:23:08Z</time>
      </trkpt>
      <trkpt lat="43.58259" lon="3.34426">
        <ele>362.2</ele>
        <time>2017-07-23T08:23:13Z</time>
      </trkpt>
      <trkpt lat="43.58258" lon="3.34427">
        <ele>363.1</ele>
        <time>2017-07-23T08:23:20Z</time>
      </trkpt>
      <trkpt lat="43.58258" lon="3.34425">
        <ele>368.7</ele>
        <time>2017-07-23T08:25:57Z</time>
      </trkpt>
      <trkpt lat="43.58259" lon="3.34426">
        <ele>368.7</ele>
        <time>2017-07-23T08:26:07Z</time>
      </trkpt>
      <trkpt lat="43.5826" lon="3.34427">
        <ele>368.6</ele>
        <time>2017-07-23T08:26:19Z</time>
      </trkpt>
      <trkpt lat="43.58263" lon="3.34439">
        <ele>368.6</ele>
        <time>2017-07-23T08:25:54Z</time>
      </trkpt>
      <trkpt lat="43.58261" lon="3.34453">
        <ele>369.6</ele>
        <time>2017-07-23T08:25:56Z</time>
      </trkpt>
      <trkpt lat="43.58259" lon="3.34464">
        <ele>368.8</ele>
        <time>2017-07-23T08:25:58Z</time>
      </trkpt>
      <trkpt lat="43.58256" lon="3.34475">
        <ele>367.4</ele>
        <time>2017-07-23T08:26:00Z</time>
      </trkpt>
      <trkpt lat="43.58259" lon="3.34488">
        <ele>366.3</ele>
        <time>2017-07-23T08:26:02Z</time>
      </trkpt>
      <trkpt lat="43.58263" lon="3.34499">
        <ele>364.8</ele>
        <time>2017-07-23T08:26:04Z</time>
      </trkpt>
      <trkpt lat="43.5827" lon="3.34513">
        <ele>362.4</ele>
        <time>2017-07-23T08:26:06Z</time>
      </trkpt>
      <trkpt lat="43.58279" lon="3.34528">
        <ele>359.9</ele>
        <time>2017-07-23T08:26:08Z</time>
      </trkpt>
      <trkpt lat="43.58286" lon="3.34537">
        <ele>357.4</ele>
        <time>2017-07-23T08:27:16Z</time>
      </trkpt>
      <trkpt lat="43.58292" lon="3.34542">
        <ele>357.2</ele>
        <time>2017-07-23T08:27:18Z</time>
      </trkpt>
      <trkpt lat="43.58298" lon="3.34553">
        <ele>356.6</ele>
        <time>2017-07-23T08:27:21Z</time>
      </trkpt>
      <trkpt lat="43.58303" lon="3.34563">
        <ele>356.2</ele>
        <time>2017-07-23T08:27:23Z</time>
      </trkpt>
      <trkpt lat="43.58312" lon="3.34571">
        <ele>352.7</ele>
        <time>2017-07-23T08:27:25Z</time>
      </trkpt>
      <trkpt lat="43.58323" lon="3.34576">
        <ele>349.5</ele>
        <time>2017-07-23T08:27:27Z</time>
      </trkpt>
      <trkpt lat="43.58333" lon="3.34587">
        <ele>347.6</ele>
        <time>2017-07-23T08:27:29Z</time>
      </trkpt>
      <trkpt lat="43.58337" lon="3.34594">
        <ele>346.8</ele>
        <time>2017-07-23T08:27:30Z</time>
      </trkpt>
      <trkpt lat="43.58347" lon="3.34603">
        <ele>345</ele>
        <time>2017-07-23T08:27:32Z</time>
      </trkpt>
      <trkpt lat="43.58352" lon="3.34607">
        <ele>344.5</ele>
        <time>2017-07-23T08:27:39Z</time>
      </trkpt>
      <trkpt lat="43.58352" lon="3.34611">
        <ele>343.5</ele>
        <time>2017-07-23T08:27:50Z</time>
      </trkpt>
      <trkpt lat="43.58354" lon="3.34622">
        <ele>343.4</ele>
        <time>2017-07-23T08:27:53Z</time>
      </trkpt>
      <trkpt lat="43.58354" lon="3.34637">
        <ele>343.2</ele>
        <time>2017-07-23T08:27:55Z</time>
      </trkpt>
      <trkpt lat="43.58354" lon="3.34654">
        <ele>343.1</ele>
        <time>2017-07-23T08:27:57Z</time>
      </trkpt>
      <trkpt lat="43.58353" lon="3.34671">
        <ele>342.6</ele>
        <time>2017-07-23T08:27:59Z</time>
      </trkpt>
      <trkpt lat="43.58354" lon="3.34691">
        <ele>341.5</ele>
        <time>2017-07-23T08:28:01Z</time>
      </trkpt>
      <trkpt lat="43.58354" lon="3.34702">
        <ele>341.1</ele>
        <time>2017-07-23T08:28:02Z</time>
      </trkpt>
      <trkpt lat="43.58356" lon="3.3472">
        <ele>341.2</ele>
        <time>2017-07-23T08:28:04Z</time>
      </trkpt>
      <trkpt lat="43.58361" lon="3.34735">
        <ele>340.9</ele>
        <time>2017-07-23T08:28:06Z</time>
      </trkpt>
      <trkpt lat="43.58367" lon="3.3475">
        <ele>340.2</ele>
        <time>2017-07-23T08:28:08Z</time>
      </trkpt>
      <trkpt lat="43.58372" lon="3.34759">
        <ele>339.6</ele>
        <time>2017-07-23T08:28:09Z</time>
      </trkpt>
      <trkpt lat="43.58377" lon="3.34769">
        <ele>338.9</ele>
        <time>2017-07-23T08:28:10Z</time>
      </trkpt>
      <trkpt lat="43.58383" lon="3.34778">
        <ele>338.6</ele>
        <time>2017-07-23T08:28:11Z</time>
      </trkpt>
      <trkpt lat="43.58389" lon="3.34796">
        <ele>336.9</ele>
        <time>2017-07-23T08:28:13Z</time>
      </trkpt>
      <trkpt lat="43.5839" lon="3.34807">
        <ele>336.3</ele>
        <time>2017-07-23T08:28:14Z</time>
      </trkpt>
      <trkpt lat="43.58392" lon="3.34819">
        <ele>335.9</ele>
        <time>2017-07-23T08:28:15Z</time>
      </trkpt>
      <trkpt lat="43.58393" lon="3.34833">
        <ele>335.3</ele>
        <time>2017-07-23T08:28:16Z</time>
      </trkpt>
      <trkpt lat="43.58393" lon="3.34843">
        <ele>334.3</ele>
        <time>2017-07-23T08:28:17Z</time>
      </trkpt>
      <trkpt lat="43.58393" lon="3.34855">
        <ele>332.9</ele>
        <time>2017-07-23T08:28:18Z</time>
      </trkpt>
      <trkpt lat="43.58392" lon="3.34875">
        <ele>330.2</ele>
        <time>2017-07-23T08:28:20Z</time>
      </trkpt>
      <trkpt lat="43.58389" lon="3.34886">
        <ele>328.9</ele>
        <time>2017-07-23T08:28:21Z</time>
      </trkpt>
      <trkpt lat="43.58387" lon="3.34897">
        <ele>327.5</ele>
        <time>2017-07-23T08:28:22Z</time>
      </trkpt>
      <trkpt lat="43.58384" lon="3.3491">
        <ele>326.3</ele>
        <time>2017-07-23T08:28:23Z</time>
      </trkpt>
      <trkpt lat="43.5838" lon="3.34924">
        <ele>325.2</ele>
        <time>2017-07-23T08:28:24Z</time>
      </trkpt>
      <trkpt lat="43.58373" lon="3.34936">
        <ele>323.9</ele>
        <time>2017-07-23T08:28:25Z</time>
      </trkpt>
      <trkpt lat="43.58366" lon="3.34949">
        <ele>322</ele>
        <time>2017-07-23T08:28:26Z</time>
      </trkpt>
      <trkpt lat="43.58359" lon="3.34959">
        <ele>320.8</ele>
        <time>2017-07-23T08:28:27Z</time>
      </trkpt>
      <trkpt lat="43.58355" lon="3.3497">
        <ele>319.5</ele>
        <time>2017-07-23T08:28:28Z</time>
      </trkpt>
      <trkpt lat="43.5835" lon="3.34979">
        <ele>318.1</ele>
        <time>2017-07-23T08:28:29Z</time>
      </trkpt>
      <trkpt lat="43.58344" lon="3.34989">
        <ele>315.6</ele>
        <time>2017-07-23T08:28:31Z</time>
      </trkpt>
      <trkpt lat="43.58335" lon="3.34999">
        <ele>313.2</ele>
        <time>2017-07-23T08:28:33Z</time>
      </trkpt>
      <trkpt lat="43.58326" lon="3.35007">
        <ele>310.9</ele>
        <time>2017-07-23T08:28:35Z</time>
      </trkpt>
      <trkpt lat="43.58318" lon="3.35018">
        <ele>309.4</ele>
        <time>2017-07-23T08:28:37Z</time>
      </trkpt>
      <trkpt lat="43.58309" lon="3.35023">
        <ele>308.4</ele>
        <time>2017-07-23T08:28:39Z</time>
      </trkpt>
      <trkpt lat="43.58308" lon="3.35039">
        <ele>307.2</ele>
        <time>2017-07-23T08:28:42Z</time>
      </trkpt>
      <trkpt lat="43.58306" lon="3.35057">
        <ele>306.4</ele>
        <time>2017-07-23T08:28:44Z</time>
      </trkpt>
      <trkpt lat="43.58305" lon="3.35067">
        <ele>305.9</ele>
        <time>2017-07-23T08:28:45Z</time>
      </trkpt>
      <trkpt lat="43.58299" lon="3.35082">
        <ele>305.1</ele>
        <time>2017-07-23T08:28:47Z</time>
      </trkpt>
      <trkpt lat="43.58298" lon="3.35094">
        <ele>304.1</ele>
        <time>2017-07-23T08:28:49Z</time>
      </trkpt>
      <trkpt lat="43.58306" lon="3.35105">
        <ele>302.4</ele>
        <time>2017-07-23T08:28:52Z</time>
      </trkpt>
      <trkpt lat="43.58311" lon="3.35123">
        <ele>301.1</ele>
        <time>2017-07-23T08:28:54Z</time>
      </trkpt>
      <trkpt lat="43.58311" lon="3.3514">
        <ele>299</ele>
        <time>2017-07-23T08:28:56Z</time>
      </trkpt>
      <trkpt lat="43.58314" lon="3.35161">
        <ele>297.4</ele>
        <time>2017-07-23T08:28:58Z</time>
      </trkpt>
      <trkpt lat="43.58318" lon="3.35178">
        <ele>295.2</ele>
        <time>2017-07-23T08:29:00Z</time>
      </trkpt>
      <trkpt lat="43.58317" lon="3.35192">
        <ele>293.6</ele>
        <time>2017-07-23T08:29:02Z</time>
      </trkpt>
      <trkpt lat="43.58326" lon="3.35204">
        <ele>287.9</ele>
        <time>2017-07-23T08:29:05Z</time>
      </trkpt>
      <trkpt lat="43.5833" lon="3.35219">
        <ele>284.9</ele>
        <time>2017-07-23T08:29:07Z</time>
      </trkpt>
      <trkpt lat="43.5833" lon="3.35236">
        <ele>282.2</ele>
        <time>2017-07-23T08:29:09Z</time>
      </trkpt>
      <trkpt lat="43.58334" lon="3.35254">
        <ele>279.4</ele>
        <time>2017-07-23T08:29:11Z</time>
      </trkpt>
      <trkpt lat="43.58332" lon="3.35271">
        <ele>276.9</ele>
        <time>2017-07-23T08:29:13Z</time>
      </trkpt>
      <trkpt lat="43.5833" lon="3.35282">
        <ele>275.7</ele>
        <time>2017-07-23T08:29:15Z</time>
      </trkpt>
      <trkpt lat="43.58333" lon="3.35293">
        <ele>275.5</ele>
        <time>2017-07-23T08:29:17Z</time>
      </trkpt>
      <trkpt lat="43.58333" lon="3.35301">
        <ele>274.7</ele>
        <time>2017-07-23T08:29:24Z</time>
      </trkpt>
      <trkpt lat="43.58331" lon="3.35327">
        <ele>270.4</ele>
        <time>2017-07-23T08:29:04Z</time>
      </trkpt>
      <trkpt lat="43.58329" lon="3.35339">
        <ele>268.4</ele>
        <time>2017-07-23T08:29:06Z</time>
      </trkpt>
      <trkpt lat="43.58326" lon="3.35352">
        <ele>266.7</ele>
        <time>2017-07-23T08:29:08Z</time>
      </trkpt>
      <trkpt lat="43.58323" lon="3.35368">
        <ele>265.3</ele>
        <time>2017-07-23T08:29:10Z</time>
      </trkpt>
      <trkpt lat="43.58324" lon="3.35382">
        <ele>265.3</ele>
        <time>2017-07-23T08:29:12Z</time>
      </trkpt>
      <trkpt lat="43.58325" lon="3.35396">
        <ele>265.4</ele>
        <time>2017-07-23T08:29:14Z</time>
      </trkpt>
      <trkpt lat="43.58325" lon="3.35407">
        <ele>265.2</ele>
        <time>2017-07-23T08:29:16Z</time>
      </trkpt>
      <trkpt lat="43.58323" lon="3.3541">
        <ele>264.8</ele>
        <time>2017-07-23T08:30:28Z</time>
      </trkpt>
      <trkpt lat="43.5831" lon="3.35415">
        <ele>263.1</ele>
        <time>2017-07-23T08:31:30Z</time>
      </trkpt>
      <trkpt lat="43.58306" lon="3.35415">
        <ele>262.4</ele>
        <time>2017-07-23T08:31:37Z</time>
      </trkpt>
      <trkpt lat="43.5829" lon="3.35422">
        <ele>260.4</ele>
        <time>2017-07-23T08:32:03Z</time>
      </trkpt>
      <trkpt lat="43.58282" lon="3.35426">
        <ele>259.3</ele>
        <time>2017-07-23T08:32:09Z</time>
      </trkpt>
      <trkpt lat="43.58281" lon="3.35425">
        <ele>258.8</ele>
        <time>2017-07-23T08:32:16Z</time>
      </trkpt>
      <trkpt lat="43.58294" lon="3.35424">
        <ele>256.4</ele>
        <time>2017-07-23T08:32:41Z</time>
      </trkpt>
      <trkpt lat="43.58301" lon="3.35421">
        <ele>255.3</ele>
        <time>2017-07-23T08:32:48Z</time>
      </trkpt>
      <trkpt lat="43.58307" lon="3.35418">
        <ele>254.4</ele>
        <time>2017-07-23T08:32:55Z</time>
      </trkpt>
      <trkpt lat="43.5831" lon="3.35416">
        <ele>253.9</ele>
        <time>2017-07-23T08:33:02Z</time>
      </trkpt>
      <trkpt lat="43.58316" lon="3.35413">
        <ele>254.4</ele>
        <time>2017-07-23T08:33:15Z</time>
      </trkpt>
      <trkpt lat="43.58323" lon="3.35411">
        <ele>255.2</ele>
        <time>2017-07-23T08:33:29Z</time>
      </trkpt>
      <trkpt lat="43.58318" lon="3.35412">
        <ele>255.8</ele>
        <time>2017-07-23T08:34:08Z</time>
      </trkpt>
      <trkpt lat="43.58306" lon="3.35417">
        <ele>256.1</ele>
        <time>2017-07-23T08:34:11Z</time>
      </trkpt>
      <trkpt lat="43.58296" lon="3.35421">
        <ele>255.7</ele>
        <time>2017-07-23T08:34:13Z</time>
      </trkpt>
      <trkpt lat="43.58287" lon="3.35426">
        <ele>254.6</ele>
        <time>2017-07-23T08:34:15Z</time>
      </trkpt>
      <trkpt lat="43.58279" lon="3.3543">
        <ele>254.3</ele>
        <time>2017-07-23T08:34:18Z</time>
      </trkpt>
      <trkpt lat="43.5827" lon="3.35435">
        <ele>253.7</ele>
        <time>2017-07-23T08:34:21Z</time>
      </trkpt>
      <trkpt lat="43.58261" lon="3.35437">
        <ele>253.1</ele>
        <time>2017-07-23T08:34:24Z</time>
      </trkpt>
      <trkpt lat="43.58254" lon="3.35433">
        <ele>251.9</ele>
        <time>2017-07-23T08:34:28Z</time>
      </trkpt>
      <trkpt lat="43.58247" lon="3.35429">
        <ele>251</ele>
        <time>2017-07-23T08:34:31Z</time>
      </trkpt>
      <trkpt lat="43.58238" lon="3.35428">
        <ele>249.8</ele>
        <time>2017-07-23T08:34:34Z</time>
      </trkpt>
      <trkpt lat="43.58232" lon="3.35436">
        <ele>247.6</ele>
        <time>2017-07-23T08:34:39Z</time>
      </trkpt>
      <trkpt lat="43.58225" lon="3.35439">
        <ele>245.6</ele>
        <time>2017-07-23T08:34:44Z</time>
      </trkpt>
      <trkpt lat="43.58218" lon="3.35442">
        <ele>243.8</ele>
        <time>2017-07-23T08:34:48Z</time>
      </trkpt>
      <trkpt lat="43.58216" lon="3.35449">
        <ele>240.6</ele>
        <time>2017-07-23T08:34:55Z</time>
      </trkpt>
      <trkpt lat="43.5821" lon="3.35453">
        <ele>237.8</ele>
        <time>2017-07-23T08:35:02Z</time>
      </trkpt>
      <trkpt lat="43.58205" lon="3.35463">
        <ele>232.8</ele>
        <time>2017-07-23T08:35:05Z</time>
      </trkpt>
      <trkpt lat="43.58202" lon="3.35472">
        <ele>232</ele>
        <time>2017-07-23T08:35:07Z</time>
      </trkpt>
      <trkpt lat="43.582" lon="3.3547">
        <ele>229.9</ele>
        <time>2017-07-23T08:35:14Z</time>
      </trkpt>
      <trkpt lat="43.582" lon="3.3546">
        <ele>228.8</ele>
        <time>2017-07-23T08:35:19Z</time>
      </trkpt>
      <trkpt lat="43.582" lon="3.35457">
        <ele>227.3</ele>
        <time>2017-07-23T08:35:26Z</time>
      </trkpt>
      <trkpt lat="43.58203" lon="3.35451">
        <ele>225.7</ele>
        <time>2017-07-23T08:35:48Z</time>
      </trkpt>
      <trkpt lat="43.58204" lon="3.35458">
        <ele>222</ele>
        <time>2017-07-23T08:36:25Z</time>
      </trkpt>
      <trkpt lat="43.58209" lon="3.35461">
        <ele>221.8</ele>
        <time>2017-07-23T08:36:34Z</time>
      </trkpt>
      <trkpt lat="43.58203" lon="3.35468">
        <ele>221.1</ele>
        <time>2017-07-23T08:36:40Z</time>
      </trkpt>
      <trkpt lat="43.58204" lon="3.35476">
        <ele>220.2</ele>
        <time>2017-07-23T08:36:47Z</time>
      </trkpt>
      <trkpt lat="43.582" lon="3.35467">
        <ele>219.7</ele>
        <time>2017-07-23T08:36:53Z</time>
      </trkpt>
      <trkpt lat="43.58203" lon="3.35456">
        <ele>219</ele>
        <time>2017-07-23T08:36:59Z</time>
      </trkpt>
      <trkpt lat="43.582" lon="3.35455">
        <ele>218.4</ele>
        <time>2017-07-23T08:37:06Z</time>
      </trkpt>
      <trkpt lat="43.582" lon="3.35464">
        <ele>218</ele>
        <time>2017-07-23T08:37:09Z</time>
      </trkpt>
      <trkpt lat="43.58204" lon="3.35474">
        <ele>217.6</ele>
        <time>2017-07-23T08:37:13Z</time>
      </trkpt>
      <trkpt lat="43.58203" lon="3.35464">
        <ele>217.5</ele>
        <time>2017-07-23T08:37:19Z</time>
      </trkpt>
      <trkpt lat="43.58203" lon="3.35453">
        <ele>217.5</ele>
        <time>2017-07-23T08:37:23Z</time>
      </trkpt>
      <trkpt lat="43.58202" lon="3.35443">
        <ele>217.3</ele>
        <time>2017-07-23T08:37:27Z</time>
      </trkpt>
      <trkpt lat="43.58198" lon="3.35452">
        <ele>217</ele>
        <time>2017-07-23T08:37:32Z</time>
      </trkpt>
      <trkpt lat="43.58198" lon="3.35464">
        <ele>216.6</ele>
        <time>2017-07-23T08:37:37Z</time>
      </trkpt>
      <trkpt lat="43.58203" lon="3.35466">
        <ele>216.5</ele>
        <time>2017-07-23T08:37:44Z</time>
      </trkpt>
      <trkpt lat="43.58203" lon="3.35453">
        <ele>216.7</ele>
        <time>2017-07-23T08:37:49Z</time>
      </trkpt>
      <trkpt lat="43.58201" lon="3.35455">
        <ele>216.8</ele>
        <time>2017-07-23T08:37:56Z</time>
      </trkpt>
      <trkpt lat="43.58198" lon="3.35466">
        <ele>216.9</ele>
        <time>2017-07-23T08:37:59Z</time>
      </trkpt>
      <trkpt lat="43.582" lon="3.35477">
        <ele>216.7</ele>
        <time>2017-07-23T08:38:02Z</time>
      </trkpt>
      <trkpt lat="43.58202" lon="3.35466">
        <ele>216.5</ele>
        <time>2017-07-23T08:38:07Z</time>
      </trkpt>
      <trkpt lat="43.58202" lon="3.35456">
        <ele>216.4</ele>
        <time>2017-07-23T08:38:10Z</time>
      </trkpt>
      <trkpt lat="43.58202" lon="3.35445">
        <ele>216.3</ele>
        <time>2017-07-23T08:38:16Z</time>
      </trkpt>
      <trkpt lat="43.58199" lon="3.35459">
        <ele>216.5</ele>
        <time>2017-07-23T08:38:22Z</time>
      </trkpt>
      <trkpt lat="43.58197" lon="3.35467">
        <ele>216.7</ele>
        <time>2017-07-23T08:38:29Z</time>
      </trkpt>
      <trkpt lat="43.58196" lon="3.3547">
        <ele>216.6</ele>
        <time>2017-07-23T08:38:36Z</time>
      </trkpt>
      <trkpt lat="43.58204" lon="3.35472">
        <ele>216.4</ele>
        <time>2017-07-23T08:38:42Z</time>
      </trkpt>
      <trkpt lat="43.582" lon="3.35467">
        <ele>216.3</ele>
        <time>2017-07-23T08:38:49Z</time>
      </trkpt>
      <trkpt lat="43.58196" lon="3.35476">
        <ele>216.2</ele>
        <time>2017-07-23T08:38:55Z</time>
      </trkpt>
      <trkpt lat="43.58199" lon="3.3547">
        <ele>216.2</ele>
        <time>2017-07-23T08:39:02Z</time>
      </trkpt>
      <trkpt lat="43.582" lon="3.35466">
        <ele>216.7</ele>
        <time>2017-07-23T08:39:16Z</time>
      </trkpt>
      <trkpt lat="43.58195" lon="3.35477">
        <ele>215.6</ele>
        <time>2017-07-23T08:39:44Z</time>
      </trkpt>
      <trkpt lat="43.58189" lon="3.35488">
        <ele>215.6</ele>
        <time>2017-07-23T08:39:47Z</time>
      </trkpt>
      <trkpt lat="43.58187" lon="3.35498">
        <ele>215.3</ele>
        <time>2017-07-23T08:39:49Z</time>
      </trkpt>
      <trkpt lat="43.58185" lon="3.35511">
        <ele>215.2</ele>
        <time>2017-07-23T08:39:51Z</time>
      </trkpt>
      <trkpt lat="43.58183" lon="3.35521">
        <ele>214.7</ele>
        <time>2017-07-23T08:39:53Z</time>
      </trkpt>
      <trkpt lat="43.58182" lon="3.35534">
        <ele>214.6</ele>
        <time>2017-07-23T08:39:56Z</time>
      </trkpt>
      <trkpt lat="43.5818" lon="3.35545">
        <ele>214.6</ele>
        <time>2017-07-23T08:39:58Z</time>
      </trkpt>
      <trkpt lat="43.58178" lon="3.35559">
        <ele>214.7</ele>
        <time>2017-07-23T08:40:01Z</time>
      </trkpt>
      <trkpt lat="43.58176" lon="3.35572">
        <ele>214.9</ele>
        <time>2017-07-23T08:40:03Z</time>
      </trkpt>
      <trkpt lat="43.58175" lon="3.35586">
        <ele>213.9</ele>
        <time>2017-07-23T08:40:07Z</time>
      </trkpt>
      <trkpt lat="43.58174" lon="3.35598">
        <ele>213.8</ele>
        <time>2017-07-23T08:40:10Z</time>
      </trkpt>
      <trkpt lat="43.58171" lon="3.3561">
        <ele>213.7</ele>
        <time>2017-07-23T08:40:13Z</time>
      </trkpt>
      <trkpt lat="43.58168" lon="3.35622">
        <ele>213.8</ele>
        <time>2017-07-23T08:40:16Z</time>
      </trkpt>
      <trkpt lat="43.58162" lon="3.35635">
        <ele>213.8</ele>
        <time>2017-07-23T08:40:19Z</time>
      </trkpt>
      <trkpt lat="43.5816" lon="3.35646">
        <ele>213.9</ele>
        <time>2017-07-23T08:40:21Z</time>
      </trkpt>
      <trkpt lat="43.58157" lon="3.35655">
        <ele>214.4</ele>
        <time>2017-07-23T08:40:23Z</time>
      </trkpt>
      <trkpt lat="43.58153" lon="3.35667">
        <ele>215.6</ele>
        <time>2017-07-23T08:40:26Z</time>
      </trkpt>
      <trkpt lat="43.58147" lon="3.3568">
        <ele>217.2</ele>
        <time>2017-07-23T08:40:29Z</time>
      </trkpt>
      <trkpt lat="43.58143" lon="3.35689">
        <ele>217.3</ele>
        <time>2017-07-23T08:40:31Z</time>
      </trkpt>
      <trkpt lat="43.58138" lon="3.35697">
        <ele>218</ele>
        <time>2017-07-23T08:40:33Z</time>
      </trkpt>
      <trkpt lat="43.58134" lon="3.35711">
        <ele>218.4</ele>
        <time>2017-07-23T08:40:36Z</time>
      </trkpt>
      <trkpt lat="43.5813" lon="3.35722">
        <ele>219</ele>
        <time>2017-07-23T08:40:38Z</time>
      </trkpt>
      <trkpt lat="43.58126" lon="3.35734">
        <ele>218.5</ele>
        <time>2017-07-23T08:40:40Z</time>
      </trkpt>
      <trkpt lat="43.58123" lon="3.35746">
        <ele>217.8</ele>
        <time>2017-07-23T08:40:42Z</time>
      </trkpt>
      <trkpt lat="43.5812" lon="3.35758">
        <ele>217.5</ele>
        <time>2017-07-23T08:40:44Z</time>
      </trkpt>
      <trkpt lat="43.58115" lon="3.35771">
        <ele>217.2</ele>
        <time>2017-07-23T08:40:47Z</time>
      </trkpt>
      <trkpt lat="43.58112" lon="3.35782">
        <ele>216.9</ele>
        <time>2017-07-23T08:40:50Z</time>
      </trkpt>
      <trkpt lat="43.58109" lon="3.35791">
        <ele>216.5</ele>
        <time>2017-07-23T08:40:55Z</time>
      </trkpt>
      <trkpt lat="43.58108" lon="3.35797">
        <ele>215.8</ele>
        <time>2017-07-23T08:41:02Z</time>
      </trkpt>
      <trkpt lat="43.58108" lon="3.35798">
        <ele>215.5</ele>
        <time>2017-07-23T08:41:09Z</time>
      </trkpt>
      <trkpt lat="43.5811" lon="3.35785">
        <ele>214.8</ele>
        <time>2017-07-23T08:41:15Z</time>
      </trkpt>
      <trkpt lat="43.58113" lon="3.35774">
        <ele>214.4</ele>
        <time>2017-07-23T08:41:19Z</time>
      </trkpt>
      <trkpt lat="43.58117" lon="3.35764">
        <ele>214</ele>
        <time>2017-07-23T08:41:22Z</time>
      </trkpt>
      <trkpt lat="43.5812" lon="3.35754">
        <ele>213.8</ele>
        <time>2017-07-23T08:41:25Z</time>
      </trkpt>
      <trkpt lat="43.58122" lon="3.35744">
        <ele>213.7</ele>
        <time>2017-07-23T08:41:28Z</time>
      </trkpt>
      <trkpt lat="43.58124" lon="3.35733">
        <ele>213.8</ele>
        <time>2017-07-23T08:41:31Z</time>
      </trkpt>
      <trkpt lat="43.58127" lon="3.35723">
        <ele>213.8</ele>
        <time>2017-07-23T08:41:34Z</time>
      </trkpt>
      <trkpt lat="43.5813" lon="3.35714">
        <ele>213.8</ele>
        <time>2017-07-23T08:41:36Z</time>
      </trkpt>
      <trkpt lat="43.58133" lon="3.35703">
        <ele>213.9</ele>
        <time>2017-07-23T08:41:39Z</time>
      </trkpt>
      <trkpt lat="43.5814" lon="3.35692">
        <ele>214.2</ele>
        <time>2017-07-23T08:41:42Z</time>
      </trkpt>
      <trkpt lat="43.58146" lon="3.3568">
        <ele>214.4</ele>
        <time>2017-07-23T08:41:45Z</time>
      </trkpt>
      <trkpt lat="43.5815" lon="3.35668">
        <ele>214.2</ele>
        <time>2017-07-23T08:41:48Z</time>
      </trkpt>
      <trkpt lat="43.58155" lon="3.35657">
        <ele>214.3</ele>
        <time>2017-07-23T08:41:50Z</time>
      </trkpt>
      <trkpt lat="43.58159" lon="3.35647">
        <ele>214.3</ele>
        <time>2017-07-23T08:41:52Z</time>
      </trkpt>
      <trkpt lat="43.58163" lon="3.35637">
        <ele>214.4</ele>
        <time>2017-07-23T08:41:54Z</time>
      </trkpt>
      <trkpt lat="43.58168" lon="3.35625">
        <ele>215.5</ele>
        <time>2017-07-23T08:41:57Z</time>
      </trkpt>
      <trkpt lat="43.58173" lon="3.3561">
        <ele>216.5</ele>
        <time>2017-07-23T08:42:00Z</time>
      </trkpt>
      <trkpt lat="43.58175" lon="3.35599">
        <ele>217.3</ele>
        <time>2017-07-23T08:42:02Z</time>
      </trkpt>
      <trkpt lat="43.58176" lon="3.35586">
        <ele>216.7</ele>
        <time>2017-07-23T08:42:04Z</time>
      </trkpt>
      <trkpt lat="43.58176" lon="3.35574">
        <ele>215.4</ele>
        <time>2017-07-23T08:42:06Z</time>
      </trkpt>
      <trkpt lat="43.58177" lon="3.35563">
        <ele>214.2</ele>
        <time>2017-07-23T08:42:08Z</time>
      </trkpt>
      <trkpt lat="43.58178" lon="3.35547">
        <ele>213.2</ele>
        <time>2017-07-23T08:42:10Z</time>
      </trkpt>
      <trkpt lat="43.5818" lon="3.35533">
        <ele>212.7</ele>
        <time>2017-07-23T08:42:12Z</time>
      </trkpt>
      <trkpt lat="43.58182" lon="3.35518">
        <ele>212.8</ele>
        <time>2017-07-23T08:42:14Z</time>
      </trkpt>
      <trkpt lat="43.58184" lon="3.35503">
        <ele>212.4</ele>
        <time>2017-07-23T08:42:16Z</time>
      </trkpt>
      <trkpt lat="43.58185" lon="3.35493">
        <ele>212.1</ele>
        <time>2017-07-23T08:42:18Z</time>
      </trkpt>
      <trkpt lat="43.5819" lon="3.35484">
        <ele>212</ele>
        <time>2017-07-23T08:42:20Z</time>
      </trkpt>
      <trkpt lat="43.58194" lon="3.35474">
        <ele>212.1</ele>
        <time>2017-07-23T08:42:22Z</time>
      </trkpt>
      <trkpt lat="43.58197" lon="3.35464">
        <ele>212.2</ele>
        <time>2017-07-23T08:42:24Z</time>
      </trkpt>
      <trkpt lat="43.58199" lon="3.35453">
        <ele>212.3</ele>
        <time>2017-07-23T08:42:26Z</time>
      </trkpt>
      <trkpt lat="43.58198" lon="3.35441">
        <ele>212.6</ele>
        <time>2017-07-23T08:42:29Z</time>
      </trkpt>
      <trkpt lat="43.58196" lon="3.35431">
        <ele>212.8</ele>
        <time>2017-07-23T08:42:32Z</time>
      </trkpt>
      <trkpt lat="43.58191" lon="3.3542">
        <ele>213</ele>
        <time>2017-07-23T08:42:35Z</time>
      </trkpt>
      <trkpt lat="43.58187" lon="3.35411">
        <ele>213.2</ele>
        <time>2017-07-23T08:42:38Z</time>
      </trkpt>
      <trkpt lat="43.58183" lon="3.35402">
        <ele>213.5</ele>
        <time>2017-07-23T08:42:41Z</time>
      </trkpt>
      <trkpt lat="43.5818" lon="3.35393">
        <ele>213.8</ele>
        <time>2017-07-23T08:42:44Z</time>
      </trkpt>
      <trkpt lat="43.58178" lon="3.35381">
        <ele>214</ele>
        <time>2017-07-23T08:42:47Z</time>
      </trkpt>
      <trkpt lat="43.58177" lon="3.35368">
        <ele>214.6</ele>
        <time>2017-07-23T08:42:51Z</time>
      </trkpt>
      <trkpt lat="43.58177" lon="3.35359">
        <ele>215.3</ele>
        <time>2017-07-23T08:42:55Z</time>
      </trkpt>
      <trkpt lat="43.58177" lon="3.35348">
        <ele>215.8</ele>
        <time>2017-07-23T08:42:58Z</time>
      </trkpt>
      <trkpt lat="43.58175" lon="3.35337">
        <ele>216.4</ele>
        <time>2017-07-23T08:43:01Z</time>
      </trkpt>
      <trkpt lat="43.58173" lon="3.35325">
        <ele>217.2</ele>
        <time>2017-07-23T08:43:05Z</time>
      </trkpt>
      <trkpt lat="43.58171" lon="3.35314">
        <ele>217.6</ele>
        <time>2017-07-23T08:43:08Z</time>
      </trkpt>
      <trkpt lat="43.5817" lon="3.35301">
        <ele>218</ele>
        <time>2017-07-23T08:43:12Z</time>
      </trkpt>
      <trkpt lat="43.5817" lon="3.35291">
        <ele>218.6</ele>
        <time>2017-07-23T08:43:16Z</time>
      </trkpt>
      <trkpt lat="43.58168" lon="3.35281">
        <ele>219.2</ele>
        <time>2017-07-23T08:43:20Z</time>
      </trkpt>
      <trkpt lat="43.58164" lon="3.35269">
        <ele>219.9</ele>
        <time>2017-07-23T08:43:24Z</time>
      </trkpt>
      <trkpt lat="43.58162" lon="3.35259">
        <ele>220.7</ele>
        <time>2017-07-23T08:43:28Z</time>
      </trkpt>
      <trkpt lat="43.58162" lon="3.35247">
        <ele>221.6</ele>
        <time>2017-07-23T08:43:32Z</time>
      </trkpt>
      <trkpt lat="43.5816" lon="3.35236">
        <ele>222.3</ele>
        <time>2017-07-23T08:43:36Z</time>
      </trkpt>
      <trkpt lat="43.58157" lon="3.35224">
        <ele>223.1</ele>
        <time>2017-07-23T08:43:40Z</time>
      </trkpt>
      <trkpt lat="43.58155" lon="3.35213">
        <ele>223.9</ele>
        <time>2017-07-23T08:43:44Z</time>
      </trkpt>
      <trkpt lat="43.58154" lon="3.35201">
        <ele>225.1</ele>
        <time>2017-07-23T08:43:49Z</time>
      </trkpt>
      <trkpt lat="43.58152" lon="3.35191">
        <ele>226.1</ele>
        <time>2017-07-23T08:43:54Z</time>
      </trkpt>
      <trkpt lat="43.58151" lon="3.35186">
        <ele>227</ele>
        <time>2017-07-23T08:44:01Z</time>
      </trkpt>
      <trkpt lat="43.58154" lon="3.35197">
        <ele>227.4</ele>
        <time>2017-07-23T08:44:08Z</time>
      </trkpt>
      <trkpt lat="43.58154" lon="3.35205">
        <ele>227.9</ele>
        <time>2017-07-23T08:44:15Z</time>
      </trkpt>
      <trkpt lat="43.58153" lon="3.35202">
        <ele>228.2</ele>
        <time>2017-07-23T08:44:22Z</time>
      </trkpt>
      <trkpt lat="43.5815" lon="3.35194">
        <ele>228.8</ele>
        <time>2017-07-23T08:44:27Z</time>
      </trkpt>
      <trkpt lat="43.58149" lon="3.35183">
        <ele>229.5</ele>
        <time>2017-07-23T08:44:32Z</time>
      </trkpt>
      <trkpt lat="43.58149" lon="3.3518">
        <ele>230.1</ele>
        <time>2017-07-23T08:44:39Z</time>
      </trkpt>
      <trkpt lat="43.5815" lon="3.35186">
        <ele>230.4</ele>
        <time>2017-07-23T08:44:46Z</time>
      </trkpt>
      <trkpt lat="43.58148" lon="3.35174">
        <ele>230.8</ele>
        <time>2017-07-23T08:44:52Z</time>
      </trkpt>
      <trkpt lat="43.58147" lon="3.35163">
        <ele>231.1</ele>
        <time>2017-07-23T08:44:56Z</time>
      </trkpt>
      <trkpt lat="43.58146" lon="3.35151">
        <ele>231.3</ele>
        <time>2017-07-23T08:45:01Z</time>
      </trkpt>
      <trkpt lat="43.58145" lon="3.3514">
        <ele>231.7</ele>
        <time>2017-07-23T08:45:05Z</time>
      </trkpt>
      <trkpt lat="43.58144" lon="3.35129">
        <ele>232.1</ele>
        <time>2017-07-23T08:45:10Z</time>
      </trkpt>
      <trkpt lat="43.58143" lon="3.35119">
        <ele>232.5</ele>
        <time>2017-07-23T08:45:13Z</time>
      </trkpt>
      <trkpt lat="43.58142" lon="3.35108">
        <ele>232.9</ele>
        <time>2017-07-23T08:45:17Z</time>
      </trkpt>
      <trkpt lat="43.5814" lon="3.35098">
        <ele>233.4</ele>
        <time>2017-07-23T08:45:21Z</time>
      </trkpt>
      <trkpt lat="43.58137" lon="3.35084">
        <ele>234.1</ele>
        <time>2017-07-23T08:45:27Z</time>
      </trkpt>
      <trkpt lat="43.58136" lon="3.35073">
        <ele>234.6</ele>
        <time>2017-07-23T08:45:31Z</time>
      </trkpt>
      <trkpt lat="43.58135" lon="3.35063">
        <ele>235.1</ele>
        <time>2017-07-23T08:45:35Z</time>
      </trkpt>
      <trkpt lat="43.58133" lon="3.35051">
        <ele>235.9</ele>
        <time>2017-07-23T08:45:40Z</time>
      </trkpt>
      <trkpt lat="43.58133" lon="3.3504">
        <ele>236.4</ele>
        <time>2017-07-23T08:45:44Z</time>
      </trkpt>
      <trkpt lat="43.58133" lon="3.35029">
        <ele>236.9</ele>
        <time>2017-07-23T08:45:48Z</time>
      </trkpt>
      <trkpt lat="43.58133" lon="3.35017">
        <ele>237.5</ele>
        <time>2017-07-23T08:45:53Z</time>
      </trkpt>
      <trkpt lat="43.58133" lon="3.35007">
        <ele>238.2</ele>
        <time>2017-07-23T08:45:57Z</time>
      </trkpt>
      <trkpt lat="43.58132" lon="3.34996">
        <ele>238.7</ele>
        <time>2017-07-23T08:46:01Z</time>
      </trkpt>
      <trkpt lat="43.58131" lon="3.34985">
        <ele>239.3</ele>
        <time>2017-07-23T08:46:06Z</time>
      </trkpt>
      <trkpt lat="43.58128" lon="3.34973">
        <ele>240.1</ele>
        <time>2017-07-23T08:46:11Z</time>
      </trkpt>
      <trkpt lat="43.58129" lon="3.34962">
        <ele>240.6</ele>
        <time>2017-07-23T08:46:15Z</time>
      </trkpt>
      <trkpt lat="43.5813" lon="3.3495">
        <ele>241.2</ele>
        <time>2017-07-23T08:46:19Z</time>
      </trkpt>
      <trkpt lat="43.58131" lon="3.3494">
        <ele>241.7</ele>
        <time>2017-07-23T08:46:23Z</time>
      </trkpt>
      <trkpt lat="43.58131" lon="3.3493">
        <ele>242.2</ele>
        <time>2017-07-23T08:46:26Z</time>
      </trkpt>
      <trkpt lat="43.58129" lon="3.34916">
        <ele>243.1</ele>
        <time>2017-07-23T08:46:31Z</time>
      </trkpt>
      <trkpt lat="43.58126" lon="3.34904">
        <ele>243.9</ele>
        <time>2017-07-23T08:46:36Z</time>
      </trkpt>
      <trkpt lat="43.58124" lon="3.34894">
        <ele>244.5</ele>
        <time>2017-07-23T08:46:40Z</time>
      </trkpt>
      <trkpt lat="43.58123" lon="3.34882">
        <ele>245.4</ele>
        <time>2017-07-23T08:46:45Z</time>
      </trkpt>
      <trkpt lat="43.58123" lon="3.3487">
        <ele>246.6</ele>
        <time>2017-07-23T08:46:50Z</time>
      </trkpt>
      <trkpt lat="43.58123" lon="3.34861">
        <ele>247.3</ele>
        <time>2017-07-23T08:46:54Z</time>
      </trkpt>
      <trkpt lat="43.58121" lon="3.34849">
        <ele>248.2</ele>
        <time>2017-07-23T08:46:59Z</time>
      </trkpt>
      <trkpt lat="43.58116" lon="3.34839">
        <ele>249.3</ele>
        <time>2017-07-23T08:47:04Z</time>
      </trkpt>
      <trkpt lat="43.58114" lon="3.34829">
        <ele>249.9</ele>
        <time>2017-07-23T08:47:07Z</time>
      </trkpt>
      <trkpt lat="43.58109" lon="3.3482">
        <ele>250.8</ele>
        <time>2017-07-23T08:47:11Z</time>
      </trkpt>
      <trkpt lat="43.58105" lon="3.34811">
        <ele>251.7</ele>
        <time>2017-07-23T08:47:15Z</time>
      </trkpt>
      <trkpt lat="43.581" lon="3.348">
        <ele>252.7</ele>
        <time>2017-07-23T08:47:19Z</time>
      </trkpt>
      <trkpt lat="43.58097" lon="3.34792">
        <ele>253.5</ele>
        <time>2017-07-23T08:47:22Z</time>
      </trkpt>
      <trkpt lat="43.58092" lon="3.34781">
        <ele>254.3</ele>
        <time>2017-07-23T08:47:26Z</time>
      </trkpt>
      <trkpt lat="43.58086" lon="3.34773">
        <ele>255.2</ele>
        <time>2017-07-23T08:47:30Z</time>
      </trkpt>
      <trkpt lat="43.58081" lon="3.34767">
        <ele>256.9</ele>
        <time>2017-07-23T08:47:37Z</time>
      </trkpt>
      <trkpt lat="43.58076" lon="3.3476">
        <ele>257.9</ele>
        <time>2017-07-23T08:47:41Z</time>
      </trkpt>
      <trkpt lat="43.58071" lon="3.3477">
        <ele>259.4</ele>
        <time>2017-07-23T08:47:52Z</time>
      </trkpt>
      <trkpt lat="43.58073" lon="3.34781">
        <ele>260</ele>
        <time>2017-07-23T08:47:57Z</time>
      </trkpt>
      <trkpt lat="43.58076" lon="3.34789">
        <ele>260.3</ele>
        <time>2017-07-23T08:48:02Z</time>
      </trkpt>
      <trkpt lat="43.58078" lon="3.34803">
        <ele>261.1</ele>
        <time>2017-07-23T08:48:07Z</time>
      </trkpt>
      <trkpt lat="43.58079" lon="3.34814">
        <ele>261.8</ele>
        <time>2017-07-23T08:48:11Z</time>
      </trkpt>
      <trkpt lat="43.5808" lon="3.34824">
        <ele>262.3</ele>
        <time>2017-07-23T08:48:14Z</time>
      </trkpt>
      <trkpt lat="43.58082" lon="3.34834">
        <ele>263.1</ele>
        <time>2017-07-23T08:48:18Z</time>
      </trkpt>
      <trkpt lat="43.58083" lon="3.34846">
        <ele>263.6</ele>
        <time>2017-07-23T08:48:21Z</time>
      </trkpt>
      <trkpt lat="43.58083" lon="3.34859">
        <ele>264</ele>
        <time>2017-07-23T08:48:24Z</time>
      </trkpt>
      <trkpt lat="43.58083" lon="3.34869">
        <ele>264.3</ele>
        <time>2017-07-23T08:48:27Z</time>
      </trkpt>
      <trkpt lat="43.58082" lon="3.3488">
        <ele>264.6</ele>
        <time>2017-07-23T08:48:30Z</time>
      </trkpt>
      <trkpt lat="43.58081" lon="3.3489">
        <ele>265</ele>
        <time>2017-07-23T08:48:33Z</time>
      </trkpt>
      <trkpt lat="43.58079" lon="3.34902">
        <ele>265.4</ele>
        <time>2017-07-23T08:48:36Z</time>
      </trkpt>
      <trkpt lat="43.58078" lon="3.34913">
        <ele>265.7</ele>
        <time>2017-07-23T08:48:39Z</time>
      </trkpt>
      <trkpt lat="43.58075" lon="3.34923">
        <ele>266</ele>
        <time>2017-07-23T08:48:42Z</time>
      </trkpt>
      <trkpt lat="43.58071" lon="3.34933">
        <ele>266.4</ele>
        <time>2017-07-23T08:48:45Z</time>
      </trkpt>
      <trkpt lat="43.58068" lon="3.34944">
        <ele>266.9</ele>
        <time>2017-07-23T08:48:48Z</time>
      </trkpt>
      <trkpt lat="43.58064" lon="3.34957">
        <ele>267.3</ele>
        <time>2017-07-23T08:48:51Z</time>
      </trkpt>
      <trkpt lat="43.5806" lon="3.3497">
        <ele>267.5</ele>
        <time>2017-07-23T08:48:54Z</time>
      </trkpt>
      <trkpt lat="43.58057" lon="3.3498">
        <ele>267.6</ele>
        <time>2017-07-23T08:48:56Z</time>
      </trkpt>
      <trkpt lat="43.58052" lon="3.34995">
        <ele>267.9</ele>
        <time>2017-07-23T08:48:59Z</time>
      </trkpt>
      <trkpt lat="43.58048" lon="3.35005">
        <ele>268.3</ele>
        <time>2017-07-23T08:49:02Z</time>
      </trkpt>
      <trkpt lat="43.58045" lon="3.35015">
        <ele>268.8</ele>
        <time>2017-07-23T08:49:05Z</time>
      </trkpt>
      <trkpt lat="43.58041" lon="3.35024">
        <ele>269.7</ele>
        <time>2017-07-23T08:49:09Z</time>
      </trkpt>
      <trkpt lat="43.58037" lon="3.35035">
        <ele>270.7</ele>
        <time>2017-07-23T08:49:13Z</time>
      </trkpt>
      <trkpt lat="43.58033" lon="3.35045">
        <ele>271.2</ele>
        <time>2017-07-23T08:49:16Z</time>
      </trkpt>
      <trkpt lat="43.58029" lon="3.35053">
        <ele>271.7</ele>
        <time>2017-07-23T08:49:19Z</time>
      </trkpt>
      <trkpt lat="43.58024" lon="3.35064">
        <ele>272.2</ele>
        <time>2017-07-23T08:49:23Z</time>
      </trkpt>
      <trkpt lat="43.58022" lon="3.35072">
        <ele>273.1</ele>
        <time>2017-07-23T08:49:30Z</time>
      </trkpt>
      <trkpt lat="43.58022" lon="3.35076">
        <ele>273.7</ele>
        <time>2017-07-23T08:49:37Z</time>
      </trkpt>
      <trkpt lat="43.58023" lon="3.35087">
        <ele>274.6</ele>
        <time>2017-07-23T08:49:44Z</time>
      </trkpt>
      <trkpt lat="43.58026" lon="3.35103">
        <ele>274.8</ele>
        <time>2017-07-23T08:49:46Z</time>
      </trkpt>
      <trkpt lat="43.58031" lon="3.35119">
        <ele>274.2</ele>
        <time>2017-07-23T08:49:48Z</time>
      </trkpt>
      <trkpt lat="43.58033" lon="3.35131">
        <ele>273.1</ele>
        <time>2017-07-23T08:49:50Z</time>
      </trkpt>
      <trkpt lat="43.58032" lon="3.35146">
        <ele>272</ele>
        <time>2017-07-23T08:49:52Z</time>
      </trkpt>
      <trkpt lat="43.58031" lon="3.35156">
        <ele>271.8</ele>
        <time>2017-07-23T08:49:54Z</time>
      </trkpt>
      <trkpt lat="43.58031" lon="3.35169">
        <ele>271.5</ele>
        <time>2017-07-23T08:49:57Z</time>
      </trkpt>
      <trkpt lat="43.5803" lon="3.35183">
        <ele>271.3</ele>
        <time>2017-07-23T08:50:00Z</time>
      </trkpt>
      <trkpt lat="43.5803" lon="3.35193">
        <ele>271</ele>
        <time>2017-07-23T08:50:03Z</time>
      </trkpt>
      <trkpt lat="43.58029" lon="3.35206">
        <ele>270.8</ele>
        <time>2017-07-23T08:50:06Z</time>
      </trkpt>
      <trkpt lat="43.58026" lon="3.35217">
        <ele>270.5</ele>
        <time>2017-07-23T08:50:11Z</time>
      </trkpt>
      <trkpt lat="43.58026" lon="3.3523">
        <ele>270.3</ele>
        <time>2017-07-23T08:50:15Z</time>
      </trkpt>
      <trkpt lat="43.58024" lon="3.35242">
        <ele>270.1</ele>
        <time>2017-07-23T08:50:18Z</time>
      </trkpt>
      <trkpt lat="43.58023" lon="3.35253">
        <ele>269.9</ele>
        <time>2017-07-23T08:50:21Z</time>
      </trkpt>
      <trkpt lat="43.58021" lon="3.35264">
        <ele>269.8</ele>
        <time>2017-07-23T08:50:26Z</time>
      </trkpt>
      <trkpt lat="43.5802" lon="3.35275">
        <ele>269.7</ele>
        <time>2017-07-23T08:50:29Z</time>
      </trkpt>
      <trkpt lat="43.58021" lon="3.35287">
        <ele>269.5</ele>
        <time>2017-07-23T08:50:33Z</time>
      </trkpt>
      <trkpt lat="43.5802" lon="3.35298">
        <ele>269.2</ele>
        <time>2017-07-23T08:50:38Z</time>
      </trkpt>
      <trkpt lat="43.58018" lon="3.3531">
        <ele>269.4</ele>
        <time>2017-07-23T08:50:42Z</time>
      </trkpt>
      <trkpt lat="43.58019" lon="3.35321">
        <ele>269.6</ele>
        <time>2017-07-23T08:50:47Z</time>
      </trkpt>
      <trkpt lat="43.58021" lon="3.35332">
        <ele>270</ele>
        <time>2017-07-23T08:50:52Z</time>
      </trkpt>
      <trkpt lat="43.58021" lon="3.35343">
        <ele>270.5</ele>
        <time>2017-07-23T08:50:58Z</time>
      </trkpt>
      <trkpt lat="43.58021" lon="3.35353">
        <ele>271.1</ele>
        <time>2017-07-23T08:51:03Z</time>
      </trkpt>
      <trkpt lat="43.58023" lon="3.35363">
        <ele>271.9</ele>
        <time>2017-07-23T08:51:07Z</time>
      </trkpt>
      <trkpt lat="43.58023" lon="3.35376">
        <ele>273.1</ele>
        <time>2017-07-23T08:51:13Z</time>
      </trkpt>
      <trkpt lat="43.58024" lon="3.35386">
        <ele>273.8</ele>
        <time>2017-07-23T08:51:17Z</time>
      </trkpt>
      <trkpt lat="43.58026" lon="3.35397">
        <ele>274.4</ele>
        <time>2017-07-23T08:51:22Z</time>
      </trkpt>
      <trkpt lat="43.58026" lon="3.35408">
        <ele>274.7</ele>
        <time>2017-07-23T08:51:26Z</time>
      </trkpt>
      <trkpt lat="43.58027" lon="3.35418">
        <ele>275.3</ele>
        <time>2017-07-23T08:51:30Z</time>
      </trkpt>
      <trkpt lat="43.58025" lon="3.3543">
        <ele>276</ele>
        <time>2017-07-23T08:51:35Z</time>
      </trkpt>
      <trkpt lat="43.5803" lon="3.3544">
        <ele>276.6</ele>
        <time>2017-07-23T08:51:41Z</time>
      </trkpt>
      <trkpt lat="43.5803" lon="3.35452">
        <ele>277.3</ele>
        <time>2017-07-23T08:51:46Z</time>
      </trkpt>
      <trkpt lat="43.58032" lon="3.35463">
        <ele>277.7</ele>
        <time>2017-07-23T08:51:51Z</time>
      </trkpt>
      <trkpt lat="43.58031" lon="3.35474">
        <ele>277.9</ele>
        <time>2017-07-23T08:51:56Z</time>
      </trkpt>
      <trkpt lat="43.5803" lon="3.35484">
        <ele>278.2</ele>
        <time>2017-07-23T08:52:01Z</time>
      </trkpt>
      <trkpt lat="43.58024" lon="3.35494">
        <ele>278.6</ele>
        <time>2017-07-23T08:52:07Z</time>
      </trkpt>
      <trkpt lat="43.5802" lon="3.35502">
        <ele>279.1</ele>
        <time>2017-07-23T08:52:11Z</time>
      </trkpt>
      <trkpt lat="43.58018" lon="3.35513">
        <ele>279.4</ele>
        <time>2017-07-23T08:52:14Z</time>
      </trkpt>
      <trkpt lat="43.58018" lon="3.35525">
        <ele>280</ele>
        <time>2017-07-23T08:52:18Z</time>
      </trkpt>
      <trkpt lat="43.58018" lon="3.35536">
        <ele>280.3</ele>
        <time>2017-07-23T08:52:21Z</time>
      </trkpt>
      <trkpt lat="43.58019" lon="3.35547">
        <ele>280.6</ele>
        <time>2017-07-23T08:52:24Z</time>
      </trkpt>
      <trkpt lat="43.58022" lon="3.3556">
        <ele>281.3</ele>
        <time>2017-07-23T08:52:26Z</time>
      </trkpt>
      <trkpt lat="43.58023" lon="3.35576">
        <ele>280.6</ele>
        <time>2017-07-23T08:52:28Z</time>
      </trkpt>
      <trkpt lat="43.58025" lon="3.35591">
        <ele>279.2</ele>
        <time>2017-07-23T08:52:30Z</time>
      </trkpt>
      <trkpt lat="43.58028" lon="3.35606">
        <ele>279</ele>
        <time>2017-07-23T08:52:33Z</time>
      </trkpt>
      <trkpt lat="43.58028" lon="3.35619">
        <ele>278.8</ele>
        <time>2017-07-23T08:52:36Z</time>
      </trkpt>
      <trkpt lat="43.58028" lon="3.3563">
        <ele>277.1</ele>
        <time>2017-07-23T08:52:38Z</time>
      </trkpt>
      <trkpt lat="43.58025" lon="3.35644">
        <ele>275.1</ele>
        <time>2017-07-23T08:52:40Z</time>
      </trkpt>
      <trkpt lat="43.58022" lon="3.35654">
        <ele>274.8</ele>
        <time>2017-07-23T08:52:42Z</time>
      </trkpt>
      <trkpt lat="43.58022" lon="3.35666">
        <ele>274.6</ele>
        <time>2017-07-23T08:52:44Z</time>
      </trkpt>
      <trkpt lat="43.58021" lon="3.35676">
        <ele>274.3</ele>
        <time>2017-07-23T08:52:46Z</time>
      </trkpt>
      <trkpt lat="43.58018" lon="3.35686">
        <ele>273.5</ele>
        <time>2017-07-23T08:52:50Z</time>
      </trkpt>
      <trkpt lat="43.58018" lon="3.35701">
        <ele>272.7</ele>
        <time>2017-07-23T08:52:53Z</time>
      </trkpt>
      <trkpt lat="43.58015" lon="3.35711">
        <ele>267.4</ele>
        <time>2017-07-23T08:52:55Z</time>
      </trkpt>
      <trkpt lat="43.5801" lon="3.35725">
        <ele>263.5</ele>
        <time>2017-07-23T08:52:57Z</time>
      </trkpt>
      <trkpt lat="43.58006" lon="3.35736">
        <ele>260</ele>
        <time>2017-07-23T08:52:59Z</time>
      </trkpt>
      <trkpt lat="43.58002" lon="3.35749">
        <ele>258.1</ele>
        <time>2017-07-23T08:53:01Z</time>
      </trkpt>
      <trkpt lat="43.57998" lon="3.3576">
        <ele>254.7</ele>
        <time>2017-07-23T08:53:03Z</time>
      </trkpt>
      <trkpt lat="43.57988" lon="3.35766">
        <ele>253.2</ele>
        <time>2017-07-23T08:53:06Z</time>
      </trkpt>
      <trkpt lat="43.57983" lon="3.35776">
        <ele>250.7</ele>
        <time>2017-07-23T08:53:08Z</time>
      </trkpt>
      <trkpt lat="43.57981" lon="3.35787">
        <ele>249.4</ele>
        <time>2017-07-23T08:53:10Z</time>
      </trkpt>
      <trkpt lat="43.57978" lon="3.35798">
        <ele>248.1</ele>
        <time>2017-07-23T08:53:12Z</time>
      </trkpt>
      <trkpt lat="43.57981" lon="3.35809">
        <ele>247.7</ele>
        <time>2017-07-23T08:53:15Z</time>
      </trkpt>
      <trkpt lat="43.5798" lon="3.35822">
        <ele>244.4</ele>
        <time>2017-07-23T08:53:17Z</time>
      </trkpt>
      <trkpt lat="43.57976" lon="3.35837">
        <ele>242</ele>
        <time>2017-07-23T08:53:19Z</time>
      </trkpt>
      <trkpt lat="43.57972" lon="3.35846">
        <ele>241.7</ele>
        <time>2017-07-23T08:53:21Z</time>
      </trkpt>
      <trkpt lat="43.57971" lon="3.35861">
        <ele>240.2</ele>
        <time>2017-07-23T08:53:24Z</time>
      </trkpt>
      <trkpt lat="43.57967" lon="3.35873">
        <ele>237.8</ele>
        <time>2017-07-23T08:53:26Z</time>
      </trkpt>
      <trkpt lat="43.57963" lon="3.35884">
        <ele>237.5</ele>
        <time>2017-07-23T08:53:28Z</time>
      </trkpt>
      <trkpt lat="43.5796" lon="3.35894">
        <ele>237.2</ele>
        <time>2017-07-23T08:53:30Z</time>
      </trkpt>
      <trkpt lat="43.57954" lon="3.35905">
        <ele>234.4</ele>
        <time>2017-07-23T08:53:32Z</time>
      </trkpt>
      <trkpt lat="43.57948" lon="3.35916">
        <ele>231.7</ele>
        <time>2017-07-23T08:53:34Z</time>
      </trkpt>
      <trkpt lat="43.57944" lon="3.35928">
        <ele>229.9</ele>
        <time>2017-07-23T08:53:36Z</time>
      </trkpt>
      <trkpt lat="43.57941" lon="3.35943">
        <ele>228</ele>
        <time>2017-07-23T08:53:38Z</time>
      </trkpt>
      <trkpt lat="43.57938" lon="3.35955">
        <ele>225.9</ele>
        <time>2017-07-23T08:53:40Z</time>
      </trkpt>
      <trkpt lat="43.57934" lon="3.35973">
        <ele>223.4</ele>
        <time>2017-07-23T08:53:42Z</time>
      </trkpt>
      <trkpt lat="43.57929" lon="3.35985">
        <ele>221.9</ele>
        <time>2017-07-23T08:53:44Z</time>
      </trkpt>
      <trkpt lat="43.57925" lon="3.35996">
        <ele>220.3</ele>
        <time>2017-07-23T08:53:46Z</time>
      </trkpt>
      <trkpt lat="43.5792" lon="3.36007">
        <ele>218.8</ele>
        <time>2017-07-23T08:53:48Z</time>
      </trkpt>
      <trkpt lat="43.57915" lon="3.36019">
        <ele>217.2</ele>
        <time>2017-07-23T08:53:50Z</time>
      </trkpt>
      <trkpt lat="43.57908" lon="3.36027">
        <ele>215.9</ele>
        <time>2017-07-23T08:53:52Z</time>
      </trkpt>
      <trkpt lat="43.579" lon="3.36032">
        <ele>215.2</ele>
        <time>2017-07-23T08:53:54Z</time>
      </trkpt>
      <trkpt lat="43.57894" lon="3.36036">
        <ele>213.2</ele>
        <time>2017-07-23T08:53:56Z</time>
      </trkpt>
      <trkpt lat="43.57891" lon="3.36049">
        <ele>211.8</ele>
        <time>2017-07-23T08:53:59Z</time>
      </trkpt>
      <trkpt lat="43.57887" lon="3.36058">
        <ele>211.3</ele>
        <time>2017-07-23T08:54:02Z</time>
      </trkpt>
      <trkpt lat="43.5788" lon="3.36065">
        <ele>210.7</ele>
        <time>2017-07-23T08:54:07Z</time>
      </trkpt>
      <trkpt lat="43.57872" lon="3.36069">
        <ele>209.8</ele>
        <time>2017-07-23T08:54:11Z</time>
      </trkpt>
      <trkpt lat="43.57864" lon="3.36073">
        <ele>208.9</ele>
        <time>2017-07-23T08:54:14Z</time>
      </trkpt>
      <trkpt lat="43.57857" lon="3.36077">
        <ele>207.8</ele>
        <time>2017-07-23T08:54:17Z</time>
      </trkpt>
      <trkpt lat="43.57846" lon="3.36081">
        <ele>203.7</ele>
        <time>2017-07-23T08:54:20Z</time>
      </trkpt>
      <trkpt lat="43.57838" lon="3.36086">
        <ele>197.5</ele>
        <time>2017-07-23T08:54:22Z</time>
      </trkpt>
      <trkpt lat="43.57829" lon="3.36089">
        <ele>195.1</ele>
        <time>2017-07-23T08:54:24Z</time>
      </trkpt>
      <trkpt lat="43.5782" lon="3.36091">
        <ele>191.2</ele>
        <time>2017-07-23T08:54:26Z</time>
      </trkpt>
      <trkpt lat="43.57812" lon="3.36096">
        <ele>189.6</ele>
        <time>2017-07-23T08:54:28Z</time>
      </trkpt>
      <trkpt lat="43.57804" lon="3.361">
        <ele>188.9</ele>
        <time>2017-07-23T08:54:33Z</time>
      </trkpt>
      <trkpt lat="43.57795" lon="3.361">
        <ele>185.5</ele>
        <time>2017-07-23T08:54:35Z</time>
      </trkpt>
      <trkpt lat="43.57786" lon="3.36097">
        <ele>183.4</ele>
        <time>2017-07-23T08:54:37Z</time>
      </trkpt>
      <trkpt lat="43.57778" lon="3.36096">
        <ele>183.2</ele>
        <time>2017-07-23T08:54:39Z</time>
      </trkpt>
      <trkpt lat="43.57768" lon="3.36092">
        <ele>182.8</ele>
        <time>2017-07-23T08:54:42Z</time>
      </trkpt>
      <trkpt lat="43.5776" lon="3.36089">
        <ele>182.5</ele>
        <time>2017-07-23T08:54:45Z</time>
      </trkpt>
      <trkpt lat="43.57753" lon="3.36088">
        <ele>182.3</ele>
        <time>2017-07-23T08:54:49Z</time>
      </trkpt>
      <trkpt lat="43.57745" lon="3.36094">
        <ele>182.3</ele>
        <time>2017-07-23T08:54:52Z</time>
      </trkpt>
      <trkpt lat="43.57739" lon="3.36103">
        <ele>181.6</ele>
        <time>2017-07-23T08:54:54Z</time>
      </trkpt>
      <trkpt lat="43.57733" lon="3.36115">
        <ele>179.6</ele>
        <time>2017-07-23T08:54:56Z</time>
      </trkpt>
      <trkpt lat="43.57728" lon="3.36122">
        <ele>178.7</ele>
        <time>2017-07-23T08:54:57Z</time>
      </trkpt>
      <trkpt lat="43.57722" lon="3.3613">
        <ele>178</ele>
        <time>2017-07-23T08:54:58Z</time>
      </trkpt>
      <trkpt lat="43.57715" lon="3.36137">
        <ele>177.2</ele>
        <time>2017-07-23T08:54:59Z</time>
      </trkpt>
      <trkpt lat="43.57709" lon="3.36145">
        <ele>176.4</ele>
        <time>2017-07-23T08:55:00Z</time>
      </trkpt>
      <trkpt lat="43.57704" lon="3.36151">
        <ele>175.4</ele>
        <time>2017-07-23T08:55:01Z</time>
      </trkpt>
      <trkpt lat="43.57697" lon="3.36157">
        <ele>174.2</ele>
        <time>2017-07-23T08:55:02Z</time>
      </trkpt>
      <trkpt lat="43.57685" lon="3.36168">
        <ele>172.2</ele>
        <time>2017-07-23T08:55:04Z</time>
      </trkpt>
      <trkpt lat="43.57679" lon="3.36175">
        <ele>171.4</ele>
        <time>2017-07-23T08:55:06Z</time>
      </trkpt>
      <trkpt lat="43.57673" lon="3.36186">
        <ele>171.3</ele>
        <time>2017-07-23T08:55:10Z</time>
      </trkpt>
      <trkpt lat="43.57675" lon="3.36197">
        <ele>171.1</ele>
        <time>2017-07-23T08:55:13Z</time>
      </trkpt>
      <trkpt lat="43.57676" lon="3.36211">
        <ele>171.1</ele>
        <time>2017-07-23T08:55:16Z</time>
      </trkpt>
      <trkpt lat="43.5768" lon="3.3622">
        <ele>171.4</ele>
        <time>2017-07-23T08:55:18Z</time>
      </trkpt>
      <trkpt lat="43.57683" lon="3.3623">
        <ele>171.1</ele>
        <time>2017-07-23T08:55:20Z</time>
      </trkpt>
      <trkpt lat="43.57685" lon="3.36241">
        <ele>170.4</ele>
        <time>2017-07-23T08:55:22Z</time>
      </trkpt>
      <trkpt lat="43.57689" lon="3.36254">
        <ele>169.4</ele>
        <time>2017-07-23T08:55:24Z</time>
      </trkpt>
      <trkpt lat="43.57694" lon="3.36271">
        <ele>167.8</ele>
        <time>2017-07-23T08:55:26Z</time>
      </trkpt>
      <trkpt lat="43.577" lon="3.36278">
        <ele>167.4</ele>
        <time>2017-07-23T08:55:27Z</time>
      </trkpt>
      <trkpt lat="43.57703" lon="3.36287">
        <ele>166.6</ele>
        <time>2017-07-23T08:55:28Z</time>
      </trkpt>
      <trkpt lat="43.57708" lon="3.36294">
        <ele>165.1</ele>
        <time>2017-07-23T08:55:29Z</time>
      </trkpt>
      <trkpt lat="43.57715" lon="3.363">
        <ele>164.2</ele>
        <time>2017-07-23T08:55:30Z</time>
      </trkpt>
      <trkpt lat="43.57727" lon="3.36308">
        <ele>162.9</ele>
        <time>2017-07-23T08:55:32Z</time>
      </trkpt>
      <trkpt lat="43.57739" lon="3.36309">
        <ele>161.9</ele>
        <time>2017-07-23T08:55:34Z</time>
      </trkpt>
      <trkpt lat="43.57742" lon="3.36295">
        <ele>161.8</ele>
        <time>2017-07-23T08:55:37Z</time>
      </trkpt>
      <trkpt lat="43.57736" lon="3.36285">
        <ele>161.9</ele>
        <time>2017-07-23T08:55:40Z</time>
      </trkpt>
      <trkpt lat="43.57733" lon="3.36274">
        <ele>162.3</ele>
        <time>2017-07-23T08:55:43Z</time>
      </trkpt>
      <trkpt lat="43.57733" lon="3.36264">
        <ele>163.1</ele>
        <time>2017-07-23T08:55:47Z</time>
      </trkpt>
      <trkpt lat="43.57735" lon="3.36257">
        <ele>164.4</ele>
        <time>2017-07-23T08:55:54Z</time>
      </trkpt>
    </trkseg>
  </trk>
</gpx>